<?xml version='1.0' encoding='UTF-8'?><gpx version="1.1" creator="JPX - https://github.com/jenetics/jpx" xmlns="http://www.topografix.com/GPX/1/1"><trk><trkseg><trkpt lat="45.77302692674315" lon="3.104079397433028"><ele>348.6</ele><time>2026-04-11T12:07:04Z</time></trkpt><trkpt lat="45.77310084588128" lon="3.104146232716968"><ele>348.2</ele><time>2026-04-11T12:07:06Z</time></trkpt><trkpt lat="45.77320565222545" lon="3.1041714832988987"><ele>347.8</ele><time>2026-04-11T12:07:08Z</time></trkpt><trkpt lat="45.773270544849396" lon="3.1041562682042176"><ele>347.40000000000003</ele><time>2026-04-11T12:07:09Z</time></trkpt><trkpt lat="45.77335892980986" lon="3.104232403538789"><ele>347.0</ele><time>2026-04-11T12:07:11Z</time></trkpt><trkpt lat="45.77344846984914" lon="3.104341707300249"><ele>347.0</ele><time>2026-04-11T12:07:12.999Z</time></trkpt><trkpt lat="45.773510392412796" lon="3.1044872386846794"><ele>347.0</ele><time>2026-04-11T12:07:14.999Z</time></trkpt><trkpt lat="45.773530687041294" lon="3.104580143573503"><ele>347.0</ele><time>2026-04-11T12:07:15.999Z</time></trkpt><trkpt lat="45.77355655221634" lon="3.1046701576566207"><ele>347.0</ele><time>2026-04-11T12:07:16.999Z</time></trkpt><trkpt lat="45.7735724329553" lon="3.1047584258167684"><ele>347.0</ele><time>2026-04-11T12:07:17.999Z</time></trkpt><trkpt lat="45.77360096890569" lon="3.1048407809689698"><ele>347.0</ele><time>2026-04-11T12:07:18.999Z</time></trkpt><trkpt lat="45.77362636745246" lon="3.1049310520781024"><ele>347.0</ele><time>2026-04-11T12:07:19.999Z</time></trkpt><trkpt lat="45.773654869951024" lon="3.105024998723484"><ele>347.0</ele><time>2026-04-11T12:07:20.999Z</time></trkpt><trkpt lat="45.77368012513196" lon="3.1051114196515766"><ele>347.0</ele><time>2026-04-11T12:07:21.999Z</time></trkpt><trkpt lat="45.773706394775694" lon="3.1051977994409605"><ele>347.0</ele><time>2026-04-11T12:07:22.999Z</time></trkpt><trkpt lat="45.77373533884198" lon="3.1052911384468795"><ele>347.0</ele><time>2026-04-11T12:07:23.999Z</time></trkpt><trkpt lat="45.773759282128324" lon="3.1053828988357064"><ele>347.0</ele><time>2026-04-11T12:07:24.999Z</time></trkpt><trkpt lat="45.773785932613336" lon="3.105474451716937"><ele>347.0</ele><time>2026-04-11T12:07:25.999Z</time></trkpt><trkpt lat="45.77381708897004" lon="3.105567503680793"><ele>347.0</ele><time>2026-04-11T12:07:26.999Z</time></trkpt><trkpt lat="45.773837269747666" lon="3.1056613274262994"><ele>347.0</ele><time>2026-04-11T12:07:27.999Z</time></trkpt><trkpt lat="45.773859532906464" lon="3.105757197710399"><ele>347.0</ele><time>2026-04-11T12:07:28.999Z</time></trkpt><trkpt lat="45.7739218855167" lon="3.1059280086325782"><ele>347.0</ele><time>2026-04-11T12:07:30.999Z</time></trkpt><trkpt lat="45.773939539248595" lon="3.1060168945599282"><ele>347.0</ele><time>2026-04-11T12:07:31.999Z</time></trkpt><trkpt lat="45.773964447666515" lon="3.1061012980503504"><ele>347.0</ele><time>2026-04-11T12:07:32.999Z</time></trkpt><trkpt lat="45.77401173013133" lon="3.1062644315105787"><ele>346.5714285714286</ele><time>2026-04-11T12:07:34.999Z</time></trkpt><trkpt lat="45.7740327592177" lon="3.1063501320966167"><ele>346.1428571428571</ele><time>2026-04-11T12:07:35.999Z</time></trkpt><trkpt lat="45.77405906642741" lon="3.1064340586300645"><ele>345.7142857142857</ele><time>2026-04-11T12:07:36.999Z</time></trkpt><trkpt lat="45.77408377659147" lon="3.1065244682875393"><ele>345.28571428571433</ele><time>2026-04-11T12:07:37.999Z</time></trkpt><trkpt lat="45.77411332192925" lon="3.106616594283452"><ele>344.8571428571429</ele><time>2026-04-11T12:07:38.999Z</time></trkpt><trkpt lat="45.77413801078762" lon="3.1067021836700253"><ele>344.42857142857144</ele><time>2026-04-11T12:07:40Z</time></trkpt><trkpt lat="45.77415908112605" lon="3.106797400140992"><ele>344.0</ele><time>2026-04-11T12:07:41Z</time></trkpt><trkpt lat="45.77421140036282" lon="3.1069546864374287"><ele>343.6666666666667</ele><time>2026-04-11T12:07:43Z</time></trkpt><trkpt lat="45.77423390036187" lon="3.1070393935003504"><ele>343.33333333333337</ele><time>2026-04-11T12:07:44Z</time></trkpt><trkpt lat="45.774284031366676" lon="3.107209191412536"><ele>343.0</ele><time>2026-04-11T12:07:46Z</time></trkpt><trkpt lat="45.77431189935161" lon="3.107294435321526"><ele>342.6666666666667</ele><time>2026-04-11T12:07:47Z</time></trkpt><trkpt lat="45.77433914642637" lon="3.1073772114973752"><ele>342.3333333333333</ele><time>2026-04-11T12:07:48Z</time></trkpt><trkpt lat="45.77436221872521" lon="3.107465910145268"><ele>342.0</ele><time>2026-04-11T12:07:49Z</time></trkpt><trkpt lat="45.77441263953997" lon="3.10763378550234"><ele>342.0</ele><time>2026-04-11T12:07:51Z</time></trkpt><trkpt lat="45.77446696772044" lon="3.107795644657767"><ele>342.0</ele><time>2026-04-11T12:07:53Z</time></trkpt><trkpt lat="45.774510766586346" lon="3.1079660769175947"><ele>342.0</ele><time>2026-04-11T12:07:55Z</time></trkpt><trkpt lat="45.774535163264" lon="3.1080518036609694"><ele>342.0</ele><time>2026-04-11T12:07:56Z</time></trkpt><trkpt lat="45.77456281345818" lon="3.108135337288792"><ele>342.0</ele><time>2026-04-11T12:07:57Z</time></trkpt><trkpt lat="45.77458760470063" lon="3.1082194709427897"><ele>342.0</ele><time>2026-04-11T12:07:58Z</time></trkpt><trkpt lat="45.77461047228266" lon="3.1083046026921703"><ele>341.99999999999994</ele><time>2026-04-11T12:07:59Z</time></trkpt><trkpt lat="45.7746347083709" lon="3.1083889401921194"><ele>342.0</ele><time>2026-04-11T12:08:00Z</time></trkpt><trkpt lat="45.77466237680375" lon="3.108473629114817"><ele>342.0</ele><time>2026-04-11T12:08:01Z</time></trkpt><trkpt lat="45.77468375973762" lon="3.1085604357240193"><ele>342.0</ele><time>2026-04-11T12:08:02Z</time></trkpt><trkpt lat="45.77470732799471" lon="3.1086458447382044"><ele>342.0</ele><time>2026-04-11T12:08:03Z</time></trkpt><trkpt lat="45.77473390776535" lon="3.108729046656547"><ele>341.99999999999994</ele><time>2026-04-11T12:08:04Z</time></trkpt><trkpt lat="45.774759371363174" lon="3.1088121631527845"><ele>342.0</ele><time>2026-04-11T12:08:05Z</time></trkpt><trkpt lat="45.774802368194024" lon="3.1089659321310665"><ele>341.5</ele><time>2026-04-11T12:08:07Z</time></trkpt><trkpt lat="45.774836736705666" lon="3.109086913395098"><ele>341.0</ele><time>2026-04-11T12:08:09Z</time></trkpt><trkpt lat="45.774873249876364" lon="3.109183843670837"><ele>340.5</ele><time>2026-04-11T12:08:11Z</time></trkpt><trkpt lat="45.77490259770399" lon="3.109277847281653"><ele>340.0</ele><time>2026-04-11T12:08:13Z</time></trkpt><trkpt lat="45.77493182930797" lon="3.1093936851322836"><ele>339.5</ele><time>2026-04-11T12:08:15Z</time></trkpt><trkpt lat="45.77495471889372" lon="3.10951999900013"><ele>339.0</ele><time>2026-04-11T12:08:17Z</time></trkpt><trkpt lat="45.77499426876485" lon="3.1096477426095195"><ele>339.0</ele><time>2026-04-11T12:08:19Z</time></trkpt><trkpt lat="45.775029535664274" lon="3.1097738328448545"><ele>339.0</ele><time>2026-04-11T12:08:21Z</time></trkpt><trkpt lat="45.775062511801" lon="3.109899471114907"><ele>339.0</ele><time>2026-04-11T12:08:23Z</time></trkpt><trkpt lat="45.77510378815513" lon="3.1100299228056154"><ele>339.0</ele><time>2026-04-11T12:08:25Z</time></trkpt><trkpt lat="45.77514126126169" lon="3.11017074680906"><ele>339.0</ele><time>2026-04-11T12:08:27Z</time></trkpt><trkpt lat="45.775188022019385" lon="3.1103212446451427"><ele>339.5</ele><time>2026-04-11T12:08:29Z</time></trkpt><trkpt lat="45.77523413067526" lon="3.110465469023226"><ele>340.0</ele><time>2026-04-11T12:08:31Z</time></trkpt><trkpt lat="45.775275947960566" lon="3.11062070355613"><ele>340.5</ele><time>2026-04-11T12:08:33Z</time></trkpt><trkpt lat="45.77532444825989" lon="3.1107760607593615"><ele>341.0</ele><time>2026-04-11T12:08:35Z</time></trkpt><trkpt lat="45.77537612490857" lon="3.1109303442328184"><ele>341.0</ele><time>2026-04-11T12:08:37Z</time></trkpt><trkpt lat="45.775439464023755" lon="3.11108202432648"><ele>341.0</ele><time>2026-04-11T12:08:39Z</time></trkpt><trkpt lat="45.77550496201583" lon="3.1112304998098184"><ele>341.0</ele><time>2026-04-11T12:08:41Z</time></trkpt><trkpt lat="45.775579326808625" lon="3.111368361683354"><ele>341.0</ele><time>2026-04-11T12:08:43Z</time></trkpt><trkpt lat="45.77566492039743" lon="3.111499741074771"><ele>341.0</ele><time>2026-04-11T12:08:45Z</time></trkpt><trkpt lat="45.77571219161546" lon="3.1115671291165157"><ele>341.0</ele><time>2026-04-11T12:08:46Z</time></trkpt><trkpt lat="45.77579841581109" lon="3.1116924317330144"><ele>341.0</ele><time>2026-04-11T12:08:48Z</time></trkpt><trkpt lat="45.77588773316742" lon="3.1118213222824433"><ele>341.0</ele><time>2026-04-11T12:08:50Z</time></trkpt><trkpt lat="45.775932678869296" lon="3.111890909614629"><ele>341.0</ele><time>2026-04-11T12:08:51Z</time></trkpt><trkpt lat="45.77601358224356" lon="3.1120263954536385"><ele>340.8</ele><time>2026-04-11T12:08:53Z</time></trkpt><trkpt lat="45.77606204507445" lon="3.1120895323363325"><ele>340.6</ele><time>2026-04-11T12:08:54Z</time></trkpt><trkpt lat="45.77614443369599" lon="3.112226110744731"><ele>340.4</ele><time>2026-04-11T12:08:55.999Z</time></trkpt><trkpt lat="45.77623119144184" lon="3.112356692382795"><ele>340.2</ele><time>2026-04-11T12:08:57.999Z</time></trkpt><trkpt lat="45.77627662268716" lon="3.112428557661039"><ele>340.0</ele><time>2026-04-11T12:08:58.999Z</time></trkpt><trkpt lat="45.77640798081725" lon="3.112632108918546"><ele>340.0</ele><time>2026-04-11T12:09:01.999Z</time></trkpt><trkpt lat="45.77651113197632" lon="3.11273699566264"><ele>340.0</ele><time>2026-04-11T12:09:03.999Z</time></trkpt><trkpt lat="45.77656315069467" lon="3.1128057852443107"><ele>340.0</ele><time>2026-04-11T12:09:04.999Z</time></trkpt><trkpt lat="45.776676627611685" lon="3.112895666770602"><ele>340.0</ele><time>2026-04-11T12:09:06.999Z</time></trkpt><trkpt lat="45.77673587817963" lon="3.112933889707144"><ele>340.0</ele><time>2026-04-11T12:09:07.999Z</time></trkpt><trkpt lat="45.77679665746862" lon="3.112964952000224"><ele>340.16666666666663</ele><time>2026-04-11T12:09:08.999Z</time></trkpt><trkpt lat="45.77686205462321" lon="3.112992372498711"><ele>340.3333333333333</ele><time>2026-04-11T12:09:09.999Z</time></trkpt><trkpt lat="45.77696742767106" lon="3.1129784839625207"><ele>340.5</ele><time>2026-04-11T12:09:11.999Z</time></trkpt><trkpt lat="45.77703370132698" lon="3.112944602812128"><ele>340.6666666666667</ele><time>2026-04-11T12:09:13.999Z</time></trkpt><trkpt lat="45.777091833610065" lon="3.1130415082548875"><ele>340.83333333333337</ele><time>2026-04-11T12:09:15.999Z</time></trkpt><trkpt lat="45.77711916921216" lon="3.1131903952424826"><ele>341.0</ele><time>2026-04-11T12:09:17.999Z</time></trkpt><trkpt lat="45.77716470496091" lon="3.113337018774515"><ele>341.25</ele><time>2026-04-11T12:09:19.999Z</time></trkpt><trkpt lat="45.777208067140265" lon="3.1134862552808897"><ele>341.5</ele><time>2026-04-11T12:09:21.999Z</time></trkpt><trkpt lat="45.777264063333305" lon="3.1136165933394704"><ele>341.75</ele><time>2026-04-11T12:09:23.999Z</time></trkpt><trkpt lat="45.777314884422395" lon="3.113772916830399"><ele>342.0</ele><time>2026-04-11T12:09:25.999Z</time></trkpt><trkpt lat="45.77736703709643" lon="3.1139321444180634"><ele>341.40000000000003</ele><time>2026-04-11T12:09:27.999Z</time></trkpt><trkpt lat="45.77739511125391" lon="3.1140955350284822"><ele>340.8</ele><time>2026-04-11T12:09:29.999Z</time></trkpt><trkpt lat="45.77743555008767" lon="3.114172725909397"><ele>340.2</ele><time>2026-04-11T12:09:30.999Z</time></trkpt><trkpt lat="45.777490715916905" lon="3.1143320765041476"><ele>339.6</ele><time>2026-04-11T12:09:32.999Z</time></trkpt><trkpt lat="45.77754609712509" lon="3.114487920639999"><ele>339.0</ele><time>2026-04-11T12:09:34.999Z</time></trkpt><trkpt lat="45.77758064712895" lon="3.1145667578924985"><ele>339.0</ele><time>2026-04-11T12:09:35.999Z</time></trkpt><trkpt lat="45.77763631358049" lon="3.1147273799610042"><ele>339.0</ele><time>2026-04-11T12:09:37.999Z</time></trkpt><trkpt lat="45.77769539058756" lon="3.1148893646824547"><ele>339.0</ele><time>2026-04-11T12:09:39.999Z</time></trkpt><trkpt lat="45.777775698482564" lon="3.1151273467255054"><ele>339.0</ele><time>2026-04-11T12:09:42.999Z</time></trkpt><trkpt lat="45.77780441915008" lon="3.115208061211331"><ele>339.0</ele><time>2026-04-11T12:09:43.999Z</time></trkpt><trkpt lat="45.7778339695728" lon="3.115288116595094"><ele>339.0</ele><time>2026-04-11T12:09:44.999Z</time></trkpt><trkpt lat="45.777888115200334" lon="3.1154395298473627"><ele>339.0</ele><time>2026-04-11T12:09:47Z</time></trkpt><trkpt lat="45.777912595169944" lon="3.1155240137936473"><ele>339.0</ele><time>2026-04-11T12:09:48Z</time></trkpt><trkpt lat="45.77794197013596" lon="3.1156049766370257"><ele>339.0</ele><time>2026-04-11T12:09:49Z</time></trkpt><trkpt lat="45.778005442383204" lon="3.1157533258058434"><ele>339.0</ele><time>2026-04-11T12:09:51Z</time></trkpt><trkpt lat="45.778049516943156" lon="3.115820996579228"><ele>339.0</ele><time>2026-04-11T12:09:52Z</time></trkpt><trkpt lat="45.77814212980449" lon="3.115947447520064"><ele>339.0</ele><time>2026-04-11T12:09:54Z</time></trkpt><trkpt lat="45.77818630210471" lon="3.116014149627015"><ele>339.0</ele><time>2026-04-11T12:09:55Z</time></trkpt><trkpt lat="45.778272934007894" lon="3.116134447277216"><ele>339.0</ele><time>2026-04-11T12:09:57Z</time></trkpt><trkpt lat="45.778368128379256" lon="3.116251867179196"><ele>339.0</ele><time>2026-04-11T12:09:59Z</time></trkpt><trkpt lat="45.77845187256767" lon="3.1163623068805597"><ele>339.0</ele><time>2026-04-11T12:10:01Z</time></trkpt><trkpt lat="45.77853448750903" lon="3.1164681525722138"><ele>339.0</ele><time>2026-04-11T12:10:03Z</time></trkpt><trkpt lat="45.778608241529156" lon="3.1165607625446317"><ele>339.0</ele><time>2026-04-11T12:10:05Z</time></trkpt><trkpt lat="45.778655395186384" lon="3.1166351640971963"><ele>339.0</ele><time>2026-04-11T12:10:07Z</time></trkpt><trkpt lat="45.77865991469771" lon="3.1167403608490862"><ele>339.0</ele><time>2026-04-11T12:10:12Z</time></trkpt><trkpt lat="45.77866572264289" lon="3.1168584161586743"><ele>339.0</ele><time>2026-04-11T12:10:15Z</time></trkpt><trkpt lat="45.778643777672094" lon="3.116954938182631"><ele>339.0</ele><time>2026-04-11T12:10:17Z</time></trkpt><trkpt lat="45.778751501389124" lon="3.1171590953300043"><ele>339.0</ele><time>2026-04-11T12:10:20Z</time></trkpt><trkpt lat="45.77885057940422" lon="3.117178561201519"><ele>339.0</ele><time>2026-04-11T12:10:22Z</time></trkpt><trkpt lat="45.77894741610658" lon="3.1171975564751015"><ele>339.0</ele><time>2026-04-11T12:10:24Z</time></trkpt><trkpt lat="45.77904265699641" lon="3.1172161975106487"><ele>339.0</ele><time>2026-04-11T12:10:26Z</time></trkpt><trkpt lat="45.779141716097584" lon="3.117242435136541"><ele>339.0</ele><time>2026-04-11T12:10:28Z</time></trkpt><trkpt lat="45.77925160438797" lon="3.117270233572909"><ele>339.0</ele><time>2026-04-11T12:10:30Z</time></trkpt><trkpt lat="45.77936351890537" lon="3.1172989528764625"><ele>339.0</ele><time>2026-04-11T12:10:32Z</time></trkpt><trkpt lat="45.77946981347937" lon="3.1173258590741786"><ele>339.0</ele><time>2026-04-11T12:10:34Z</time></trkpt><trkpt lat="45.779576357285954" lon="3.1173523025338055"><ele>339.0</ele><time>2026-04-11T12:10:36Z</time></trkpt><trkpt lat="45.77968739619874" lon="3.117379780822423"><ele>339.0</ele><time>2026-04-11T12:10:38Z</time></trkpt><trkpt lat="45.77980291308732" lon="3.117407469842653"><ele>339.0</ele><time>2026-04-11T12:10:40Z</time></trkpt><trkpt lat="45.77990820704358" lon="3.1174332371106166"><ele>339.0</ele><time>2026-04-11T12:10:42Z</time></trkpt><trkpt lat="45.78003372371913" lon="3.117463964178515"><ele>339.0</ele><time>2026-04-11T12:10:44Z</time></trkpt><trkpt lat="45.780096153801374" lon="3.117479247312266"><ele>339.0</ele><time>2026-04-11T12:10:45Z</time></trkpt><trkpt lat="45.78015858502363" lon="3.117495374501705"><ele>339.0</ele><time>2026-04-11T12:10:46Z</time></trkpt><trkpt lat="45.78022170849983" lon="3.1175111737743793"><ele>339.0</ele><time>2026-04-11T12:10:47Z</time></trkpt><trkpt lat="45.780285197575964" lon="3.117527064527328"><ele>339.0</ele><time>2026-04-11T12:10:48Z</time></trkpt><trkpt lat="45.780411604681895" lon="3.117558778963867"><ele>339.0</ele><time>2026-04-11T12:10:50Z</time></trkpt><trkpt lat="45.78047460990545" lon="3.117574370578036"><ele>339.0</ele><time>2026-04-11T12:10:51Z</time></trkpt><trkpt lat="45.780537427288394" lon="3.1175895804148714"><ele>338.85714285714283</ele><time>2026-04-11T12:10:52Z</time></trkpt><trkpt lat="45.78060185020962" lon="3.11760757573342"><ele>338.7142857142857</ele><time>2026-04-11T12:10:53Z</time></trkpt><trkpt lat="45.780667837956734" lon="3.117626008165299"><ele>338.57142857142856</ele><time>2026-04-11T12:10:54Z</time></trkpt><trkpt lat="45.780735276256515" lon="3.1176448457856027"><ele>338.42857142857144</ele><time>2026-04-11T12:10:55Z</time></trkpt><trkpt lat="45.78080413312198" lon="3.1176640796518966"><ele>338.2857142857143</ele><time>2026-04-11T12:10:56Z</time></trkpt><trkpt lat="45.78087043788586" lon="3.1176826006320324"><ele>338.14285714285717</ele><time>2026-04-11T12:10:57Z</time></trkpt><trkpt lat="45.78093612462629" lon="3.1177009489532646"><ele>338.0</ele><time>2026-04-11T12:10:58Z</time></trkpt><trkpt lat="45.78099948392136" lon="3.117722112913319"><ele>338.0</ele><time>2026-04-11T12:10:59Z</time></trkpt><trkpt lat="45.78106480695102" lon="3.1177430062642832"><ele>338.0</ele><time>2026-04-11T12:11:00Z</time></trkpt><trkpt lat="45.78113047550359" lon="3.1177640101301796"><ele>338.0</ele><time>2026-04-11T12:11:01Z</time></trkpt><trkpt lat="45.781196708861835" lon="3.117785170413967"><ele>338.0</ele><time>2026-04-11T12:11:02Z</time></trkpt><trkpt lat="45.781261547850306" lon="3.1178058757250926"><ele>338.0</ele><time>2026-04-11T12:11:03Z</time></trkpt><trkpt lat="45.781323145874204" lon="3.117826354436966"><ele>338.0</ele><time>2026-04-11T12:11:04Z</time></trkpt><trkpt lat="45.78138456959307" lon="3.1178470192939125"><ele>338.0</ele><time>2026-04-11T12:11:05Z</time></trkpt><trkpt lat="45.781504745333635" lon="3.117891642243213"><ele>338.0</ele><time>2026-04-11T12:11:07Z</time></trkpt><trkpt lat="45.7815939177513" lon="3.1179243828517693"><ele>338.0</ele><time>2026-04-11T12:11:09Z</time></trkpt><trkpt lat="45.78165584125562" lon="3.117947118731466"><ele>338.0</ele><time>2026-04-11T12:11:11Z</time></trkpt><trkpt lat="45.78171802543965" lon="3.1179699503241705"><ele>338.0</ele><time>2026-04-11T12:11:12Z</time></trkpt><trkpt lat="45.781833440735845" lon="3.1180110921324875"><ele>338.0</ele><time>2026-04-11T12:11:14Z</time></trkpt><trkpt lat="45.78194127244789" lon="3.118047952150257"><ele>338.0</ele><time>2026-04-11T12:11:16Z</time></trkpt><trkpt lat="45.782050233932075" lon="3.1180858184880162"><ele>338.0</ele><time>2026-04-11T12:11:18Z</time></trkpt><trkpt lat="45.782151241276736" lon="3.1181206683104885"><ele>338.0</ele><time>2026-04-11T12:11:19.999Z</time></trkpt><trkpt lat="45.78221271027247" lon="3.118141492879061"><ele>338.0</ele><time>2026-04-11T12:11:20.999Z</time></trkpt><trkpt lat="45.782330147638646" lon="3.118185699829795"><ele>338.0</ele><time>2026-04-11T12:11:22.999Z</time></trkpt><trkpt lat="45.78243779354138" lon="3.1182235880269324"><ele>337.5</ele><time>2026-04-11T12:11:24.999Z</time></trkpt><trkpt lat="45.782553420948794" lon="3.118265487448317"><ele>337.0</ele><time>2026-04-11T12:11:26.999Z</time></trkpt><trkpt lat="45.782673997691525" lon="3.1183091803792924"><ele>336.5</ele><time>2026-04-11T12:11:28.999Z</time></trkpt><trkpt lat="45.78278709220985" lon="3.118350162007657"><ele>336.0</ele><time>2026-04-11T12:11:30.999Z</time></trkpt><trkpt lat="45.78290915804873" lon="3.1183939627992383"><ele>336.0</ele><time>2026-04-11T12:11:32.999Z</time></trkpt><trkpt lat="45.78297262268359" lon="3.1184163966379446"><ele>336.0</ele><time>2026-04-11T12:11:33.999Z</time></trkpt><trkpt lat="45.783093534380114" lon="3.118459382216576"><ele>336.0</ele><time>2026-04-11T12:11:35.999Z</time></trkpt><trkpt lat="45.783211806716224" lon="3.118501293707571"><ele>336.0</ele><time>2026-04-11T12:11:37.999Z</time></trkpt><trkpt lat="45.783273875164475" lon="3.1185233556662366"><ele>336.0</ele><time>2026-04-11T12:11:38.999Z</time></trkpt><trkpt lat="45.783335282632976" lon="3.1185451826736403"><ele>336.0</ele><time>2026-04-11T12:11:39.999Z</time></trkpt><trkpt lat="45.78345352280209" lon="3.1185872106156127"><ele>336.4</ele><time>2026-04-11T12:11:41.999Z</time></trkpt><trkpt lat="45.78351800840118" lon="3.118610145615948"><ele>336.8</ele><time>2026-04-11T12:11:42.999Z</time></trkpt><trkpt lat="45.7836385090069" lon="3.1186532784464207"><ele>337.2</ele><time>2026-04-11T12:11:44.999Z</time></trkpt><trkpt lat="45.783760154341714" lon="3.1186970210006266"><ele>337.59999999999997</ele><time>2026-04-11T12:11:46.999Z</time></trkpt><trkpt lat="45.78388406701825" lon="3.1187416388447926"><ele>338.0</ele><time>2026-04-11T12:11:48.999Z</time></trkpt><trkpt lat="45.78394715247454" lon="3.1187643543394046"><ele>338.0</ele><time>2026-04-11T12:11:49.999Z</time></trkpt><trkpt lat="45.784069828110425" lon="3.1188085267511996"><ele>338.0</ele><time>2026-04-11T12:11:52Z</time></trkpt><trkpt lat="45.784194808748175" lon="3.118853529147617"><ele>338.0</ele><time>2026-04-11T12:11:54Z</time></trkpt><trkpt lat="45.78431698402358" lon="3.1188974895636656"><ele>338.0</ele><time>2026-04-11T12:11:56Z</time></trkpt><trkpt lat="45.78443537882109" lon="3.1189393496670874"><ele>338.1666666666667</ele><time>2026-04-11T12:11:58Z</time></trkpt><trkpt lat="45.784497902544" lon="3.1189614557838454"><ele>338.33333333333337</ele><time>2026-04-11T12:11:59Z</time></trkpt><trkpt lat="45.784560470656785" lon="3.1189835775996486"><ele>338.5</ele><time>2026-04-11T12:12:00Z</time></trkpt><trkpt lat="45.78468020853905" lon="3.119025912571062"><ele>338.6666666666667</ele><time>2026-04-11T12:12:02Z</time></trkpt><trkpt lat="45.78474237074824" lon="3.1190478908730306"><ele>338.8333333333333</ele><time>2026-04-11T12:12:03Z</time></trkpt><trkpt lat="45.78486354653894" lon="3.119089633753081"><ele>339.0</ele><time>2026-04-11T12:12:05Z</time></trkpt><trkpt lat="45.784982839678186" lon="3.119131900698224"><ele>339.0</ele><time>2026-04-11T12:12:07Z</time></trkpt><trkpt lat="45.7850444648585" lon="3.1191538064478483"><ele>339.0</ele><time>2026-04-11T12:12:08Z</time></trkpt><trkpt lat="45.78516088931553" lon="3.1191951915583043"><ele>339.0</ele><time>2026-04-11T12:12:10Z</time></trkpt><trkpt lat="45.785271154605255" lon="3.1192409662600866"><ele>339.0</ele><time>2026-04-11T12:12:12Z</time></trkpt><trkpt lat="45.785388256278715" lon="3.1192978398654345"><ele>339.0</ele><time>2026-04-11T12:12:14Z</time></trkpt><trkpt lat="45.785451717862166" lon="3.1193242022554353"><ele>339.2</ele><time>2026-04-11T12:12:15Z</time></trkpt><trkpt lat="45.7855164540769" lon="3.1193473021242664"><ele>339.4</ele><time>2026-04-11T12:12:16Z</time></trkpt><trkpt lat="45.785635631446674" lon="3.119389810519682"><ele>339.6</ele><time>2026-04-11T12:12:18Z</time></trkpt><trkpt lat="45.78575896618614" lon="3.1194322699287973"><ele>339.8</ele><time>2026-04-11T12:12:20Z</time></trkpt><trkpt lat="45.78587916838454" lon="3.11947357002823"><ele>340.0</ele><time>2026-04-11T12:12:22Z</time></trkpt><trkpt lat="45.785942629980866" lon="3.119495826164632"><ele>340.0</ele><time>2026-04-11T12:12:23Z</time></trkpt><trkpt lat="45.78600424041361" lon="3.1195181543168333"><ele>340.0</ele><time>2026-04-11T12:12:24Z</time></trkpt><trkpt lat="45.786065806150084" lon="3.1195404662587345"><ele>340.0</ele><time>2026-04-11T12:12:25Z</time></trkpt><trkpt lat="45.7861775686241" lon="3.1195809699414827"><ele>340.0</ele><time>2026-04-11T12:12:27Z</time></trkpt><trkpt lat="45.7862873688849" lon="3.1196207624890233"><ele>340.0</ele><time>2026-04-11T12:12:29Z</time></trkpt><trkpt lat="45.78639287847256" lon="3.119659000051351"><ele>340.4</ele><time>2026-04-11T12:12:31Z</time></trkpt><trkpt lat="45.78649839607807" lon="3.119697240526738"><ele>340.8</ele><time>2026-04-11T12:12:33Z</time></trkpt><trkpt lat="45.78660199068877" lon="3.1197330742974443"><ele>341.20000000000005</ele><time>2026-04-11T12:12:35Z</time></trkpt><trkpt lat="45.786707887987404" lon="3.119761338466029"><ele>341.6</ele><time>2026-04-11T12:12:37Z</time></trkpt><trkpt lat="45.786816622151484" lon="3.11977655999604"><ele>342.0</ele><time>2026-04-11T12:12:39Z</time></trkpt><trkpt lat="45.78692939353273" lon="3.1197779018656613"><ele>342.40000000000003</ele><time>2026-04-11T12:12:41Z</time></trkpt><trkpt lat="45.78703720512768" lon="3.1197608598475837"><ele>342.8</ele><time>2026-04-11T12:12:43Z</time></trkpt><trkpt lat="45.787139577385176" lon="3.1197352810922228"><ele>343.2</ele><time>2026-04-11T12:12:45Z</time></trkpt><trkpt lat="45.78724898381364" lon="3.1196845245443336"><ele>343.6</ele><time>2026-04-11T12:12:47Z</time></trkpt><trkpt lat="45.78732874418575" lon="3.119626579005591"><ele>344.0</ele><time>2026-04-11T12:12:49Z</time></trkpt><trkpt lat="45.78738772243363" lon="3.1195786325982215"><ele>344.0</ele><time>2026-04-11T12:12:52Z</time></trkpt><trkpt lat="45.78744969577072" lon="3.1195261887714105"><ele>344.0</ele><time>2026-04-11T12:13:07Z</time></trkpt><trkpt lat="45.7875320083389" lon="3.11945097932631"><ele>344.0</ele><time>2026-04-11T12:13:10Z</time></trkpt><trkpt lat="45.78760007730358" lon="3.119371644421608"><ele>344.0</ele><time>2026-04-11T12:13:12Z</time></trkpt><trkpt lat="45.78766269391173" lon="3.1192803067932853"><ele>344.0</ele><time>2026-04-11T12:13:14Z</time></trkpt><trkpt lat="45.787727936406384" lon="3.11918446174994"><ele>344.0</ele><time>2026-04-11T12:13:16Z</time></trkpt><trkpt lat="45.78779675135259" lon="3.1190793766017175"><ele>343.6</ele><time>2026-04-11T12:13:18Z</time></trkpt><trkpt lat="45.78785662238831" lon="3.1189861599995807"><ele>343.2</ele><time>2026-04-11T12:13:20Z</time></trkpt><trkpt lat="45.787923329144114" lon="3.1188818017746702"><ele>342.8</ele><time>2026-04-11T12:13:22Z</time></trkpt><trkpt lat="45.78799797572786" lon="3.118764044037807"><ele>342.40000000000003</ele><time>2026-04-11T12:13:24Z</time></trkpt><trkpt lat="45.78807036839398" lon="3.118661892791279"><ele>342.0</ele><time>2026-04-11T12:13:26Z</time></trkpt><trkpt lat="45.78814523854064" lon="3.118571031875653"><ele>342.0</ele><time>2026-04-11T12:13:28Z</time></trkpt><trkpt lat="45.78823229397347" lon="3.118472117070552"><ele>342.0</ele><time>2026-04-11T12:13:30Z</time></trkpt><trkpt lat="45.7883164828091" lon="3.1183822523872813"><ele>342.0</ele><time>2026-04-11T12:13:32Z</time></trkpt><trkpt lat="45.788407611542254" lon="3.1183015885073435"><ele>342.0</ele><time>2026-04-11T12:13:34Z</time></trkpt><trkpt lat="45.78850071041076" lon="3.118237128354401"><ele>342.0</ele><time>2026-04-11T12:13:36Z</time></trkpt><trkpt lat="45.788585246133735" lon="3.1181883588567265"><ele>341.6</ele><time>2026-04-11T12:13:39Z</time></trkpt><trkpt lat="45.788672045285416" lon="3.118160251054281"><ele>341.20000000000005</ele><time>2026-04-11T12:13:41Z</time></trkpt><trkpt lat="45.788784433685066" lon="3.118130643027672"><ele>340.8</ele><time>2026-04-11T12:13:43Z</time></trkpt><trkpt lat="45.78890321422312" lon="3.1181058931620904"><ele>340.4</ele><time>2026-04-11T12:13:45Z</time></trkpt><trkpt lat="45.78902748109524" lon="3.1180897722950003"><ele>340.0</ele><time>2026-04-11T12:13:46.999Z</time></trkpt><trkpt lat="45.78909312974576" lon="3.118081992376064"><ele>340.0</ele><time>2026-04-11T12:13:47.999Z</time></trkpt><trkpt lat="45.78915597898493" lon="3.118074544224381"><ele>340.0</ele><time>2026-04-11T12:13:48.999Z</time></trkpt><trkpt lat="45.78922147848622" lon="3.118066781984487"><ele>340.0</ele><time>2026-04-11T12:13:49.999Z</time></trkpt><trkpt lat="45.789287071935675" lon="3.1180590086091517"><ele>340.0</ele><time>2026-04-11T12:13:50.999Z</time></trkpt><trkpt lat="45.78935394464121" lon="3.1180514630727076"><ele>340.0</ele><time>2026-04-11T12:13:51.999Z</time></trkpt><trkpt lat="45.789419765621744" lon="3.118043101125137"><ele>340.0</ele><time>2026-04-11T12:13:52.999Z</time></trkpt><trkpt lat="45.78954480542194" lon="3.118026879401253"><ele>340.2</ele><time>2026-04-11T12:13:54.999Z</time></trkpt><trkpt lat="45.78966925021422" lon="3.118013421742023"><ele>340.4</ele><time>2026-04-11T12:13:57Z</time></trkpt><trkpt lat="45.789782215161345" lon="3.118001995333422"><ele>340.6</ele><time>2026-04-11T12:13:59Z</time></trkpt><trkpt lat="45.78984669959329" lon="3.1179953951630988"><ele>340.8</ele><time>2026-04-11T12:14:00Z</time></trkpt><trkpt lat="45.7899683689427" lon="3.117982307589164"><ele>341.0</ele><time>2026-04-11T12:14:02Z</time></trkpt><trkpt lat="45.790091847886046" lon="3.117968947370082"><ele>341.0</ele><time>2026-04-11T12:14:04Z</time></trkpt><trkpt lat="45.790157168965656" lon="3.1179614551012342"><ele>341.0</ele><time>2026-04-11T12:14:05Z</time></trkpt><trkpt lat="45.79022169136467" lon="3.1179541932295227"><ele>341.0</ele><time>2026-04-11T12:14:06Z</time></trkpt><trkpt lat="45.79028585459251" lon="3.1179469717853303"><ele>341.0</ele><time>2026-04-11T12:14:07Z</time></trkpt><trkpt lat="45.79035144379761" lon="3.117939589850076"><ele>341.0</ele><time>2026-04-11T12:14:08Z</time></trkpt><trkpt lat="45.79041802205589" lon="3.1179299113252132"><ele>341.0</ele><time>2026-04-11T12:14:09Z</time></trkpt><trkpt lat="45.790485401296166" lon="3.117920309783023"><ele>341.0</ele><time>2026-04-11T12:14:10Z</time></trkpt><trkpt lat="45.79060821025783" lon="3.117906124503188"><ele>340.83333333333337</ele><time>2026-04-11T12:14:12Z</time></trkpt><trkpt lat="45.79067124327143" lon="3.117898878390059"><ele>340.6666666666667</ele><time>2026-04-11T12:14:13Z</time></trkpt><trkpt lat="45.79073396524441" lon="3.1178910433537994"><ele>340.5</ele><time>2026-04-11T12:14:14Z</time></trkpt><trkpt lat="45.79085548820506" lon="3.117878191964111"><ele>340.3333333333333</ele><time>2026-04-11T12:14:16Z</time></trkpt><trkpt lat="45.79091962681856" lon="3.1178729889043106"><ele>340.16666666666663</ele><time>2026-04-11T12:14:17Z</time></trkpt><trkpt lat="45.791037081781155" lon="3.117870329505487"><ele>340.0</ele><time>2026-04-11T12:14:19Z</time></trkpt><trkpt lat="45.79115860787292" lon="3.117872846234355"><ele>340.5</ele><time>2026-04-11T12:14:21Z</time></trkpt><trkpt lat="45.79128108221116" lon="3.1178774639984046"><ele>341.0</ele><time>2026-04-11T12:14:23Z</time></trkpt><trkpt lat="45.79139541796961" lon="3.1178868630576893"><ele>341.5</ele><time>2026-04-11T12:14:25Z</time></trkpt><trkpt lat="45.791505837990584" lon="3.117901831856793"><ele>342.0</ele><time>2026-04-11T12:14:27Z</time></trkpt><trkpt lat="45.79162085103741" lon="3.117919509281927"><ele>342.0</ele><time>2026-04-11T12:14:29Z</time></trkpt><trkpt lat="45.791688242130554" lon="3.1179290094288072"><ele>342.0</ele><time>2026-04-11T12:14:30Z</time></trkpt><trkpt lat="45.79176168833383" lon="3.1179372908963905"><ele>342.0</ele><time>2026-04-11T12:14:31Z</time></trkpt><trkpt lat="45.79188668881843" lon="3.117937687442673"><ele>342.0</ele><time>2026-04-11T12:14:33Z</time></trkpt><trkpt lat="45.791970937911245" lon="3.1179326783127315"><ele>342.0</ele><time>2026-04-11T12:14:35Z</time></trkpt><trkpt lat="45.79204061752933" lon="3.1179285354509263"><ele>342.0</ele><time>2026-04-11T12:14:38Z</time></trkpt><trkpt lat="45.79204294905221" lon="3.1177362271556115"><ele>341.25</ele><time>2026-04-11T12:14:42Z</time></trkpt><trkpt lat="45.792045169808986" lon="3.1178544991376125"><ele>340.5</ele><time>2026-04-11T12:14:44Z</time></trkpt><trkpt lat="45.79203844955342" lon="3.1179839506217304"><ele>339.75</ele><time>2026-04-11T12:14:46Z</time></trkpt><trkpt lat="45.79220224523312" lon="3.1181097602632435"><ele>339.0</ele><time>2026-04-11T12:14:50Z</time></trkpt><trkpt lat="45.792246390750606" lon="3.1182351081143516"><ele>339.0</ele><time>2026-04-11T12:14:52Z</time></trkpt><trkpt lat="45.79229898780933" lon="3.118394103577179"><ele>339.0</ele><time>2026-04-11T12:14:54Z</time></trkpt><trkpt lat="45.79234745336667" lon="3.118553888795271"><ele>339.0</ele><time>2026-04-11T12:14:56Z</time></trkpt><trkpt lat="45.79239577558466" lon="3.118713201727404"><ele>339.0</ele><time>2026-04-11T12:14:58Z</time></trkpt><trkpt lat="45.79240751493336" lon="3.1188066901341904"><ele>339.0</ele><time>2026-04-11T12:14:59Z</time></trkpt><trkpt lat="45.79243554196312" lon="3.1188919508074178"><ele>339.0</ele><time>2026-04-11T12:15:00Z</time></trkpt><trkpt lat="45.79246724810425" lon="3.118972718268418"><ele>339.0</ele><time>2026-04-11T12:15:01Z</time></trkpt><trkpt lat="45.79249549105327" lon="3.1190560637720117"><ele>339.0</ele><time>2026-04-11T12:15:02Z</time></trkpt><trkpt lat="45.79252813091847" lon="3.1191378232167866"><ele>339.0</ele><time>2026-04-11T12:15:03Z</time></trkpt><trkpt lat="45.792561664845095" lon="3.1192217995659153"><ele>339.0</ele><time>2026-04-11T12:15:04Z</time></trkpt><trkpt lat="45.792596683718365" lon="3.1193031522390977"><ele>339.0</ele><time>2026-04-11T12:15:05Z</time></trkpt><trkpt lat="45.79263348561604" lon="3.1193848273279525"><ele>339.0</ele><time>2026-04-11T12:15:06Z</time></trkpt><trkpt lat="45.79266334013743" lon="3.1194737741267646"><ele>339.0</ele><time>2026-04-11T12:15:07Z</time></trkpt><trkpt lat="45.792697989589136" lon="3.1195596858559753"><ele>339.0</ele><time>2026-04-11T12:15:08Z</time></trkpt><trkpt lat="45.792731468549675" lon="3.1196429080685464"><ele>339.0</ele><time>2026-04-11T12:15:09Z</time></trkpt><trkpt lat="45.79279211535907" lon="3.1197875184268042"><ele>339.0</ele><time>2026-04-11T12:15:11Z</time></trkpt><trkpt lat="45.79286362513398" lon="3.119924359118033"><ele>339.0</ele><time>2026-04-11T12:15:13Z</time></trkpt><trkpt lat="45.79288196868892" lon="3.1200170621420535"><ele>339.0</ele><time>2026-04-11T12:15:14Z</time></trkpt><trkpt lat="45.7929285079505" lon="3.1200884545037195"><ele>339.0</ele><time>2026-04-11T12:15:15Z</time></trkpt><trkpt lat="45.792961311014956" lon="3.12017101417652"><ele>339.0</ele><time>2026-04-11T12:15:16Z</time></trkpt><trkpt lat="45.79299388231559" lon="3.120252991507637"><ele>339.0</ele><time>2026-04-11T12:15:17Z</time></trkpt><trkpt lat="45.79302699499483" lon="3.120336331438132"><ele>339.0</ele><time>2026-04-11T12:15:18Z</time></trkpt><trkpt lat="45.79305539105694" lon="3.1204288737624664"><ele>339.0</ele><time>2026-04-11T12:15:19Z</time></trkpt><trkpt lat="45.79308407306454" lon="3.1205188598815194"><ele>339.0</ele><time>2026-04-11T12:15:20Z</time></trkpt><trkpt lat="45.7931156796743" lon="3.1206030369021813"><ele>339.0</ele><time>2026-04-11T12:15:21Z</time></trkpt><trkpt lat="45.79315001548796" lon="3.120687747288987"><ele>338.85714285714283</ele><time>2026-04-11T12:15:22Z</time></trkpt><trkpt lat="45.79318587122479" lon="3.1207756610068107"><ele>338.7142857142857</ele><time>2026-04-11T12:15:23Z</time></trkpt><trkpt lat="45.79322374743229" lon="3.120855879550034"><ele>338.57142857142856</ele><time>2026-04-11T12:15:24Z</time></trkpt><trkpt lat="45.79326012093295" lon="3.120941543582872"><ele>338.42857142857144</ele><time>2026-04-11T12:15:25Z</time></trkpt><trkpt lat="45.79329105901234" lon="3.121027338776448"><ele>338.2857142857143</ele><time>2026-04-11T12:15:26Z</time></trkpt><trkpt lat="45.79332501633839" lon="3.121111281984051"><ele>338.14285714285717</ele><time>2026-04-11T12:15:27Z</time></trkpt><trkpt lat="45.79335901210035" lon="3.1211986510500074"><ele>338.0</ele><time>2026-04-11T12:15:28Z</time></trkpt><trkpt lat="45.79339480451614" lon="3.121281439757555"><ele>338.0</ele><time>2026-04-11T12:15:29Z</time></trkpt><trkpt lat="45.79342916570641" lon="3.1213637683828077"><ele>338.0</ele><time>2026-04-11T12:15:30Z</time></trkpt><trkpt lat="45.79346574488796" lon="3.1214460212442474"><ele>338.0</ele><time>2026-04-11T12:15:31Z</time></trkpt><trkpt lat="45.79350395796776" lon="3.121526851537713"><ele>338.0</ele><time>2026-04-11T12:15:32Z</time></trkpt><trkpt lat="45.79355402009831" lon="3.1215938273849813"><ele>338.0</ele><time>2026-04-11T12:15:33Z</time></trkpt><trkpt lat="45.79359413579211" lon="3.1216699279040876"><ele>338.0</ele><time>2026-04-11T12:15:34Z</time></trkpt><trkpt lat="45.793620711887904" lon="3.121759579201865"><ele>338.0</ele><time>2026-04-11T12:15:35Z</time></trkpt><trkpt lat="45.793664036317786" lon="3.121833110485728"><ele>338.0</ele><time>2026-04-11T12:15:36Z</time></trkpt><trkpt lat="45.79371088813197" lon="3.1219011810788393"><ele>338.0</ele><time>2026-04-11T12:15:37Z</time></trkpt><trkpt lat="45.793751544954524" lon="3.1219795157599743"><ele>338.0</ele><time>2026-04-11T12:15:38Z</time></trkpt><trkpt lat="45.7938017624076" lon="3.1220464421351983"><ele>338.0</ele><time>2026-04-11T12:15:39Z</time></trkpt><trkpt lat="45.793848913095815" lon="3.1221137273004005"><ele>338.0</ele><time>2026-04-11T12:15:40Z</time></trkpt><trkpt lat="45.79389347577609" lon="3.122181934848379"><ele>338.0</ele><time>2026-04-11T12:15:41Z</time></trkpt><trkpt lat="45.79394280924488" lon="3.122246231103432"><ele>338.0</ele><time>2026-04-11T12:15:42Z</time></trkpt><trkpt lat="45.79400319657228" lon="3.1222968097599897"><ele>338.0</ele><time>2026-04-11T12:15:43Z</time></trkpt><trkpt lat="45.79405455299448" lon="3.1223624981733082"><ele>338.0</ele><time>2026-04-11T12:15:44Z</time></trkpt><trkpt lat="45.79410441855132" lon="3.122423163824692"><ele>338.0</ele><time>2026-04-11T12:15:45Z</time></trkpt><trkpt lat="45.794156143096764" lon="3.1224818686611777"><ele>338.0</ele><time>2026-04-11T12:15:46Z</time></trkpt><trkpt lat="45.79420830828677" lon="3.1225391850525006"><ele>338.0</ele><time>2026-04-11T12:15:47Z</time></trkpt><trkpt lat="45.79426332413735" lon="3.122597176013178"><ele>338.0</ele><time>2026-04-11T12:15:48Z</time></trkpt><trkpt lat="45.794316494004335" lon="3.1226489732254663"><ele>338.0</ele><time>2026-04-11T12:15:49Z</time></trkpt><trkpt lat="45.79436407212336" lon="3.1227207767605503"><ele>337.7142857142857</ele><time>2026-04-11T12:15:50Z</time></trkpt><trkpt lat="45.79443201480412" lon="3.1227541127830136"><ele>337.42857142857144</ele><time>2026-04-11T12:15:51Z</time></trkpt><trkpt lat="45.79448345833563" lon="3.1228199782755195"><ele>337.1428571428571</ele><time>2026-04-11T12:15:52Z</time></trkpt><trkpt lat="45.79454255212451" lon="3.122862805755532"><ele>336.8571428571429</ele><time>2026-04-11T12:15:53Z</time></trkpt><trkpt lat="45.79459948208585" lon="3.1229092727484282"><ele>336.57142857142856</ele><time>2026-04-11T12:15:54Z</time></trkpt><trkpt lat="45.79465783812476" lon="3.122953467194931"><ele>336.2857142857143</ele><time>2026-04-11T12:15:55Z</time></trkpt><trkpt lat="45.79471696067657" lon="3.1229950671989637"><ele>336.0</ele><time>2026-04-11T12:15:56Z</time></trkpt><trkpt lat="45.794783847318335" lon="3.1230113415239784"><ele>336.0</ele><time>2026-04-11T12:15:57Z</time></trkpt><trkpt lat="45.79484630481158" lon="3.123048805641564"><ele>336.0</ele><time>2026-04-11T12:15:57.999Z</time></trkpt><trkpt lat="45.79490588269624" lon="3.123082018014846"><ele>336.0</ele><time>2026-04-11T12:15:58.999Z</time></trkpt><trkpt lat="45.794961982470596" lon="3.123136059180475"><ele>336.0</ele><time>2026-04-11T12:15:59.999Z</time></trkpt><trkpt lat="45.79502431553281" lon="3.1231603838421473"><ele>336.0</ele><time>2026-04-11T12:16:00.999Z</time></trkpt><trkpt lat="45.79508772392946" lon="3.123194284930194"><ele>336.0</ele><time>2026-04-11T12:16:01.999Z</time></trkpt><trkpt lat="45.79514974893347" lon="3.123219614110067"><ele>336.0</ele><time>2026-04-11T12:16:03Z</time></trkpt><trkpt lat="45.7952156971291" lon="3.1232278217040323"><ele>336.0</ele><time>2026-04-11T12:16:04Z</time></trkpt><trkpt lat="45.79527166358633" lon="3.1232699275186544"><ele>336.0</ele><time>2026-04-11T12:16:05Z</time></trkpt><trkpt lat="45.79537363519629" lon="3.123292651795272"><ele>336.0</ele><time>2026-04-11T12:16:07Z</time></trkpt><trkpt lat="45.79546436420599" lon="3.123311071721219"><ele>336.0</ele><time>2026-04-11T12:16:09Z</time></trkpt><trkpt lat="45.79554239453657" lon="3.123320626891306"><ele>336.0</ele><time>2026-04-11T12:16:11Z</time></trkpt><trkpt lat="45.795615972432984" lon="3.1233344145839848"><ele>336.0</ele><time>2026-04-11T12:16:14Z</time></trkpt><trkpt lat="45.795685554012806" lon="3.1233465072924544"><ele>336.0</ele><time>2026-04-11T12:16:17Z</time></trkpt><trkpt lat="45.79571971252037" lon="3.123620106826338"><ele>336.0</ele><time>2026-04-11T12:16:19Z</time></trkpt><trkpt lat="45.79576060879338" lon="3.1237287222906818"><ele>336.0</ele><time>2026-04-11T12:16:21Z</time></trkpt><trkpt lat="45.79587536605691" lon="3.1236235726768022"><ele>336.0</ele><time>2026-04-11T12:16:27Z</time></trkpt><trkpt lat="45.795870500155296" lon="3.12348315481335"><ele>336.0</ele><time>2026-04-11T12:16:29Z</time></trkpt><trkpt lat="45.79591638769445" lon="3.1234056419551224"><ele>336.0</ele><time>2026-04-11T12:16:31Z</time></trkpt><trkpt lat="45.795994685507814" lon="3.1233463221469937"><ele>336.0</ele><time>2026-04-11T12:16:33Z</time></trkpt><trkpt lat="45.79610021988998" lon="3.1233694363908304"><ele>336.0</ele><time>2026-04-11T12:16:35Z</time></trkpt><trkpt lat="45.7962016415875" lon="3.1233712763319765"><ele>336.0</ele><time>2026-04-11T12:16:37Z</time></trkpt><trkpt lat="45.796307100139956" lon="3.1233664391937976"><ele>335.6</ele><time>2026-04-11T12:16:39Z</time></trkpt><trkpt lat="45.79641123142304" lon="3.123356821401531"><ele>335.20000000000005</ele><time>2026-04-11T12:16:41Z</time></trkpt><trkpt lat="45.796510770468046" lon="3.1233748100848806"><ele>334.79999999999995</ele><time>2026-04-11T12:16:43Z</time></trkpt><trkpt lat="45.796624442218494" lon="3.1233703905961177"><ele>334.4</ele><time>2026-04-11T12:16:45Z</time></trkpt><trkpt lat="45.79673855410286" lon="3.12335438779792"><ele>334.0</ele><time>2026-04-11T12:16:47Z</time></trkpt><trkpt lat="45.79685311625387" lon="3.1233368471233165"><ele>334.0</ele><time>2026-04-11T12:16:49Z</time></trkpt><trkpt lat="45.79698110428877" lon="3.1233055146234263"><ele>334.0</ele><time>2026-04-11T12:16:51Z</time></trkpt><trkpt lat="45.79704453673838" lon="3.1232943900581236"><ele>334.0</ele><time>2026-04-11T12:16:52Z</time></trkpt><trkpt lat="45.797107908346355" lon="3.123281188307981"><ele>334.0</ele><time>2026-04-11T12:16:53Z</time></trkpt><trkpt lat="45.79716982448127" lon="3.1232436965529016"><ele>334.0</ele><time>2026-04-11T12:16:54Z</time></trkpt><trkpt lat="45.797229189238685" lon="3.1232127582629974"><ele>334.0</ele><time>2026-04-11T12:16:55Z</time></trkpt><trkpt lat="45.797294451402315" lon="3.1231748869884335"><ele>334.1428571428571</ele><time>2026-04-11T12:16:56Z</time></trkpt><trkpt lat="45.79735904081082" lon="3.1231417519248614"><ele>334.2857142857143</ele><time>2026-04-11T12:16:57Z</time></trkpt><trkpt lat="45.79742595081196" lon="3.123103535409971"><ele>334.42857142857144</ele><time>2026-04-11T12:16:58Z</time></trkpt><trkpt lat="45.79748777836423" lon="3.123067396606632"><ele>334.57142857142856</ele><time>2026-04-11T12:16:59Z</time></trkpt><trkpt lat="45.797551073262085" lon="3.123023872264182"><ele>334.7142857142857</ele><time>2026-04-11T12:17:00Z</time></trkpt><trkpt lat="45.797614285594996" lon="3.122978990326213"><ele>334.85714285714283</ele><time>2026-04-11T12:17:01Z</time></trkpt><trkpt lat="45.79767757223193" lon="3.122934525376543"><ele>335.0</ele><time>2026-04-11T12:17:02Z</time></trkpt><trkpt lat="45.79773810801901" lon="3.1228886796781494"><ele>334.99999999999994</ele><time>2026-04-11T12:17:03Z</time></trkpt><trkpt lat="45.797801717720475" lon="3.1228429677974274"><ele>335.0</ele><time>2026-04-11T12:17:04Z</time></trkpt><trkpt lat="45.79786582267282" lon="3.1228011169875884"><ele>335.0</ele><time>2026-04-11T12:17:05Z</time></trkpt><trkpt lat="45.79793112596569" lon="3.1227625125149494"><ele>335.0</ele><time>2026-04-11T12:17:06Z</time></trkpt><trkpt lat="45.797999399977286" lon="3.122721049445766"><ele>335.0</ele><time>2026-04-11T12:17:07Z</time></trkpt><trkpt lat="45.79806428719521" lon="3.1226788866326163"><ele>334.99999999999994</ele><time>2026-04-11T12:17:08Z</time></trkpt><trkpt lat="45.79813066812771" lon="3.122634065512873"><ele>335.0</ele><time>2026-04-11T12:17:09Z</time></trkpt><trkpt lat="45.79819331406407" lon="3.122597176544708"><ele>335.0</ele><time>2026-04-11T12:17:10Z</time></trkpt><trkpt lat="45.798257076528536" lon="3.122563813529389"><ele>335.0</ele><time>2026-04-11T12:17:11Z</time></trkpt><trkpt lat="45.79832265958242" lon="3.1225113714994484"><ele>335.0</ele><time>2026-04-11T12:17:12Z</time></trkpt><trkpt lat="45.79838380005712" lon="3.122470513146439"><ele>335.0</ele><time>2026-04-11T12:17:13Z</time></trkpt><trkpt lat="45.79844652624023" lon="3.122426297277967"><ele>335.0</ele><time>2026-04-11T12:17:14Z</time></trkpt><trkpt lat="45.79856446958996" lon="3.1223420366721393"><ele>335.0</ele><time>2026-04-11T12:17:16Z</time></trkpt><trkpt lat="45.79862885868272" lon="3.122298537628333"><ele>334.57142857142856</ele><time>2026-04-11T12:17:17Z</time></trkpt><trkpt lat="45.798692437380105" lon="3.1222714096347834"><ele>334.1428571428571</ele><time>2026-04-11T12:17:18Z</time></trkpt><trkpt lat="45.7987534954731" lon="3.1222268437168585"><ele>333.71428571428567</ele><time>2026-04-11T12:17:19Z</time></trkpt><trkpt lat="45.798808902140664" lon="3.122176586865293"><ele>333.2857142857143</ele><time>2026-04-11T12:17:20Z</time></trkpt><trkpt lat="45.798868803050844" lon="3.1221462569716385"><ele>332.8571428571429</ele><time>2026-04-11T12:17:21Z</time></trkpt><trkpt lat="45.798927197442566" lon="3.122101921937304"><ele>332.4285714285714</ele><time>2026-04-11T12:17:22Z</time></trkpt><trkpt lat="45.79898850153147" lon="3.1220571123615355"><ele>332.0</ele><time>2026-04-11T12:17:23Z</time></trkpt><trkpt lat="45.79909724189273" lon="3.121976237083787"><ele>332.0</ele><time>2026-04-11T12:17:25Z</time></trkpt><trkpt lat="45.799157936131095" lon="3.1219463485167225"><ele>332.0</ele><time>2026-04-11T12:17:26Z</time></trkpt><trkpt lat="45.799218187123806" lon="3.121910837970061"><ele>332.0</ele><time>2026-04-11T12:17:27Z</time></trkpt><trkpt lat="45.79932335238034" lon="3.121835124634322"><ele>332.0</ele><time>2026-04-11T12:17:29Z</time></trkpt><trkpt lat="45.79942886890873" lon="3.121752894350332"><ele>332.0</ele><time>2026-04-11T12:17:31Z</time></trkpt><trkpt lat="45.79953084680292" lon="3.121717203095776"><ele>332.33333333333337</ele><time>2026-04-11T12:17:33Z</time></trkpt><trkpt lat="45.79959813209453" lon="3.1216675268236567"><ele>332.6666666666667</ele><time>2026-04-11T12:17:34.999Z</time></trkpt><trkpt lat="45.79966835458107" lon="3.121628360097414"><ele>333.0</ele><time>2026-04-11T12:18:11Z</time></trkpt><trkpt lat="45.799752244638704" lon="3.1215791237193558"><ele>333.3333333333333</ele><time>2026-04-11T12:18:14Z</time></trkpt><trkpt lat="45.79982417064847" lon="3.121538118732975"><ele>333.66666666666663</ele><time>2026-04-11T12:18:16Z</time></trkpt><trkpt lat="45.799902740490026" lon="3.121493138940479"><ele>334.0</ele><time>2026-04-11T12:18:18Z</time></trkpt><trkpt lat="45.7999931925681" lon="3.121440578429243"><ele>334.2</ele><time>2026-04-11T12:18:20Z</time></trkpt><trkpt lat="45.80008722220629" lon="3.121385939023949"><ele>334.4</ele><time>2026-04-11T12:18:22Z</time></trkpt><trkpt lat="45.80014724854837" lon="3.1213506472181884"><ele>334.6</ele><time>2026-04-11T12:18:23Z</time></trkpt><trkpt lat="45.80025597226155" lon="3.1212861986535283"><ele>334.8</ele><time>2026-04-11T12:18:25Z</time></trkpt><trkpt lat="45.80036304782391" lon="3.1212227270604385"><ele>335.0</ele><time>2026-04-11T12:18:27Z</time></trkpt><trkpt lat="45.800475013437904" lon="3.1211563567626253"><ele>334.6</ele><time>2026-04-11T12:18:29Z</time></trkpt><trkpt lat="45.800590065126784" lon="3.121088157092107"><ele>334.2</ele><time>2026-04-11T12:18:31Z</time></trkpt><trkpt lat="45.80065098591068" lon="3.121052044873546"><ele>333.79999999999995</ele><time>2026-04-11T12:18:32Z</time></trkpt><trkpt lat="45.8007672777536" lon="3.1209831100732357"><ele>333.4</ele><time>2026-04-11T12:18:34Z</time></trkpt><trkpt lat="45.800886856343496" lon="3.120912080101274"><ele>333.0</ele><time>2026-04-11T12:18:36Z</time></trkpt><trkpt lat="45.800944950889296" lon="3.12087719755121"><ele>333.3333333333333</ele><time>2026-04-11T12:18:37Z</time></trkpt><trkpt lat="45.801059479832084" lon="3.120808429312028"><ele>333.6666666666667</ele><time>2026-04-11T12:18:39Z</time></trkpt><trkpt lat="45.80111938703807" lon="3.120772458374606"><ele>334.0</ele><time>2026-04-11T12:18:40Z</time></trkpt><trkpt lat="45.801178512753815" lon="3.1207368381724407"><ele>334.33333333333337</ele><time>2026-04-11T12:18:41Z</time></trkpt><trkpt lat="45.80129270793639" lon="3.1206714544243157"><ele>334.6666666666667</ele><time>2026-04-11T12:18:43Z</time></trkpt><trkpt lat="45.80135465448876" lon="3.120635986164625"><ele>335.0</ele><time>2026-04-11T12:18:44Z</time></trkpt><trkpt lat="45.80141357670676" lon="3.1206022495208865"><ele>335.1666666666667</ele><time>2026-04-11T12:18:45Z</time></trkpt><trkpt lat="45.80147283650516" lon="3.1205675012364416"><ele>335.33333333333337</ele><time>2026-04-11T12:18:46Z</time></trkpt><trkpt lat="45.801586317698714" lon="3.1204988797920286"><ele>335.5</ele><time>2026-04-11T12:18:48Z</time></trkpt><trkpt lat="45.80165159721447" lon="3.1204594065448052"><ele>335.6666666666667</ele><time>2026-04-11T12:18:49Z</time></trkpt><trkpt lat="45.801712202910416" lon="3.120422758672045"><ele>335.8333333333333</ele><time>2026-04-11T12:18:50Z</time></trkpt><trkpt lat="45.80177289811798" lon="3.120386827816012"><ele>336.0</ele><time>2026-04-11T12:18:51Z</time></trkpt><trkpt lat="45.80183477417561" lon="3.1203502476172265"><ele>336.0</ele><time>2026-04-11T12:18:52Z</time></trkpt><trkpt lat="45.80194663248182" lon="3.1202841187473154"><ele>336.0</ele><time>2026-04-11T12:18:54Z</time></trkpt><trkpt lat="45.80201119383832" lon="3.120245950993713"><ele>336.0</ele><time>2026-04-11T12:18:55Z</time></trkpt><trkpt lat="45.80207482567277" lon="3.1202083328107935"><ele>336.0</ele><time>2026-04-11T12:18:56Z</time></trkpt><trkpt lat="45.802137427040535" lon="3.1201713238546223"><ele>336.0</ele><time>2026-04-11T12:18:57Z</time></trkpt><trkpt lat="45.802208995193574" lon="3.120129013890126"><ele>336.0</ele><time>2026-04-11T12:18:58Z</time></trkpt><trkpt lat="45.80231764926349" lon="3.1200644055671543"><ele>336.0</ele><time>2026-04-11T12:19:00Z</time></trkpt><trkpt lat="45.80238140799426" lon="3.1200264904190274"><ele>336.0</ele><time>2026-04-11T12:19:01Z</time></trkpt><trkpt lat="45.80244249412081" lon="3.1199901645062527"><ele>336.0</ele><time>2026-04-11T12:19:02Z</time></trkpt><trkpt lat="45.80250314094602" lon="3.1199540997987003"><ele>336.0</ele><time>2026-04-11T12:19:03Z</time></trkpt><trkpt lat="45.802621971817366" lon="3.119882134783392"><ele>336.0</ele><time>2026-04-11T12:19:05Z</time></trkpt><trkpt lat="45.80268569320686" lon="3.119843176019933"><ele>336.0</ele><time>2026-04-11T12:19:06Z</time></trkpt><trkpt lat="45.80280367576658" lon="3.1197731070651606"><ele>336.20000000000005</ele><time>2026-04-11T12:19:08Z</time></trkpt><trkpt lat="45.802924063221525" lon="3.1197024196271266"><ele>336.40000000000003</ele><time>2026-04-11T12:19:10Z</time></trkpt><trkpt lat="45.80298566288133" lon="3.1196663793799924"><ele>336.6</ele><time>2026-04-11T12:19:11Z</time></trkpt><trkpt lat="45.80304426451538" lon="3.1196322520258284"><ele>336.8</ele><time>2026-04-11T12:19:12Z</time></trkpt><trkpt lat="45.803103707086294" lon="3.1195976349303463"><ele>337.0</ele><time>2026-04-11T12:19:13Z</time></trkpt><trkpt lat="45.80322616928837" lon="3.119526317640514"><ele>337.0</ele><time>2026-04-11T12:19:15Z</time></trkpt><trkpt lat="45.803342457865384" lon="3.119458595582267"><ele>337.0</ele><time>2026-04-11T12:19:17Z</time></trkpt><trkpt lat="45.80340210998332" lon="3.1194238564575087"><ele>337.0</ele><time>2026-04-11T12:19:18Z</time></trkpt><trkpt lat="45.80346295924202" lon="3.1193884201704947"><ele>337.0</ele><time>2026-04-11T12:19:19Z</time></trkpt><trkpt lat="45.80352584762276" lon="3.119351796380206"><ele>337.0</ele><time>2026-04-11T12:19:20Z</time></trkpt><trkpt lat="45.80362201804449" lon="3.1192950988579145"><ele>337.0</ele><time>2026-04-11T12:19:22Z</time></trkpt><trkpt lat="45.80371154197651" lon="3.1193920566006663"><ele>336.5714285714286</ele><time>2026-04-11T12:19:23Z</time></trkpt><trkpt lat="45.80377192318217" lon="3.1194461027074807"><ele>336.14285714285717</ele><time>2026-04-11T12:19:24Z</time></trkpt><trkpt lat="45.80381900614702" lon="3.1195077064784558"><ele>335.7142857142857</ele><time>2026-04-11T12:19:25Z</time></trkpt><trkpt lat="45.80384964561035" lon="3.1195908447311624"><ele>335.28571428571433</ele><time>2026-04-11T12:19:26Z</time></trkpt><trkpt lat="45.803913426985496" lon="3.1196568082626963"><ele>334.8571428571429</ele><time>2026-04-11T12:19:27Z</time></trkpt><trkpt lat="45.80394086599722" lon="3.1197523011981287"><ele>334.42857142857144</ele><time>2026-04-11T12:19:28Z</time></trkpt><trkpt lat="45.8039660774277" lon="3.11984307846382"><ele>334.0</ele><time>2026-04-11T12:19:29Z</time></trkpt><trkpt lat="45.80399052733848" lon="3.1199311136577244"><ele>333.85714285714283</ele><time>2026-04-11T12:19:30Z</time></trkpt><trkpt lat="45.804016370047535" lon="3.120021922618596"><ele>333.7142857142857</ele><time>2026-04-11T12:19:31Z</time></trkpt><trkpt lat="45.80404160033149" lon="3.1201100112299445"><ele>333.57142857142856</ele><time>2026-04-11T12:19:32Z</time></trkpt><trkpt lat="45.80406794398169" lon="3.120201140876977"><ele>333.42857142857144</ele><time>2026-04-11T12:19:33Z</time></trkpt><trkpt lat="45.80409459624613" lon="3.1202925693085404"><ele>333.2857142857143</ele><time>2026-04-11T12:19:34Z</time></trkpt><trkpt lat="45.80412215857723" lon="3.1203871194648833"><ele>333.14285714285717</ele><time>2026-04-11T12:19:35Z</time></trkpt><trkpt lat="45.804149449179974" lon="3.1204807375354666"><ele>333.0</ele><time>2026-04-11T12:19:35.999Z</time></trkpt><trkpt lat="45.804174455119295" lon="3.1205665182590403"><ele>333.0</ele><time>2026-04-11T12:19:36.999Z</time></trkpt><trkpt lat="45.80420183476025" lon="3.120660441719386"><ele>333.0</ele><time>2026-04-11T12:19:37.999Z</time></trkpt><trkpt lat="45.80422817106351" lon="3.120750786099824"><ele>333.0</ele><time>2026-04-11T12:19:38.999Z</time></trkpt><trkpt lat="45.804254945486534" lon="3.120843618306124"><ele>333.0</ele><time>2026-04-11T12:19:39.999Z</time></trkpt><trkpt lat="45.80428067593324" lon="3.1209335984572406"><ele>333.0</ele><time>2026-04-11T12:19:40.999Z</time></trkpt><trkpt lat="45.80430526940491" lon="3.1210196025038335"><ele>333.0</ele><time>2026-04-11T12:19:41.999Z</time></trkpt><trkpt lat="45.804330178880974" lon="3.1211067117102127"><ele>333.0</ele><time>2026-04-11T12:19:42.999Z</time></trkpt><trkpt lat="45.804356113078924" lon="3.1211974043428303"><ele>333.0</ele><time>2026-04-11T12:19:43.999Z</time></trkpt><trkpt lat="45.804380889943964" lon="3.121284049781825"><ele>333.0</ele><time>2026-04-11T12:19:44.999Z</time></trkpt><trkpt lat="45.80440664599579" lon="3.121372500716551"><ele>333.0</ele><time>2026-04-11T12:19:45.999Z</time></trkpt><trkpt lat="45.804433477914365" lon="3.1214634232757312"><ele>333.0</ele><time>2026-04-11T12:19:46.999Z</time></trkpt><trkpt lat="45.80446045569093" lon="3.1215548400846775"><ele>333.0</ele><time>2026-04-11T12:19:48Z</time></trkpt><trkpt lat="45.8044875495531" lon="3.1216466500930027"><ele>333.0</ele><time>2026-04-11T12:19:48.999Z</time></trkpt><trkpt lat="45.80451468149276" lon="3.121739064794826"><ele>333.0</ele><time>2026-04-11T12:19:49.999Z</time></trkpt><trkpt lat="45.80454218814986" lon="3.1218337441519464"><ele>333.0</ele><time>2026-04-11T12:19:50.999Z</time></trkpt><trkpt lat="45.804570350137226" lon="3.1219306792789205"><ele>333.0</ele><time>2026-04-11T12:19:51.999Z</time></trkpt><trkpt lat="45.80459840354228" lon="3.1220272404301688"><ele>333.0</ele><time>2026-04-11T12:19:52.999Z</time></trkpt><trkpt lat="45.804627058446336" lon="3.1221258722160306"><ele>333.0</ele><time>2026-04-11T12:19:53.999Z</time></trkpt><trkpt lat="45.80465555226545" lon="3.1222239494658868"><ele>333.0</ele><time>2026-04-11T12:19:54.999Z</time></trkpt><trkpt lat="45.80468385970378" lon="3.1223213851191014"><ele>333.0</ele><time>2026-04-11T12:19:55.999Z</time></trkpt><trkpt lat="45.80471377398839" lon="3.122424351749432"><ele>333.0</ele><time>2026-04-11T12:19:56.999Z</time></trkpt><trkpt lat="45.804742303036825" lon="3.1225225501707965"><ele>332.7142857142857</ele><time>2026-04-11T12:19:57.999Z</time></trkpt><trkpt lat="45.80476951753307" lon="3.1226162239692727"><ele>332.4285714285714</ele><time>2026-04-11T12:19:58.999Z</time></trkpt><trkpt lat="45.80479707163754" lon="3.1227110666317928"><ele>332.1428571428571</ele><time>2026-04-11T12:19:59.999Z</time></trkpt><trkpt lat="45.804825802181156" lon="3.1228085087348636"><ele>331.8571428571429</ele><time>2026-04-11T12:20:00.999Z</time></trkpt><trkpt lat="45.80485384760596" lon="3.122902780513696"><ele>331.57142857142856</ele><time>2026-04-11T12:20:01.999Z</time></trkpt><trkpt lat="45.80487982852132" lon="3.1229901125563497"><ele>331.2857142857143</ele><time>2026-04-11T12:20:02.999Z</time></trkpt><trkpt lat="45.80490704050957" lon="3.123081582711153"><ele>331.0</ele><time>2026-04-11T12:20:03.999Z</time></trkpt><trkpt lat="45.804935967715124" lon="3.1231788184746074"><ele>331.42857142857144</ele><time>2026-04-11T12:20:04.999Z</time></trkpt><trkpt lat="45.80496621773563" lon="3.123280500691206"><ele>331.85714285714283</ele><time>2026-04-11T12:20:05.999Z</time></trkpt><trkpt lat="45.80499531064429" lon="3.1233782933281957"><ele>332.2857142857143</ele><time>2026-04-11T12:20:06.999Z</time></trkpt><trkpt lat="45.80502471252318" lon="3.1234776336990597"><ele>332.7142857142857</ele><time>2026-04-11T12:20:07.999Z</time></trkpt><trkpt lat="45.80505237151419" lon="3.123571994372164"><ele>333.14285714285717</ele><time>2026-04-11T12:20:08.999Z</time></trkpt><trkpt lat="45.80508078033516" lon="3.123668913102642"><ele>333.57142857142856</ele><time>2026-04-11T12:20:09.999Z</time></trkpt><trkpt lat="45.80510942906536" lon="3.1237667274156116"><ele>334.0</ele><time>2026-04-11T12:20:10.999Z</time></trkpt><trkpt lat="45.80513722426588" lon="3.123863206324507"><ele>333.85714285714283</ele><time>2026-04-11T12:20:11.999Z</time></trkpt><trkpt lat="45.8051653857612" lon="3.123961898631839"><ele>333.7142857142857</ele><time>2026-04-11T12:20:12.999Z</time></trkpt><trkpt lat="45.805195463535235" lon="3.1240673071713325"><ele>333.57142857142856</ele><time>2026-04-11T12:20:13.999Z</time></trkpt><trkpt lat="45.80522264301926" lon="3.1241625580794965"><ele>333.42857142857144</ele><time>2026-04-11T12:20:15Z</time></trkpt><trkpt lat="45.80524931020838" lon="3.124256013646417"><ele>333.2857142857143</ele><time>2026-04-11T12:20:16Z</time></trkpt><trkpt lat="45.805276549657926" lon="3.1243564146072527"><ele>333.14285714285717</ele><time>2026-04-11T12:20:17Z</time></trkpt><trkpt lat="45.80530174045991" lon="3.124450524332083"><ele>333.0</ele><time>2026-04-11T12:20:18Z</time></trkpt><trkpt lat="45.80532776507777" lon="3.1245477505310206"><ele>333.0</ele><time>2026-04-11T12:20:19Z</time></trkpt><trkpt lat="45.80535685940059" lon="3.124641538590034"><ele>333.0</ele><time>2026-04-11T12:20:20Z</time></trkpt><trkpt lat="45.8053840270095" lon="3.1247404398952665"><ele>333.0</ele><time>2026-04-11T12:20:21Z</time></trkpt><trkpt lat="45.805411022836196" lon="3.1248387160396205"><ele>333.0</ele><time>2026-04-11T12:20:22Z</time></trkpt><trkpt lat="45.805360464149345" lon="3.1249707958668735"><ele>333.0</ele><time>2026-04-11T12:20:23Z</time></trkpt><trkpt lat="45.80538606376363" lon="3.125065223364171"><ele>333.0</ele><time>2026-04-11T12:20:24Z</time></trkpt><trkpt lat="45.80541248843701" lon="3.125156373232949"><ele>333.14285714285717</ele><time>2026-04-11T12:20:25Z</time></trkpt><trkpt lat="45.80544324909615" lon="3.1252475926781074"><ele>333.2857142857143</ele><time>2026-04-11T12:20:26Z</time></trkpt><trkpt lat="45.80546726494742" lon="3.125338163007774"><ele>333.42857142857144</ele><time>2026-04-11T12:20:27Z</time></trkpt><trkpt lat="45.80548566588595" lon="3.125431229453772"><ele>333.57142857142856</ele><time>2026-04-11T12:20:28Z</time></trkpt><trkpt lat="45.805495001815224" lon="3.125526508470563"><ele>333.7142857142857</ele><time>2026-04-11T12:20:29Z</time></trkpt><trkpt lat="45.805501062880175" lon="3.125619808165968"><ele>333.85714285714283</ele><time>2026-04-11T12:20:30Z</time></trkpt><trkpt lat="45.805514332000776" lon="3.1257146955662205"><ele>334.0</ele><time>2026-04-11T12:20:31Z</time></trkpt><trkpt lat="45.80553119175542" lon="3.1258059443909687"><ele>334.0</ele><time>2026-04-11T12:20:32Z</time></trkpt><trkpt lat="45.805547887384705" lon="3.1258966628607148"><ele>334.0</ele><time>2026-04-11T12:20:33Z</time></trkpt><trkpt lat="45.805566953445485" lon="3.125991372491951"><ele>334.0</ele><time>2026-04-11T12:20:34Z</time></trkpt><trkpt lat="45.80558246526398" lon="3.1260844436924207"><ele>334.0</ele><time>2026-04-11T12:20:35Z</time></trkpt><trkpt lat="45.80560071630497" lon="3.1261773375923463"><ele>334.0</ele><time>2026-04-11T12:20:36Z</time></trkpt><trkpt lat="45.80561653392392" lon="3.126270784661512"><ele>334.0</ele><time>2026-04-11T12:20:37Z</time></trkpt><trkpt lat="45.80563118837685" lon="3.126370000613811"><ele>334.0</ele><time>2026-04-11T12:20:38Z</time></trkpt><trkpt lat="45.805636354190135" lon="3.1264738818744373"><ele>333.85714285714283</ele><time>2026-04-11T12:20:39Z</time></trkpt><trkpt lat="45.80569807822818" lon="3.126578162903191"><ele>333.7142857142857</ele><time>2026-04-11T12:20:40Z</time></trkpt><trkpt lat="45.80569007200167" lon="3.1266828293491535"><ele>333.57142857142856</ele><time>2026-04-11T12:20:41Z</time></trkpt><trkpt lat="45.80568018076432" lon="3.1267828529380495"><ele>333.42857142857144</ele><time>2026-04-11T12:20:42Z</time></trkpt><trkpt lat="45.805671228981176" lon="3.1268751723558195"><ele>333.2857142857143</ele><time>2026-04-11T12:20:43Z</time></trkpt><trkpt lat="45.80566586548495" lon="3.126975418609695"><ele>333.14285714285717</ele><time>2026-04-11T12:20:44Z</time></trkpt><trkpt lat="45.80566157958783" lon="3.127072081103546"><ele>333.0</ele><time>2026-04-11T12:20:45Z</time></trkpt><trkpt lat="45.80566242542002" lon="3.127170059249859"><ele>333.0</ele><time>2026-04-11T12:20:46Z</time></trkpt><trkpt lat="45.80566717951956" lon="3.127266203611395"><ele>333.0</ele><time>2026-04-11T12:20:47Z</time></trkpt><trkpt lat="45.80568357895883" lon="3.127355890652667"><ele>333.0</ele><time>2026-04-11T12:20:48Z</time></trkpt><trkpt lat="45.805742235644736" lon="3.1275100040736756"><ele>333.0</ele><time>2026-04-11T12:20:50Z</time></trkpt><trkpt lat="45.8057851826601" lon="3.1275796647687257"><ele>333.0</ele><time>2026-04-11T12:20:51Z</time></trkpt><trkpt lat="45.80588901793052" lon="3.1276702862574437"><ele>333.0</ele><time>2026-04-11T12:20:53Z</time></trkpt><trkpt lat="45.80594858295311" lon="3.127706070615255"><ele>333.2</ele><time>2026-04-11T12:20:54Z</time></trkpt><trkpt lat="45.8060614396664" lon="3.127696584620557"><ele>333.4</ele><time>2026-04-11T12:20:56Z</time></trkpt><trkpt lat="45.80613749920478" lon="3.127693303707992"><ele>333.59999999999997</ele><time>2026-04-11T12:20:57Z</time></trkpt><trkpt lat="45.806216319112714" lon="3.1276915541003785"><ele>333.79999999999995</ele><time>2026-04-11T12:20:58Z</time></trkpt><trkpt lat="45.80628782852235" lon="3.1276942256603433"><ele>334.0</ele><time>2026-04-11T12:20:59Z</time></trkpt><trkpt lat="45.80640967165272" lon="3.1277232738078427"><ele>334.0</ele><time>2026-04-11T12:21:01Z</time></trkpt><trkpt lat="45.806481860648994" lon="3.12776581634215"><ele>334.0</ele><time>2026-04-11T12:21:02Z</time></trkpt><trkpt lat="45.80654585615582" lon="3.1278254432553347"><ele>334.0</ele><time>2026-04-11T12:21:03Z</time></trkpt><trkpt lat="45.80661032617337" lon="3.12788375080492"><ele>334.0</ele><time>2026-04-11T12:21:04Z</time></trkpt><trkpt lat="45.80666658000545" lon="3.127936569181314"><ele>334.0</ele><time>2026-04-11T12:21:05Z</time></trkpt><trkpt lat="45.806721582216134" lon="3.1279882156462264"><ele>334.0</ele><time>2026-04-11T12:21:06Z</time></trkpt><trkpt lat="45.80677561566415" lon="3.128051311501306"><ele>334.0</ele><time>2026-04-11T12:21:07Z</time></trkpt><trkpt lat="45.806879255653875" lon="3.1281582861988535"><ele>334.0</ele><time>2026-04-11T12:21:09Z</time></trkpt><trkpt lat="45.806930537585814" lon="3.12821078686751"><ele>334.0</ele><time>2026-04-11T12:21:10Z</time></trkpt><trkpt lat="45.8069826846302" lon="3.1282641732895047"><ele>334.0</ele><time>2026-04-11T12:21:11Z</time></trkpt><trkpt lat="45.80708691502298" lon="3.128343654809845"><ele>334.0</ele><time>2026-04-11T12:21:13Z</time></trkpt><trkpt lat="45.80718549686382" lon="3.128430772925628"><ele>334.0</ele><time>2026-04-11T12:21:15Z</time></trkpt><trkpt lat="45.80723750362289" lon="3.128487602162954"><ele>334.0</ele><time>2026-04-11T12:21:16Z</time></trkpt><trkpt lat="45.8073399223786" lon="3.1285870271691767"><ele>333.8333333333333</ele><time>2026-04-11T12:21:18Z</time></trkpt><trkpt lat="45.80739184412437" lon="3.1286386954722736"><ele>333.66666666666663</ele><time>2026-04-11T12:21:19Z</time></trkpt><trkpt lat="45.80750461552829" lon="3.128719194860724"><ele>333.5</ele><time>2026-04-11T12:21:21Z</time></trkpt><trkpt lat="45.80756381638039" lon="3.128758815371984"><ele>333.3333333333333</ele><time>2026-04-11T12:21:22Z</time></trkpt><trkpt lat="45.80767609970629" lon="3.128831929964815"><ele>333.1666666666667</ele><time>2026-04-11T12:21:24Z</time></trkpt><trkpt lat="45.80773453062642" lon="3.1288671722066512"><ele>333.0</ele><time>2026-04-11T12:21:25Z</time></trkpt><trkpt lat="45.80779589531448" lon="3.128902063480923"><ele>333.2</ele><time>2026-04-11T12:21:26Z</time></trkpt><trkpt lat="45.80785804061581" lon="3.1289315670701123"><ele>333.4</ele><time>2026-04-11T12:21:27Z</time></trkpt><trkpt lat="45.8079181273264" lon="3.128961599279812"><ele>333.59999999999997</ele><time>2026-04-11T12:21:28Z</time></trkpt><trkpt lat="45.80802871889663" lon="3.129028688279285"><ele>333.79999999999995</ele><time>2026-04-11T12:21:30Z</time></trkpt><trkpt lat="45.808136194443826" lon="3.129089535710441"><ele>334.0</ele><time>2026-04-11T12:21:32Z</time></trkpt><trkpt lat="45.80824869020075" lon="3.129155553886709"><ele>334.0</ele><time>2026-04-11T12:21:33.999Z</time></trkpt><trkpt lat="45.80836629289148" lon="3.129223287255935"><ele>334.0</ele><time>2026-04-11T12:21:35.999Z</time></trkpt><trkpt lat="45.808482580113186" lon="3.1292887090743187"><ele>334.0</ele><time>2026-04-11T12:21:37.999Z</time></trkpt><trkpt lat="45.808542085282134" lon="3.1293205224456844"><ele>334.0</ele><time>2026-04-11T12:21:38.999Z</time></trkpt><trkpt lat="45.80860169262728" lon="3.129349953158212"><ele>334.0</ele><time>2026-04-11T12:21:39.999Z</time></trkpt><trkpt lat="45.80871593031156" lon="3.1294204476678305"><ele>333.57142857142856</ele><time>2026-04-11T12:21:41.999Z</time></trkpt><trkpt lat="45.808776347851555" lon="3.129454755767877"><ele>333.14285714285717</ele><time>2026-04-11T12:21:42.999Z</time></trkpt><trkpt lat="45.80883739327668" lon="3.129486208460782"><ele>332.7142857142857</ele><time>2026-04-11T12:21:43.999Z</time></trkpt><trkpt lat="45.80889736480831" lon="3.1295164461788474"><ele>332.2857142857143</ele><time>2026-04-11T12:21:44.999Z</time></trkpt><trkpt lat="45.8089570983082" lon="3.1295519317943303"><ele>331.85714285714283</ele><time>2026-04-11T12:21:45.999Z</time></trkpt><trkpt lat="45.8090177979006" lon="3.129586005754795"><ele>331.42857142857144</ele><time>2026-04-11T12:21:46.999Z</time></trkpt><trkpt lat="45.809077704941096" lon="3.129618277910886"><ele>331.0</ele><time>2026-04-11T12:21:47.999Z</time></trkpt><trkpt lat="45.80913807393179" lon="3.1296529021491386"><ele>331.0</ele><time>2026-04-11T12:21:48.999Z</time></trkpt><trkpt lat="45.80919791514952" lon="3.12969048800454"><ele>331.0</ele><time>2026-04-11T12:21:49.999Z</time></trkpt><trkpt lat="45.809258823938926" lon="3.1297250238971106"><ele>331.0</ele><time>2026-04-11T12:21:50.999Z</time></trkpt><trkpt lat="45.80931829243089" lon="3.129762807613153"><ele>331.0</ele><time>2026-04-11T12:21:51.999Z</time></trkpt><trkpt lat="45.80938010928476" lon="3.1298007891379718"><ele>331.0</ele><time>2026-04-11T12:21:52.999Z</time></trkpt><trkpt lat="45.80943865223893" lon="3.129841814708008"><ele>331.0</ele><time>2026-04-11T12:21:53.999Z</time></trkpt><trkpt lat="45.809497200405026" lon="3.1298869306839627"><ele>331.0</ele><time>2026-04-11T12:21:54.999Z</time></trkpt><trkpt lat="45.809555971548285" lon="3.1299334234722087"><ele>331.42857142857144</ele><time>2026-04-11T12:21:55.999Z</time></trkpt><trkpt lat="45.80961535267386" lon="3.1299784328567584"><ele>331.85714285714283</ele><time>2026-04-11T12:21:56.999Z</time></trkpt><trkpt lat="45.80967014311966" lon="3.1300287526483506"><ele>332.2857142857143</ele><time>2026-04-11T12:21:57.999Z</time></trkpt><trkpt lat="45.80972477405066" lon="3.1300832403135312"><ele>332.7142857142857</ele><time>2026-04-11T12:21:58.999Z</time></trkpt><trkpt lat="45.80978270873199" lon="3.130131443848576"><ele>333.14285714285717</ele><time>2026-04-11T12:21:59.999Z</time></trkpt><trkpt lat="45.809837013548325" lon="3.130183237789277"><ele>333.57142857142856</ele><time>2026-04-11T12:22:00.999Z</time></trkpt><trkpt lat="45.809893498715134" lon="3.130233270519986"><ele>334.0</ele><time>2026-04-11T12:22:01.999Z</time></trkpt><trkpt lat="45.80994710331841" lon="3.130286241729688"><ele>334.0</ele><time>2026-04-11T12:22:02.999Z</time></trkpt><trkpt lat="45.810000741700975" lon="3.1303409254486962"><ele>334.0</ele><time>2026-04-11T12:22:03.999Z</time></trkpt><trkpt lat="45.81005467058177" lon="3.13039519946504"><ele>334.0</ele><time>2026-04-11T12:22:04.999Z</time></trkpt><trkpt lat="45.81011207079114" lon="3.1304470237647766"><ele>334.0</ele><time>2026-04-11T12:22:05.999Z</time></trkpt><trkpt lat="45.81016462130886" lon="3.130501716054909"><ele>334.0</ele><time>2026-04-11T12:22:06.999Z</time></trkpt><trkpt lat="45.810221866652306" lon="3.130555623021549"><ele>334.0</ele><time>2026-04-11T12:22:07.999Z</time></trkpt><trkpt lat="45.81028075136257" lon="3.130614483776299"><ele>334.0</ele><time>2026-04-11T12:22:08.999Z</time></trkpt><trkpt lat="45.81033413022177" lon="3.1306660107918503"><ele>333.42857142857144</ele><time>2026-04-11T12:22:09.999Z</time></trkpt><trkpt lat="45.810388971444" lon="3.130720927493111"><ele>332.8571428571429</ele><time>2026-04-11T12:22:10.999Z</time></trkpt><trkpt lat="45.81044256933921" lon="3.130775378949875"><ele>332.28571428571433</ele><time>2026-04-11T12:22:11.999Z</time></trkpt><trkpt lat="45.810497305260775" lon="3.1308282259724627"><ele>331.7142857142857</ele><time>2026-04-11T12:22:12.999Z</time></trkpt><trkpt lat="45.81055244414034" lon="3.130879760995268"><ele>331.14285714285717</ele><time>2026-04-11T12:22:13.999Z</time></trkpt><trkpt lat="45.81060628449984" lon="3.1309319024212368"><ele>330.5714285714286</ele><time>2026-04-11T12:22:14.999Z</time></trkpt><trkpt lat="45.81066275754487" lon="3.130989283834722"><ele>330.0</ele><time>2026-04-11T12:22:15.999Z</time></trkpt><trkpt lat="45.81071665462074" lon="3.1310406075368595"><ele>329.8</ele><time>2026-04-11T12:22:16.999Z</time></trkpt><trkpt lat="45.810770689832026" lon="3.131088001905776"><ele>329.6</ele><time>2026-04-11T12:22:17.999Z</time></trkpt><trkpt lat="45.81087383691371" lon="3.1311857708472437"><ele>329.4</ele><time>2026-04-11T12:22:19.999Z</time></trkpt><trkpt lat="45.810979015682996" lon="3.1312747059191324"><ele>329.2</ele><time>2026-04-11T12:22:22Z</time></trkpt><trkpt lat="45.81108122990125" lon="3.131357398006454"><ele>329.0</ele><time>2026-04-11T12:22:24Z</time></trkpt><trkpt lat="45.81118609042247" lon="3.1314274767154"><ele>328.75</ele><time>2026-04-11T12:22:26Z</time></trkpt><trkpt lat="45.81129090015221" lon="3.131499547138831"><ele>328.5</ele><time>2026-04-11T12:22:28Z</time></trkpt><trkpt lat="45.81139456252256" lon="3.1315761459515867"><ele>328.25</ele><time>2026-04-11T12:22:30Z</time></trkpt><trkpt lat="45.8114910624866" lon="3.13166821276908"><ele>328.0</ele><time>2026-04-11T12:22:32Z</time></trkpt><trkpt lat="45.81157826408576" lon="3.1317860960857553"><ele>328.0</ele><time>2026-04-11T12:22:34Z</time></trkpt><trkpt lat="45.811617701960735" lon="3.1319404880791875"><ele>328.0</ele><time>2026-04-11T12:22:36Z</time></trkpt><trkpt lat="45.81162111248734" lon="3.132096174713743"><ele>328.0</ele><time>2026-04-11T12:22:38Z</time></trkpt><trkpt lat="45.811576124523654" lon="3.1322359123241714"><ele>328.0</ele><time>2026-04-11T12:22:40Z</time></trkpt><trkpt lat="45.8115388072643" lon="3.1323854341292794"><ele>328.0</ele><time>2026-04-11T12:22:42Z</time></trkpt><trkpt lat="45.81149964007744" lon="3.1325354938897756"><ele>328.3333333333333</ele><time>2026-04-11T12:22:44Z</time></trkpt><trkpt lat="45.81146144528381" lon="3.1326981547601047"><ele>328.66666666666663</ele><time>2026-04-11T12:22:46Z</time></trkpt><trkpt lat="45.81146568244084" lon="3.1327882885799307"><ele>329.0</ele><time>2026-04-11T12:22:47Z</time></trkpt><trkpt lat="45.81149017521544" lon="3.1328781589427144"><ele>329.3333333333333</ele><time>2026-04-11T12:22:48Z</time></trkpt><trkpt lat="45.811516964469554" lon="3.132968411085738"><ele>329.6666666666667</ele><time>2026-04-11T12:22:49Z</time></trkpt><trkpt lat="45.811553621138316" lon="3.1330528090097935"><ele>330.0</ele><time>2026-04-11T12:22:50Z</time></trkpt><trkpt lat="45.81159672068101" lon="3.1331381744270974"><ele>330.0</ele><time>2026-04-11T12:22:51Z</time></trkpt><trkpt lat="45.8116431541208" lon="3.1332161874906306"><ele>330.0</ele><time>2026-04-11T12:22:52Z</time></trkpt><trkpt lat="45.811693095554006" lon="3.133294364032126"><ele>330.0</ele><time>2026-04-11T12:22:53Z</time></trkpt><trkpt lat="45.81174107579708" lon="3.133380357436203"><ele>330.0</ele><time>2026-04-11T12:22:54Z</time></trkpt><trkpt lat="45.81179177684336" lon="3.133466955262215"><ele>330.0</ele><time>2026-04-11T12:22:55Z</time></trkpt><trkpt lat="45.811840893852015" lon="3.1335569674139836"><ele>330.0</ele><time>2026-04-11T12:22:56Z</time></trkpt><trkpt lat="45.811889582388346" lon="3.1336465859203018"><ele>330.0</ele><time>2026-04-11T12:22:57Z</time></trkpt><trkpt lat="45.8119405711071" lon="3.1337365114935487"><ele>330.0</ele><time>2026-04-11T12:22:58Z</time></trkpt><trkpt lat="45.81199335870457" lon="3.133827353283904"><ele>330.0</ele><time>2026-04-11T12:22:59Z</time></trkpt><trkpt lat="45.812043840992054" lon="3.1339177362538884"><ele>330.0</ele><time>2026-04-11T12:23:00Z</time></trkpt><trkpt lat="45.81209552613739" lon="3.1340104050153004"><ele>330.0</ele><time>2026-04-11T12:23:01Z</time></trkpt><trkpt lat="45.81214931950259" lon="3.1341024383310296"><ele>330.0</ele><time>2026-04-11T12:23:02Z</time></trkpt><trkpt lat="45.81220091075302" lon="3.1341959935710055"><ele>330.0</ele><time>2026-04-11T12:23:03Z</time></trkpt><trkpt lat="45.81225539656622" lon="3.1342887522026612"><ele>330.0</ele><time>2026-04-11T12:23:04Z</time></trkpt><trkpt lat="45.812307508292214" lon="3.134383237363739"><ele>330.0</ele><time>2026-04-11T12:23:05Z</time></trkpt><trkpt lat="45.81235956113456" lon="3.1344780925279054"><ele>330.0</ele><time>2026-04-11T12:23:06Z</time></trkpt><trkpt lat="45.81241451260546" lon="3.1345698742936365"><ele>330.0</ele><time>2026-04-11T12:23:07Z</time></trkpt><trkpt lat="45.81246897701107" lon="3.134665437760433"><ele>330.0</ele><time>2026-04-11T12:23:08Z</time></trkpt><trkpt lat="45.81252365705955" lon="3.1347607925236"><ele>330.0</ele><time>2026-04-11T12:23:09Z</time></trkpt><trkpt lat="45.81257846392577" lon="3.1348591038890294"><ele>330.0</ele><time>2026-04-11T12:23:10Z</time></trkpt><trkpt lat="45.81263163161827" lon="3.1349500004800612"><ele>330.0</ele><time>2026-04-11T12:23:11Z</time></trkpt><trkpt lat="45.81269526828468" lon="3.1350357305770227"><ele>330.0</ele><time>2026-04-11T12:23:12Z</time></trkpt><trkpt lat="45.812758482137056" lon="3.1351158971127213"><ele>330.0</ele><time>2026-04-11T12:23:13Z</time></trkpt><trkpt lat="45.81281953605955" lon="3.1352008154397675"><ele>330.0</ele><time>2026-04-11T12:23:14Z</time></trkpt><trkpt lat="45.81288246686188" lon="3.1352777752515406"><ele>329.8333333333333</ele><time>2026-04-11T12:23:15Z</time></trkpt><trkpt lat="45.81295028987262" lon="3.1353561572765614"><ele>329.6666666666667</ele><time>2026-04-11T12:23:16Z</time></trkpt><trkpt lat="45.81301026137713" lon="3.1354419637066524"><ele>329.5</ele><time>2026-04-11T12:23:17Z</time></trkpt><trkpt lat="45.81306738593038" lon="3.135511575426023"><ele>329.33333333333337</ele><time>2026-04-11T12:23:18Z</time></trkpt><trkpt lat="45.81314150001319" lon="3.1356046404118962"><ele>329.1666666666667</ele><time>2026-04-11T12:23:20Z</time></trkpt><trkpt lat="45.81319993042082" lon="3.135675199209766"><ele>329.0</ele><time>2026-04-11T12:23:25Z</time></trkpt><trkpt lat="45.81325906427825" lon="3.1357669378879485"><ele>329.0</ele><time>2026-04-11T12:23:28Z</time></trkpt><trkpt lat="45.81333052354266" lon="3.135855747861326"><ele>329.0</ele><time>2026-04-11T12:23:30Z</time></trkpt><trkpt lat="45.813413196805364" lon="3.1359610753057265"><ele>329.0</ele><time>2026-04-11T12:23:32Z</time></trkpt><trkpt lat="45.8135046069432" lon="3.136077532226994"><ele>329.0</ele><time>2026-04-11T12:23:34Z</time></trkpt><trkpt lat="45.81355262386917" lon="3.136138705982161"><ele>329.0</ele><time>2026-04-11T12:23:35Z</time></trkpt><trkpt lat="45.81366045821214" lon="3.136101156970019"><ele>328.85714285714283</ele><time>2026-04-11T12:23:36Z</time></trkpt><trkpt lat="45.81371005875416" lon="3.136161586537339"><ele>328.7142857142857</ele><time>2026-04-11T12:23:37Z</time></trkpt><trkpt lat="45.813767315738765" lon="3.1362219147108275"><ele>328.57142857142856</ele><time>2026-04-11T12:23:38Z</time></trkpt><trkpt lat="45.81381884434304" lon="3.1362812600687042"><ele>328.42857142857144</ele><time>2026-04-11T12:23:39Z</time></trkpt><trkpt lat="45.81387036939704" lon="3.136344933847848"><ele>328.2857142857143</ele><time>2026-04-11T12:23:40Z</time></trkpt><trkpt lat="45.81392057600778" lon="3.1364077978511937"><ele>328.1428571428571</ele><time>2026-04-11T12:23:41Z</time></trkpt><trkpt lat="45.81392673920762" lon="3.13654644217134"><ele>328.0</ele><time>2026-04-11T12:23:42Z</time></trkpt><trkpt lat="45.81397759962347" lon="3.136608439347994"><ele>327.99999999999994</ele><time>2026-04-11T12:23:43Z</time></trkpt><trkpt lat="45.81402664698531" lon="3.1366682259679894"><ele>328.0</ele><time>2026-04-11T12:23:44Z</time></trkpt><trkpt lat="45.814078705659846" lon="3.136731204216357"><ele>328.0</ele><time>2026-04-11T12:23:45Z</time></trkpt><trkpt lat="45.8141313438554" lon="3.1367932747966414"><ele>328.0</ele><time>2026-04-11T12:23:46Z</time></trkpt><trkpt lat="45.81418323035541" lon="3.1368544589411584"><ele>328.0</ele><time>2026-04-11T12:23:47Z</time></trkpt><trkpt lat="45.81423551176254" lon="3.136916108756147"><ele>327.99999999999994</ele><time>2026-04-11T12:23:48Z</time></trkpt><trkpt lat="45.814288816590725" lon="3.1369789653594244"><ele>328.0</ele><time>2026-04-11T12:23:49Z</time></trkpt><trkpt lat="45.81434095098185" lon="3.1370404418240345"><ele>328.1428571428571</ele><time>2026-04-11T12:23:50Z</time></trkpt><trkpt lat="45.814394021249996" lon="3.1371030218464693"><ele>328.2857142857143</ele><time>2026-04-11T12:23:51Z</time></trkpt><trkpt lat="45.81444561334733" lon="3.1371638588614688"><ele>328.42857142857144</ele><time>2026-04-11T12:23:52Z</time></trkpt><trkpt lat="45.81449728327762" lon="3.1372247876239556"><ele>328.57142857142856</ele><time>2026-04-11T12:23:53Z</time></trkpt><trkpt lat="45.814549298965886" lon="3.1372861239962537"><ele>328.7142857142857</ele><time>2026-04-11T12:23:54Z</time></trkpt><trkpt lat="45.81460284183278" lon="3.137349592010118"><ele>328.85714285714283</ele><time>2026-04-11T12:23:54.999Z</time></trkpt><trkpt lat="45.81465647502165" lon="3.1374131545303974"><ele>329.0</ele><time>2026-04-11T12:23:55.999Z</time></trkpt><trkpt lat="45.81470860855934" lon="3.137474939718064"><ele>329.1666666666667</ele><time>2026-04-11T12:23:56.999Z</time></trkpt><trkpt lat="45.81476209314115" lon="3.1375383260488428"><ele>329.33333333333337</ele><time>2026-04-11T12:23:57.999Z</time></trkpt><trkpt lat="45.81481161861709" lon="3.137597020389344"><ele>329.5</ele><time>2026-04-11T12:23:58.999Z</time></trkpt><trkpt lat="45.81486570553057" lon="3.13766041838116"><ele>329.6666666666667</ele><time>2026-04-11T12:23:59.999Z</time></trkpt><trkpt lat="45.81491936736681" lon="3.1377228822347947"><ele>329.8333333333333</ele><time>2026-04-11T12:24:00.999Z</time></trkpt><trkpt lat="45.81497094715353" lon="3.1377829225707994"><ele>330.0</ele><time>2026-04-11T12:24:01.999Z</time></trkpt><trkpt lat="45.81506239441589" lon="3.137895738343523"><ele>330.0</ele><time>2026-04-11T12:24:03.999Z</time></trkpt><trkpt lat="45.81512602045232" lon="3.137975410140733"><ele>330.0</ele><time>2026-04-11T12:24:05.999Z</time></trkpt><trkpt lat="45.81519736553049" lon="3.1380717060189047"><ele>330.0</ele><time>2026-04-11T12:24:07.999Z</time></trkpt><trkpt lat="45.81526944391984" lon="3.138183211953951"><ele>330.0</ele><time>2026-04-11T12:24:09.999Z</time></trkpt><trkpt lat="45.81534395589275" lon="3.138307115854404"><ele>330.0</ele><time>2026-04-11T12:24:11.999Z</time></trkpt><trkpt lat="45.81542106402428" lon="3.1384404128871486"><ele>330.0</ele><time>2026-04-11T12:24:13.999Z</time></trkpt><trkpt lat="45.815490314538735" lon="3.1385799077335843"><ele>330.0</ele><time>2026-04-11T12:24:15.999Z</time></trkpt><trkpt lat="45.815555924643334" lon="3.138724297512429"><ele>330.0</ele><time>2026-04-11T12:24:17.999Z</time></trkpt><trkpt lat="45.815618041419064" lon="3.13887300984678"><ele>330.0</ele><time>2026-04-11T12:24:19.999Z</time></trkpt><trkpt lat="45.815676142344095" lon="3.1390282708061563"><ele>329.8333333333333</ele><time>2026-04-11T12:24:21.999Z</time></trkpt><trkpt lat="45.81570638749955" lon="3.1391120234354175"><ele>329.6666666666667</ele><time>2026-04-11T12:24:22.999Z</time></trkpt><trkpt lat="45.81575890415515" lon="3.1392757463412413"><ele>329.5</ele><time>2026-04-11T12:24:24.999Z</time></trkpt><trkpt lat="45.81580340639333" lon="3.139437230713251"><ele>329.33333333333337</ele><time>2026-04-11T12:24:27Z</time></trkpt><trkpt lat="45.81582715340226" lon="3.1395231775772623"><ele>329.1666666666667</ele><time>2026-04-11T12:24:28Z</time></trkpt><trkpt lat="45.81585144534811" lon="3.1396122636230426"><ele>329.0</ele><time>2026-04-11T12:24:29Z</time></trkpt><trkpt lat="45.81587596715893" lon="3.1397021956037205"><ele>329.0</ele><time>2026-04-11T12:24:30Z</time></trkpt><trkpt lat="45.81592105566553" lon="3.139870639865246"><ele>329.0</ele><time>2026-04-11T12:24:32Z</time></trkpt><trkpt lat="45.815944517437835" lon="3.1399593088159854"><ele>329.0</ele><time>2026-04-11T12:24:33Z</time></trkpt><trkpt lat="45.81598821996155" lon="3.1401312015068066"><ele>329.0</ele><time>2026-04-11T12:24:35Z</time></trkpt><trkpt lat="45.81604267087315" lon="3.140299659822415"><ele>329.0</ele><time>2026-04-11T12:24:37Z</time></trkpt><trkpt lat="45.81607878451023" lon="3.14037999173027"><ele>329.4</ele><time>2026-04-11T12:24:38Z</time></trkpt><trkpt lat="45.81613139027406" lon="3.140458092049087"><ele>329.79999999999995</ele><time>2026-04-11T12:24:39Z</time></trkpt><trkpt lat="45.816249757580806" lon="3.140573512120176"><ele>330.20000000000005</ele><time>2026-04-11T12:24:41Z</time></trkpt><trkpt lat="45.81632873081168" lon="3.140599784300926"><ele>330.6</ele><time>2026-04-11T12:24:42Z</time></trkpt><trkpt lat="45.81639671300682" lon="3.140617115893643"><ele>331.0</ele><time>2026-04-11T12:24:43Z</time></trkpt><trkpt lat="45.8165246572735" lon="3.1406450916521735"><ele>331.0</ele><time>2026-04-11T12:24:45Z</time></trkpt><trkpt lat="45.816588405827886" lon="3.140657596533769"><ele>331.0</ele><time>2026-04-11T12:24:46Z</time></trkpt><trkpt lat="45.81665154600365" lon="3.1406699820252264"><ele>331.0</ele><time>2026-04-11T12:24:47Z</time></trkpt><trkpt lat="45.8167697630151" lon="3.140694403347984"><ele>331.0</ele><time>2026-04-11T12:24:49Z</time></trkpt><trkpt lat="45.81686955336371" lon="3.14076109007743"><ele>331.0</ele><time>2026-04-11T12:24:51Z</time></trkpt><trkpt lat="45.81692931717284" lon="3.1407908385249512"><ele>331.0</ele><time>2026-04-11T12:24:52Z</time></trkpt><trkpt lat="45.81704471728438" lon="3.1408482796043784"><ele>330.8</ele><time>2026-04-11T12:24:54Z</time></trkpt><trkpt lat="45.81716495093969" lon="3.1406717121603718"><ele>330.6</ele><time>2026-04-11T12:24:55Z</time></trkpt><trkpt lat="45.81722828653897" lon="3.1406851053376377"><ele>330.4</ele><time>2026-04-11T12:24:56Z</time></trkpt><trkpt lat="45.81733359372405" lon="3.1407153716201885"><ele>330.2</ele><time>2026-04-11T12:24:58Z</time></trkpt><trkpt lat="45.817371337618354" lon="3.14083727184882"><ele>330.0</ele><time>2026-04-11T12:24:59Z</time></trkpt><trkpt lat="45.81748614274669" lon="3.140872475213888"><ele>330.0</ele><time>2026-04-11T12:25:01Z</time></trkpt><trkpt lat="45.81760252422886" lon="3.140905604209502"><ele>330.0</ele><time>2026-04-11T12:25:03Z</time></trkpt><trkpt lat="45.81772013123057" lon="3.140939117654928"><ele>330.0</ele><time>2026-04-11T12:25:05Z</time></trkpt><trkpt lat="45.81778209278965" lon="3.1409569679594345"><ele>330.0</ele><time>2026-04-11T12:25:06Z</time></trkpt><trkpt lat="45.8178447628232" lon="3.140975022418586"><ele>330.0</ele><time>2026-04-11T12:25:07Z</time></trkpt><trkpt lat="45.81796492175867" lon="3.14100963856938"><ele>330.0</ele><time>2026-04-11T12:25:09Z</time></trkpt><trkpt lat="45.81807513982753" lon="3.141063277713726"><ele>330.0</ele><time>2026-04-11T12:25:11Z</time></trkpt><trkpt lat="45.81814805025415" lon="3.141076515034554"><ele>330.0</ele><time>2026-04-11T12:25:12Z</time></trkpt><trkpt lat="45.818268225980574" lon="3.1411022108332474"><ele>330.0</ele><time>2026-04-11T12:25:14Z</time></trkpt><trkpt lat="45.818360604402336" lon="3.141120517096093"><ele>330.0</ele><time>2026-04-11T12:25:16Z</time></trkpt><trkpt lat="45.81842419967867" lon="3.1411331195268075"><ele>329.8</ele><time>2026-04-11T12:25:18Z</time></trkpt><trkpt lat="45.81851795789316" lon="3.1411501117179905"><ele>329.6</ele><time>2026-04-11T12:25:21Z</time></trkpt><trkpt lat="45.81860653091073" lon="3.1411638243447455"><ele>329.4</ele><time>2026-04-11T12:25:23Z</time></trkpt><trkpt lat="45.8187064420205" lon="3.1411776152382997"><ele>329.2</ele><time>2026-04-11T12:25:25Z</time></trkpt><trkpt lat="45.81881233401465" lon="3.1411922316620418"><ele>329.0</ele><time>2026-04-11T12:25:27Z</time></trkpt><trkpt lat="45.818920765726084" lon="3.141207198648336"><ele>329.0</ele><time>2026-04-11T12:25:29Z</time></trkpt><trkpt lat="45.81903238149949" lon="3.1412226051423526"><ele>329.0</ele><time>2026-04-11T12:25:31Z</time></trkpt><trkpt lat="45.81913536808307" lon="3.141236631291706"><ele>329.0</ele><time>2026-04-11T12:25:33Z</time></trkpt><trkpt lat="45.819229353803074" lon="3.141248543889603"><ele>329.0</ele><time>2026-04-11T12:25:35Z</time></trkpt><trkpt lat="45.81930402255735" lon="3.1412580080680272"><ele>329.0</ele><time>2026-04-11T12:25:37Z</time></trkpt><trkpt lat="45.819398298379994" lon="3.141269987586672"><ele>329.0</ele><time>2026-04-11T12:25:39Z</time></trkpt><trkpt lat="45.81950531921596" lon="3.141283238468584"><ele>329.0</ele><time>2026-04-11T12:25:41Z</time></trkpt><trkpt lat="45.81960794232236" lon="3.1412948051704013"><ele>329.0</ele><time>2026-04-11T12:25:43Z</time></trkpt><trkpt lat="45.81971516823373" lon="3.141306890649733"><ele>329.0</ele><time>2026-04-11T12:25:45Z</time></trkpt><trkpt lat="45.81983378771666" lon="3.1413202603048185"><ele>329.0</ele><time>2026-04-11T12:25:47Z</time></trkpt><trkpt lat="45.81994205928831" lon="3.1413330448522903"><ele>329.0</ele><time>2026-04-11T12:25:49Z</time></trkpt><trkpt lat="45.82006546116914" lon="3.141348704633973"><ele>329.0</ele><time>2026-04-11T12:25:51Z</time></trkpt><trkpt lat="45.820175786687756" lon="3.1413622086849506"><ele>329.0</ele><time>2026-04-11T12:25:53Z</time></trkpt><trkpt lat="45.82028756810546" lon="3.1413756981646577"><ele>329.0</ele><time>2026-04-11T12:25:55Z</time></trkpt><trkpt lat="45.820402144052636" lon="3.1413890766096606"><ele>329.2</ele><time>2026-04-11T12:25:57Z</time></trkpt><trkpt lat="45.82050320599621" lon="3.141399690408153"><ele>329.4</ele><time>2026-04-11T12:25:59Z</time></trkpt><trkpt lat="45.8206143393159" lon="3.141412004807927"><ele>329.6</ele><time>2026-04-11T12:26:01Z</time></trkpt><trkpt lat="45.820726829706075" lon="3.141421623123357"><ele>329.8</ele><time>2026-04-11T12:26:03Z</time></trkpt><trkpt lat="45.82083671116973" lon="3.141431951982926"><ele>330.0</ele><time>2026-04-11T12:26:05Z</time></trkpt><trkpt lat="45.820938582411706" lon="3.1414415930818045"><ele>329.8</ele><time>2026-04-11T12:26:07Z</time></trkpt><trkpt lat="45.82104460792182" lon="3.141451660368144"><ele>329.6</ele><time>2026-04-11T12:26:09Z</time></trkpt><trkpt lat="45.82115698473328" lon="3.141462577984956"><ele>329.4</ele><time>2026-04-11T12:26:11Z</time></trkpt><trkpt lat="45.82126571212715" lon="3.141475052135837"><ele>329.2</ele><time>2026-04-11T12:26:12.999Z</time></trkpt><trkpt lat="45.82137047078206" lon="3.141491171142727"><ele>329.0</ele><time>2026-04-11T12:26:14.999Z</time></trkpt><trkpt lat="45.82146944960369" lon="3.1415135175265334"><ele>329.0</ele><time>2026-04-11T12:26:16.999Z</time></trkpt><trkpt lat="45.82157142545787" lon="3.141539214176241"><ele>329.0</ele><time>2026-04-11T12:26:18.999Z</time></trkpt><trkpt lat="45.821791710527826" lon="3.141208235049943"><ele>329.0</ele><time>2026-04-11T12:26:24.999Z</time></trkpt><trkpt lat="45.82185180736746" lon="3.1411453229146566"><ele>329.0</ele><time>2026-04-11T12:26:26.999Z</time></trkpt><trkpt lat="45.82195102590787" lon="3.141179099991147"><ele>329.0</ele><time>2026-04-11T12:26:28.999Z</time></trkpt><trkpt lat="45.82196420318201" lon="3.1413051452795484"><ele>329.0</ele><time>2026-04-11T12:26:33.001Z</time></trkpt><trkpt lat="45.82193354485198" lon="3.141424945484808"><ele>329.0</ele><time>2026-04-11T12:26:35.001Z</time></trkpt><trkpt lat="45.82194172876184" lon="3.141682858636841"><ele>329.0</ele><time>2026-04-11T12:26:37.001Z</time></trkpt><trkpt lat="45.82203269394879" lon="3.141773329324119"><ele>329.0</ele><time>2026-04-11T12:26:40.001Z</time></trkpt><trkpt lat="45.82212188166689" lon="3.141823347346635"><ele>329.0</ele><time>2026-04-11T12:26:42Z</time></trkpt><trkpt lat="45.822184176019135" lon="3.141861451386568"><ele>329.0</ele><time>2026-04-11T12:26:46Z</time></trkpt><trkpt lat="45.82224799649313" lon="3.1419054040585004"><ele>329.0</ele><time>2026-04-11T12:26:48Z</time></trkpt><trkpt lat="45.822341899533264" lon="3.1419527475814273"><ele>329.0</ele><time>2026-04-11T12:26:50Z</time></trkpt><trkpt lat="45.82244203976642" lon="3.142029062403565"><ele>329.0</ele><time>2026-04-11T12:26:52Z</time></trkpt><trkpt lat="45.82254103132642" lon="3.142097490909545"><ele>329.0</ele><time>2026-04-11T12:26:54Z</time></trkpt><trkpt lat="45.82266312197166" lon="3.142145805875255"><ele>329.0</ele><time>2026-04-11T12:26:56Z</time></trkpt><trkpt lat="45.82277301241799" lon="3.1421742614193096"><ele>329.0</ele><time>2026-04-11T12:26:58Z</time></trkpt><trkpt lat="45.82283736329058" lon="3.142206682423612"><ele>329.0</ele><time>2026-04-11T12:26:59Z</time></trkpt><trkpt lat="45.82295780843204" lon="3.1422286501503534"><ele>329.0</ele><time>2026-04-11T12:27:01Z</time></trkpt><trkpt lat="45.8230744177347" lon="3.1422481413012573"><ele>329.0</ele><time>2026-04-11T12:27:03Z</time></trkpt><trkpt lat="45.82319852917146" lon="3.1422562841065305"><ele>329.0</ele><time>2026-04-11T12:27:05Z</time></trkpt><trkpt lat="45.82332572945789" lon="3.1422541789545386"><ele>329.0</ele><time>2026-04-11T12:27:07Z</time></trkpt><trkpt lat="45.82339024810168" lon="3.142246423128504"><ele>329.0</ele><time>2026-04-11T12:27:08Z</time></trkpt><trkpt lat="45.82345641664226" lon="3.1422345686171953"><ele>329.0</ele><time>2026-04-11T12:27:09Z</time></trkpt><trkpt lat="45.82351932733525" lon="3.1422170067859714"><ele>329.0</ele><time>2026-04-11T12:27:10Z</time></trkpt><trkpt lat="45.823584417021415" lon="3.1422035488749738"><ele>329.0</ele><time>2026-04-11T12:27:11Z</time></trkpt><trkpt lat="45.82364986759424" lon="3.1421864989826953"><ele>329.0</ele><time>2026-04-11T12:27:12Z</time></trkpt><trkpt lat="45.82371421111761" lon="3.1421635799574332"><ele>329.0</ele><time>2026-04-11T12:27:13Z</time></trkpt><trkpt lat="45.82378215048828" lon="3.142129762248461"><ele>329.0</ele><time>2026-04-11T12:27:14Z</time></trkpt><trkpt lat="45.823847751308385" lon="3.142097349116347"><ele>329.0</ele><time>2026-04-11T12:27:15Z</time></trkpt><trkpt lat="45.82391569486431" lon="3.1420616421684078"><ele>329.0</ele><time>2026-04-11T12:27:16Z</time></trkpt><trkpt lat="45.823985032910336" lon="3.1420300902002416"><ele>329.0</ele><time>2026-04-11T12:27:17Z</time></trkpt><trkpt lat="45.82405701009579" lon="3.1419995587107215"><ele>329.0</ele><time>2026-04-11T12:27:18Z</time></trkpt><trkpt lat="45.82412853310278" lon="3.1419777295670896"><ele>329.0</ele><time>2026-04-11T12:27:19Z</time></trkpt><trkpt lat="45.82419827143636" lon="3.141950480586049"><ele>329.0</ele><time>2026-04-11T12:27:20Z</time></trkpt><trkpt lat="45.8242668523271" lon="3.141927773977197"><ele>329.0</ele><time>2026-04-11T12:27:21Z</time></trkpt><trkpt lat="45.82433812099193" lon="3.1419041288517136"><ele>329.0</ele><time>2026-04-11T12:27:22Z</time></trkpt><trkpt lat="45.82440592651396" lon="3.141876176483893"><ele>329.0</ele><time>2026-04-11T12:27:23Z</time></trkpt><trkpt lat="45.824477365282384" lon="3.141847632460645"><ele>329.0</ele><time>2026-04-11T12:27:24Z</time></trkpt><trkpt lat="45.82454760192939" lon="3.1418264936861724"><ele>329.0</ele><time>2026-04-11T12:27:25Z</time></trkpt><trkpt lat="45.82461761411814" lon="3.1418024614906304"><ele>329.0</ele><time>2026-04-11T12:27:26Z</time></trkpt><trkpt lat="45.824687018465575" lon="3.141763226002651"><ele>329.0</ele><time>2026-04-11T12:27:27Z</time></trkpt><trkpt lat="45.82475472958122" lon="3.1417253008599646"><ele>329.0</ele><time>2026-04-11T12:27:28Z</time></trkpt><trkpt lat="45.824825056125725" lon="3.141686808587845"><ele>329.0</ele><time>2026-04-11T12:27:29Z</time></trkpt><trkpt lat="45.82489813069646" lon="3.141652995190234"><ele>329.0</ele><time>2026-04-11T12:27:30Z</time></trkpt><trkpt lat="45.824969627370194" lon="3.1416192999906865"><ele>329.0</ele><time>2026-04-11T12:27:31Z</time></trkpt><trkpt lat="45.82504060837645" lon="3.1415836654524987"><ele>329.0</ele><time>2026-04-11T12:27:32Z</time></trkpt><trkpt lat="45.82511062764764" lon="3.1415367362857567"><ele>329.0</ele><time>2026-04-11T12:27:33Z</time></trkpt><trkpt lat="45.82517811061736" lon="3.141481595124581"><ele>329.0</ele><time>2026-04-11T12:27:34Z</time></trkpt><trkpt lat="45.825238399842014" lon="3.1414157278051773"><ele>329.0</ele><time>2026-04-11T12:27:35Z</time></trkpt><trkpt lat="45.82530348021368" lon="3.141349167394075"><ele>328.83333333333337</ele><time>2026-04-11T12:27:36Z</time></trkpt><trkpt lat="45.825366267332846" lon="3.1412711084489615"><ele>328.6666666666667</ele><time>2026-04-11T12:27:37Z</time></trkpt><trkpt lat="45.82542934327682" lon="3.1412041033588824"><ele>328.5</ele><time>2026-04-11T12:27:38Z</time></trkpt><trkpt lat="45.8255001014007" lon="3.1411566836798395"><ele>328.3333333333333</ele><time>2026-04-11T12:27:39Z</time></trkpt><trkpt lat="45.825577101911286" lon="3.1411153454367904"><ele>328.16666666666663</ele><time>2026-04-11T12:27:40Z</time></trkpt><trkpt lat="45.825652385840236" lon="3.1410802029845337"><ele>328.0</ele><time>2026-04-11T12:27:41Z</time></trkpt><trkpt lat="45.82572792926347" lon="3.141040876323459"><ele>328.0</ele><time>2026-04-11T12:27:42Z</time></trkpt><trkpt lat="45.82580173440651" lon="3.1410042392747384"><ele>328.0</ele><time>2026-04-11T12:27:43Z</time></trkpt><trkpt lat="45.825876817805295" lon="3.140975002988007"><ele>328.0</ele><time>2026-04-11T12:27:44Z</time></trkpt><trkpt lat="45.82595465116517" lon="3.1409476372111658"><ele>328.0</ele><time>2026-04-11T12:27:45Z</time></trkpt><trkpt lat="45.82603155647372" lon="3.1409280713144576"><ele>328.0</ele><time>2026-04-11T12:27:46Z</time></trkpt><trkpt lat="45.82610651854219" lon="3.140921017404943"><ele>328.0</ele><time>2026-04-11T12:27:47Z</time></trkpt><trkpt lat="45.82618005553936" lon="3.1409183898372244"><ele>328.2857142857143</ele><time>2026-04-11T12:27:48Z</time></trkpt><trkpt lat="45.826255199832126" lon="3.1409206595831938"><ele>328.57142857142856</ele><time>2026-04-11T12:27:49Z</time></trkpt><trkpt lat="45.82632742630561" lon="3.1409350800594873"><ele>328.8571428571429</ele><time>2026-04-11T12:27:50Z</time></trkpt><trkpt lat="45.82639859125868" lon="3.1409604970039244"><ele>329.1428571428571</ele><time>2026-04-11T12:27:51Z</time></trkpt><trkpt lat="45.82646830721071" lon="3.1409861933482848"><ele>329.42857142857144</ele><time>2026-04-11T12:27:52Z</time></trkpt><trkpt lat="45.82653559718401" lon="3.1410143573779554"><ele>329.7142857142857</ele><time>2026-04-11T12:27:53Z</time></trkpt><trkpt lat="45.82660237778934" lon="3.1410499766911975"><ele>330.0</ele><time>2026-04-11T12:27:54Z</time></trkpt><trkpt lat="45.82666973400735" lon="3.1410806202885015"><ele>330.0</ele><time>2026-04-11T12:27:55Z</time></trkpt><trkpt lat="45.82673734284097" lon="3.1411119415197604"><ele>330.0</ele><time>2026-04-11T12:27:56Z</time></trkpt><trkpt lat="45.82679700145288" lon="3.141141219886324"><ele>330.0</ele><time>2026-04-11T12:27:57Z</time></trkpt><trkpt lat="45.82691972695107" lon="3.141178153399191"><ele>330.0</ele><time>2026-04-11T12:27:59Z</time></trkpt><trkpt lat="45.826986504406904" lon="3.141074571050958"><ele>330.0</ele><time>2026-04-11T12:28:01Z</time></trkpt><trkpt lat="45.82712334367209" lon="3.1412907526315164"><ele>329.6666666666667</ele><time>2026-04-11T12:28:04Z</time></trkpt><trkpt lat="45.827242904061706" lon="3.1413473203808815"><ele>329.3333333333333</ele><time>2026-04-11T12:28:06Z</time></trkpt><trkpt lat="45.82730387480558" lon="3.1413761675518947"><ele>329.0</ele><time>2026-04-11T12:28:07Z</time></trkpt><trkpt lat="45.82736668284713" lon="3.141405973365458"><ele>328.66666666666663</ele><time>2026-04-11T12:28:08Z</time></trkpt><trkpt lat="45.82743044924981" lon="3.1414366164803464"><ele>328.3333333333333</ele><time>2026-04-11T12:28:09Z</time></trkpt><trkpt lat="45.82749435579965" lon="3.141467326955547"><ele>328.0</ele><time>2026-04-11T12:28:10Z</time></trkpt><trkpt lat="45.82755508552869" lon="3.1414966257551997"><ele>328.0</ele><time>2026-04-11T12:28:11Z</time></trkpt><trkpt lat="45.82761723796487" lon="3.141527868126112"><ele>328.0</ele><time>2026-04-11T12:28:12Z</time></trkpt><trkpt lat="45.82768048265138" lon="3.1415596583800984"><ele>328.0</ele><time>2026-04-11T12:28:13Z</time></trkpt><trkpt lat="45.827744831865985" lon="3.141592003692637"><ele>328.0</ele><time>2026-04-11T12:28:14Z</time></trkpt><trkpt lat="45.82780906473682" lon="3.141624683251176"><ele>328.0</ele><time>2026-04-11T12:28:15Z</time></trkpt><trkpt lat="45.82787056916368" lon="3.1416506299424567"><ele>328.0</ele><time>2026-04-11T12:28:16Z</time></trkpt><trkpt lat="45.827985252866235" lon="3.1416990113732326"><ele>327.59999999999997</ele><time>2026-04-11T12:28:17.999Z</time></trkpt><trkpt lat="45.82810218117144" lon="3.141749432044287"><ele>327.2</ele><time>2026-04-11T12:28:19.999Z</time></trkpt><trkpt lat="45.82821248920199" lon="3.1418059860650587"><ele>326.8</ele><time>2026-04-11T12:28:21.999Z</time></trkpt><trkpt lat="45.828325192567306" lon="3.1418676719880345"><ele>326.4</ele><time>2026-04-11T12:28:23.999Z</time></trkpt><trkpt lat="45.82838431732924" lon="3.141900711669408"><ele>326.0</ele><time>2026-04-11T12:28:24.999Z</time></trkpt><trkpt lat="45.82844327830632" lon="3.1419329035991996"><ele>326.14285714285717</ele><time>2026-04-11T12:28:25.999Z</time></trkpt><trkpt lat="45.828504369049604" lon="3.141964960407847"><ele>326.2857142857143</ele><time>2026-04-11T12:28:26.999Z</time></trkpt><trkpt lat="45.828564359847014" lon="3.141995243348148"><ele>326.42857142857144</ele><time>2026-04-11T12:28:27.999Z</time></trkpt><trkpt lat="45.82862868538926" lon="3.1420231600945443"><ele>326.57142857142856</ele><time>2026-04-11T12:28:28.999Z</time></trkpt><trkpt lat="45.82869034897238" lon="3.1420494651113833"><ele>326.7142857142857</ele><time>2026-04-11T12:28:29.999Z</time></trkpt><trkpt lat="45.828752724532464" lon="3.1420760738370235"><ele>326.85714285714283</ele><time>2026-04-11T12:28:30.999Z</time></trkpt><trkpt lat="45.82881475923399" lon="3.1421022054709367"><ele>327.0</ele><time>2026-04-11T12:28:31.999Z</time></trkpt><trkpt lat="45.828876146786975" lon="3.142128880703873"><ele>327.0</ele><time>2026-04-11T12:28:32.999Z</time></trkpt><trkpt lat="45.828937298289844" lon="3.1421559081679944"><ele>327.0</ele><time>2026-04-11T12:28:33.999Z</time></trkpt><trkpt lat="45.82899854270574" lon="3.142184119752899"><ele>327.0</ele><time>2026-04-11T12:28:34.999Z</time></trkpt><trkpt lat="45.82906119239025" lon="3.142213693500578"><ele>327.0</ele><time>2026-04-11T12:28:35.999Z</time></trkpt><trkpt lat="45.82912627136656" lon="3.1422429281416204"><ele>327.0</ele><time>2026-04-11T12:28:36.999Z</time></trkpt><trkpt lat="45.82919524110648" lon="3.142268545794594"><ele>327.0</ele><time>2026-04-11T12:28:37.999Z</time></trkpt><trkpt lat="45.82926447740288" lon="3.14228794086862"><ele>327.0</ele><time>2026-04-11T12:28:39.001Z</time></trkpt><trkpt lat="45.82933334810778" lon="3.142303022141406"><ele>326.85714285714283</ele><time>2026-04-11T12:28:40.001Z</time></trkpt><trkpt lat="45.82940490674739" lon="3.1423165608998644"><ele>326.7142857142857</ele><time>2026-04-11T12:28:41Z</time></trkpt><trkpt lat="45.82947444171626" lon="3.142328851981619"><ele>326.57142857142856</ele><time>2026-04-11T12:28:42Z</time></trkpt><trkpt lat="45.8295390312654" lon="3.1423402689050093"><ele>326.42857142857144</ele><time>2026-04-11T12:28:43Z</time></trkpt><trkpt lat="45.829609922936726" lon="3.1423527997576204"><ele>326.2857142857143</ele><time>2026-04-11T12:28:44Z</time></trkpt><trkpt lat="45.82967522835553" lon="3.1423645211079365"><ele>326.14285714285717</ele><time>2026-04-11T12:28:45Z</time></trkpt><trkpt lat="45.82974449408953" lon="3.1423775647918863"><ele>326.0</ele><time>2026-04-11T12:28:46Z</time></trkpt><trkpt lat="45.82981272127856" lon="3.1423904109083094"><ele>325.8571428571429</ele><time>2026-04-11T12:28:47Z</time></trkpt><trkpt lat="45.82988164952694" lon="3.1424033890032907"><ele>325.71428571428567</ele><time>2026-04-11T12:28:48Z</time></trkpt><trkpt lat="45.82995006066769" lon="3.142416269749076"><ele>325.57142857142856</ele><time>2026-04-11T12:28:49Z</time></trkpt><trkpt lat="45.83001648979027" lon="3.1424294896213207"><ele>325.42857142857144</ele><time>2026-04-11T12:28:50Z</time></trkpt><trkpt lat="45.830080752825786" lon="3.142445872761517"><ele>325.28571428571433</ele><time>2026-04-11T12:28:51Z</time></trkpt><trkpt lat="45.83014526555581" lon="3.1424661707352763"><ele>325.1428571428571</ele><time>2026-04-11T12:28:52Z</time></trkpt><trkpt lat="45.830212115332145" lon="3.1424900363138266"><ele>325.0</ele><time>2026-04-11T12:28:53Z</time></trkpt><trkpt lat="45.830282463730654" lon="3.1425167376287515"><ele>325.0</ele><time>2026-04-11T12:28:54Z</time></trkpt><trkpt lat="45.830352324600604" lon="3.1425432539075104"><ele>325.0</ele><time>2026-04-11T12:28:55Z</time></trkpt><trkpt lat="45.83041794782216" lon="3.1425685204004807"><ele>325.0</ele><time>2026-04-11T12:28:56Z</time></trkpt><trkpt lat="45.8304873882" lon="3.14259554899782"><ele>325.0</ele><time>2026-04-11T12:28:57Z</time></trkpt><trkpt lat="45.830555112619955" lon="3.14262261243788"><ele>325.0</ele><time>2026-04-11T12:28:58Z</time></trkpt><trkpt lat="45.830623445768374" lon="3.142650837488747"><ele>325.0</ele><time>2026-04-11T12:28:59Z</time></trkpt><trkpt lat="45.83069250577569" lon="3.1426793628446026"><ele>325.0</ele><time>2026-04-11T12:29:00Z</time></trkpt><trkpt lat="45.830758885757504" lon="3.1427067811971305"><ele>325.0</ele><time>2026-04-11T12:29:01Z</time></trkpt><trkpt lat="45.830826265847136" lon="3.142734612654327"><ele>325.0</ele><time>2026-04-11T12:29:02Z</time></trkpt><trkpt lat="45.830893196250365" lon="3.1427622583614037"><ele>325.0</ele><time>2026-04-11T12:29:03Z</time></trkpt><trkpt lat="45.8309614585814" lon="3.1427904541687695"><ele>325.0</ele><time>2026-04-11T12:29:04Z</time></trkpt><trkpt lat="45.83102761226154" lon="3.142817779081333"><ele>325.0</ele><time>2026-04-11T12:29:05Z</time></trkpt><trkpt lat="45.831091964325964" lon="3.1428440543984033"><ele>325.0</ele><time>2026-04-11T12:29:06Z</time></trkpt><trkpt lat="45.83115563966377" lon="3.1428692626739734"><ele>325.0</ele><time>2026-04-11T12:29:07Z</time></trkpt><trkpt lat="45.83121754882815" lon="3.1428937718512056"><ele>325.2</ele><time>2026-04-11T12:29:08Z</time></trkpt><trkpt lat="45.83127985642618" lon="3.1429178631238464"><ele>325.4</ele><time>2026-04-11T12:29:09Z</time></trkpt><trkpt lat="45.83138931529022" lon="3.142955150962296"><ele>325.6</ele><time>2026-04-11T12:29:11Z</time></trkpt><trkpt lat="45.83148164747464" lon="3.142982483590055"><ele>325.8</ele><time>2026-04-11T12:29:13Z</time></trkpt><trkpt lat="45.83155017686232" lon="3.1430023494869412"><ele>326.0</ele><time>2026-04-11T12:29:17Z</time></trkpt><trkpt lat="45.83155524106249" lon="3.143159578082184"><ele>325.8</ele><time>2026-04-11T12:29:32Z</time></trkpt><trkpt lat="45.83160310434042" lon="3.143282983260968"><ele>325.6</ele><time>2026-04-11T12:29:34Z</time></trkpt><trkpt lat="45.83169235081529" lon="3.1433666162450673"><ele>325.4</ele><time>2026-04-11T12:29:36Z</time></trkpt><trkpt lat="45.83177734818716" lon="3.1434609596425447"><ele>325.2</ele><time>2026-04-11T12:29:38Z</time></trkpt><trkpt lat="45.83186271877416" lon="3.143560496181375"><ele>325.0</ele><time>2026-04-11T12:29:40Z</time></trkpt><trkpt lat="45.83194869959921" lon="3.1436638562970343"><ele>325.5</ele><time>2026-04-11T12:29:42Z</time></trkpt><trkpt lat="45.83202853046024" lon="3.1437860353326954"><ele>326.0</ele><time>2026-04-11T12:29:44Z</time></trkpt><trkpt lat="45.83208898546265" lon="3.1439312835152804"><ele>326.5</ele><time>2026-04-11T12:29:46Z</time></trkpt><trkpt lat="45.83215963785121" lon="3.1440797142697416"><ele>327.0</ele><time>2026-04-11T12:29:48Z</time></trkpt><trkpt lat="45.83222838179229" lon="3.144231165083604"><ele>327.0</ele><time>2026-04-11T12:29:50Z</time></trkpt><trkpt lat="45.83229264907376" lon="3.144376898924095"><ele>327.0</ele><time>2026-04-11T12:29:52Z</time></trkpt><trkpt lat="45.83234420286958" lon="3.144518805207404"><ele>327.0</ele><time>2026-04-11T12:29:54Z</time></trkpt><trkpt lat="45.83237848436102" lon="3.144630077776787"><ele>327.0</ele><time>2026-04-11T12:29:56Z</time></trkpt><trkpt lat="45.832386434552866" lon="3.1447249881482087"><ele>327.0</ele><time>2026-04-11T12:30:03Z</time></trkpt><trkpt lat="45.832407220539906" lon="3.1448381900776194"><ele>327.0</ele><time>2026-04-11T12:30:05.999Z</time></trkpt><trkpt lat="45.832448880032075" lon="3.1449401842092835"><ele>327.0</ele><time>2026-04-11T12:30:07.999Z</time></trkpt><trkpt lat="45.832527155603785" lon="3.1450289087246115"><ele>327.0</ele><time>2026-04-11T12:30:09.999Z</time></trkpt><trkpt lat="45.83260522118029" lon="3.1451396220274654"><ele>327.0</ele><time>2026-04-11T12:30:11.999Z</time></trkpt><trkpt lat="45.83268334938346" lon="3.145267476783436"><ele>327.0</ele><time>2026-04-11T12:30:13.999Z</time></trkpt><trkpt lat="45.8327507413471" lon="3.1454051889212775"><ele>327.0</ele><time>2026-04-11T12:30:15.999Z</time></trkpt><trkpt lat="45.83281974757169" lon="3.145542250438285"><ele>327.0</ele><time>2026-04-11T12:30:17.999Z</time></trkpt><trkpt lat="45.83288081888575" lon="3.1456825869695546"><ele>327.0</ele><time>2026-04-11T12:30:19.999Z</time></trkpt><trkpt lat="45.83294799618789" lon="3.145828478715645"><ele>327.0</ele><time>2026-04-11T12:30:21.999Z</time></trkpt><trkpt lat="45.8330078066767" lon="3.145978856705096"><ele>326.8333333333333</ele><time>2026-04-11T12:30:23.999Z</time></trkpt><trkpt lat="45.83307382848206" lon="3.1461317830084403"><ele>326.6666666666667</ele><time>2026-04-11T12:30:25.999Z</time></trkpt><trkpt lat="45.83310971648393" lon="3.1462084537380632"><ele>326.5</ele><time>2026-04-11T12:30:26.999Z</time></trkpt><trkpt lat="45.83314453204436" lon="3.14628629695867"><ele>326.33333333333337</ele><time>2026-04-11T12:30:27.999Z</time></trkpt><trkpt lat="45.8331842029255" lon="3.146359386245935"><ele>326.1666666666667</ele><time>2026-04-11T12:30:28.999Z</time></trkpt><trkpt lat="45.83326467231379" lon="3.1464949326914833"><ele>326.0</ele><time>2026-04-11T12:30:30.999Z</time></trkpt><trkpt lat="45.83331691952359" lon="3.146555936182094"><ele>325.8571428571429</ele><time>2026-04-11T12:30:31.999Z</time></trkpt><trkpt lat="45.833366591435336" lon="3.146617158941754"><ele>325.71428571428567</ele><time>2026-04-11T12:30:32.999Z</time></trkpt><trkpt lat="45.83341597541114" lon="3.146676599027908"><ele>325.57142857142856</ele><time>2026-04-11T12:30:33.999Z</time></trkpt><trkpt lat="45.833464665249146" lon="3.146735833959877"><ele>325.42857142857144</ele><time>2026-04-11T12:30:34.999Z</time></trkpt><trkpt lat="45.83351506130199" lon="3.1467997478988625"><ele>325.28571428571433</ele><time>2026-04-11T12:30:35.999Z</time></trkpt><trkpt lat="45.83356678155612" lon="3.1468536443480852"><ele>325.1428571428571</ele><time>2026-04-11T12:30:36.999Z</time></trkpt><trkpt lat="45.83361910906153" lon="3.1469093967539448"><ele>325.0</ele><time>2026-04-11T12:30:37.999Z</time></trkpt><trkpt lat="45.83367004981544" lon="3.1469687921775553"><ele>324.8333333333333</ele><time>2026-04-11T12:30:38.999Z</time></trkpt><trkpt lat="45.833774330709076" lon="3.1470737932316704"><ele>324.66666666666663</ele><time>2026-04-11T12:30:40.999Z</time></trkpt><trkpt lat="45.83383277771939" lon="3.14712096373646"><ele>324.5</ele><time>2026-04-11T12:30:41.999Z</time></trkpt><trkpt lat="45.83388823195606" lon="3.1471684382252363"><ele>324.3333333333333</ele><time>2026-04-11T12:30:42.999Z</time></trkpt><trkpt lat="45.83394824268425" lon="3.1472097698038493"><ele>324.1666666666667</ele><time>2026-04-11T12:30:43.999Z</time></trkpt><trkpt lat="45.83400740881005" lon="3.147252417528864"><ele>324.0</ele><time>2026-04-11T12:30:45Z</time></trkpt><trkpt lat="45.83406992884176" lon="3.1472892602140727"><ele>324.0</ele><time>2026-04-11T12:30:46Z</time></trkpt><trkpt lat="45.83413468580818" lon="3.1473270355186074"><ele>324.0</ele><time>2026-04-11T12:30:47Z</time></trkpt><trkpt lat="45.83420132821901" lon="3.147360936798059"><ele>324.0</ele><time>2026-04-11T12:30:48Z</time></trkpt><trkpt lat="45.834266406332915" lon="3.1473895940293612"><ele>324.0</ele><time>2026-04-11T12:30:49Z</time></trkpt><trkpt lat="45.83433242584254" lon="3.1474191796694027"><ele>324.0</ele><time>2026-04-11T12:30:50Z</time></trkpt><trkpt lat="45.83440164332639" lon="3.147456448087662"><ele>324.0</ele><time>2026-04-11T12:30:51Z</time></trkpt><trkpt lat="45.8344666588234" lon="3.147491070858489"><ele>324.0</ele><time>2026-04-11T12:30:52Z</time></trkpt><trkpt lat="45.83453196460255" lon="3.147519881343956"><ele>324.0</ele><time>2026-04-11T12:30:53Z</time></trkpt><trkpt lat="45.834599629494996" lon="3.147552679382608"><ele>324.0</ele><time>2026-04-11T12:30:54Z</time></trkpt><trkpt lat="45.83466745966205" lon="3.1475843285746046"><ele>324.0</ele><time>2026-04-11T12:30:55Z</time></trkpt><trkpt lat="45.83473386964252" lon="3.1476202885530906"><ele>324.0</ele><time>2026-04-11T12:30:56Z</time></trkpt><trkpt lat="45.83479973145499" lon="3.1476484644077156"><ele>324.0</ele><time>2026-04-11T12:30:57Z</time></trkpt><trkpt lat="45.834865621585564" lon="3.147684538661612"><ele>324.0</ele><time>2026-04-11T12:30:58Z</time></trkpt><trkpt lat="45.83493015082098" lon="3.1477172600828305"><ele>324.0</ele><time>2026-04-11T12:30:59Z</time></trkpt><trkpt lat="45.834997827428644" lon="3.147752222497186"><ele>324.0</ele><time>2026-04-11T12:31:00Z</time></trkpt><trkpt lat="45.83506182198429" lon="3.1477950616031753"><ele>324.0</ele><time>2026-04-11T12:31:01Z</time></trkpt><trkpt lat="45.83512598799094" lon="3.147830039036165"><ele>324.0</ele><time>2026-04-11T12:31:02Z</time></trkpt><trkpt lat="45.83518874714856" lon="3.147878247749417"><ele>324.0</ele><time>2026-04-11T12:31:03Z</time></trkpt><trkpt lat="45.835244863083744" lon="3.147945426601681"><ele>324.0</ele><time>2026-04-11T12:31:04Z</time></trkpt><trkpt lat="45.835299846671525" lon="3.1480049930342595"><ele>324.0</ele><time>2026-04-11T12:31:05Z</time></trkpt><trkpt lat="45.83535095469911" lon="3.1480720646151443"><ele>324.0</ele><time>2026-04-11T12:31:06Z</time></trkpt><trkpt lat="45.83540323207944" lon="3.148139237773831"><ele>323.8571428571429</ele><time>2026-04-11T12:31:07Z</time></trkpt><trkpt lat="45.835455282388175" lon="3.148208339281819"><ele>323.7142857142857</ele><time>2026-04-11T12:31:08Z</time></trkpt><trkpt lat="45.83550718631081" lon="3.148278234422244"><ele>323.57142857142856</ele><time>2026-04-11T12:31:09Z</time></trkpt><trkpt lat="45.83555777409825" lon="3.1483461086427322"><ele>323.42857142857144</ele><time>2026-04-11T12:31:10Z</time></trkpt><trkpt lat="45.8356120057064" lon="3.1484131857481623"><ele>323.2857142857143</ele><time>2026-04-11T12:31:11Z</time></trkpt><trkpt lat="45.83566391044644" lon="3.148478655259431"><ele>323.14285714285717</ele><time>2026-04-11T12:31:12Z</time></trkpt><trkpt lat="45.83571662467165" lon="3.1485471981939175"><ele>323.0</ele><time>2026-04-11T12:31:13Z</time></trkpt><trkpt lat="45.835769585845625" lon="3.1486134818421228"><ele>323.00000000000006</ele><time>2026-04-11T12:31:14Z</time></trkpt><trkpt lat="45.83582050522333" lon="3.148680443927034"><ele>323.0</ele><time>2026-04-11T12:31:15Z</time></trkpt><trkpt lat="45.835871345115606" lon="3.148747968432352"><ele>323.0</ele><time>2026-04-11T12:31:16Z</time></trkpt><trkpt lat="45.83592268870951" lon="3.1488164644543795"><ele>323.0</ele><time>2026-04-11T12:31:17Z</time></trkpt><trkpt lat="45.83597520479786" lon="3.1488828545441945"><ele>323.0</ele><time>2026-04-11T12:31:18Z</time></trkpt><trkpt lat="45.836027310208436" lon="3.1489518422372575"><ele>323.00000000000006</ele><time>2026-04-11T12:31:19Z</time></trkpt><trkpt lat="45.836081596452416" lon="3.1490137313973863"><ele>323.0</ele><time>2026-04-11T12:31:20Z</time></trkpt><trkpt lat="45.83613066755107" lon="3.1490806719550473"><ele>323.00000000000006</ele><time>2026-04-11T12:31:21Z</time></trkpt><trkpt lat="45.836181144357255" lon="3.1491476223933565"><ele>323.0</ele><time>2026-04-11T12:31:22Z</time></trkpt><trkpt lat="45.83623419008992" lon="3.149214522995675"><ele>323.0</ele><time>2026-04-11T12:31:23Z</time></trkpt><trkpt lat="45.83628859944333" lon="3.149281927304779"><ele>323.0</ele><time>2026-04-11T12:31:24Z</time></trkpt><trkpt lat="45.836344945137434" lon="3.1493474335668727"><ele>323.0</ele><time>2026-04-11T12:31:25Z</time></trkpt><trkpt lat="45.83640214369469" lon="3.149405219684648"><ele>323.00000000000006</ele><time>2026-04-11T12:31:26Z</time></trkpt><trkpt lat="45.836459055122965" lon="3.1494615911143593"><ele>323.0</ele><time>2026-04-11T12:31:27Z</time></trkpt><trkpt lat="45.836518608022516" lon="3.149516037637257"><ele>323.00000000000006</ele><time>2026-04-11T12:31:28Z</time></trkpt><trkpt lat="45.836578282270324" lon="3.1495680327258273"><ele>323.0</ele><time>2026-04-11T12:31:29Z</time></trkpt><trkpt lat="45.83663478037981" lon="3.1496250991750174"><ele>323.0</ele><time>2026-04-11T12:31:30Z</time></trkpt><trkpt lat="45.83669213735325" lon="3.1496798664610797"><ele>323.0</ele><time>2026-04-11T12:31:31Z</time></trkpt><trkpt lat="45.83674924571162" lon="3.1497324659955703"><ele>323.0</ele><time>2026-04-11T12:31:32Z</time></trkpt><trkpt lat="45.836811311053744" lon="3.149777507922869"><ele>323.00000000000006</ele><time>2026-04-11T12:31:33Z</time></trkpt><trkpt lat="45.83687276171913" lon="3.149825186617344"><ele>323.0</ele><time>2026-04-11T12:31:34Z</time></trkpt><trkpt lat="45.8369338488391" lon="3.1498619164935855"><ele>323.1666666666667</ele><time>2026-04-11T12:31:35Z</time></trkpt><trkpt lat="45.836998404052395" lon="3.1498953886933236"><ele>323.33333333333337</ele><time>2026-04-11T12:31:36Z</time></trkpt><trkpt lat="45.83706081019412" lon="3.149925309670593"><ele>323.5</ele><time>2026-04-11T12:31:37Z</time></trkpt><trkpt lat="45.83712402821208" lon="3.149956319885512"><ele>323.6666666666667</ele><time>2026-04-11T12:31:38Z</time></trkpt><trkpt lat="45.83718485445962" lon="3.149989344263875"><ele>323.8333333333333</ele><time>2026-04-11T12:31:39Z</time></trkpt><trkpt lat="45.83730923348355" lon="3.1500085446386326"><ele>324.0</ele><time>2026-04-11T12:31:41Z</time></trkpt><trkpt lat="45.837426829831" lon="3.1500079910933922"><ele>324.0</ele><time>2026-04-11T12:31:43Z</time></trkpt><trkpt lat="45.83748977823853" lon="3.1500337941893464"><ele>324.0</ele><time>2026-04-11T12:31:44Z</time></trkpt><trkpt lat="45.83753923457558" lon="3.1500932917173086"><ele>324.0</ele><time>2026-04-11T12:31:45Z</time></trkpt><trkpt lat="45.837626737716455" lon="3.150203089476061"><ele>324.0</ele><time>2026-04-11T12:31:47Z</time></trkpt><trkpt lat="45.83774820217049" lon="3.150233671939286"><ele>324.0</ele><time>2026-04-11T12:31:49Z</time></trkpt><trkpt lat="45.83785591894698" lon="3.1503163519228"><ele>324.5</ele><time>2026-04-11T12:31:51Z</time></trkpt><trkpt lat="45.837962420215945" lon="3.1504074432429805"><ele>325.0</ele><time>2026-04-11T12:31:53Z</time></trkpt><trkpt lat="45.83802102060099" lon="3.150454365398215"><ele>325.5</ele><time>2026-04-11T12:31:54Z</time></trkpt><trkpt lat="45.83807903951306" lon="3.150514407909513"><ele>326.0</ele><time>2026-04-11T12:31:54.999Z</time></trkpt><trkpt lat="45.83813199872532" lon="3.1505758670275474"><ele>326.5</ele><time>2026-04-11T12:31:55.999Z</time></trkpt><trkpt lat="45.83818172650181" lon="3.150643844087769"><ele>327.0</ele><time>2026-04-11T12:31:56.999Z</time></trkpt><trkpt lat="45.83823621185233" lon="3.1507062422825314"><ele>326.7142857142857</ele><time>2026-04-11T12:31:57.999Z</time></trkpt><trkpt lat="45.83827908472945" lon="3.150786157427435"><ele>326.42857142857144</ele><time>2026-04-11T12:31:58.999Z</time></trkpt><trkpt lat="45.83833256780289" lon="3.1508581324954688"><ele>326.1428571428571</ele><time>2026-04-11T12:31:59.999Z</time></trkpt><trkpt lat="45.83837058357921" lon="3.150940902180814"><ele>325.8571428571429</ele><time>2026-04-11T12:32:00.999Z</time></trkpt><trkpt lat="45.83841408914668" lon="3.1510187149223423"><ele>325.5714285714286</ele><time>2026-04-11T12:32:01.999Z</time></trkpt><trkpt lat="45.83845544149697" lon="3.1510982308279214"><ele>325.2857142857143</ele><time>2026-04-11T12:32:02.999Z</time></trkpt><trkpt lat="45.838498274170384" lon="3.151176074617277"><ele>325.0</ele><time>2026-04-11T12:32:03.999Z</time></trkpt><trkpt lat="45.83853677609228" lon="3.151251741076317"><ele>325.7142857142857</ele><time>2026-04-11T12:32:04.999Z</time></trkpt><trkpt lat="45.838578622654104" lon="3.151326685240651"><ele>326.42857142857144</ele><time>2026-04-11T12:32:05.999Z</time></trkpt><trkpt lat="45.83861746922945" lon="3.151401837563636"><ele>327.14285714285717</ele><time>2026-04-11T12:32:06.999Z</time></trkpt><trkpt lat="45.838656369385205" lon="3.151480696627121"><ele>327.8571428571429</ele><time>2026-04-11T12:32:07.999Z</time></trkpt><trkpt lat="45.83869455063025" lon="3.151558216236731"><ele>328.57142857142856</ele><time>2026-04-11T12:32:08.999Z</time></trkpt><trkpt lat="45.8387327385216" lon="3.1516341155171888"><ele>329.28571428571433</ele><time>2026-04-11T12:32:09.999Z</time></trkpt><trkpt lat="45.838773083587164" lon="3.1517084236438717"><ele>330.0</ele><time>2026-04-11T12:32:10.999Z</time></trkpt><trkpt lat="45.838811034379525" lon="3.1517843548144553"><ele>330.0</ele><time>2026-04-11T12:32:11.999Z</time></trkpt><trkpt lat="45.838852079309596" lon="3.151854607669722"><ele>330.0</ele><time>2026-04-11T12:32:12.999Z</time></trkpt><trkpt lat="45.838922719633274" lon="3.1520015483769064"><ele>330.0</ele><time>2026-04-11T12:32:14.999Z</time></trkpt><trkpt lat="45.83899481422177" lon="3.1521465306632512"><ele>330.0</ele><time>2026-04-11T12:32:16.999Z</time></trkpt><trkpt lat="45.83903265756253" lon="3.152219016751196"><ele>330.0</ele><time>2026-04-11T12:32:17.999Z</time></trkpt><trkpt lat="45.83907728046548" lon="3.1522899796928243"><ele>330.0</ele><time>2026-04-11T12:32:18.999Z</time></trkpt><trkpt lat="45.83914421152451" lon="3.1524331380135067"><ele>329.5</ele><time>2026-04-11T12:32:20.999Z</time></trkpt><trkpt lat="45.83921751029768" lon="3.1525692670869567"><ele>329.0</ele><time>2026-04-11T12:32:22.999Z</time></trkpt><trkpt lat="45.83929244781215" lon="3.1527099451247373"><ele>328.5</ele><time>2026-04-11T12:32:24.999Z</time></trkpt><trkpt lat="45.8393703617617" lon="3.152838921590281"><ele>328.0</ele><time>2026-04-11T12:32:26.999Z</time></trkpt><trkpt lat="45.839447224374005" lon="3.1529708823187685"><ele>328.25</ele><time>2026-04-11T12:32:28.999Z</time></trkpt><trkpt lat="45.83952112737933" lon="3.1531060550372865"><ele>328.5</ele><time>2026-04-11T12:32:30.999Z</time></trkpt><trkpt lat="45.83960270040521" lon="3.1532363981087657"><ele>328.75</ele><time>2026-04-11T12:32:32.999Z</time></trkpt><trkpt lat="45.83968047505242" lon="3.153362451950436"><ele>329.0</ele><time>2026-04-11T12:32:34.999Z</time></trkpt><trkpt lat="45.83976576078206" lon="3.153485614523699"><ele>329.0</ele><time>2026-04-11T12:32:36.999Z</time></trkpt><trkpt lat="45.83984737116112" lon="3.1536094734586095"><ele>329.0</ele><time>2026-04-11T12:32:38.999Z</time></trkpt><trkpt lat="45.83992739198075" lon="3.153738756766867"><ele>329.0</ele><time>2026-04-11T12:32:40.999Z</time></trkpt><trkpt lat="45.840007547712496" lon="3.1538700479077737"><ele>329.0</ele><time>2026-04-11T12:32:42.999Z</time></trkpt><trkpt lat="45.840088903453555" lon="3.154002037466506"><ele>329.79999999999995</ele><time>2026-04-11T12:32:44.999Z</time></trkpt><trkpt lat="45.8401740545687" lon="3.1541322350251075"><ele>330.59999999999997</ele><time>2026-04-11T12:32:46.999Z</time></trkpt><trkpt lat="45.840257335873126" lon="3.15426626343291"><ele>331.4</ele><time>2026-04-11T12:32:48.999Z</time></trkpt><trkpt lat="45.840300749710735" lon="3.1543336927017123"><ele>332.2</ele><time>2026-04-11T12:32:49.999Z</time></trkpt><trkpt lat="45.84038491111215" lon="3.1544664986786577"><ele>333.0</ele><time>2026-04-11T12:32:52Z</time></trkpt><trkpt lat="45.84046897347573" lon="3.1545992647289136"><ele>333.0</ele><time>2026-04-11T12:32:54Z</time></trkpt><trkpt lat="45.840551013643676" lon="3.154731353614708"><ele>333.0</ele><time>2026-04-11T12:32:56Z</time></trkpt><trkpt lat="45.840589960631824" lon="3.1548054398281824"><ele>333.0</ele><time>2026-04-11T12:32:57Z</time></trkpt><trkpt lat="45.84067094724201" lon="3.1549368666656634"><ele>333.0</ele><time>2026-04-11T12:32:59Z</time></trkpt><trkpt lat="45.8407447260344" lon="3.1550759401569426"><ele>333.0</ele><time>2026-04-11T12:33:01Z</time></trkpt><trkpt lat="45.8408134207178" lon="3.1552240765068635"><ele>333.2</ele><time>2026-04-11T12:33:03Z</time></trkpt><trkpt lat="45.84084767793207" lon="3.155301210978519"><ele>333.4</ele><time>2026-04-11T12:33:04Z</time></trkpt><trkpt lat="45.84091358690779" lon="3.1554525023736533"><ele>333.59999999999997</ele><time>2026-04-11T12:33:06Z</time></trkpt><trkpt lat="45.84097130217698" lon="3.15561085572744"><ele>333.79999999999995</ele><time>2026-04-11T12:33:08Z</time></trkpt><trkpt lat="45.841022048893805" lon="3.15576844149569"><ele>334.0</ele><time>2026-04-11T12:33:10Z</time></trkpt><trkpt lat="45.841077039423915" lon="3.155932940193893"><ele>333.5</ele><time>2026-04-11T12:33:12Z</time></trkpt><trkpt lat="45.841102565525446" lon="3.1560160804416686"><ele>333.0</ele><time>2026-04-11T12:33:13Z</time></trkpt><trkpt lat="45.84115331621689" lon="3.156187441922109"><ele>332.5</ele><time>2026-04-11T12:33:15Z</time></trkpt><trkpt lat="45.84117683016522" lon="3.1562753505587615"><ele>332.0</ele><time>2026-04-11T12:33:16Z</time></trkpt><trkpt lat="45.84120409090643" lon="3.156358556172883"><ele>331.5</ele><time>2026-04-11T12:33:17Z</time></trkpt><trkpt lat="45.84123190151707" lon="3.1564458799692043"><ele>331.0</ele><time>2026-04-11T12:33:18Z</time></trkpt><trkpt lat="45.841259677850346" lon="3.156529483424127"><ele>330.42857142857144</ele><time>2026-04-11T12:33:19Z</time></trkpt><trkpt lat="45.84128597747438" lon="3.15661805578518"><ele>329.85714285714283</ele><time>2026-04-11T12:33:20Z</time></trkpt><trkpt lat="45.841314207315946" lon="3.1567060220096494"><ele>329.2857142857143</ele><time>2026-04-11T12:33:21Z</time></trkpt><trkpt lat="45.84134225563709" lon="3.1567971308371847"><ele>328.7142857142857</ele><time>2026-04-11T12:33:22Z</time></trkpt><trkpt lat="45.841368310684004" lon="3.156891951014556"><ele>328.14285714285717</ele><time>2026-04-11T12:33:23Z</time></trkpt><trkpt lat="45.841399001970785" lon="3.1569881770344583"><ele>327.57142857142856</ele><time>2026-04-11T12:33:24Z</time></trkpt><trkpt lat="45.84143283478212" lon="3.157086990700769"><ele>327.0</ele><time>2026-04-11T12:33:25Z</time></trkpt><trkpt lat="45.84146897551878" lon="3.157189485764638"><ele>327.0</ele><time>2026-04-11T12:33:26Z</time></trkpt><trkpt lat="45.841501990188796" lon="3.1572931310272923"><ele>327.0</ele><time>2026-04-11T12:33:27Z</time></trkpt><trkpt lat="45.841532579542104" lon="3.1574007237506057"><ele>327.0</ele><time>2026-04-11T12:33:28Z</time></trkpt><trkpt lat="45.841560885375394" lon="3.1575104866081847"><ele>327.0</ele><time>2026-04-11T12:33:29Z</time></trkpt><trkpt lat="45.84158704526067" lon="3.157622188252961"><ele>327.0</ele><time>2026-04-11T12:33:30Z</time></trkpt><trkpt lat="45.84160490345814" lon="3.1577295092130946"><ele>327.0</ele><time>2026-04-11T12:33:31Z</time></trkpt><trkpt lat="45.84160413277317" lon="3.157843319416899"><ele>326.8333333333333</ele><time>2026-04-11T12:33:32Z</time></trkpt><trkpt lat="45.841557614213734" lon="3.1579465156714233"><ele>326.6666666666667</ele><time>2026-04-11T12:33:33Z</time></trkpt><trkpt lat="45.841517732543046" lon="3.1580397446165183"><ele>326.5</ele><time>2026-04-11T12:33:34Z</time></trkpt><trkpt lat="45.841491515394885" lon="3.1581393676267697"><ele>326.33333333333337</ele><time>2026-04-11T12:33:35Z</time></trkpt><trkpt lat="45.84148455597467" lon="3.1582474233312623"><ele>326.1666666666667</ele><time>2026-04-11T12:33:36Z</time></trkpt><trkpt lat="45.841493751957586" lon="3.158355392228896"><ele>326.0</ele><time>2026-04-11T12:33:37Z</time></trkpt><trkpt lat="45.84152101184516" lon="3.1584562886368817"><ele>325.8571428571429</ele><time>2026-04-11T12:33:38Z</time></trkpt><trkpt lat="45.84156332164683" lon="3.158545957488165"><ele>325.71428571428567</ele><time>2026-04-11T12:33:39Z</time></trkpt><trkpt lat="45.841618351580365" lon="3.158617717295306"><ele>325.57142857142856</ele><time>2026-04-11T12:33:40Z</time></trkpt><trkpt lat="45.84168356783012" lon="3.158670747535995"><ele>325.42857142857144</ele><time>2026-04-11T12:33:41Z</time></trkpt><trkpt lat="45.84175450823139" lon="3.158700631984297"><ele>325.28571428571433</ele><time>2026-04-11T12:33:42Z</time></trkpt><trkpt lat="45.84182676324383" lon="3.1587048519073493"><ele>325.1428571428571</ele><time>2026-04-11T12:33:43Z</time></trkpt><trkpt lat="45.841899136992076" lon="3.1586817736457773"><ele>325.0</ele><time>2026-04-11T12:33:44Z</time></trkpt><trkpt lat="45.841966299176455" lon="3.158638567058521"><ele>325.0</ele><time>2026-04-11T12:33:45Z</time></trkpt><trkpt lat="45.84202496656832" lon="3.1585738128595073"><ele>325.0</ele><time>2026-04-11T12:33:46Z</time></trkpt><trkpt lat="45.84208276468782" lon="3.1585116782086127"><ele>325.0</ele><time>2026-04-11T12:33:47Z</time></trkpt><trkpt lat="45.84214890954491" lon="3.1584760045542195"><ele>325.0</ele><time>2026-04-11T12:33:48Z</time></trkpt><trkpt lat="45.84222201424438" lon="3.1584560654072966"><ele>325.0</ele><time>2026-04-11T12:33:49Z</time></trkpt><trkpt lat="45.84229484532022" lon="3.158463372777606"><ele>325.0</ele><time>2026-04-11T12:33:50Z</time></trkpt><trkpt lat="45.84236369522739" lon="3.158492373001197"><ele>325.0</ele><time>2026-04-11T12:33:51Z</time></trkpt><trkpt lat="45.84242512396425" lon="3.158540903597862"><ele>325.0</ele><time>2026-04-11T12:33:52Z</time></trkpt><trkpt lat="45.84249153119535" lon="3.158541947348721"><ele>325.0</ele><time>2026-04-11T12:33:53Z</time></trkpt><trkpt lat="45.84254025318703" lon="3.158646231654016"><ele>325.0</ele><time>2026-04-11T12:33:54Z</time></trkpt><trkpt lat="45.842595357424855" lon="3.158704399030962"><ele>325.0</ele><time>2026-04-11T12:33:55Z</time></trkpt><trkpt lat="45.842648189934074" lon="3.1587662530245426"><ele>325.0</ele><time>2026-04-11T12:33:56Z</time></trkpt><trkpt lat="45.84269905836808" lon="3.1588314285690053"><ele>325.0</ele><time>2026-04-11T12:33:56.999Z</time></trkpt><trkpt lat="45.84274624843543" lon="3.158903371755126"><ele>325.0</ele><time>2026-04-11T12:33:57.999Z</time></trkpt><trkpt lat="45.84278987607491" lon="3.158978369924212"><ele>324.5</ele><time>2026-04-11T12:33:58.999Z</time></trkpt><trkpt lat="45.84283074806579" lon="3.159051919994061"><ele>324.0</ele><time>2026-04-11T12:33:59.999Z</time></trkpt><trkpt lat="45.84286860068124" lon="3.1591254482321385"><ele>323.5</ele><time>2026-04-11T12:34:00.999Z</time></trkpt><trkpt lat="45.84290048031738" lon="3.1592042685696993"><ele>323.0</ele><time>2026-04-11T12:34:01.999Z</time></trkpt><trkpt lat="45.84296222894948" lon="3.1593627405205886"><ele>322.5</ele><time>2026-04-11T12:34:03.999Z</time></trkpt><trkpt lat="45.842992736316184" lon="3.1594430395232376"><ele>322.0</ele><time>2026-04-11T12:34:04.999Z</time></trkpt><trkpt lat="45.843045703338" lon="3.1596070266636826"><ele>322.0</ele><time>2026-04-11T12:34:06.999Z</time></trkpt><trkpt lat="45.843093409492084" lon="3.1597737163514656"><ele>322.0</ele><time>2026-04-11T12:34:08.999Z</time></trkpt><trkpt lat="45.84313765213475" lon="3.159941654803647"><ele>322.0</ele><time>2026-04-11T12:34:10.999Z</time></trkpt><trkpt lat="45.84318456544742" lon="3.160106768657739"><ele>322.0</ele><time>2026-04-11T12:34:12.999Z</time></trkpt><trkpt lat="45.84323077518069" lon="3.1602700324515056"><ele>321.8</ele><time>2026-04-11T12:34:14.999Z</time></trkpt><trkpt lat="45.84327914966097" lon="3.160431510982282"><ele>321.6</ele><time>2026-04-11T12:34:16.999Z</time></trkpt><trkpt lat="45.84332315078493" lon="3.1605963860136503"><ele>321.40000000000003</ele><time>2026-04-11T12:34:18.999Z</time></trkpt><trkpt lat="45.843368808893956" lon="3.1607628856532375"><ele>321.20000000000005</ele><time>2026-04-11T12:34:20.999Z</time></trkpt><trkpt lat="45.84339209119821" lon="3.160849301152312"><ele>321.0</ele><time>2026-04-11T12:34:21.999Z</time></trkpt><trkpt lat="45.8434167091418" lon="3.160933464155452"><ele>320.99999999999994</ele><time>2026-04-11T12:34:22.999Z</time></trkpt><trkpt lat="45.84344011437248" lon="3.1610198092942805"><ele>321.0</ele><time>2026-04-11T12:34:23.999Z</time></trkpt><trkpt lat="45.8434651417432" lon="3.161105450527412"><ele>321.0</ele><time>2026-04-11T12:34:24.999Z</time></trkpt><trkpt lat="45.84348948095845" lon="3.1611937552187213"><ele>321.0</ele><time>2026-04-11T12:34:25.999Z</time></trkpt><trkpt lat="45.84351388848941" lon="3.161282378124554"><ele>321.0</ele><time>2026-04-11T12:34:26.999Z</time></trkpt><trkpt lat="45.84353960023189" lon="3.161370465547312"><ele>320.99999999999994</ele><time>2026-04-11T12:34:27.999Z</time></trkpt><trkpt lat="45.843565216531395" lon="3.1614619679804523"><ele>321.0</ele><time>2026-04-11T12:34:28.999Z</time></trkpt><trkpt lat="45.84359133016015" lon="3.1615565308978506"><ele>321.0</ele><time>2026-04-11T12:34:29.999Z</time></trkpt><trkpt lat="45.84362089753972" lon="3.1616529877916144"><ele>321.0</ele><time>2026-04-11T12:34:30.999Z</time></trkpt><trkpt lat="45.843649611336645" lon="3.161751294931545"><ele>321.0</ele><time>2026-04-11T12:34:31.999Z</time></trkpt><trkpt lat="45.84368149186488" lon="3.1618496802079328"><ele>321.0</ele><time>2026-04-11T12:34:32.999Z</time></trkpt><trkpt lat="45.84371322789373" lon="3.1619475716486867"><ele>321.0</ele><time>2026-04-11T12:34:33.999Z</time></trkpt><trkpt lat="45.84374379008068" lon="3.162047237431586"><ele>321.0</ele><time>2026-04-11T12:34:34.999Z</time></trkpt><trkpt lat="45.84377462147756" lon="3.162150015716898"><ele>321.0</ele><time>2026-04-11T12:34:35.999Z</time></trkpt><trkpt lat="45.84380728046514" lon="3.162254617123573"><ele>321.0</ele><time>2026-04-11T12:34:36.999Z</time></trkpt><trkpt lat="45.84384192773986" lon="3.1623612995201307"><ele>321.0</ele><time>2026-04-11T12:34:37.999Z</time></trkpt><trkpt lat="45.84387837012259" lon="3.1624682882968442"><ele>321.0</ele><time>2026-04-11T12:34:38.999Z</time></trkpt><trkpt lat="45.843916037663774" lon="3.162576267178046"><ele>321.0</ele><time>2026-04-11T12:34:39.999Z</time></trkpt><trkpt lat="45.843955288009596" lon="3.1626841933630274"><ele>321.0</ele><time>2026-04-11T12:34:40.999Z</time></trkpt><trkpt lat="45.8439953953104" lon="3.1627924513876793"><ele>321.1666666666667</ele><time>2026-04-11T12:34:41.999Z</time></trkpt><trkpt lat="45.84404055951975" lon="3.1629004988332174"><ele>321.3333333333333</ele><time>2026-04-11T12:34:42.999Z</time></trkpt><trkpt lat="45.84408514577027" lon="3.163008189459286"><ele>321.5</ele><time>2026-04-11T12:34:43.999Z</time></trkpt><trkpt lat="45.844127302250484" lon="3.163118890788183"><ele>321.66666666666663</ele><time>2026-04-11T12:34:44.999Z</time></trkpt><trkpt lat="45.84417310358918" lon="3.1632293098029143"><ele>321.8333333333333</ele><time>2026-04-11T12:34:45.999Z</time></trkpt><trkpt lat="45.844221705490625" lon="3.16333967833297"><ele>322.0</ele><time>2026-04-11T12:34:46.999Z</time></trkpt><trkpt lat="45.84427086803472" lon="3.163449379582738"><ele>321.40000000000003</ele><time>2026-04-11T12:34:47.999Z</time></trkpt><trkpt lat="45.84431996128924" lon="3.1635594866419097"><ele>320.8</ele><time>2026-04-11T12:34:48.999Z</time></trkpt><trkpt lat="45.84437134894808" lon="3.163667130985958"><ele>320.2</ele><time>2026-04-11T12:34:49.999Z</time></trkpt><trkpt lat="45.844424190003984" lon="3.163773471047417"><ele>319.6</ele><time>2026-04-11T12:34:50.999Z</time></trkpt><trkpt lat="45.84448357216357" lon="3.1638729673928845"><ele>319.0</ele><time>2026-04-11T12:34:51.999Z</time></trkpt><trkpt lat="45.844534833629915" lon="3.1639769994520863"><ele>319.3333333333333</ele><time>2026-04-11T12:34:52.999Z</time></trkpt><trkpt lat="45.8445872326205" lon="3.1640782630663566"><ele>319.66666666666663</ele><time>2026-04-11T12:34:53.999Z</time></trkpt><trkpt lat="45.844640523558844" lon="3.1641783668642502"><ele>320.0</ele><time>2026-04-11T12:34:54.999Z</time></trkpt><trkpt lat="45.84469421512986" lon="3.1642758485391775"><ele>320.3333333333333</ele><time>2026-04-11T12:34:55.999Z</time></trkpt><trkpt lat="45.84474912529749" lon="3.164370668089818"><ele>320.6666666666667</ele><time>2026-04-11T12:34:57Z</time></trkpt><trkpt lat="45.84480755915925" lon="3.1644604406911396"><ele>321.0</ele><time>2026-04-11T12:34:58Z</time></trkpt><trkpt lat="45.8448700128889" lon="3.164543303851085"><ele>321.0</ele><time>2026-04-11T12:34:59Z</time></trkpt><trkpt lat="45.84493435323226" lon="3.1646200427061433"><ele>321.0</ele><time>2026-04-11T12:35:00Z</time></trkpt><trkpt lat="45.84500412954832" lon="3.164685193085181"><ele>321.0</ele><time>2026-04-11T12:35:01Z</time></trkpt><trkpt lat="45.84507042345769" lon="3.164751208281696"><ele>321.0</ele><time>2026-04-11T12:35:02Z</time></trkpt><trkpt lat="45.845139673658" lon="3.1648156480010208"><ele>321.0</ele><time>2026-04-11T12:35:03Z</time></trkpt><trkpt lat="45.845213775843604" lon="3.1648673318595844"><ele>321.0</ele><time>2026-04-11T12:35:04Z</time></trkpt><trkpt lat="45.84529146108943" lon="3.1649063120476653"><ele>320.6666666666667</ele><time>2026-04-11T12:35:05Z</time></trkpt><trkpt lat="45.84536571293306" lon="3.1649443983702867"><ele>320.3333333333333</ele><time>2026-04-11T12:35:06Z</time></trkpt><trkpt lat="45.845443508595075" lon="3.1649785921087554"><ele>320.0</ele><time>2026-04-11T12:35:07Z</time></trkpt><trkpt lat="45.84552220161244" lon="3.165004711655977"><ele>319.66666666666663</ele><time>2026-04-11T12:35:08Z</time></trkpt><trkpt lat="45.845598825551626" lon="3.165031354695694"><ele>319.3333333333333</ele><time>2026-04-11T12:35:09Z</time></trkpt><trkpt lat="45.84567687077941" lon="3.165053170139226"><ele>319.0</ele><time>2026-04-11T12:35:10Z</time></trkpt><trkpt lat="45.84575471796417" lon="3.165073416085721"><ele>319.0</ele><time>2026-04-11T12:35:11Z</time></trkpt><trkpt lat="45.84583317400752" lon="3.1650953034871656"><ele>319.0</ele><time>2026-04-11T12:35:12Z</time></trkpt><trkpt lat="45.8459123933307" lon="3.1651157658258655"><ele>319.0</ele><time>2026-04-11T12:35:13Z</time></trkpt><trkpt lat="45.84598954318398" lon="3.1651441933424866"><ele>319.0</ele><time>2026-04-11T12:35:14Z</time></trkpt><trkpt lat="45.84606248062578" lon="3.1651939658213446"><ele>319.0</ele><time>2026-04-11T12:35:15Z</time></trkpt><trkpt lat="45.84613721128864" lon="3.165247518534992"><ele>319.0</ele><time>2026-04-11T12:35:16Z</time></trkpt><trkpt lat="45.84618938990998" lon="3.1653414539654"><ele>319.0</ele><time>2026-04-11T12:35:17Z</time></trkpt><trkpt lat="45.84622679907531" lon="3.165445957634439"><ele>319.0</ele><time>2026-04-11T12:35:18Z</time></trkpt><trkpt lat="45.846246902250826" lon="3.1655596171960325"><ele>319.0</ele><time>2026-04-11T12:35:19Z</time></trkpt><trkpt lat="45.84623897391368" lon="3.1656789655462596"><ele>319.0</ele><time>2026-04-11T12:35:20Z</time></trkpt><trkpt lat="45.84622200711197" lon="3.165788693746838"><ele>319.0</ele><time>2026-04-11T12:35:21Z</time></trkpt><trkpt lat="45.84618044224857" lon="3.1658849422815254"><ele>319.0</ele><time>2026-04-11T12:35:22Z</time></trkpt><trkpt lat="45.84612435240558" lon="3.165953962320752"><ele>319.0</ele><time>2026-04-11T12:35:23Z</time></trkpt><trkpt lat="45.84603676804018" lon="3.165967343922917"><ele>319.0</ele><time>2026-04-11T12:35:24Z</time></trkpt><trkpt lat="45.84597218802386" lon="3.166003929578901"><ele>319.0</ele><time>2026-04-11T12:35:25Z</time></trkpt><trkpt lat="45.8459341689731" lon="3.1660907169387262"><ele>319.0</ele><time>2026-04-11T12:35:26Z</time></trkpt><trkpt lat="45.84589096090485" lon="3.166164854119265"><ele>319.0</ele><time>2026-04-11T12:35:27Z</time></trkpt><trkpt lat="45.8458592122096" lon="3.1662495100007924"><ele>319.0</ele><time>2026-04-11T12:35:28Z</time></trkpt><trkpt lat="45.84583619499137" lon="3.1663358568872737"><ele>319.0</ele><time>2026-04-11T12:35:29Z</time></trkpt><trkpt lat="45.84581990620628" lon="3.1664277376336325"><ele>319.14285714285717</ele><time>2026-04-11T12:35:30Z</time></trkpt><trkpt lat="45.84581260029944" lon="3.166520108250088"><ele>319.2857142857143</ele><time>2026-04-11T12:35:31Z</time></trkpt><trkpt lat="45.84581525569842" lon="3.166611828846288"><ele>319.42857142857144</ele><time>2026-04-11T12:35:32Z</time></trkpt><trkpt lat="45.845825911301375" lon="3.1667025712209047"><ele>319.57142857142856</ele><time>2026-04-11T12:35:33Z</time></trkpt><trkpt lat="45.84584671967634" lon="3.166789891207642"><ele>319.7142857142857</ele><time>2026-04-11T12:35:34Z</time></trkpt><trkpt lat="45.84586938401999" lon="3.166883137141454"><ele>319.85714285714283</ele><time>2026-04-11T12:35:35Z</time></trkpt><trkpt lat="45.8458929135738" lon="3.1669724759655735"><ele>320.0</ele><time>2026-04-11T12:35:36Z</time></trkpt><trkpt lat="45.84595696078728" lon="3.1670208097271715"><ele>319.85714285714283</ele><time>2026-04-11T12:35:37Z</time></trkpt><trkpt lat="45.846009120115674" lon="3.1670820287564214"><ele>319.7142857142857</ele><time>2026-04-11T12:35:38Z</time></trkpt><trkpt lat="45.84605877365923" lon="3.167149283846368"><ele>319.57142857142856</ele><time>2026-04-11T12:35:39Z</time></trkpt><trkpt lat="45.84612232352681" lon="3.1671823337940017"><ele>319.42857142857144</ele><time>2026-04-11T12:35:40Z</time></trkpt><trkpt lat="45.84618832198879" lon="3.1671989803518823"><ele>319.2857142857143</ele><time>2026-04-11T12:35:41Z</time></trkpt><trkpt lat="45.84625763927824" lon="3.1672054019630584"><ele>319.14285714285717</ele><time>2026-04-11T12:35:42Z</time></trkpt><trkpt lat="45.84632879795214" lon="3.167204951428634"><ele>319.0</ele><time>2026-04-11T12:35:43Z</time></trkpt><trkpt lat="45.8463964356328" lon="3.1671817251327345"><ele>319.0</ele><time>2026-04-11T12:35:44Z</time></trkpt><trkpt lat="45.84646113208572" lon="3.167287329401537"><ele>319.0</ele><time>2026-04-11T12:35:45Z</time></trkpt><trkpt lat="45.84650661715521" lon="3.167370117273161"><ele>319.0</ele><time>2026-04-11T12:35:46Z</time></trkpt><trkpt lat="45.84655498692143" lon="3.16745174766693"><ele>319.0</ele><time>2026-04-11T12:35:47Z</time></trkpt><trkpt lat="45.84659647456516" lon="3.16753718945749"><ele>319.0</ele><time>2026-04-11T12:35:48Z</time></trkpt><trkpt lat="45.84663984548551" lon="3.167623287059707"><ele>319.0</ele><time>2026-04-11T12:35:49Z</time></trkpt><trkpt lat="45.846685639755684" lon="3.1677040748269008"><ele>319.0</ele><time>2026-04-11T12:35:50Z</time></trkpt><trkpt lat="45.84673422977604" lon="3.1677855456586785"><ele>319.0</ele><time>2026-04-11T12:35:51Z</time></trkpt><trkpt lat="45.84678337976931" lon="3.1678647180026003"><ele>319.0</ele><time>2026-04-11T12:35:52Z</time></trkpt><trkpt lat="45.84682617149947" lon="3.1679582551127634"><ele>319.0</ele><time>2026-04-11T12:35:53Z</time></trkpt><trkpt lat="45.84689237904827" lon="3.1680176342737276"><ele>319.0</ele><time>2026-04-11T12:35:54Z</time></trkpt><trkpt lat="45.846946174385785" lon="3.1680909427238713"><ele>319.0</ele><time>2026-04-11T12:35:55Z</time></trkpt><trkpt lat="45.84699070708555" lon="3.168178461902663"><ele>318.8333333333333</ele><time>2026-04-11T12:35:56Z</time></trkpt><trkpt lat="45.847045784399434" lon="3.1682491268708266"><ele>318.66666666666663</ele><time>2026-04-11T12:35:57Z</time></trkpt><trkpt lat="45.84711493633544" lon="3.1682868179805994"><ele>318.5</ele><time>2026-04-11T12:35:57.999Z</time></trkpt><trkpt lat="45.84715621901846" lon="3.1683905971826"><ele>318.3333333333333</ele><time>2026-04-11T12:35:58.999Z</time></trkpt><trkpt lat="45.8472092915298" lon="3.1684638859608962"><ele>318.1666666666667</ele><time>2026-04-11T12:35:59.999Z</time></trkpt><trkpt lat="45.84726501138194" lon="3.168534550522278"><ele>318.0</ele><time>2026-04-11T12:36:00.999Z</time></trkpt><trkpt lat="45.84732024186314" lon="3.1686051573964487"><ele>318.0</ele><time>2026-04-11T12:36:01.999Z</time></trkpt><trkpt lat="45.84737463694782" lon="3.168678599286225"><ele>318.0</ele><time>2026-04-11T12:36:02.999Z</time></trkpt><trkpt lat="45.84743042321209" lon="3.168749577503987"><ele>318.0</ele><time>2026-04-11T12:36:03.999Z</time></trkpt><trkpt lat="45.84748480903068" lon="3.1688224071098623"><ele>318.0</ele><time>2026-04-11T12:36:04.999Z</time></trkpt><trkpt lat="45.84753929970584" lon="3.168894457421058"><ele>318.0</ele><time>2026-04-11T12:36:05.999Z</time></trkpt><trkpt lat="45.847591729609675" lon="3.1689659870683884"><ele>318.0</ele><time>2026-04-11T12:36:06.999Z</time></trkpt><trkpt lat="45.84764425015723" lon="3.169040902078774"><ele>318.0</ele><time>2026-04-11T12:36:07.999Z</time></trkpt><trkpt lat="45.84769874484329" lon="3.1691155733277525"><ele>317.85714285714283</ele><time>2026-04-11T12:36:08.999Z</time></trkpt><trkpt lat="45.8477524198375" lon="3.169189909764959"><ele>317.7142857142857</ele><time>2026-04-11T12:36:09.999Z</time></trkpt><trkpt lat="45.84780606565575" lon="3.169264864157731"><ele>317.57142857142856</ele><time>2026-04-11T12:36:10.999Z</time></trkpt><trkpt lat="45.84785937155227" lon="3.169339207738913"><ele>317.42857142857144</ele><time>2026-04-11T12:36:11.999Z</time></trkpt><trkpt lat="45.84791436141943" lon="3.1694106285668138"><ele>317.2857142857143</ele><time>2026-04-11T12:36:12.999Z</time></trkpt><trkpt lat="45.84796879812277" lon="3.169483991540872"><ele>317.14285714285717</ele><time>2026-04-11T12:36:13.999Z</time></trkpt><trkpt lat="45.848022325701756" lon="3.169557933716862"><ele>317.0</ele><time>2026-04-11T12:36:14.999Z</time></trkpt><trkpt lat="45.84807557577778" lon="3.169633144320363"><ele>317.0</ele><time>2026-04-11T12:36:15.999Z</time></trkpt><trkpt lat="45.848129460932576" lon="3.169705962791229"><ele>317.0</ele><time>2026-04-11T12:36:16.999Z</time></trkpt><trkpt lat="45.84818543848936" lon="3.1697760839598037"><ele>317.0</ele><time>2026-04-11T12:36:17.999Z</time></trkpt><trkpt lat="45.84823924329007" lon="3.1698494124640075"><ele>317.0</ele><time>2026-04-11T12:36:18.999Z</time></trkpt><trkpt lat="45.84829148306315" lon="3.1699226475026143"><ele>317.0</ele><time>2026-04-11T12:36:19.999Z</time></trkpt><trkpt lat="45.848347026217006" lon="3.1699964105323772"><ele>317.0</ele><time>2026-04-11T12:36:20.999Z</time></trkpt><trkpt lat="45.8484009463873" lon="3.1700701063142107"><ele>317.0</ele><time>2026-04-11T12:36:21.999Z</time></trkpt><trkpt lat="45.8484589020273" lon="3.17014470403487"><ele>317.0</ele><time>2026-04-11T12:36:22.999Z</time></trkpt><trkpt lat="45.848515358534854" lon="3.1702178883020946"><ele>317.0</ele><time>2026-04-11T12:36:23.999Z</time></trkpt><trkpt lat="45.848574726239185" lon="3.170287824780835"><ele>317.0</ele><time>2026-04-11T12:36:24.999Z</time></trkpt><trkpt lat="45.84862874296982" lon="3.170359496796851"><ele>317.0</ele><time>2026-04-11T12:36:25.999Z</time></trkpt><trkpt lat="45.84868726345387" lon="3.170428320735286"><ele>317.0</ele><time>2026-04-11T12:36:26.999Z</time></trkpt><trkpt lat="45.84874697546059" lon="3.170495186545568"><ele>317.0</ele><time>2026-04-11T12:36:27.999Z</time></trkpt><trkpt lat="45.84880496009413" lon="3.170561463833227"><ele>317.0</ele><time>2026-04-11T12:36:28.999Z</time></trkpt><trkpt lat="45.84886073215821" lon="3.1706315826565197"><ele>317.0</ele><time>2026-04-11T12:36:29.999Z</time></trkpt><trkpt lat="45.84891585903268" lon="3.170702444568275"><ele>317.0</ele><time>2026-04-11T12:36:30.999Z</time></trkpt><trkpt lat="45.848974070448556" lon="3.1707710257267316"><ele>317.0</ele><time>2026-04-11T12:36:31.999Z</time></trkpt><trkpt lat="45.84903251471833" lon="3.1708371665306343"><ele>317.0</ele><time>2026-04-11T12:36:32.999Z</time></trkpt><trkpt lat="45.84908848489526" lon="3.1709025455709927"><ele>317.0</ele><time>2026-04-11T12:36:33.999Z</time></trkpt><trkpt lat="45.849145040137074" lon="3.170969466919851"><ele>317.0</ele><time>2026-04-11T12:36:34.999Z</time></trkpt><trkpt lat="45.849200596951526" lon="3.1710341805124354"><ele>317.0</ele><time>2026-04-11T12:36:35.999Z</time></trkpt><trkpt lat="45.84925756689874" lon="3.1711019199467496"><ele>317.0</ele><time>2026-04-11T12:36:36.999Z</time></trkpt><trkpt lat="45.849314062618895" lon="3.171167253243529"><ele>317.0</ele><time>2026-04-11T12:36:37.999Z</time></trkpt><trkpt lat="45.8493723665355" lon="3.171229236265748"><ele>317.0</ele><time>2026-04-11T12:36:38.999Z</time></trkpt><trkpt lat="45.849431629391795" lon="3.171295885043141"><ele>317.0</ele><time>2026-04-11T12:36:39.999Z</time></trkpt><trkpt lat="45.84948902379434" lon="3.1713595654667346"><ele>317.0</ele><time>2026-04-11T12:36:40.999Z</time></trkpt><trkpt lat="45.84954571441614" lon="3.171429645768102"><ele>317.0</ele><time>2026-04-11T12:36:41.999Z</time></trkpt><trkpt lat="45.8496054001955" lon="3.1714968179613248"><ele>316.8571428571429</ele><time>2026-04-11T12:36:42.999Z</time></trkpt><trkpt lat="45.849664564967" lon="3.1715641576340796"><ele>316.7142857142857</ele><time>2026-04-11T12:36:43.999Z</time></trkpt><trkpt lat="45.84972423149413" lon="3.171629869036383"><ele>316.57142857142856</ele><time>2026-04-11T12:36:44.999Z</time></trkpt><trkpt lat="45.849779397786016" lon="3.1716950753615283"><ele>316.42857142857144</ele><time>2026-04-11T12:36:45.999Z</time></trkpt><trkpt lat="45.849839435465654" lon="3.1717641310390263"><ele>316.2857142857143</ele><time>2026-04-11T12:36:46.999Z</time></trkpt><trkpt lat="45.849894672048656" lon="3.1718364967165478"><ele>316.14285714285717</ele><time>2026-04-11T12:36:47.999Z</time></trkpt><trkpt lat="45.84995130759595" lon="3.171905846162489"><ele>316.0</ele><time>2026-04-11T12:36:48.999Z</time></trkpt><trkpt lat="45.850009298803876" lon="3.171971305533772"><ele>316.00000000000006</ele><time>2026-04-11T12:36:49.999Z</time></trkpt><trkpt lat="45.85006461834936" lon="3.1720375813064203"><ele>316.0</ele><time>2026-04-11T12:36:50.999Z</time></trkpt><trkpt lat="45.850119532769824" lon="3.1721072103225714"><ele>316.0</ele><time>2026-04-11T12:36:51.999Z</time></trkpt><trkpt lat="45.85017533327039" lon="3.1721745619723367"><ele>316.0</ele><time>2026-04-11T12:36:52.999Z</time></trkpt><trkpt lat="45.850232104541405" lon="3.1722425187944197"><ele>316.0</ele><time>2026-04-11T12:36:53.999Z</time></trkpt><trkpt lat="45.85028857995199" lon="3.1723084539503854"><ele>316.00000000000006</ele><time>2026-04-11T12:36:54.999Z</time></trkpt><trkpt lat="45.85034281412703" lon="3.1723744279806336"><ele>316.0</ele><time>2026-04-11T12:36:55.999Z</time></trkpt><trkpt lat="45.850396721459724" lon="3.1724449726528676"><ele>315.8571428571429</ele><time>2026-04-11T12:36:56.999Z</time></trkpt><trkpt lat="45.850451639307664" lon="3.1725146074393735"><ele>315.7142857142857</ele><time>2026-04-11T12:36:57.999Z</time></trkpt><trkpt lat="45.85050768670624" lon="3.172583887756658"><ele>315.57142857142856</ele><time>2026-04-11T12:36:58.999Z</time></trkpt><trkpt lat="45.850563643842634" lon="3.172656830331331"><ele>315.42857142857144</ele><time>2026-04-11T12:36:59.999Z</time></trkpt><trkpt lat="45.85061881979514" lon="3.172724629450943"><ele>315.2857142857143</ele><time>2026-04-11T12:37:00.999Z</time></trkpt><trkpt lat="45.850673592488675" lon="3.172789996479019"><ele>315.14285714285717</ele><time>2026-04-11T12:37:01.999Z</time></trkpt><trkpt lat="45.85072490968458" lon="3.1728589783519174"><ele>315.0</ele><time>2026-04-11T12:37:03Z</time></trkpt><trkpt lat="45.850776198792495" lon="3.1729335858338126"><ele>315.0</ele><time>2026-04-11T12:37:04Z</time></trkpt><trkpt lat="45.850828068767285" lon="3.173005471877745"><ele>315.0</ele><time>2026-04-11T12:37:05Z</time></trkpt><trkpt lat="45.85087828904502" lon="3.1730783445495843"><ele>315.0</ele><time>2026-04-11T12:37:06Z</time></trkpt><trkpt lat="45.85092749972503" lon="3.173154658849159"><ele>315.0</ele><time>2026-04-11T12:37:07Z</time></trkpt><trkpt lat="45.850973631177645" lon="3.1732346306719847"><ele>315.0</ele><time>2026-04-11T12:37:08Z</time></trkpt><trkpt lat="45.85102026916459" lon="3.173314701617699"><ele>315.0</ele><time>2026-04-11T12:37:09Z</time></trkpt><trkpt lat="45.85106592625649" lon="3.1733962892451335"><ele>315.0</ele><time>2026-04-11T12:37:10Z</time></trkpt><trkpt lat="45.85111149497168" lon="3.173480497001284"><ele>314.85714285714283</ele><time>2026-04-11T12:37:11Z</time></trkpt><trkpt lat="45.851157273470264" lon="3.1735608052396005"><ele>314.7142857142857</ele><time>2026-04-11T12:37:12Z</time></trkpt><trkpt lat="45.851202414120635" lon="3.1736436088276876"><ele>314.57142857142856</ele><time>2026-04-11T12:37:13Z</time></trkpt><trkpt lat="45.85124690062046" lon="3.1737267829728943"><ele>314.42857142857144</ele><time>2026-04-11T12:37:14Z</time></trkpt><trkpt lat="45.85129125692569" lon="3.1738092199464014"><ele>314.2857142857143</ele><time>2026-04-11T12:37:15Z</time></trkpt><trkpt lat="45.851336642538485" lon="3.173892476213795"><ele>314.1428571428571</ele><time>2026-04-11T12:37:16Z</time></trkpt><trkpt lat="45.85138319042976" lon="3.1739744865248967"><ele>314.0</ele><time>2026-04-11T12:37:17Z</time></trkpt><trkpt lat="45.85142879786047" lon="3.174057270635399"><ele>314.4285714285714</ele><time>2026-04-11T12:37:18Z</time></trkpt><trkpt lat="45.85147434145084" lon="3.1741419041049124"><ele>314.85714285714283</ele><time>2026-04-11T12:37:19Z</time></trkpt><trkpt lat="45.851519873230004" lon="3.1742245238429048"><ele>315.2857142857143</ele><time>2026-04-11T12:37:20Z</time></trkpt><trkpt lat="45.85156449738049" lon="3.174310630029052"><ele>315.71428571428567</ele><time>2026-04-11T12:37:21Z</time></trkpt><trkpt lat="45.85160979627095" lon="3.174395562626729"><ele>316.1428571428571</ele><time>2026-04-11T12:37:22Z</time></trkpt><trkpt lat="45.85165329426188" lon="3.1744802397980427"><ele>316.57142857142856</ele><time>2026-04-11T12:37:23Z</time></trkpt><trkpt lat="45.85169997481659" lon="3.1745656306702066"><ele>317.0</ele><time>2026-04-11T12:37:24Z</time></trkpt><trkpt lat="45.851747119775254" lon="3.1746488171236"><ele>316.8571428571429</ele><time>2026-04-11T12:37:25Z</time></trkpt><trkpt lat="45.85179210995694" lon="3.174736140230761"><ele>316.7142857142857</ele><time>2026-04-11T12:37:26Z</time></trkpt><trkpt lat="45.851838031631246" lon="3.1748198011744124"><ele>316.57142857142856</ele><time>2026-04-11T12:37:27Z</time></trkpt><trkpt lat="45.85188442039126" lon="3.1749026932961484"><ele>316.42857142857144</ele><time>2026-04-11T12:37:28Z</time></trkpt><trkpt lat="45.85192904825849" lon="3.1749859937474687"><ele>316.2857142857143</ele><time>2026-04-11T12:37:29Z</time></trkpt><trkpt lat="45.85197553322373" lon="3.1750680630617456"><ele>316.14285714285717</ele><time>2026-04-11T12:37:30Z</time></trkpt><trkpt lat="45.852020822867615" lon="3.175151978428727"><ele>316.0</ele><time>2026-04-11T12:37:31Z</time></trkpt><trkpt lat="45.85206700294787" lon="3.1752351490151334"><ele>316.00000000000006</ele><time>2026-04-11T12:37:32Z</time></trkpt><trkpt lat="45.85211200054917" lon="3.175320209291619"><ele>316.0</ele><time>2026-04-11T12:37:33Z</time></trkpt><trkpt lat="45.8521557580857" lon="3.1754030272468685"><ele>316.0</ele><time>2026-04-11T12:37:34Z</time></trkpt><trkpt lat="45.852200237780245" lon="3.1754831267426615"><ele>316.0</ele><time>2026-04-11T12:37:35Z</time></trkpt><trkpt lat="45.85224594249511" lon="3.175563966340169"><ele>316.0</ele><time>2026-04-11T12:37:36Z</time></trkpt><trkpt lat="45.85229165063863" lon="3.175645473595722"><ele>316.00000000000006</ele><time>2026-04-11T12:37:37Z</time></trkpt><trkpt lat="45.852337104392056" lon="3.1757266887723086"><ele>316.0</ele><time>2026-04-11T12:37:38Z</time></trkpt><trkpt lat="45.85238764756063" lon="3.1758016683450494"><ele>315.8571428571429</ele><time>2026-04-11T12:37:39Z</time></trkpt><trkpt lat="45.852440866197405" lon="3.1758731237338345"><ele>315.7142857142857</ele><time>2026-04-11T12:37:40Z</time></trkpt><trkpt lat="45.85249493248108" lon="3.175939125130636"><ele>315.57142857142856</ele><time>2026-04-11T12:37:41Z</time></trkpt><trkpt lat="45.85254882892906" lon="3.1760022814529183"><ele>315.42857142857144</ele><time>2026-04-11T12:37:42Z</time></trkpt><trkpt lat="45.85260682887371" lon="3.1760605817716745"><ele>315.2857142857143</ele><time>2026-04-11T12:37:43Z</time></trkpt><trkpt lat="45.85266396354881" lon="3.1761194212988126"><ele>315.14285714285717</ele><time>2026-04-11T12:37:44Z</time></trkpt><trkpt lat="45.852726913062206" lon="3.1761694318863922"><ele>315.0</ele><time>2026-04-11T12:37:45Z</time></trkpt><trkpt lat="45.85278794646818" lon="3.176225552310377"><ele>314.85714285714283</ele><time>2026-04-11T12:37:46Z</time></trkpt><trkpt lat="45.852848068044906" lon="3.176277187535276"><ele>314.7142857142857</ele><time>2026-04-11T12:37:47Z</time></trkpt><trkpt lat="45.852909314346604" lon="3.1763308945986073"><ele>314.57142857142856</ele><time>2026-04-11T12:37:48Z</time></trkpt><trkpt lat="45.8529687982133" lon="3.1763846147596566"><ele>314.42857142857144</ele><time>2026-04-11T12:37:49Z</time></trkpt><trkpt lat="45.85302594765371" lon="3.176439464670073"><ele>314.2857142857143</ele><time>2026-04-11T12:37:50Z</time></trkpt><trkpt lat="45.85308196679486" lon="3.1764981056279313"><ele>314.1428571428571</ele><time>2026-04-11T12:37:51Z</time></trkpt><trkpt lat="45.85314545259018" lon="3.176549206653034"><ele>314.0</ele><time>2026-04-11T12:37:52Z</time></trkpt><trkpt lat="45.85315746624333" lon="3.1766667906719137"><ele>314.2857142857143</ele><time>2026-04-11T12:37:53Z</time></trkpt><trkpt lat="45.853195009366786" lon="3.176744247151349"><ele>314.57142857142856</ele><time>2026-04-11T12:37:54Z</time></trkpt><trkpt lat="45.853249395373844" lon="3.1768070194114624"><ele>314.8571428571429</ele><time>2026-04-11T12:37:55Z</time></trkpt><trkpt lat="45.853315202950064" lon="3.176847396739193"><ele>315.1428571428571</ele><time>2026-04-11T12:37:56Z</time></trkpt><trkpt lat="45.85338548109935" lon="3.1768657952830712"><ele>315.42857142857144</ele><time>2026-04-11T12:37:57Z</time></trkpt><trkpt lat="45.853455949058485" lon="3.1768433049432945"><ele>315.7142857142857</ele><time>2026-04-11T12:37:58Z</time></trkpt><trkpt lat="45.85352160079675" lon="3.1768404409789426"><ele>316.0</ele><time>2026-04-11T12:37:59Z</time></trkpt><trkpt lat="45.85357449949677" lon="3.1769884380577755"><ele>316.0</ele><time>2026-04-11T12:38:00Z</time></trkpt><trkpt lat="45.85361391362462" lon="3.1770771493530807"><ele>316.0</ele><time>2026-04-11T12:38:01Z</time></trkpt><trkpt lat="45.85367606876136" lon="3.177139637172399"><ele>316.0</ele><time>2026-04-11T12:38:02Z</time></trkpt><trkpt lat="45.85373036800759" lon="3.1772063744885832"><ele>316.0</ele><time>2026-04-11T12:38:03Z</time></trkpt><trkpt lat="45.85375597550572" lon="3.1773251066152848"><ele>316.0</ele><time>2026-04-11T12:38:04Z</time></trkpt><trkpt lat="45.85385321523914" lon="3.1774896149262313"><ele>316.28571428571433</ele><time>2026-04-11T12:38:06Z</time></trkpt><trkpt lat="45.85390552084619" lon="3.177566461655618"><ele>316.57142857142856</ele><time>2026-04-11T12:38:07Z</time></trkpt><trkpt lat="45.85395790395372" lon="3.1776431366469287"><ele>316.8571428571429</ele><time>2026-04-11T12:38:07.999Z</time></trkpt><trkpt lat="45.85401157311576" lon="3.1777185588555388"><ele>317.14285714285717</ele><time>2026-04-11T12:38:08.999Z</time></trkpt><trkpt lat="45.854067551631054" lon="3.1777894702715725"><ele>317.42857142857144</ele><time>2026-04-11T12:38:09.999Z</time></trkpt><trkpt lat="45.854126968093155" lon="3.177853761184271"><ele>317.7142857142857</ele><time>2026-04-11T12:38:10.999Z</time></trkpt><trkpt lat="45.8541873343007" lon="3.1779154056099173"><ele>318.0</ele><time>2026-04-11T12:38:11.999Z</time></trkpt><trkpt lat="45.85424829670436" lon="3.177973914662119"><ele>318.0</ele><time>2026-04-11T12:38:12.999Z</time></trkpt><trkpt lat="45.85430771182083" lon="3.178033416070588"><ele>318.0</ele><time>2026-04-11T12:38:13.999Z</time></trkpt><trkpt lat="45.854370522769024" lon="3.178092506241707"><ele>318.0</ele><time>2026-04-11T12:38:14.999Z</time></trkpt><trkpt lat="45.8544326573349" lon="3.178152718778752"><ele>318.0</ele><time>2026-04-11T12:38:15.999Z</time></trkpt><trkpt lat="45.85449397717999" lon="3.1782124632956483"><ele>318.0</ele><time>2026-04-11T12:38:16.999Z</time></trkpt><trkpt lat="45.8545589119598" lon="3.1782681099184655"><ele>318.0</ele><time>2026-04-11T12:38:17.999Z</time></trkpt><trkpt lat="45.85461982937733" lon="3.178327949991744"><ele>318.0</ele><time>2026-04-11T12:38:18.999Z</time></trkpt><trkpt lat="45.8546796001941" lon="3.1783919569899974"><ele>317.8333333333333</ele><time>2026-04-11T12:38:19.999Z</time></trkpt><trkpt lat="45.85474026380874" lon="3.1784551760807065"><ele>317.6666666666667</ele><time>2026-04-11T12:38:20.999Z</time></trkpt><trkpt lat="45.854799143811135" lon="3.1785224700548604"><ele>317.5</ele><time>2026-04-11T12:38:21.999Z</time></trkpt><trkpt lat="45.854860829137515" lon="3.1785883481373847"><ele>317.33333333333337</ele><time>2026-04-11T12:38:22.999Z</time></trkpt><trkpt lat="45.85492074668825" lon="3.1786549504697077"><ele>317.1666666666667</ele><time>2026-04-11T12:38:23.999Z</time></trkpt><trkpt lat="45.8549805919411" lon="3.1787255329229285"><ele>317.0</ele><time>2026-04-11T12:38:24.999Z</time></trkpt><trkpt lat="45.855036413056155" lon="3.1787990746732406"><ele>317.0</ele><time>2026-04-11T12:38:25.999Z</time></trkpt><trkpt lat="45.85509204236347" lon="3.178875058127081"><ele>317.0</ele><time>2026-04-11T12:38:26.999Z</time></trkpt><trkpt lat="45.855148014978994" lon="3.1789523068641086"><ele>317.0</ele><time>2026-04-11T12:38:27.999Z</time></trkpt><trkpt lat="45.85520180057075" lon="3.179029358602104"><ele>317.0</ele><time>2026-04-11T12:38:28.999Z</time></trkpt><trkpt lat="45.855251861320625" lon="3.1791105604028322"><ele>317.0</ele><time>2026-04-11T12:38:29.999Z</time></trkpt><trkpt lat="45.855302250724" lon="3.179190533195891"><ele>317.0</ele><time>2026-04-11T12:38:30.999Z</time></trkpt><trkpt lat="45.85535042083323" lon="3.1792768977054098"><ele>317.0</ele><time>2026-04-11T12:38:31.999Z</time></trkpt><trkpt lat="45.85540423836308" lon="3.179353756296067"><ele>317.0</ele><time>2026-04-11T12:38:32.999Z</time></trkpt><trkpt lat="45.85545406968686" lon="3.1794322422020422"><ele>317.0</ele><time>2026-04-11T12:38:33.999Z</time></trkpt><trkpt lat="45.85549990793144" lon="3.17951265596242"><ele>317.0</ele><time>2026-04-11T12:38:34.999Z</time></trkpt><trkpt lat="45.855546216857284" lon="3.179594460359632"><ele>317.0</ele><time>2026-04-11T12:38:35.999Z</time></trkpt><trkpt lat="45.85559267156301" lon="3.1796743329146255"><ele>317.0</ele><time>2026-04-11T12:38:36.999Z</time></trkpt><trkpt lat="45.85564027565516" lon="3.1797543601537472"><ele>317.0</ele><time>2026-04-11T12:38:37.999Z</time></trkpt><trkpt lat="45.85568557903785" lon="3.1798344476854523"><ele>317.0</ele><time>2026-04-11T12:38:38.999Z</time></trkpt><trkpt lat="45.85573244108508" lon="3.1799137634613723"><ele>317.0</ele><time>2026-04-11T12:38:39.999Z</time></trkpt><trkpt lat="45.85577743797406" lon="3.179993650293792"><ele>317.0</ele><time>2026-04-11T12:38:40.999Z</time></trkpt><trkpt lat="45.85582269291733" lon="3.180075806700516"><ele>317.0</ele><time>2026-04-11T12:38:41.999Z</time></trkpt><trkpt lat="45.85586798577231" lon="3.180157264160152"><ele>317.0</ele><time>2026-04-11T12:38:42.999Z</time></trkpt><trkpt lat="45.85591359979663" lon="3.1802379547765653"><ele>317.0</ele><time>2026-04-11T12:38:43.999Z</time></trkpt><trkpt lat="45.85595881377791" lon="3.180318961681571"><ele>317.0</ele><time>2026-04-11T12:38:44.999Z</time></trkpt><trkpt lat="45.856003898035425" lon="3.180400342626648"><ele>317.0</ele><time>2026-04-11T12:38:45.999Z</time></trkpt><trkpt lat="45.85605027499819" lon="3.180483108359897"><ele>317.0</ele><time>2026-04-11T12:38:46.999Z</time></trkpt><trkpt lat="45.85609530625387" lon="3.1805630194900822"><ele>317.0</ele><time>2026-04-11T12:38:47.999Z</time></trkpt><trkpt lat="45.856143760166866" lon="3.1806427349082522"><ele>317.0</ele><time>2026-04-11T12:38:48.999Z</time></trkpt><trkpt lat="45.85618924650351" lon="3.180723981864507"><ele>317.0</ele><time>2026-04-11T12:38:49.999Z</time></trkpt><trkpt lat="45.85623549157579" lon="3.1808028803438435"><ele>317.0</ele><time>2026-04-11T12:38:50.999Z</time></trkpt><trkpt lat="45.8562818894545" lon="3.1808799234199885"><ele>317.0</ele><time>2026-04-11T12:38:51.999Z</time></trkpt><trkpt lat="45.85632633734321" lon="3.1809595204449255"><ele>316.57142857142856</ele><time>2026-04-11T12:38:52.999Z</time></trkpt><trkpt lat="45.85637322517637" lon="3.181037247247011"><ele>316.1428571428571</ele><time>2026-04-11T12:38:53.999Z</time></trkpt><trkpt lat="45.856420391851145" lon="3.1811158332048595"><ele>315.71428571428567</ele><time>2026-04-11T12:38:54.999Z</time></trkpt><trkpt lat="45.85646815465608" lon="3.1811943254861523"><ele>315.2857142857143</ele><time>2026-04-11T12:38:55.999Z</time></trkpt><trkpt lat="45.85651632564679" lon="3.18126998429081"><ele>314.85714285714283</ele><time>2026-04-11T12:38:56.999Z</time></trkpt><trkpt lat="45.85656228201103" lon="3.181346216891134"><ele>314.4285714285714</ele><time>2026-04-11T12:38:57.999Z</time></trkpt><trkpt lat="45.85660886598988" lon="3.181427709442704"><ele>314.0</ele><time>2026-04-11T12:38:58.999Z</time></trkpt><trkpt lat="45.856654631615534" lon="3.1815083018784844"><ele>314.1428571428571</ele><time>2026-04-11T12:38:59.999Z</time></trkpt><trkpt lat="45.856699656885375" lon="3.181589579789561"><ele>314.2857142857143</ele><time>2026-04-11T12:39:00.999Z</time></trkpt><trkpt lat="45.85674748941319" lon="3.1816659950817496"><ele>314.42857142857144</ele><time>2026-04-11T12:39:01.999Z</time></trkpt><trkpt lat="45.85679186346012" lon="3.1817472348954325"><ele>314.57142857142856</ele><time>2026-04-11T12:39:02.999Z</time></trkpt><trkpt lat="45.85683522004188" lon="3.1818290640923905"><ele>314.7142857142857</ele><time>2026-04-11T12:39:03.999Z</time></trkpt><trkpt lat="45.85688235857536" lon="3.181907120198004"><ele>314.85714285714283</ele><time>2026-04-11T12:39:04.999Z</time></trkpt><trkpt lat="45.85693107837164" lon="3.181986320738436"><ele>315.0</ele><time>2026-04-11T12:39:05.999Z</time></trkpt><trkpt lat="45.85697692169758" lon="3.182069082695425"><ele>315.0</ele><time>2026-04-11T12:39:06.999Z</time></trkpt><trkpt lat="45.85702188437114" lon="3.1821510932602046"><ele>315.0</ele><time>2026-04-11T12:39:07.999Z</time></trkpt><trkpt lat="45.85706752159168" lon="3.1822325339120856"><ele>315.0</ele><time>2026-04-11T12:39:09Z</time></trkpt><trkpt lat="45.857112703746814" lon="3.182314812050085"><ele>315.0</ele><time>2026-04-11T12:39:10Z</time></trkpt><trkpt lat="45.85715951368947" lon="3.182396077840445"><ele>315.0</ele><time>2026-04-11T12:39:11Z</time></trkpt><trkpt lat="45.85720697180314" lon="3.1824744257984654"><ele>315.0</ele><time>2026-04-11T12:39:12Z</time></trkpt><trkpt lat="45.85725370402451" lon="3.182555077661402"><ele>315.0</ele><time>2026-04-11T12:39:13Z</time></trkpt><trkpt lat="45.85729788110497" lon="3.1826400897973923"><ele>315.0</ele><time>2026-04-11T12:39:14Z</time></trkpt><trkpt lat="45.85734518776767" lon="3.182721535211694"><ele>315.0</ele><time>2026-04-11T12:39:15Z</time></trkpt><trkpt lat="45.85739306703269" lon="3.1828028429427198"><ele>315.0</ele><time>2026-04-11T12:39:16Z</time></trkpt><trkpt lat="45.85743881309165" lon="3.1828866910676656"><ele>315.0</ele><time>2026-04-11T12:39:17Z</time></trkpt><trkpt lat="45.85748325125698" lon="3.1829713043100534"><ele>315.0</ele><time>2026-04-11T12:39:18Z</time></trkpt><trkpt lat="45.85753034489196" lon="3.183052857389235"><ele>315.0</ele><time>2026-04-11T12:39:19Z</time></trkpt><trkpt lat="45.85758155095919" lon="3.183127911112063"><ele>315.0</ele><time>2026-04-11T12:39:20Z</time></trkpt><trkpt lat="45.85762582777028" lon="3.183213157379315"><ele>315.0</ele><time>2026-04-11T12:39:21Z</time></trkpt><trkpt lat="45.857670568581" lon="3.1832967412975344"><ele>315.0</ele><time>2026-04-11T12:39:22Z</time></trkpt><trkpt lat="45.85771855717997" lon="3.183377122629509"><ele>315.0</ele><time>2026-04-11T12:39:23Z</time></trkpt><trkpt lat="45.857764791750995" lon="3.1834591053681063"><ele>315.0</ele><time>2026-04-11T12:39:24Z</time></trkpt><trkpt lat="45.85780995368105" lon="3.183541174456893"><ele>315.0</ele><time>2026-04-11T12:39:25Z</time></trkpt><trkpt lat="45.85785678386538" lon="3.1836228115733225"><ele>315.0</ele><time>2026-04-11T12:39:26Z</time></trkpt><trkpt lat="45.857902179857504" lon="3.1837014773022765"><ele>315.0</ele><time>2026-04-11T12:39:27Z</time></trkpt><trkpt lat="45.85794888676543" lon="3.183781272812234"><ele>315.0</ele><time>2026-04-11T12:39:28Z</time></trkpt><trkpt lat="45.85799265934736" lon="3.1838620216749463"><ele>315.0</ele><time>2026-04-11T12:39:29Z</time></trkpt><trkpt lat="45.85803957447515" lon="3.1839394403492616"><ele>315.0</ele><time>2026-04-11T12:39:30Z</time></trkpt><trkpt lat="45.85808524190806" lon="3.1840193710720963"><ele>315.0</ele><time>2026-04-11T12:39:31Z</time></trkpt><trkpt lat="45.85813026495211" lon="3.184100256882914"><ele>315.0</ele><time>2026-04-11T12:39:32Z</time></trkpt><trkpt lat="45.858174837386564" lon="3.1841848623868403"><ele>315.0</ele><time>2026-04-11T12:39:33Z</time></trkpt><trkpt lat="45.85822233436749" lon="3.184266157814931"><ele>315.0</ele><time>2026-04-11T12:39:34Z</time></trkpt><trkpt lat="45.85826828898506" lon="3.1843507516288385"><ele>315.0</ele><time>2026-04-11T12:39:35Z</time></trkpt><trkpt lat="45.85830951638963" lon="3.184438303778798"><ele>315.0</ele><time>2026-04-11T12:39:36Z</time></trkpt><trkpt lat="45.85835394023477" lon="3.1845248285839025"><ele>315.0</ele><time>2026-04-11T12:39:37Z</time></trkpt><trkpt lat="45.8583969759937" lon="3.1846126011579536"><ele>315.0</ele><time>2026-04-11T12:39:38Z</time></trkpt><trkpt lat="45.85844063040729" lon="3.1846993683890648"><ele>315.0</ele><time>2026-04-11T12:39:39Z</time></trkpt><trkpt lat="45.85848239323232" lon="3.184786428127341"><ele>315.0</ele><time>2026-04-11T12:39:40Z</time></trkpt><trkpt lat="45.85852349250325" lon="3.184874096816245"><ele>315.0</ele><time>2026-04-11T12:39:41Z</time></trkpt><trkpt lat="45.85856328826803" lon="3.1849620767305247"><ele>315.14285714285717</ele><time>2026-04-11T12:39:42Z</time></trkpt><trkpt lat="45.85860237041758" lon="3.185053074083205"><ele>315.2857142857143</ele><time>2026-04-11T12:39:43Z</time></trkpt><trkpt lat="45.858640118587715" lon="3.1851432498279366"><ele>315.42857142857144</ele><time>2026-04-11T12:39:44Z</time></trkpt><trkpt lat="45.85867702024577" lon="3.1852333952144223"><ele>315.57142857142856</ele><time>2026-04-11T12:39:45Z</time></trkpt><trkpt lat="45.85871309485001" lon="3.1853268131083428"><ele>315.7142857142857</ele><time>2026-04-11T12:39:46Z</time></trkpt><trkpt lat="45.85874796688379" lon="3.1854198012738264"><ele>315.8571428571429</ele><time>2026-04-11T12:39:47Z</time></trkpt><trkpt lat="45.858784474700904" lon="3.1855118858533196"><ele>316.0</ele><time>2026-04-11T12:39:48Z</time></trkpt><trkpt lat="45.85881968433981" lon="3.1856044431907486"><ele>315.8571428571429</ele><time>2026-04-11T12:39:49Z</time></trkpt><trkpt lat="45.85885410096554" lon="3.185699549781634"><ele>315.7142857142857</ele><time>2026-04-11T12:39:50Z</time></trkpt><trkpt lat="45.85888724827844" lon="3.18579570408754"><ele>315.57142857142856</ele><time>2026-04-11T12:39:51Z</time></trkpt><trkpt lat="45.8589207575317" lon="3.1858922297442964"><ele>315.42857142857144</ele><time>2026-04-11T12:39:52Z</time></trkpt><trkpt lat="45.85895272528283" lon="3.1859888898839577"><ele>315.2857142857143</ele><time>2026-04-11T12:39:53Z</time></trkpt><trkpt lat="45.85898534583837" lon="3.186082113723716"><ele>315.14285714285717</ele><time>2026-04-11T12:39:54Z</time></trkpt><trkpt lat="45.85901905084998" lon="3.1861760190983888"><ele>315.0</ele><time>2026-04-11T12:39:55Z</time></trkpt><trkpt lat="45.85905306230324" lon="3.18627037361984"><ele>315.0</ele><time>2026-04-11T12:39:56Z</time></trkpt><trkpt lat="45.85908460820131" lon="3.1863649365899214"><ele>315.0</ele><time>2026-04-11T12:39:57Z</time></trkpt><trkpt lat="45.859117263473635" lon="3.186460803123813"><ele>315.0</ele><time>2026-04-11T12:39:58Z</time></trkpt><trkpt lat="45.85914912733628" lon="3.186556218455383"><ele>315.0</ele><time>2026-04-11T12:39:59Z</time></trkpt><trkpt lat="45.859179268797746" lon="3.186651234907122"><ele>315.0</ele><time>2026-04-11T12:40:00Z</time></trkpt><trkpt lat="45.859214264100274" lon="3.1867445707705615"><ele>315.0</ele><time>2026-04-11T12:40:01Z</time></trkpt><trkpt lat="45.859245788678166" lon="3.186841988340094"><ele>315.0</ele><time>2026-04-11T12:40:02Z</time></trkpt><trkpt lat="45.85928082379614" lon="3.1869361798792606"><ele>315.0</ele><time>2026-04-11T12:40:03Z</time></trkpt><trkpt lat="45.859314003041874" lon="3.1870325278063665"><ele>315.0</ele><time>2026-04-11T12:40:04Z</time></trkpt><trkpt lat="45.85934775586718" lon="3.1871271275534476"><ele>315.0</ele><time>2026-04-11T12:40:05Z</time></trkpt><trkpt lat="45.85940974468648" lon="3.1873158910678074"><ele>315.0</ele><time>2026-04-11T12:40:07Z</time></trkpt><trkpt lat="45.85944343285994" lon="3.187408427732284"><ele>315.0</ele><time>2026-04-11T12:40:08Z</time></trkpt><trkpt lat="45.859475492692596" lon="3.18749943943853"><ele>315.0</ele><time>2026-04-11T12:40:08.999Z</time></trkpt><trkpt lat="45.85950743839934" lon="3.187591146351732"><ele>315.0</ele><time>2026-04-11T12:40:09.999Z</time></trkpt><trkpt lat="45.859539500682715" lon="3.1876841941907896"><ele>315.0</ele><time>2026-04-11T12:40:10.999Z</time></trkpt><trkpt lat="45.859569916552594" lon="3.187777653904538"><ele>315.0</ele><time>2026-04-11T12:40:11.999Z</time></trkpt><trkpt lat="45.8596030972155" lon="3.18787067652067"><ele>315.0</ele><time>2026-04-11T12:40:12.999Z</time></trkpt><trkpt lat="45.85963406003411" lon="3.1879657388115596"><ele>315.0</ele><time>2026-04-11T12:40:13.999Z</time></trkpt><trkpt lat="45.85966730916595" lon="3.1880577977668607"><ele>315.0</ele><time>2026-04-11T12:40:14.999Z</time></trkpt><trkpt lat="45.85969854592216" lon="3.1881522766887653"><ele>315.0</ele><time>2026-04-11T12:40:15.999Z</time></trkpt><trkpt lat="45.859727868134414" lon="3.188246716611034"><ele>314.85714285714283</ele><time>2026-04-11T12:40:16.999Z</time></trkpt><trkpt lat="45.8597598388404" lon="3.188336489504875"><ele>314.7142857142857</ele><time>2026-04-11T12:40:17.999Z</time></trkpt><trkpt lat="45.859791888757414" lon="3.188428250357917"><ele>314.57142857142856</ele><time>2026-04-11T12:40:18.999Z</time></trkpt><trkpt lat="45.85982309403883" lon="3.1885219674803147"><ele>314.42857142857144</ele><time>2026-04-11T12:40:19.999Z</time></trkpt><trkpt lat="45.859853808783974" lon="3.1886155178408804"><ele>314.2857142857143</ele><time>2026-04-11T12:40:20.999Z</time></trkpt><trkpt lat="45.859881786172245" lon="3.1887104956457613"><ele>314.1428571428571</ele><time>2026-04-11T12:40:21.999Z</time></trkpt><trkpt lat="45.85991187298388" lon="3.1888033099973527"><ele>314.0</ele><time>2026-04-11T12:40:22.999Z</time></trkpt><trkpt lat="45.85994206503254" lon="3.1888972464407264"><ele>313.99999999999994</ele><time>2026-04-11T12:40:23.999Z</time></trkpt><trkpt lat="45.85997023343694" lon="3.188991712003783"><ele>314.0</ele><time>2026-04-11T12:40:24.999Z</time></trkpt><trkpt lat="45.859995903821236" lon="3.189089154020703"><ele>314.0</ele><time>2026-04-11T12:40:25.999Z</time></trkpt><trkpt lat="45.86001791229732" lon="3.1891852084431656"><ele>314.0</ele><time>2026-04-11T12:40:26.999Z</time></trkpt><trkpt lat="45.86004435006915" lon="3.189278614416867"><ele>314.0</ele><time>2026-04-11T12:40:27.999Z</time></trkpt><trkpt lat="45.86007247672599" lon="3.189371045730751"><ele>313.99999999999994</ele><time>2026-04-11T12:40:28.999Z</time></trkpt><trkpt lat="45.86009443012849" lon="3.189466414877157"><ele>314.0</ele><time>2026-04-11T12:40:29.999Z</time></trkpt><trkpt lat="45.86011369581625" lon="3.189562795699929"><ele>313.85714285714283</ele><time>2026-04-11T12:40:30.999Z</time></trkpt><trkpt lat="45.860133908307304" lon="3.18965772246653"><ele>313.7142857142857</ele><time>2026-04-11T12:40:31.999Z</time></trkpt><trkpt lat="45.860152699695895" lon="3.1897524449205172"><ele>313.57142857142856</ele><time>2026-04-11T12:40:32.999Z</time></trkpt><trkpt lat="45.860167841729016" lon="3.1898499160688174"><ele>313.42857142857144</ele><time>2026-04-11T12:40:33.999Z</time></trkpt><trkpt lat="45.86018054303745" lon="3.1899444512638118"><ele>313.2857142857143</ele><time>2026-04-11T12:40:34.999Z</time></trkpt><trkpt lat="45.86019654004811" lon="3.190038089596851"><ele>313.1428571428571</ele><time>2026-04-11T12:40:35.999Z</time></trkpt><trkpt lat="45.86021041137155" lon="3.1901312824213957"><ele>313.0</ele><time>2026-04-11T12:40:36.999Z</time></trkpt><trkpt lat="45.86022557268474" lon="3.1902231442113815"><ele>313.0</ele><time>2026-04-11T12:40:37.999Z</time></trkpt><trkpt lat="45.860238678923174" lon="3.1903146686447448"><ele>313.0</ele><time>2026-04-11T12:40:38.999Z</time></trkpt><trkpt lat="45.86024768064403" lon="3.1904077571076037"><ele>313.0</ele><time>2026-04-11T12:40:39.999Z</time></trkpt><trkpt lat="45.860257774622205" lon="3.190497240474409"><ele>313.0</ele><time>2026-04-11T12:40:40.999Z</time></trkpt><trkpt lat="45.86029023801761" lon="3.190592561694074"><ele>313.0</ele><time>2026-04-11T12:40:41.999Z</time></trkpt><trkpt lat="45.86027068003826" lon="3.190679003635909"><ele>313.0</ele><time>2026-04-11T12:40:42.999Z</time></trkpt><trkpt lat="45.860252846974" lon="3.1908533063090885"><ele>313.0</ele><time>2026-04-11T12:40:44.999Z</time></trkpt><trkpt lat="45.86021084382224" lon="3.19101405779819"><ele>313.0</ele><time>2026-04-11T12:40:46.999Z</time></trkpt><trkpt lat="45.86026087812953" lon="3.191177898606048"><ele>313.0</ele><time>2026-04-11T12:40:48.999Z</time></trkpt><trkpt lat="45.86032158217812" lon="3.1912162653530785"><ele>313.0</ele><time>2026-04-11T12:40:49.999Z</time></trkpt><trkpt lat="45.86036189666904" lon="3.1914102259252006"><ele>313.0</ele><time>2026-04-11T12:40:51.999Z</time></trkpt><trkpt lat="45.860394271903154" lon="3.1914893222914396"><ele>313.0</ele><time>2026-04-11T12:40:52.999Z</time></trkpt><trkpt lat="45.86039530514012" lon="3.1916881599430535"><ele>313.0</ele><time>2026-04-11T12:40:54.999Z</time></trkpt><trkpt lat="45.860403639262934" lon="3.1917821711645304"><ele>313.0</ele><time>2026-04-11T12:40:55.999Z</time></trkpt><trkpt lat="45.86041537300985" lon="3.1918757300469878"><ele>313.0</ele><time>2026-04-11T12:40:56.999Z</time></trkpt><trkpt lat="45.86042431361104" lon="3.1919708715028245"><ele>313.0</ele><time>2026-04-11T12:40:57.999Z</time></trkpt><trkpt lat="45.86043185011815" lon="3.1920682220111174"><ele>313.0</ele><time>2026-04-11T12:40:58.999Z</time></trkpt><trkpt lat="45.86043984123134" lon="3.1921681885279103"><ele>313.0</ele><time>2026-04-11T12:40:59.999Z</time></trkpt><trkpt lat="45.86045121799337" lon="3.1922657834215244"><ele>313.0</ele><time>2026-04-11T12:41:00.999Z</time></trkpt><trkpt lat="45.860460832923856" lon="3.1923629604179773"><ele>313.0</ele><time>2026-04-11T12:41:01.999Z</time></trkpt><trkpt lat="45.860470123419" lon="3.192460637808486"><ele>313.0</ele><time>2026-04-11T12:41:02.999Z</time></trkpt><trkpt lat="45.86047915755746" lon="3.1925599114160343"><ele>313.0</ele><time>2026-04-11T12:41:03.999Z</time></trkpt><trkpt lat="45.86048962812432" lon="3.1926593816417643"><ele>313.0</ele><time>2026-04-11T12:41:04.999Z</time></trkpt><trkpt lat="45.860496390762464" lon="3.192761023553976"><ele>313.0</ele><time>2026-04-11T12:41:05.999Z</time></trkpt><trkpt lat="45.8605062657765" lon="3.1928591952616667"><ele>313.0</ele><time>2026-04-11T12:41:06.999Z</time></trkpt><trkpt lat="45.86051882492332" lon="3.192959610808312"><ele>313.0</ele><time>2026-04-11T12:41:07.999Z</time></trkpt><trkpt lat="45.860530977592255" lon="3.193061465904882"><ele>313.0</ele><time>2026-04-11T12:41:08.999Z</time></trkpt><trkpt lat="45.86054523325301" lon="3.19316378863833"><ele>313.0</ele><time>2026-04-11T12:41:09.999Z</time></trkpt><trkpt lat="45.860561289427814" lon="3.1932649270462683"><ele>313.0</ele><time>2026-04-11T12:41:10.999Z</time></trkpt><trkpt lat="45.86057715381261" lon="3.1933669410643657"><ele>313.0</ele><time>2026-04-11T12:41:11.999Z</time></trkpt><trkpt lat="45.86059064154669" lon="3.193469282541685"><ele>313.0</ele><time>2026-04-11T12:41:12.999Z</time></trkpt><trkpt lat="45.86060666832878" lon="3.193572343468314"><ele>313.0</ele><time>2026-04-11T12:41:13.999Z</time></trkpt><trkpt lat="45.86062150545884" lon="3.193672943795245"><ele>313.0</ele><time>2026-04-11T12:41:15Z</time></trkpt><trkpt lat="45.86063847093296" lon="3.1937748338162923"><ele>313.0</ele><time>2026-04-11T12:41:16Z</time></trkpt><trkpt lat="45.860657827257" lon="3.193877756208792"><ele>313.0</ele><time>2026-04-11T12:41:17Z</time></trkpt><trkpt lat="45.86067922785763" lon="3.1939793138951456"><ele>313.0</ele><time>2026-04-11T12:41:18Z</time></trkpt><trkpt lat="45.860701279200875" lon="3.194079870877276"><ele>313.0</ele><time>2026-04-11T12:41:19Z</time></trkpt><trkpt lat="45.860720434776894" lon="3.1941826504733846"><ele>313.0</ele><time>2026-04-11T12:41:20Z</time></trkpt><trkpt lat="45.86074179156052" lon="3.194284633769256"><ele>313.0</ele><time>2026-04-11T12:41:21Z</time></trkpt><trkpt lat="45.86076346863206" lon="3.194385537217705"><ele>313.0</ele><time>2026-04-11T12:41:22Z</time></trkpt><trkpt lat="45.86078586497421" lon="3.194485522422103"><ele>313.0</ele><time>2026-04-11T12:41:23Z</time></trkpt><trkpt lat="45.8608107925585" lon="3.1945847749704153"><ele>313.0</ele><time>2026-04-11T12:41:24Z</time></trkpt><trkpt lat="45.86083621128289" lon="3.194683544809801"><ele>313.0</ele><time>2026-04-11T12:41:25Z</time></trkpt><trkpt lat="45.86086058695178" lon="3.1947814898421014"><ele>313.0</ele><time>2026-04-11T12:41:26Z</time></trkpt><trkpt lat="45.86088709099423" lon="3.1948790468920927"><ele>313.0</ele><time>2026-04-11T12:41:27Z</time></trkpt><trkpt lat="45.86091416110888" lon="3.19497552487311"><ele>313.0</ele><time>2026-04-11T12:41:28Z</time></trkpt><trkpt lat="45.86094245039204" lon="3.195071980287158"><ele>313.0</ele><time>2026-04-11T12:41:29Z</time></trkpt><trkpt lat="45.86096939803272" lon="3.195171118118293"><ele>313.0</ele><time>2026-04-11T12:41:30Z</time></trkpt><trkpt lat="45.86099754116068" lon="3.195268822016854"><ele>313.0</ele><time>2026-04-11T12:41:31Z</time></trkpt><trkpt lat="45.86102822700633" lon="3.1953655057888724"><ele>313.0</ele><time>2026-04-11T12:41:32Z</time></trkpt><trkpt lat="45.861058574865694" lon="3.19546264645896"><ele>313.0</ele><time>2026-04-11T12:41:33Z</time></trkpt><trkpt lat="45.86109103798418" lon="3.195557382727629"><ele>313.1428571428571</ele><time>2026-04-11T12:41:34Z</time></trkpt><trkpt lat="45.861122012356084" lon="3.195652206764504"><ele>313.2857142857143</ele><time>2026-04-11T12:41:35Z</time></trkpt><trkpt lat="45.86115421307524" lon="3.1957476828528915"><ele>313.42857142857144</ele><time>2026-04-11T12:41:36Z</time></trkpt><trkpt lat="45.86118687150816" lon="3.1958403705055414"><ele>313.57142857142856</ele><time>2026-04-11T12:41:37Z</time></trkpt><trkpt lat="45.86121953656037" lon="3.1959355094677453"><ele>313.7142857142857</ele><time>2026-04-11T12:41:38Z</time></trkpt><trkpt lat="45.86125335458498" lon="3.1960300414490286"><ele>313.85714285714283</ele><time>2026-04-11T12:41:39Z</time></trkpt><trkpt lat="45.861287929606064" lon="3.196124235885789"><ele>314.0</ele><time>2026-04-11T12:41:40Z</time></trkpt><trkpt lat="45.86132112737319" lon="3.1962191203091"><ele>314.1428571428571</ele><time>2026-04-11T12:41:41Z</time></trkpt><trkpt lat="45.86135598092804" lon="3.196312079615048"><ele>314.2857142857143</ele><time>2026-04-11T12:41:42Z</time></trkpt><trkpt lat="45.86139320130283" lon="3.1964046510641717"><ele>314.42857142857144</ele><time>2026-04-11T12:41:43Z</time></trkpt><trkpt lat="45.86143074563668" lon="3.1964961620931973"><ele>314.57142857142856</ele><time>2026-04-11T12:41:44Z</time></trkpt><trkpt lat="45.86146750682432" lon="3.1965872187219766"><ele>314.7142857142857</ele><time>2026-04-11T12:41:45Z</time></trkpt><trkpt lat="45.86150143925759" lon="3.1966821980128595"><ele>314.85714285714283</ele><time>2026-04-11T12:41:46Z</time></trkpt><trkpt lat="45.86153666437054" lon="3.1967748556464994"><ele>315.0</ele><time>2026-04-11T12:41:47Z</time></trkpt><trkpt lat="45.861573604274156" lon="3.1968649613712485"><ele>314.7142857142857</ele><time>2026-04-11T12:41:48Z</time></trkpt><trkpt lat="45.861610384449264" lon="3.196955343378698"><ele>314.42857142857144</ele><time>2026-04-11T12:41:49Z</time></trkpt><trkpt lat="45.861645107670405" lon="3.197047113824103"><ele>314.1428571428571</ele><time>2026-04-11T12:41:50Z</time></trkpt><trkpt lat="45.861679764765796" lon="3.197136525951828"><ele>313.8571428571429</ele><time>2026-04-11T12:41:51Z</time></trkpt><trkpt lat="45.86171363213966" lon="3.197226482855079"><ele>313.57142857142856</ele><time>2026-04-11T12:41:52Z</time></trkpt><trkpt lat="45.86174841779849" lon="3.197317012748979"><ele>313.2857142857143</ele><time>2026-04-11T12:41:53Z</time></trkpt><trkpt lat="45.861784642324736" lon="3.197406333998014"><ele>313.0</ele><time>2026-04-11T12:41:54Z</time></trkpt><trkpt lat="45.86181978044232" lon="3.197498585289754"><ele>312.85714285714283</ele><time>2026-04-11T12:41:55Z</time></trkpt><trkpt lat="45.86185406828815" lon="3.1975904239055257"><ele>312.7142857142857</ele><time>2026-04-11T12:41:56Z</time></trkpt><trkpt lat="45.8618888510648" lon="3.197679414721399"><ele>312.57142857142856</ele><time>2026-04-11T12:41:57Z</time></trkpt><trkpt lat="45.86192833282069" lon="3.197767690547491"><ele>312.42857142857144</ele><time>2026-04-11T12:41:58Z</time></trkpt><trkpt lat="45.861963442964466" lon="3.19785670668139"><ele>312.2857142857143</ele><time>2026-04-11T12:41:59Z</time></trkpt><trkpt lat="45.86199880903242" lon="3.1979471936755277"><ele>312.14285714285717</ele><time>2026-04-11T12:42:00Z</time></trkpt><trkpt lat="45.86203324281973" lon="3.1980387587797483"><ele>312.0</ele><time>2026-04-11T12:42:01Z</time></trkpt><trkpt lat="45.86206918633022" lon="3.198129867174207"><ele>312.2857142857143</ele><time>2026-04-11T12:42:02Z</time></trkpt><trkpt lat="45.86210438110219" lon="3.1982209606726295"><ele>312.57142857142856</ele><time>2026-04-11T12:42:03Z</time></trkpt><trkpt lat="45.86213724833249" lon="3.198313980065626"><ele>312.85714285714283</ele><time>2026-04-11T12:42:04Z</time></trkpt><trkpt lat="45.86217148164338" lon="3.1984069293427564"><ele>313.1428571428571</ele><time>2026-04-11T12:42:05Z</time></trkpt><trkpt lat="45.86220769383856" lon="3.1984967656637355"><ele>313.42857142857144</ele><time>2026-04-11T12:42:06Z</time></trkpt><trkpt lat="45.862244927608856" lon="3.1985862800978446"><ele>313.71428571428567</ele><time>2026-04-11T12:42:07Z</time></trkpt><trkpt lat="45.86227845587121" lon="3.1986764711590374"><ele>314.0</ele><time>2026-04-11T12:42:08Z</time></trkpt><trkpt lat="45.86231424958864" lon="3.1987647288503354"><ele>313.99999999999994</ele><time>2026-04-11T12:42:09Z</time></trkpt><trkpt lat="45.86235235853788" lon="3.19885255392489"><ele>314.0</ele><time>2026-04-11T12:42:10Z</time></trkpt><trkpt lat="45.86238832231499" lon="3.1989407777020564"><ele>314.0</ele><time>2026-04-11T12:42:11Z</time></trkpt><trkpt lat="45.86242509535053" lon="3.199028463517391"><ele>314.0</ele><time>2026-04-11T12:42:12Z</time></trkpt><trkpt lat="45.86245920857705" lon="3.1991164408880475"><ele>314.0</ele><time>2026-04-11T12:42:13Z</time></trkpt><trkpt lat="45.862493746264356" lon="3.199205854522488"><ele>313.99999999999994</ele><time>2026-04-11T12:42:13.999Z</time></trkpt><trkpt lat="45.862527335333446" lon="3.199294203239509"><ele>314.0</ele><time>2026-04-11T12:42:14.999Z</time></trkpt><trkpt lat="45.86256366092606" lon="3.1993800352128043"><ele>313.99999999999994</ele><time>2026-04-11T12:42:15.999Z</time></trkpt><trkpt lat="45.8625960585154" lon="3.1994688508214097"><ele>314.0</ele><time>2026-04-11T12:42:16.999Z</time></trkpt><trkpt lat="45.86263104378896" lon="3.1995567512592933"><ele>314.0</ele><time>2026-04-11T12:42:17.999Z</time></trkpt><trkpt lat="45.862668504101876" lon="3.1996439194812027"><ele>314.0</ele><time>2026-04-11T12:42:18.999Z</time></trkpt><trkpt lat="45.86270365340772" lon="3.1997310230938956"><ele>314.0</ele><time>2026-04-11T12:42:19.999Z</time></trkpt><trkpt lat="45.86273931663647" lon="3.199816620042192"><ele>313.99999999999994</ele><time>2026-04-11T12:42:20.999Z</time></trkpt><trkpt lat="45.862773617620306" lon="3.1999032040825752"><ele>314.0</ele><time>2026-04-11T12:42:21.999Z</time></trkpt><trkpt lat="45.86280736203275" lon="3.1999897922419165"><ele>313.99999999999994</ele><time>2026-04-11T12:42:22.999Z</time></trkpt><trkpt lat="45.86283961536596" lon="3.2000754356271974"><ele>314.0</ele><time>2026-04-11T12:42:23.999Z</time></trkpt><trkpt lat="45.862870957516606" lon="3.200160895810055"><ele>314.0</ele><time>2026-04-11T12:42:24.999Z</time></trkpt><trkpt lat="45.8629034885303" lon="3.200245438559997"><ele>314.0</ele><time>2026-04-11T12:42:25.999Z</time></trkpt><trkpt lat="45.862936174879486" lon="3.2003308440480325"><ele>314.0</ele><time>2026-04-11T12:42:26.999Z</time></trkpt><trkpt lat="45.86297083344246" lon="3.200413244758872"><ele>313.99999999999994</ele><time>2026-04-11T12:42:27.999Z</time></trkpt><trkpt lat="45.86300145841138" lon="3.200499351444153"><ele>314.0</ele><time>2026-04-11T12:42:28.999Z</time></trkpt><trkpt lat="45.863034290370834" lon="3.2005805073163787"><ele>313.99999999999994</ele><time>2026-04-11T12:42:29.999Z</time></trkpt><trkpt lat="45.86306148573027" lon="3.200664275217769"><ele>314.0</ele><time>2026-04-11T12:42:30.999Z</time></trkpt><trkpt lat="45.863091474379914" lon="3.200748738536842"><ele>314.0</ele><time>2026-04-11T12:42:31.999Z</time></trkpt><trkpt lat="45.86311887792264" lon="3.2008342132747303"><ele>314.0</ele><time>2026-04-11T12:42:32.999Z</time></trkpt><trkpt lat="45.863151066494424" lon="3.20091791058531"><ele>314.0</ele><time>2026-04-11T12:42:33.999Z</time></trkpt><trkpt lat="45.8631839090743" lon="3.201000807847812"><ele>313.99999999999994</ele><time>2026-04-11T12:42:34.999Z</time></trkpt><trkpt lat="45.86321356494509" lon="3.2010850387413505"><ele>314.0</ele><time>2026-04-11T12:42:35.999Z</time></trkpt><trkpt lat="45.863240742353454" lon="3.201170923057085"><ele>313.99999999999994</ele><time>2026-04-11T12:42:36.999Z</time></trkpt><trkpt lat="45.863269617475275" lon="3.201253770776481"><ele>314.0</ele><time>2026-04-11T12:42:37.999Z</time></trkpt><trkpt lat="45.8632993769519" lon="3.2013343784945554"><ele>314.0</ele><time>2026-04-11T12:42:38.999Z</time></trkpt><trkpt lat="45.863329130903516" lon="3.2014166716474195"><ele>314.0</ele><time>2026-04-11T12:42:39.999Z</time></trkpt><trkpt lat="45.86335884912828" lon="3.2014998245158273"><ele>314.0</ele><time>2026-04-11T12:42:40.999Z</time></trkpt><trkpt lat="45.8633889968903" lon="3.2015821084520355"><ele>313.99999999999994</ele><time>2026-04-11T12:42:41.999Z</time></trkpt><trkpt lat="45.86341829412519" lon="3.201664350130502"><ele>314.0</ele><time>2026-04-11T12:42:42.999Z</time></trkpt><trkpt lat="45.86344739774093" lon="3.201747563401573"><ele>313.85714285714283</ele><time>2026-04-11T12:42:43.999Z</time></trkpt><trkpt lat="45.863474840517014" lon="3.2018289343150275"><ele>313.7142857142857</ele><time>2026-04-11T12:42:44.999Z</time></trkpt><trkpt lat="45.8635027805869" lon="3.2019110810551674"><ele>313.57142857142856</ele><time>2026-04-11T12:42:45.999Z</time></trkpt><trkpt lat="45.86355776449716" lon="3.2020745255902936"><ele>313.42857142857144</ele><time>2026-04-11T12:42:47.999Z</time></trkpt><trkpt lat="45.86358662548935" lon="3.2021570611169228"><ele>313.2857142857143</ele><time>2026-04-11T12:42:48.999Z</time></trkpt><trkpt lat="45.86361504694543" lon="3.2022405295530456"><ele>313.1428571428571</ele><time>2026-04-11T12:42:49.999Z</time></trkpt><trkpt lat="45.863644554211845" lon="3.202322585407811"><ele>313.0</ele><time>2026-04-11T12:42:50.999Z</time></trkpt><trkpt lat="45.86367233133168" lon="3.202404888007027"><ele>313.0</ele><time>2026-04-11T12:42:51.999Z</time></trkpt><trkpt lat="45.863701411277766" lon="3.202487856080615"><ele>313.0</ele><time>2026-04-11T12:42:52.999Z</time></trkpt><trkpt lat="45.86372956427427" lon="3.2025704719860997"><ele>313.0</ele><time>2026-04-11T12:42:53.999Z</time></trkpt><trkpt lat="45.86375525662795" lon="3.20265437957226"><ele>313.0</ele><time>2026-04-11T12:42:54.999Z</time></trkpt><trkpt lat="45.863782976654726" lon="3.2027388980985867"><ele>313.0</ele><time>2026-04-11T12:42:55.999Z</time></trkpt><trkpt lat="45.86380822940854" lon="3.2028238577678496"><ele>313.0</ele><time>2026-04-11T12:42:56.999Z</time></trkpt><trkpt lat="45.863834198458825" lon="3.202907429333197"><ele>313.0</ele><time>2026-04-11T12:42:57.999Z</time></trkpt><trkpt lat="45.86385738975307" lon="3.202993184018685"><ele>313.0</ele><time>2026-04-11T12:42:58.999Z</time></trkpt><trkpt lat="45.863880334189105" lon="3.203079450821468"><ele>313.0</ele><time>2026-04-11T12:42:59.999Z</time></trkpt><trkpt lat="45.86390341046745" lon="3.203166976375339"><ele>313.0</ele><time>2026-04-11T12:43:00.999Z</time></trkpt><trkpt lat="45.86392678543062" lon="3.20325465413462"><ele>313.0</ele><time>2026-04-11T12:43:01.999Z</time></trkpt><trkpt lat="45.86395084678955" lon="3.203341746975989"><ele>313.0</ele><time>2026-04-11T12:43:02.999Z</time></trkpt><trkpt lat="45.86397458470109" lon="3.2034269688454815"><ele>313.0</ele><time>2026-04-11T12:43:03.999Z</time></trkpt><trkpt lat="45.86399724593369" lon="3.203512702888496"><ele>313.0</ele><time>2026-04-11T12:43:04.999Z</time></trkpt><trkpt lat="45.864016618067105" lon="3.2036008020364775"><ele>313.0</ele><time>2026-04-11T12:43:05.999Z</time></trkpt><trkpt lat="45.864038142205416" lon="3.2036873392067893"><ele>313.0</ele><time>2026-04-11T12:43:06.999Z</time></trkpt><trkpt lat="45.8640567021002" lon="3.203777424271694"><ele>313.0</ele><time>2026-04-11T12:43:07.999Z</time></trkpt><trkpt lat="45.86407660267754" lon="3.203867227858615"><ele>313.0</ele><time>2026-04-11T12:43:08.999Z</time></trkpt><trkpt lat="45.86409640705777" lon="3.2039579809744745"><ele>313.0</ele><time>2026-04-11T12:43:09.999Z</time></trkpt><trkpt lat="45.86411537512891" lon="3.2040514341179964"><ele>313.0</ele><time>2026-04-11T12:43:10.999Z</time></trkpt><trkpt lat="45.86413515034051" lon="3.204143219786788"><ele>313.0</ele><time>2026-04-11T12:43:11.999Z</time></trkpt><trkpt lat="45.8641530166943" lon="3.20423657739291"><ele>313.0</ele><time>2026-04-11T12:43:12.999Z</time></trkpt><trkpt lat="45.8641710117016" lon="3.20432961397452"><ele>313.0</ele><time>2026-04-11T12:43:13.999Z</time></trkpt><trkpt lat="45.86418949184178" lon="3.2044241153997"><ele>313.0</ele><time>2026-04-11T12:43:14.999Z</time></trkpt><trkpt lat="45.864208422900305" lon="3.204517493198682"><ele>313.0</ele><time>2026-04-11T12:43:15.999Z</time></trkpt><trkpt lat="45.86422686144038" lon="3.2046112403689833"><ele>313.0</ele><time>2026-04-11T12:43:16.999Z</time></trkpt><trkpt lat="45.86424548847819" lon="3.204705051901663"><ele>313.0</ele><time>2026-04-11T12:43:17.999Z</time></trkpt><trkpt lat="45.86425856759899" lon="3.2047991298148157"><ele>313.0</ele><time>2026-04-11T12:43:18.999Z</time></trkpt><trkpt lat="45.86427410906292" lon="3.2048930158057494"><ele>313.1428571428571</ele><time>2026-04-11T12:43:19.999Z</time></trkpt><trkpt lat="45.8642884222079" lon="3.2049869825614925"><ele>313.2857142857143</ele><time>2026-04-11T12:43:21Z</time></trkpt><trkpt lat="45.864303792717045" lon="3.2050804308421634"><ele>313.42857142857144</ele><time>2026-04-11T12:43:22Z</time></trkpt><trkpt lat="45.86431934431049" lon="3.2051734848718074"><ele>313.57142857142856</ele><time>2026-04-11T12:43:23Z</time></trkpt><trkpt lat="45.86433461085399" lon="3.2052666103858285"><ele>313.7142857142857</ele><time>2026-04-11T12:43:24Z</time></trkpt><trkpt lat="45.86435023654586" lon="3.205359030332767"><ele>313.85714285714283</ele><time>2026-04-11T12:43:25Z</time></trkpt><trkpt lat="45.86436338893293" lon="3.2054517923163743"><ele>314.0</ele><time>2026-04-11T12:43:26Z</time></trkpt><trkpt lat="45.86438114393597" lon="3.205543052967149"><ele>313.99999999999994</ele><time>2026-04-11T12:43:27Z</time></trkpt><trkpt lat="45.86439617129043" lon="3.2056355788918056"><ele>314.0</ele><time>2026-04-11T12:43:28Z</time></trkpt><trkpt lat="45.86440914993315" lon="3.2057274979644452"><ele>314.0</ele><time>2026-04-11T12:43:29Z</time></trkpt><trkpt lat="45.864428389108866" lon="3.205817015506516"><ele>314.0</ele><time>2026-04-11T12:43:30Z</time></trkpt><trkpt lat="45.86444334530462" lon="3.2059106564936695"><ele>314.0</ele><time>2026-04-11T12:43:31Z</time></trkpt><trkpt lat="45.86445500428008" lon="3.2060047213446743"><ele>313.99999999999994</ele><time>2026-04-11T12:43:32Z</time></trkpt><trkpt lat="45.864470159467515" lon="3.2060969702112967"><ele>314.0</ele><time>2026-04-11T12:43:33Z</time></trkpt><trkpt lat="45.86448441119419" lon="3.206188945194805"><ele>313.85714285714283</ele><time>2026-04-11T12:43:34Z</time></trkpt><trkpt lat="45.86449827866662" lon="3.2062801651745807"><ele>313.7142857142857</ele><time>2026-04-11T12:43:35Z</time></trkpt><trkpt lat="45.86451252750866" lon="3.2063723142933127"><ele>313.57142857142856</ele><time>2026-04-11T12:43:36Z</time></trkpt><trkpt lat="45.86452609253638" lon="3.2064646413061517"><ele>313.42857142857144</ele><time>2026-04-11T12:43:37Z</time></trkpt><trkpt lat="45.86454032070298" lon="3.206556961398264"><ele>313.2857142857143</ele><time>2026-04-11T12:43:38Z</time></trkpt><trkpt lat="45.864557086335694" lon="3.2066490219073667"><ele>313.1428571428571</ele><time>2026-04-11T12:43:39Z</time></trkpt><trkpt lat="45.86457417888755" lon="3.2067400052912642"><ele>313.0</ele><time>2026-04-11T12:43:40Z</time></trkpt><trkpt lat="45.86458731588932" lon="3.2068314697805578"><ele>313.0</ele><time>2026-04-11T12:43:41Z</time></trkpt><trkpt lat="45.864600595021855" lon="3.206923635157898"><ele>313.0</ele><time>2026-04-11T12:43:42Z</time></trkpt><trkpt lat="45.864614959399134" lon="3.2070156400242458"><ele>313.0</ele><time>2026-04-11T12:43:43Z</time></trkpt><trkpt lat="45.86463184708437" lon="3.207106579940609"><ele>313.0</ele><time>2026-04-11T12:43:44Z</time></trkpt><trkpt lat="45.86464485409935" lon="3.2071990488287914"><ele>313.0</ele><time>2026-04-11T12:43:45Z</time></trkpt><trkpt lat="45.86465831764954" lon="3.207291433054155"><ele>313.0</ele><time>2026-04-11T12:43:46Z</time></trkpt><trkpt lat="45.86467192856831" lon="3.2073842070851692"><ele>313.0</ele><time>2026-04-11T12:43:47Z</time></trkpt><trkpt lat="45.86468662502704" lon="3.2074776473854705"><ele>313.0</ele><time>2026-04-11T12:43:48Z</time></trkpt><trkpt lat="45.8646998443789" lon="3.2075719324822445"><ele>313.0</ele><time>2026-04-11T12:43:49Z</time></trkpt><trkpt lat="45.86471465195633" lon="3.20766747956467"><ele>313.0</ele><time>2026-04-11T12:43:50Z</time></trkpt><trkpt lat="45.864728089275" lon="3.207765078429401"><ele>313.0</ele><time>2026-04-11T12:43:51Z</time></trkpt><trkpt lat="45.86474327764692" lon="3.207861858675885"><ele>313.0</ele><time>2026-04-11T12:43:52Z</time></trkpt><trkpt lat="45.8647578514622" lon="3.2079593373697155"><ele>313.0</ele><time>2026-04-11T12:43:53Z</time></trkpt><trkpt lat="45.86477338201244" lon="3.2080562750063666"><ele>313.0</ele><time>2026-04-11T12:43:54Z</time></trkpt><trkpt lat="45.86478937831229" lon="3.2081534498998856"><ele>312.85714285714283</ele><time>2026-04-11T12:43:55Z</time></trkpt><trkpt lat="45.86480347649684" lon="3.20825079449598"><ele>312.7142857142857</ele><time>2026-04-11T12:43:56Z</time></trkpt><trkpt lat="45.864816623979834" lon="3.208348536834976"><ele>312.57142857142856</ele><time>2026-04-11T12:43:57Z</time></trkpt><trkpt lat="45.864831778640514" lon="3.2084471746727408"><ele>312.42857142857144</ele><time>2026-04-11T12:43:58Z</time></trkpt><trkpt lat="45.86484652312732" lon="3.2085473611987467"><ele>312.2857142857143</ele><time>2026-04-11T12:43:59Z</time></trkpt><trkpt lat="45.86486286581231" lon="3.208647998027748"><ele>312.14285714285717</ele><time>2026-04-11T12:44:00Z</time></trkpt><trkpt lat="45.86488421241407" lon="3.208748400275419"><ele>312.0</ele><time>2026-04-11T12:44:01Z</time></trkpt><trkpt lat="45.864900506641604" lon="3.2088497584008566"><ele>312.0</ele><time>2026-04-11T12:44:02Z</time></trkpt><trkpt lat="45.864915403100966" lon="3.208951776996217"><ele>312.0</ele><time>2026-04-11T12:44:03Z</time></trkpt><trkpt lat="45.86493123838356" lon="3.2090527694677227"><ele>312.0</ele><time>2026-04-11T12:44:04Z</time></trkpt><trkpt lat="45.864948541274586" lon="3.209154724344236"><ele>312.0</ele><time>2026-04-11T12:44:05Z</time></trkpt><trkpt lat="45.864963984822616" lon="3.209256130797853"><ele>312.0</ele><time>2026-04-11T12:44:06Z</time></trkpt><trkpt lat="45.86498073792958" lon="3.2093606237508987"><ele>312.0</ele><time>2026-04-11T12:44:07Z</time></trkpt><trkpt lat="45.86499815033972" lon="3.2094636474490175"><ele>312.0</ele><time>2026-04-11T12:44:08Z</time></trkpt><trkpt lat="45.86501593313883" lon="3.2095688693610667"><ele>312.0</ele><time>2026-04-11T12:44:09Z</time></trkpt><trkpt lat="45.8650324241841" lon="3.209673056208194"><ele>312.0</ele><time>2026-04-11T12:44:10Z</time></trkpt><trkpt lat="45.86504933081804" lon="3.2097760357597984"><ele>312.0</ele><time>2026-04-11T12:44:11Z</time></trkpt><trkpt lat="45.8650669512596" lon="3.209879323419903"><ele>312.0</ele><time>2026-04-11T12:44:12Z</time></trkpt><trkpt lat="45.8650844956956" lon="3.2099815645420224"><ele>312.0</ele><time>2026-04-11T12:44:13Z</time></trkpt><trkpt lat="45.86510090076132" lon="3.210084443852292"><ele>312.0</ele><time>2026-04-11T12:44:14Z</time></trkpt><trkpt lat="45.86511955217244" lon="3.2101881817378373"><ele>312.0</ele><time>2026-04-11T12:44:15Z</time></trkpt><trkpt lat="45.86513390089622" lon="3.210290333601786"><ele>311.8571428571429</ele><time>2026-04-11T12:44:16Z</time></trkpt><trkpt lat="45.86514922168335" lon="3.2103911423495552"><ele>311.71428571428567</ele><time>2026-04-11T12:44:17Z</time></trkpt><trkpt lat="45.8651631981106" lon="3.210491791392203"><ele>311.57142857142856</ele><time>2026-04-11T12:44:18Z</time></trkpt><trkpt lat="45.865180705395396" lon="3.2105915847463407"><ele>311.42857142857144</ele><time>2026-04-11T12:44:19Z</time></trkpt><trkpt lat="45.86519746811097" lon="3.210689615654984"><ele>311.28571428571433</ele><time>2026-04-11T12:44:20Z</time></trkpt><trkpt lat="45.865213231442695" lon="3.210788733178375"><ele>311.1428571428571</ele><time>2026-04-11T12:44:20.999Z</time></trkpt><trkpt lat="45.865226853701" lon="3.2108862902266972"><ele>311.0</ele><time>2026-04-11T12:44:21.999Z</time></trkpt><trkpt lat="45.86524197092131" lon="3.210985315992079"><ele>310.7142857142857</ele><time>2026-04-11T12:44:22.999Z</time></trkpt><trkpt lat="45.865258944587836" lon="3.2110826635463927"><ele>310.42857142857144</ele><time>2026-04-11T12:44:23.999Z</time></trkpt><trkpt lat="45.86527307319014" lon="3.2111803442660514"><ele>310.14285714285717</ele><time>2026-04-11T12:44:24.999Z</time></trkpt><trkpt lat="45.865288400969995" lon="3.211276466615011"><ele>309.8571428571429</ele><time>2026-04-11T12:44:25.999Z</time></trkpt><trkpt lat="45.86533224338497" lon="3.2113641606360597"><ele>309.57142857142856</ele><time>2026-04-11T12:44:26.999Z</time></trkpt><trkpt lat="45.86534752495307" lon="3.2114623940556157"><ele>309.28571428571433</ele><time>2026-04-11T12:44:27.999Z</time></trkpt><trkpt lat="45.86536229771397" lon="3.2115573569790095"><ele>309.0</ele><time>2026-04-11T12:44:28.999Z</time></trkpt><trkpt lat="45.86537638239196" lon="3.211653744348009"><ele>309.00000000000006</ele><time>2026-04-11T12:44:29.999Z</time></trkpt><trkpt lat="45.86539032275415" lon="3.21174884621807"><ele>309.0</ele><time>2026-04-11T12:44:30.999Z</time></trkpt><trkpt lat="45.86540413666961" lon="3.211843085462226"><ele>309.0</ele><time>2026-04-11T12:44:31.999Z</time></trkpt><trkpt lat="45.86541751753237" lon="3.2119343700320386"><ele>309.0</ele><time>2026-04-11T12:44:32.999Z</time></trkpt><trkpt lat="45.865431760830965" lon="3.2120275762141586"><ele>309.0</ele><time>2026-04-11T12:44:33.999Z</time></trkpt><trkpt lat="45.86544692950708" lon="3.2121174913379282"><ele>309.00000000000006</ele><time>2026-04-11T12:44:34.999Z</time></trkpt><trkpt lat="45.86546456573224" lon="3.212208816842321"><ele>309.0</ele><time>2026-04-11T12:44:35.999Z</time></trkpt><trkpt lat="45.865483478126485" lon="3.2122979388028"><ele>309.28571428571433</ele><time>2026-04-11T12:44:36.999Z</time></trkpt><trkpt lat="45.86550342311159" lon="3.2123862477539844"><ele>309.57142857142856</ele><time>2026-04-11T12:44:37.999Z</time></trkpt><trkpt lat="45.865524599576275" lon="3.212476479456976"><ele>309.8571428571429</ele><time>2026-04-11T12:44:38.999Z</time></trkpt><trkpt lat="45.86554680972639" lon="3.212563297139207"><ele>310.14285714285717</ele><time>2026-04-11T12:44:39.999Z</time></trkpt><trkpt lat="45.86557175153885" lon="3.212649124617358"><ele>310.42857142857144</ele><time>2026-04-11T12:44:40.999Z</time></trkpt><trkpt lat="45.86559897393948" lon="3.212733355739753"><ele>310.7142857142857</ele><time>2026-04-11T12:44:41.999Z</time></trkpt><trkpt lat="45.8656279212451" lon="3.212815790355258"><ele>311.0</ele><time>2026-04-11T12:44:42.999Z</time></trkpt><trkpt lat="45.865657325712846" lon="3.212896199801478"><ele>311.0</ele><time>2026-04-11T12:44:43.999Z</time></trkpt><trkpt lat="45.86568812317012" lon="3.212976618584088"><ele>311.0</ele><time>2026-04-11T12:44:44.999Z</time></trkpt><trkpt lat="45.8656869682121" lon="3.213184695636391"><ele>311.0</ele><time>2026-04-11T12:44:46.999Z</time></trkpt><trkpt lat="45.86566626072003" lon="3.2133715423188427"><ele>311.0</ele><time>2026-04-11T12:44:48.999Z</time></trkpt><trkpt lat="45.865678063703335" lon="3.2135504938688984"><ele>311.2</ele><time>2026-04-11T12:44:50.999Z</time></trkpt><trkpt lat="45.865694164058375" lon="3.2136381662903872"><ele>311.40000000000003</ele><time>2026-04-11T12:44:51.999Z</time></trkpt><trkpt lat="45.86572610509267" lon="3.2138089986128313"><ele>311.6</ele><time>2026-04-11T12:44:53.999Z</time></trkpt><trkpt lat="45.86573672693993" lon="3.2138994736978743"><ele>311.8</ele><time>2026-04-11T12:44:54.999Z</time></trkpt><trkpt lat="45.86576212356702" lon="3.2140714719076318"><ele>312.0</ele><time>2026-04-11T12:44:56.999Z</time></trkpt><trkpt lat="45.86578622685689" lon="3.214238943862251"><ele>312.25</ele><time>2026-04-11T12:44:58.999Z</time></trkpt><trkpt lat="45.86580591581782" lon="3.214412947367684"><ele>312.5</ele><time>2026-04-11T12:45:00.999Z</time></trkpt><trkpt lat="45.86582530913726" lon="3.214584225840235"><ele>312.75</ele><time>2026-04-11T12:45:02.999Z</time></trkpt><trkpt lat="45.865835151171474" lon="3.2147529167514066"><ele>313.0</ele><time>2026-04-11T12:45:04.999Z</time></trkpt><trkpt lat="45.86585893403779" lon="3.2149101122635333"><ele>313.2</ele><time>2026-04-11T12:45:06.999Z</time></trkpt><trkpt lat="45.86585528958267" lon="3.2150230058563034"><ele>313.4</ele><time>2026-04-11T12:45:08.999Z</time></trkpt><trkpt lat="45.86586426067433" lon="3.2151753498298756"><ele>313.59999999999997</ele><time>2026-04-11T12:45:10.999Z</time></trkpt><trkpt lat="45.865874250076196" lon="3.215344986338649"><ele>313.8</ele><time>2026-04-11T12:45:12.999Z</time></trkpt><trkpt lat="45.86587401002231" lon="3.2155079969120495"><ele>314.0</ele><time>2026-04-11T12:45:14.999Z</time></trkpt><trkpt lat="45.86588399868691" lon="3.215670496399568"><ele>314.0</ele><time>2026-04-11T12:45:16.999Z</time></trkpt><trkpt lat="45.86589394607397" lon="3.2158338689327572"><ele>314.0</ele><time>2026-04-11T12:45:18.999Z</time></trkpt><trkpt lat="45.86589862936973" lon="3.215991957513829"><ele>314.0</ele><time>2026-04-11T12:45:20.999Z</time></trkpt><trkpt lat="45.865918747292795" lon="3.2162346587980264"><ele>314.0</ele><time>2026-04-11T12:45:23.999Z</time></trkpt><trkpt lat="45.86593975990792" lon="3.2163906097587227"><ele>314.2</ele><time>2026-04-11T12:45:25.999Z</time></trkpt><trkpt lat="45.86596690105933" lon="3.2165502903111984"><ele>314.4</ele><time>2026-04-11T12:45:28Z</time></trkpt><trkpt lat="45.86601548982825" lon="3.216700191638108"><ele>314.6</ele><time>2026-04-11T12:45:30Z</time></trkpt><trkpt lat="45.8660473561698" lon="3.2168472541505633"><ele>314.8</ele><time>2026-04-11T12:45:32Z</time></trkpt><trkpt lat="45.86605800944889" lon="3.2169921915308137"><ele>315.0</ele><time>2026-04-11T12:45:34Z</time></trkpt><trkpt lat="45.86612122336388" lon="3.2170627321811485"><ele>315.0</ele><time>2026-04-11T12:45:41Z</time></trkpt><trkpt lat="45.86621907021348" lon="3.2173331690877665"><ele>315.0</ele><time>2026-04-11T12:45:43Z</time></trkpt><trkpt lat="45.86628847551359" lon="3.2173922160297077"><ele>315.0</ele><time>2026-04-11T12:45:45Z</time></trkpt><trkpt lat="45.8663670067978" lon="3.217459183730188"><ele>315.0</ele><time>2026-04-11T12:45:47Z</time></trkpt><trkpt lat="45.866449076954204" lon="3.2175293574316264"><ele>315.0</ele><time>2026-04-11T12:45:49Z</time></trkpt><trkpt lat="45.86654570715051" lon="3.2175968118375113"><ele>315.0</ele><time>2026-04-11T12:45:51Z</time></trkpt><trkpt lat="45.866647534301535" lon="3.217660105351375"><ele>315.0</ele><time>2026-04-11T12:45:53Z</time></trkpt><trkpt lat="45.86675635906314" lon="3.2177180881009404"><ele>315.0</ele><time>2026-04-11T12:45:55Z</time></trkpt><trkpt lat="45.866866433046425" lon="3.2177757760801606"><ele>314.8</ele><time>2026-04-11T12:45:57Z</time></trkpt><trkpt lat="45.866974372930535" lon="3.217833695363256"><ele>314.6</ele><time>2026-04-11T12:45:59Z</time></trkpt><trkpt lat="45.86708006949626" lon="3.217891703868541"><ele>314.4</ele><time>2026-04-11T12:46:01Z</time></trkpt><trkpt lat="45.86717565940001" lon="3.2179439878509326"><ele>314.2</ele><time>2026-04-11T12:46:03Z</time></trkpt><trkpt lat="45.86726779515892" lon="3.2179973493299188"><ele>314.0</ele><time>2026-04-11T12:46:05Z</time></trkpt><trkpt lat="45.86736218303696" lon="3.218055863174962"><ele>314.0</ele><time>2026-04-11T12:46:07Z</time></trkpt><trkpt lat="45.867464603086994" lon="3.2181184560893765"><ele>314.0</ele><time>2026-04-11T12:46:09Z</time></trkpt><trkpt lat="45.867548991036465" lon="3.21818063077133"><ele>314.0</ele><time>2026-04-11T12:46:11Z</time></trkpt><trkpt lat="45.86763955137247" lon="3.218248957082076"><ele>314.0</ele><time>2026-04-11T12:46:13Z</time></trkpt><trkpt lat="45.86772232353385" lon="3.2183165228523998"><ele>314.0</ele><time>2026-04-11T12:46:15Z</time></trkpt><trkpt lat="45.86781013905952" lon="3.2183931399589407"><ele>313.8</ele><time>2026-04-11T12:46:17Z</time></trkpt><trkpt lat="45.867896633967185" lon="3.2184714536806722"><ele>313.59999999999997</ele><time>2026-04-11T12:46:19Z</time></trkpt><trkpt lat="45.867967348482246" lon="3.218539924947072"><ele>313.4</ele><time>2026-04-11T12:46:20.999Z</time></trkpt><trkpt lat="45.86804900586021" lon="3.2186212103624294"><ele>313.2</ele><time>2026-04-11T12:46:22.999Z</time></trkpt><trkpt lat="45.868133177985584" lon="3.218711681536607"><ele>313.0</ele><time>2026-04-11T12:46:24.999Z</time></trkpt><trkpt lat="45.86821776329309" lon="3.218808651486849"><ele>313.0</ele><time>2026-04-11T12:46:26.999Z</time></trkpt><trkpt lat="45.86830085550643" lon="3.218909436963141"><ele>313.0</ele><time>2026-04-11T12:46:28.999Z</time></trkpt><trkpt lat="45.86838539703232" lon="3.2190119796973002"><ele>313.0</ele><time>2026-04-11T12:46:30.999Z</time></trkpt><trkpt lat="45.868470476887786" lon="3.219115500836357"><ele>313.0</ele><time>2026-04-11T12:46:32.999Z</time></trkpt><trkpt lat="45.86855660735367" lon="3.2192193853466216"><ele>313.0</ele><time>2026-04-11T12:46:34.999Z</time></trkpt><trkpt lat="45.868642182453804" lon="3.219322089186541"><ele>312.75</ele><time>2026-04-11T12:46:36.999Z</time></trkpt><trkpt lat="45.86873259023444" lon="3.21943059291507"><ele>312.5</ele><time>2026-04-11T12:46:38.999Z</time></trkpt><trkpt lat="45.868820065830874" lon="3.219527237911879"><ele>312.25</ele><time>2026-04-11T12:46:40.999Z</time></trkpt><trkpt lat="45.8689180827226" lon="3.219625462038394"><ele>312.0</ele><time>2026-04-11T12:46:42.999Z</time></trkpt><trkpt lat="45.869014019019154" lon="3.219713597783589"><ele>312.0</ele><time>2026-04-11T12:46:44.999Z</time></trkpt><trkpt lat="45.869102809663104" lon="3.2197966232726962"><ele>312.0</ele><time>2026-04-11T12:46:46.999Z</time></trkpt><trkpt lat="45.869179409638654" lon="3.219870996263441"><ele>312.0</ele><time>2026-04-11T12:46:48.999Z</time></trkpt><trkpt lat="45.86924510569647" lon="3.219912735615369"><ele>312.0</ele><time>2026-04-11T12:46:50.999Z</time></trkpt><trkpt lat="45.86931123091595" lon="3.2200054690761477"><ele>312.0</ele><time>2026-04-11T12:46:52.999Z</time></trkpt><trkpt lat="45.86939574190456" lon="3.22008856457776"><ele>312.25</ele><time>2026-04-11T12:46:54.999Z</time></trkpt><trkpt lat="45.869472237598096" lon="3.220202219578287"><ele>312.5</ele><time>2026-04-11T12:46:56.999Z</time></trkpt><trkpt lat="45.869540881637825" lon="3.220329264840285"><ele>312.75</ele><time>2026-04-11T12:46:58.999Z</time></trkpt><trkpt lat="45.869606029522316" lon="3.2204649018059945"><ele>313.0</ele><time>2026-04-11T12:47:00.999Z</time></trkpt><trkpt lat="45.8696694510396" lon="3.2206005962381674"><ele>313.25</ele><time>2026-04-11T12:47:02.999Z</time></trkpt><trkpt lat="45.869738587818624" lon="3.220730954870062"><ele>313.5</ele><time>2026-04-11T12:47:04.999Z</time></trkpt><trkpt lat="45.86981116652772" lon="3.2208655972498716"><ele>313.75</ele><time>2026-04-11T12:47:06.999Z</time></trkpt><trkpt lat="45.86989776396941" lon="3.2209728752296347"><ele>314.0</ele><time>2026-04-11T12:47:08.999Z</time></trkpt><trkpt lat="45.87000813242452" lon="3.2210370115391407"><ele>313.5</ele><time>2026-04-11T12:47:10.999Z</time></trkpt><trkpt lat="45.870121009251996" lon="3.2210306856566016"><ele>313.0</ele><time>2026-04-11T12:47:12.999Z</time></trkpt><trkpt lat="45.870234910796874" lon="3.2209628356820823"><ele>312.5</ele><time>2026-04-11T12:47:14.999Z</time></trkpt><trkpt lat="45.87034350888272" lon="3.220870922150685"><ele>312.0</ele><time>2026-04-11T12:47:16.999Z</time></trkpt><trkpt lat="45.87045389881483" lon="3.2207833810214552"><ele>312.0</ele><time>2026-04-11T12:47:18.999Z</time></trkpt><trkpt lat="45.87051145470741" lon="3.2207395107251835"><ele>312.0</ele><time>2026-04-11T12:47:19.999Z</time></trkpt><trkpt lat="45.87056965689732" lon="3.220693793036071"><ele>312.0</ele><time>2026-04-11T12:47:20.999Z</time></trkpt><trkpt lat="45.870628758188275" lon="3.2206436656141677"><ele>312.0</ele><time>2026-04-11T12:47:21.999Z</time></trkpt><trkpt lat="45.87068857120657" lon="3.220592230826676"><ele>312.0</ele><time>2026-04-11T12:47:22.999Z</time></trkpt><trkpt lat="45.87074930537718" lon="3.22054509842517"><ele>312.0</ele><time>2026-04-11T12:47:23.999Z</time></trkpt><trkpt lat="45.87081128074067" lon="3.2204917526662045"><ele>312.0</ele><time>2026-04-11T12:47:24.999Z</time></trkpt><trkpt lat="45.87087201333796" lon="3.220442286862891"><ele>311.8571428571429</ele><time>2026-04-11T12:47:25.999Z</time></trkpt><trkpt lat="45.87093545306174" lon="3.2203946617655967"><ele>311.71428571428567</ele><time>2026-04-11T12:47:26.999Z</time></trkpt><trkpt lat="45.870998541247154" lon="3.2203471401839963"><ele>311.57142857142856</ele><time>2026-04-11T12:47:27.999Z</time></trkpt><trkpt lat="45.87105975732887" lon="3.2202939499860626"><ele>311.42857142857144</ele><time>2026-04-11T12:47:28.999Z</time></trkpt><trkpt lat="45.87111907287977" lon="3.2202480427600193"><ele>311.28571428571433</ele><time>2026-04-11T12:47:29.999Z</time></trkpt><trkpt lat="45.87118019372287" lon="3.2202030147765583"><ele>311.1428571428571</ele><time>2026-04-11T12:47:30.999Z</time></trkpt><trkpt lat="45.87123902525995" lon="3.2201567153592805"><ele>311.0</ele><time>2026-04-11T12:47:31.999Z</time></trkpt><trkpt lat="45.87129520162787" lon="3.2201078181323344"><ele>311.0</ele><time>2026-04-11T12:47:33Z</time></trkpt><trkpt lat="45.871353842673656" lon="3.220059856713797"><ele>311.0</ele><time>2026-04-11T12:47:34Z</time></trkpt><trkpt lat="45.87141284917318" lon="3.220016087297033"><ele>311.0</ele><time>2026-04-11T12:47:35Z</time></trkpt><trkpt lat="45.87147230449501" lon="3.219973694397567"><ele>311.0</ele><time>2026-04-11T12:47:36Z</time></trkpt><trkpt lat="45.871528715108006" lon="3.219929451180719"><ele>311.0</ele><time>2026-04-11T12:47:37Z</time></trkpt><trkpt lat="45.87158267130422" lon="3.2198817885325606"><ele>311.0</ele><time>2026-04-11T12:47:38Z</time></trkpt><trkpt lat="45.87168880227922" lon="3.2197956972109956"><ele>311.0</ele><time>2026-04-11T12:47:40Z</time></trkpt><trkpt lat="45.871745452020086" lon="3.2197535596620757"><ele>311.0</ele><time>2026-04-11T12:47:41Z</time></trkpt><trkpt lat="45.871800735248215" lon="3.219707345261521"><ele>311.0</ele><time>2026-04-11T12:47:42Z</time></trkpt><trkpt lat="45.871860473326656" lon="3.219663029625614"><ele>311.0</ele><time>2026-04-11T12:47:43Z</time></trkpt><trkpt lat="45.87197993772631" lon="3.219586826663439"><ele>311.0</ele><time>2026-04-11T12:47:45Z</time></trkpt><trkpt lat="45.872040350147124" lon="3.219555995736267"><ele>311.0</ele><time>2026-04-11T12:47:46Z</time></trkpt><trkpt lat="45.87210097302439" lon="3.2195182058916947"><ele>311.0</ele><time>2026-04-11T12:47:47Z</time></trkpt><trkpt lat="45.87216092925316" lon="3.219481676380854"><ele>311.0</ele><time>2026-04-11T12:47:48Z</time></trkpt><trkpt lat="45.87222394857184" lon="3.2194468651315633"><ele>311.0</ele><time>2026-04-11T12:47:49Z</time></trkpt><trkpt lat="45.87228787749346" lon="3.2194164418718336"><ele>311.0</ele><time>2026-04-11T12:47:50Z</time></trkpt><trkpt lat="45.87235384655863" lon="3.219386056608391"><ele>311.0</ele><time>2026-04-11T12:47:51Z</time></trkpt><trkpt lat="45.87241567855443" lon="3.219351772661423"><ele>311.0</ele><time>2026-04-11T12:47:52Z</time></trkpt><trkpt lat="45.87247917906935" lon="3.2193208852276047"><ele>311.0</ele><time>2026-04-11T12:47:53Z</time></trkpt><trkpt lat="45.87254316163971" lon="3.2192884786631994"><ele>311.0</ele><time>2026-04-11T12:47:54Z</time></trkpt><trkpt lat="45.872608920362275" lon="3.2192568747620056"><ele>311.0</ele><time>2026-04-11T12:47:55Z</time></trkpt><trkpt lat="45.87267252614091" lon="3.2192293094763538"><ele>311.0</ele><time>2026-04-11T12:47:56Z</time></trkpt><trkpt lat="45.87273750992593" lon="3.219198170431515"><ele>311.0</ele><time>2026-04-11T12:47:57Z</time></trkpt><trkpt lat="45.87280305861211" lon="3.2191679735372003"><ele>311.0</ele><time>2026-04-11T12:47:58Z</time></trkpt><trkpt lat="45.872868534819794" lon="3.219139203295491"><ele>311.0</ele><time>2026-04-11T12:47:59Z</time></trkpt><trkpt lat="45.87293121298875" lon="3.219109662473388"><ele>311.0</ele><time>2026-04-11T12:48:00Z</time></trkpt><trkpt lat="45.87299174030356" lon="3.2190809091595"><ele>311.0</ele><time>2026-04-11T12:48:01Z</time></trkpt><trkpt lat="45.873094527913466" lon="3.2190127707089045"><ele>311.0</ele><time>2026-04-11T12:48:03Z</time></trkpt><trkpt lat="45.87316694627588" lon="3.2189395278959663"><ele>311.0</ele><time>2026-04-11T12:48:05Z</time></trkpt><trkpt lat="45.87327813228012" lon="3.218936101308899"><ele>311.0</ele><time>2026-04-11T12:48:07Z</time></trkpt><trkpt lat="45.873395896778725" lon="3.2189879843051106"><ele>311.0</ele><time>2026-04-11T12:48:09Z</time></trkpt><trkpt lat="45.87345977182578" lon="3.218996303849927"><ele>310.7142857142857</ele><time>2026-04-11T12:48:10Z</time></trkpt><trkpt lat="45.87352703495237" lon="3.2190040406305473"><ele>310.42857142857144</ele><time>2026-04-11T12:48:11Z</time></trkpt><trkpt lat="45.873592462248546" lon="3.2190121349262295"><ele>310.14285714285717</ele><time>2026-04-11T12:48:12Z</time></trkpt><trkpt lat="45.87366140103461" lon="3.2190129397663205"><ele>309.8571428571429</ele><time>2026-04-11T12:48:13Z</time></trkpt><trkpt lat="45.873730293540795" lon="3.2190124225719323"><ele>309.57142857142856</ele><time>2026-04-11T12:48:14Z</time></trkpt><trkpt lat="45.87380051154231" lon="3.2190104132498902"><ele>309.28571428571433</ele><time>2026-04-11T12:48:15Z</time></trkpt><trkpt lat="45.873868649386175" lon="3.219007089844393"><ele>309.0</ele><time>2026-04-11T12:48:16Z</time></trkpt><trkpt lat="45.873940280353075" lon="3.2190037921504753"><ele>309.00000000000006</ele><time>2026-04-11T12:48:17Z</time></trkpt><trkpt lat="45.874012179792345" lon="3.2189990242141304"><ele>309.0</ele><time>2026-04-11T12:48:18Z</time></trkpt><trkpt lat="45.874083665884314" lon="3.2189941825349897"><ele>309.0</ele><time>2026-04-11T12:48:19Z</time></trkpt><trkpt lat="45.87415625817281" lon="3.2189878551866125"><ele>309.0</ele><time>2026-04-11T12:48:20Z</time></trkpt><trkpt lat="45.87422793236028" lon="3.218982688511998"><ele>309.0</ele><time>2026-04-11T12:48:21Z</time></trkpt><trkpt lat="45.87430145188764" lon="3.218976767667454"><ele>309.00000000000006</ele><time>2026-04-11T12:48:22Z</time></trkpt><trkpt lat="45.874375209918455" lon="3.2189694970426017"><ele>309.0</ele><time>2026-04-11T12:48:23Z</time></trkpt><trkpt lat="45.874448529592996" lon="3.2189638213473377"><ele>309.0</ele><time>2026-04-11T12:48:24Z</time></trkpt><trkpt lat="45.874525110286214" lon="3.218958809689184"><ele>309.0</ele><time>2026-04-11T12:48:24.999Z</time></trkpt><trkpt lat="45.87460061796956" lon="3.2189570830762655"><ele>309.0</ele><time>2026-04-11T12:48:25.999Z</time></trkpt><trkpt lat="45.87467610586641" lon="3.218954260185294"><ele>309.0</ele><time>2026-04-11T12:48:26.999Z</time></trkpt><trkpt lat="45.87482852879954" lon="3.218945392528356"><ele>309.0</ele><time>2026-04-11T12:48:28.999Z</time></trkpt><trkpt lat="45.874903771821394" lon="3.2189444480747045"><ele>309.00000000000006</ele><time>2026-04-11T12:48:29.999Z</time></trkpt><trkpt lat="45.87497880537106" lon="3.218942586747485"><ele>309.0</ele><time>2026-04-11T12:48:30.999Z</time></trkpt><trkpt lat="45.875052262314" lon="3.218941749222498"><ele>309.0</ele><time>2026-04-11T12:48:31.999Z</time></trkpt><trkpt lat="45.87512762009748" lon="3.2189392038088505"><ele>309.0</ele><time>2026-04-11T12:48:32.999Z</time></trkpt><trkpt lat="45.87520075522106" lon="3.2189339051755637"><ele>309.0</ele><time>2026-04-11T12:48:33.999Z</time></trkpt><trkpt lat="45.8752725834482" lon="3.218933611204257"><ele>309.00000000000006</ele><time>2026-04-11T12:48:34.999Z</time></trkpt><trkpt lat="45.87534355889601" lon="3.218931423453026"><ele>309.0</ele><time>2026-04-11T12:48:35.999Z</time></trkpt><trkpt lat="45.875415400675045" lon="3.2189297071751684"><ele>309.00000000000006</ele><time>2026-04-11T12:48:36.999Z</time></trkpt><trkpt lat="45.87548684131293" lon="3.218929339706494"><ele>309.0</ele><time>2026-04-11T12:48:37.999Z</time></trkpt><trkpt lat="45.87555921712838" lon="3.2189248937511135"><ele>309.0</ele><time>2026-04-11T12:48:38.999Z</time></trkpt><trkpt lat="45.8756312719449" lon="3.2189211061247933"><ele>309.0</ele><time>2026-04-11T12:48:39.999Z</time></trkpt><trkpt lat="45.875703539452026" lon="3.218918963417776"><ele>309.0</ele><time>2026-04-11T12:48:40.999Z</time></trkpt><trkpt lat="45.87577417556686" lon="3.2189181990374762"><ele>309.00000000000006</ele><time>2026-04-11T12:48:41.999Z</time></trkpt><trkpt lat="45.875847876076264" lon="3.2189174793510484"><ele>309.0</ele><time>2026-04-11T12:48:42.999Z</time></trkpt><trkpt lat="45.875921478049925" lon="3.218915329802103"><ele>309.00000000000006</ele><time>2026-04-11T12:48:43.999Z</time></trkpt><trkpt lat="45.875995556107995" lon="3.2189122083448622"><ele>309.0</ele><time>2026-04-11T12:48:44.999Z</time></trkpt><trkpt lat="45.87606905681646" lon="3.2189080786890134"><ele>309.0</ele><time>2026-04-11T12:48:45.999Z</time></trkpt><trkpt lat="45.8761417180915" lon="3.218905849211723"><ele>309.0</ele><time>2026-04-11T12:48:46.999Z</time></trkpt><trkpt lat="45.876214002365465" lon="3.2189029701475325"><ele>309.0</ele><time>2026-04-11T12:48:47.999Z</time></trkpt><trkpt lat="45.87628570542358" lon="3.218901113142145"><ele>309.00000000000006</ele><time>2026-04-11T12:48:48.999Z</time></trkpt><trkpt lat="45.8763583183767" lon="3.2188996387335758"><ele>309.0</ele><time>2026-04-11T12:48:49.999Z</time></trkpt><trkpt lat="45.87643090852636" lon="3.21889513112875"><ele>309.00000000000006</ele><time>2026-04-11T12:48:50.999Z</time></trkpt><trkpt lat="45.876502925728154" lon="3.2188939144649864"><ele>309.0</ele><time>2026-04-11T12:48:51.999Z</time></trkpt><trkpt lat="45.876576459169854" lon="3.218890586178666"><ele>309.0</ele><time>2026-04-11T12:48:52.999Z</time></trkpt><trkpt lat="45.8766490503244" lon="3.2188873318039755"><ele>309.0</ele><time>2026-04-11T12:48:53.999Z</time></trkpt><trkpt lat="45.87672314189415" lon="3.2188856122368983"><ele>309.0</ele><time>2026-04-11T12:48:54.999Z</time></trkpt><trkpt lat="45.87679497362261" lon="3.21888475917329"><ele>309.00000000000006</ele><time>2026-04-11T12:48:55.999Z</time></trkpt><trkpt lat="45.87686703704008" lon="3.218882082905062"><ele>309.0</ele><time>2026-04-11T12:48:56.999Z</time></trkpt><trkpt lat="45.876940380119485" lon="3.2188782705751677"><ele>309.00000000000006</ele><time>2026-04-11T12:48:57.999Z</time></trkpt><trkpt lat="45.877012248461114" lon="3.2188756959840914"><ele>309.0</ele><time>2026-04-11T12:48:58.999Z</time></trkpt><trkpt lat="45.877085208118864" lon="3.2188746565507027"><ele>309.0</ele><time>2026-04-11T12:48:59.999Z</time></trkpt><trkpt lat="45.87715658406023" lon="3.2188713568895873"><ele>309.0</ele><time>2026-04-11T12:49:00.999Z</time></trkpt><trkpt lat="45.87723013888633" lon="3.2188691857667537"><ele>309.0</ele><time>2026-04-11T12:49:01.999Z</time></trkpt><trkpt lat="45.8773033603223" lon="3.218864249203094"><ele>309.00000000000006</ele><time>2026-04-11T12:49:02.999Z</time></trkpt><trkpt lat="45.87737680659643" lon="3.2188617217201396"><ele>309.0</ele><time>2026-04-11T12:49:03.999Z</time></trkpt><trkpt lat="45.87744922279564" lon="3.218858944737432"><ele>309.00000000000006</ele><time>2026-04-11T12:49:04.999Z</time></trkpt><trkpt lat="45.8775235050623" lon="3.218856275449318"><ele>309.0</ele><time>2026-04-11T12:49:05.999Z</time></trkpt><trkpt lat="45.877597171775584" lon="3.2188543356901436"><ele>309.0</ele><time>2026-04-11T12:49:06.999Z</time></trkpt><trkpt lat="45.877670893777164" lon="3.2188498353694897"><ele>309.0</ele><time>2026-04-11T12:49:07.999Z</time></trkpt><trkpt lat="45.877744289651" lon="3.2188459342675237"><ele>309.0</ele><time>2026-04-11T12:49:08.999Z</time></trkpt><trkpt lat="45.87781847406196" lon="3.218842692221022"><ele>309.00000000000006</ele><time>2026-04-11T12:49:09.999Z</time></trkpt><trkpt lat="45.87789171020924" lon="3.218838368849424"><ele>309.0</ele><time>2026-04-11T12:49:10.999Z</time></trkpt><trkpt lat="45.877966300569575" lon="3.218836733226519"><ele>309.14285714285717</ele><time>2026-04-11T12:49:11.999Z</time></trkpt><trkpt lat="45.878038920530685" lon="3.2188341247673864"><ele>309.2857142857143</ele><time>2026-04-11T12:49:12.999Z</time></trkpt><trkpt lat="45.87811088066891" lon="3.218831411393931"><ele>309.42857142857144</ele><time>2026-04-11T12:49:13.999Z</time></trkpt><trkpt lat="45.87818464916147" lon="3.2188251887660244"><ele>309.57142857142856</ele><time>2026-04-11T12:49:14.999Z</time></trkpt><trkpt lat="45.87825749506846" lon="3.2188255209101633"><ele>309.7142857142857</ele><time>2026-04-11T12:49:15.999Z</time></trkpt><trkpt lat="45.878330535613124" lon="3.2188223880798104"><ele>309.8571428571429</ele><time>2026-04-11T12:49:16.999Z</time></trkpt><trkpt lat="45.878404227308984" lon="3.2188241236724893"><ele>310.0</ele><time>2026-04-11T12:49:17.999Z</time></trkpt><trkpt lat="45.87847847625753" lon="3.218821167075601"><ele>310.0</ele><time>2026-04-11T12:49:18.999Z</time></trkpt><trkpt lat="45.878553081169414" lon="3.2188160036956868"><ele>310.0</ele><time>2026-04-11T12:49:19.999Z</time></trkpt><trkpt lat="45.878626888287634" lon="3.218815662585577"><ele>310.0</ele><time>2026-04-11T12:49:20.999Z</time></trkpt><trkpt lat="45.87870178638425" lon="3.218810491571579"><ele>310.0</ele><time>2026-04-11T12:49:21.999Z</time></trkpt><trkpt lat="45.87877528432846" lon="3.2188065674138384"><ele>310.0</ele><time>2026-04-11T12:49:22.999Z</time></trkpt><trkpt lat="45.878849730900896" lon="3.218804937250676"><ele>310.0</ele><time>2026-04-11T12:49:23.999Z</time></trkpt><trkpt lat="45.87892415728281" lon="3.218801806121425"><ele>310.0</ele><time>2026-04-11T12:49:24.999Z</time></trkpt><trkpt lat="45.87899753884947" lon="3.2188002603647985"><ele>310.0</ele><time>2026-04-11T12:49:25.999Z</time></trkpt><trkpt lat="45.879072092419435" lon="3.2187968919365852"><ele>310.0</ele><time>2026-04-11T12:49:26.999Z</time></trkpt><trkpt lat="45.879145793671185" lon="3.218793687710524"><ele>310.0</ele><time>2026-04-11T12:49:27.999Z</time></trkpt><trkpt lat="45.879219462354584" lon="3.218791145634955"><ele>310.0</ele><time>2026-04-11T12:49:28.999Z</time></trkpt><trkpt lat="45.87929279555082" lon="3.218787710372701"><ele>310.0</ele><time>2026-04-11T12:49:29.999Z</time></trkpt><trkpt lat="45.87936624996845" lon="3.2187843639048417"><ele>310.0</ele><time>2026-04-11T12:49:30.999Z</time></trkpt><trkpt lat="45.87943999930948" lon="3.218784106565395"><ele>310.0</ele><time>2026-04-11T12:49:31.999Z</time></trkpt><trkpt lat="45.8795133595197" lon="3.2187872258916665"><ele>310.42857142857144</ele><time>2026-04-11T12:49:32.999Z</time></trkpt><trkpt lat="45.879587432253196" lon="3.21878959703005"><ele>310.85714285714283</ele><time>2026-04-11T12:49:33.999Z</time></trkpt><trkpt lat="45.879660052841196" lon="3.2187920183286374"><ele>311.2857142857143</ele><time>2026-04-11T12:49:34.999Z</time></trkpt><trkpt lat="45.87973378786714" lon="3.2187936967822823"><ele>311.7142857142857</ele><time>2026-04-11T12:49:35.999Z</time></trkpt><trkpt lat="45.879805955283715" lon="3.21879562150354"><ele>312.14285714285717</ele><time>2026-04-11T12:49:36.999Z</time></trkpt><trkpt lat="45.879877981584734" lon="3.2188001295521214"><ele>312.57142857142856</ele><time>2026-04-11T12:49:37.999Z</time></trkpt><trkpt lat="45.87995084734311" lon="3.2188040730250136"><ele>313.0</ele><time>2026-04-11T12:49:39Z</time></trkpt><trkpt lat="45.88002259890422" lon="3.2188100598991376"><ele>313.0</ele><time>2026-04-11T12:49:40Z</time></trkpt><trkpt lat="45.880095325991476" lon="3.2188167208808056"><ele>313.0</ele><time>2026-04-11T12:49:41Z</time></trkpt><trkpt lat="45.88016593317792" lon="3.2188238249243373"><ele>313.0</ele><time>2026-04-11T12:49:42Z</time></trkpt><trkpt lat="45.88023644983539" lon="3.218830979067974"><ele>313.0</ele><time>2026-04-11T12:49:43Z</time></trkpt><trkpt lat="45.88030933494412" lon="3.2188396406714546"><ele>313.0</ele><time>2026-04-11T12:49:44Z</time></trkpt><trkpt lat="45.8803790978815" lon="3.2188498088639665"><ele>313.0</ele><time>2026-04-11T12:49:45Z</time></trkpt><trkpt lat="45.88044910312171" lon="3.218862260409984"><ele>313.0</ele><time>2026-04-11T12:49:46Z</time></trkpt><trkpt lat="45.88052006517167" lon="3.2188755292375286"><ele>313.0</ele><time>2026-04-11T12:49:47Z</time></trkpt><trkpt lat="45.88059104874639" lon="3.218888739145328"><ele>313.0</ele><time>2026-04-11T12:49:48Z</time></trkpt><trkpt lat="45.8806616931853" lon="3.218903435187531"><ele>313.0</ele><time>2026-04-11T12:49:49Z</time></trkpt><trkpt lat="45.880732017597374" lon="3.2189165734127614"><ele>313.0</ele><time>2026-04-11T12:49:50Z</time></trkpt><trkpt lat="45.88080292495658" lon="3.218934055811592"><ele>313.0</ele><time>2026-04-11T12:49:51Z</time></trkpt><trkpt lat="45.8808736046369" lon="3.2189508339011357"><ele>313.0</ele><time>2026-04-11T12:49:52Z</time></trkpt><trkpt lat="45.880943512557494" lon="3.2189659260420584"><ele>313.0</ele><time>2026-04-11T12:49:52.999Z</time></trkpt><trkpt lat="45.88101280304524" lon="3.2189867608130522"><ele>312.7142857142857</ele><time>2026-04-11T12:49:53.999Z</time></trkpt><trkpt lat="45.88108313199874" lon="3.2190090724896647"><ele>312.42857142857144</ele><time>2026-04-11T12:49:54.999Z</time></trkpt><trkpt lat="45.881153030158856" lon="3.2190312623341155"><ele>312.1428571428571</ele><time>2026-04-11T12:49:55.999Z</time></trkpt><trkpt lat="45.8812223388897" lon="3.2190579577669856"><ele>311.8571428571429</ele><time>2026-04-11T12:49:56.999Z</time></trkpt><trkpt lat="45.881290996949325" lon="3.2190830954039944"><ele>311.5714285714286</ele><time>2026-04-11T12:49:57.999Z</time></trkpt><trkpt lat="45.88136162691977" lon="3.2191094555155195"><ele>311.2857142857143</ele><time>2026-04-11T12:49:58.999Z</time></trkpt><trkpt lat="45.881433717490616" lon="3.219135896732884"><ele>311.0</ele><time>2026-04-11T12:49:59.999Z</time></trkpt><trkpt lat="45.88150123700612" lon="3.219166536611734"><ele>311.0</ele><time>2026-04-11T12:50:00.999Z</time></trkpt><trkpt lat="45.88156878342315" lon="3.219197205621923"><ele>311.0</ele><time>2026-04-11T12:50:01.999Z</time></trkpt><trkpt lat="45.881637764565944" lon="3.219224858455926"><ele>311.0</ele><time>2026-04-11T12:50:02.999Z</time></trkpt><trkpt lat="45.881706540242384" lon="3.2192546142229066"><ele>311.0</ele><time>2026-04-11T12:50:03.999Z</time></trkpt><trkpt lat="45.88177548201052" lon="3.21928741543468"><ele>311.0</ele><time>2026-04-11T12:50:04.999Z</time></trkpt><trkpt lat="45.88184616565376" lon="3.2193189346701625"><ele>311.0</ele><time>2026-04-11T12:50:05.999Z</time></trkpt><trkpt lat="45.881913734177566" lon="3.2193504951881744"><ele>311.0</ele><time>2026-04-11T12:50:06.999Z</time></trkpt><trkpt lat="45.88198226945221" lon="3.219386615097826"><ele>311.0</ele><time>2026-04-11T12:50:07.999Z</time></trkpt><trkpt lat="45.8820505567845" lon="3.21942297472728"><ele>311.0</ele><time>2026-04-11T12:50:08.999Z</time></trkpt><trkpt lat="45.88211859669711" lon="3.219460344297559"><ele>311.0</ele><time>2026-04-11T12:50:09.999Z</time></trkpt><trkpt lat="45.882187077275724" lon="3.219498790477264"><ele>311.0</ele><time>2026-04-11T12:50:10.999Z</time></trkpt><trkpt lat="45.88225613937297" lon="3.219538384965053"><ele>311.0</ele><time>2026-04-11T12:50:11.999Z</time></trkpt><trkpt lat="45.88232564466942" lon="3.2195752208255115"><ele>311.0</ele><time>2026-04-11T12:50:12.999Z</time></trkpt><trkpt lat="45.882393076600685" lon="3.219611548198065"><ele>311.0</ele><time>2026-04-11T12:50:13.999Z</time></trkpt><trkpt lat="45.882463221640826" lon="3.2196493240030852"><ele>311.0</ele><time>2026-04-11T12:50:14.999Z</time></trkpt><trkpt lat="45.88253115164009" lon="3.219685129598832"><ele>311.0</ele><time>2026-04-11T12:50:15.999Z</time></trkpt><trkpt lat="45.88260194930869" lon="3.2197252438655846"><ele>311.0</ele><time>2026-04-11T12:50:16.999Z</time></trkpt><trkpt lat="45.88266874837579" lon="3.2197594953320383"><ele>311.0</ele><time>2026-04-11T12:50:17.999Z</time></trkpt><trkpt lat="45.8827386874228" lon="3.219798169365088"><ele>311.0</ele><time>2026-04-11T12:50:18.999Z</time></trkpt><trkpt lat="45.88280653310817" lon="3.2198340556386422"><ele>311.0</ele><time>2026-04-11T12:50:19.999Z</time></trkpt><trkpt lat="45.88287314520116" lon="3.2198731217834258"><ele>311.0</ele><time>2026-04-11T12:50:20.999Z</time></trkpt><trkpt lat="45.88294023326792" lon="3.219910970363966"><ele>311.1428571428571</ele><time>2026-04-11T12:50:21.999Z</time></trkpt><trkpt lat="45.88300759408989" lon="3.219947110713547"><ele>311.28571428571433</ele><time>2026-04-11T12:50:22.999Z</time></trkpt><trkpt lat="45.88307596341942" lon="3.2199836134036035"><ele>311.42857142857144</ele><time>2026-04-11T12:50:23.999Z</time></trkpt><trkpt lat="45.88314371898333" lon="3.220021054503724"><ele>311.57142857142856</ele><time>2026-04-11T12:50:24.999Z</time></trkpt><trkpt lat="45.88321336796198" lon="3.220061071239405"><ele>311.71428571428567</ele><time>2026-04-11T12:50:25.999Z</time></trkpt><trkpt lat="45.88328321973744" lon="3.220096103389025"><ele>311.8571428571429</ele><time>2026-04-11T12:50:26.999Z</time></trkpt><trkpt lat="45.883351668562774" lon="3.2201345197740667"><ele>312.0</ele><time>2026-04-11T12:50:27.999Z</time></trkpt><trkpt lat="45.883420966300136" lon="3.220170861238812"><ele>311.6666666666667</ele><time>2026-04-11T12:50:28.999Z</time></trkpt><trkpt lat="45.883491399474615" lon="3.2202084031163225"><ele>311.3333333333333</ele><time>2026-04-11T12:50:29.999Z</time></trkpt><trkpt lat="45.88356078863847" lon="3.220248140363796"><ele>311.0</ele><time>2026-04-11T12:50:30.999Z</time></trkpt><trkpt lat="45.883631105936836" lon="3.220285100010083"><ele>310.66666666666663</ele><time>2026-04-11T12:50:31.999Z</time></trkpt><trkpt lat="45.88370148063615" lon="3.2203214706587016"><ele>310.3333333333333</ele><time>2026-04-11T12:50:32.999Z</time></trkpt><trkpt lat="45.88377238681737" lon="3.2203588743768887"><ele>310.0</ele><time>2026-04-11T12:50:33.999Z</time></trkpt><trkpt lat="45.88384243040241" lon="3.2203967518956804"><ele>310.0</ele><time>2026-04-11T12:50:34.999Z</time></trkpt><trkpt lat="45.88391375374666" lon="3.220434625474405"><ele>310.0</ele><time>2026-04-11T12:50:35.999Z</time></trkpt><trkpt lat="45.88398371856728" lon="3.220471451615345"><ele>310.0</ele><time>2026-04-11T12:50:36.999Z</time></trkpt><trkpt lat="45.8840548802939" lon="3.220506215189029"><ele>310.0</ele><time>2026-04-11T12:50:37.999Z</time></trkpt><trkpt lat="45.88412377327448" lon="3.220545102096017"><ele>310.0</ele><time>2026-04-11T12:50:38.999Z</time></trkpt><trkpt lat="45.88419436953145" lon="3.2205859307182045"><ele>310.0</ele><time>2026-04-11T12:50:39.999Z</time></trkpt><trkpt lat="45.88426446379695" lon="3.220624644277225"><ele>310.16666666666663</ele><time>2026-04-11T12:50:40.999Z</time></trkpt><trkpt lat="45.88433690666237" lon="3.220662334361456"><ele>310.3333333333333</ele><time>2026-04-11T12:50:41.999Z</time></trkpt><trkpt lat="45.88440986560976" lon="3.2206982849795227"><ele>310.5</ele><time>2026-04-11T12:50:42.999Z</time></trkpt><trkpt lat="45.8844796479897" lon="3.220736096378057"><ele>310.6666666666667</ele><time>2026-04-11T12:50:43.999Z</time></trkpt><trkpt lat="45.88455030249426" lon="3.2207786444836657"><ele>310.83333333333337</ele><time>2026-04-11T12:50:44.999Z</time></trkpt><trkpt lat="45.88462147645972" lon="3.220817037747154"><ele>311.0</ele><time>2026-04-11T12:50:45.999Z</time></trkpt><trkpt lat="45.88469388219251" lon="3.2208551011224764"><ele>311.0</ele><time>2026-04-11T12:50:46.999Z</time></trkpt><trkpt lat="45.88476420927106" lon="3.2208914926701504"><ele>311.0</ele><time>2026-04-11T12:50:47.999Z</time></trkpt><trkpt lat="45.88483382180699" lon="3.2209308731064104"><ele>311.0</ele><time>2026-04-11T12:50:48.999Z</time></trkpt><trkpt lat="45.884904897535954" lon="3.2209713114375846"><ele>311.0</ele><time>2026-04-11T12:50:49.999Z</time></trkpt><trkpt lat="45.8849742475028" lon="3.221011461799366"><ele>311.0</ele><time>2026-04-11T12:50:50.999Z</time></trkpt><trkpt lat="45.885046031944896" lon="3.2210484375415547"><ele>311.0</ele><time>2026-04-11T12:50:51.999Z</time></trkpt><trkpt lat="45.88511696272929" lon="3.2210865184423603"><ele>311.0</ele><time>2026-04-11T12:50:52.999Z</time></trkpt><trkpt lat="45.88518688247423" lon="3.221127912241664"><ele>311.0</ele><time>2026-04-11T12:50:53.999Z</time></trkpt><trkpt lat="45.885258811710656" lon="3.2211691521859804"><ele>311.0</ele><time>2026-04-11T12:50:54.999Z</time></trkpt><trkpt lat="45.88533088630381" lon="3.22120671921967"><ele>311.0</ele><time>2026-04-11T12:50:55.999Z</time></trkpt><trkpt lat="45.885403322513326" lon="3.2212467263759033"><ele>311.0</ele><time>2026-04-11T12:50:56.999Z</time></trkpt><trkpt lat="45.88547336937901" lon="3.221285739623258"><ele>311.0</ele><time>2026-04-11T12:50:57.999Z</time></trkpt><trkpt lat="45.885546846686296" lon="3.2213219026493993"><ele>311.0</ele><time>2026-04-11T12:50:58.999Z</time></trkpt><trkpt lat="45.885617323312836" lon="3.221360620593338"><ele>311.0</ele><time>2026-04-11T12:50:59.999Z</time></trkpt><trkpt lat="45.88568654119673" lon="3.221398190464834"><ele>311.0</ele><time>2026-04-11T12:51:00.999Z</time></trkpt><trkpt lat="45.88575532636616" lon="3.221438789948167"><ele>311.0</ele><time>2026-04-11T12:51:01.999Z</time></trkpt><trkpt lat="45.885826040637234" lon="3.2214772024892824"><ele>311.0</ele><time>2026-04-11T12:51:02.999Z</time></trkpt><trkpt lat="45.88589806222101" lon="3.221515624999619"><ele>311.0</ele><time>2026-04-11T12:51:03.999Z</time></trkpt><trkpt lat="45.88596847507636" lon="3.2215520327320855"><ele>310.85714285714283</ele><time>2026-04-11T12:51:04.999Z</time></trkpt><trkpt lat="45.88603844495388" lon="3.221590212486189"><ele>310.7142857142857</ele><time>2026-04-11T12:51:05.999Z</time></trkpt><trkpt lat="45.886107347516145" lon="3.221627166307267"><ele>310.57142857142856</ele><time>2026-04-11T12:51:06.999Z</time></trkpt><trkpt lat="45.886177062995806" lon="3.221666766124986"><ele>310.42857142857144</ele><time>2026-04-11T12:51:07.999Z</time></trkpt><trkpt lat="45.886247091661716" lon="3.2217043780857875"><ele>310.2857142857143</ele><time>2026-04-11T12:51:08.999Z</time></trkpt><trkpt lat="45.88631685504566" lon="3.2217415960913223"><ele>310.14285714285717</ele><time>2026-04-11T12:51:09.999Z</time></trkpt><trkpt lat="45.886387297713455" lon="3.221780361957725"><ele>310.0</ele><time>2026-04-11T12:51:10.999Z</time></trkpt><trkpt lat="45.886455325104876" lon="3.221818333034074"><ele>310.0</ele><time>2026-04-11T12:51:11.999Z</time></trkpt><trkpt lat="45.88652546203495" lon="3.221855481406366"><ele>310.0</ele><time>2026-04-11T12:51:12.999Z</time></trkpt><trkpt lat="45.88659731746474" lon="3.221893114391254"><ele>310.0</ele><time>2026-04-11T12:51:13.999Z</time></trkpt><trkpt lat="45.88666632934328" lon="3.2219283013915323"><ele>310.0</ele><time>2026-04-11T12:51:14.999Z</time></trkpt><trkpt lat="45.886734739779016" lon="3.2219666875089716"><ele>310.0</ele><time>2026-04-11T12:51:15.999Z</time></trkpt><trkpt lat="45.886806109532216" lon="3.2220055161217265"><ele>310.0</ele><time>2026-04-11T12:51:16.999Z</time></trkpt><trkpt lat="45.88687485259623" lon="3.222042570891836"><ele>310.0</ele><time>2026-04-11T12:51:17.999Z</time></trkpt><trkpt lat="45.886945339995265" lon="3.2220800737333715"><ele>310.0</ele><time>2026-04-11T12:51:18.999Z</time></trkpt><trkpt lat="45.88701555018079" lon="3.222118307146544"><ele>310.0</ele><time>2026-04-11T12:51:19.999Z</time></trkpt><trkpt lat="45.88708319900187" lon="3.2221580394613536"><ele>310.0</ele><time>2026-04-11T12:51:20.999Z</time></trkpt><trkpt lat="45.887153524781795" lon="3.2221972775132204"><ele>310.0</ele><time>2026-04-11T12:51:21.999Z</time></trkpt><trkpt lat="45.88722360128929" lon="3.222232937142699"><ele>310.0</ele><time>2026-04-11T12:51:22.999Z</time></trkpt><trkpt lat="45.88729336289956" lon="3.2222661610624628"><ele>310.0</ele><time>2026-04-11T12:51:23.999Z</time></trkpt><trkpt lat="45.88736218356572" lon="3.2223081524243917"><ele>310.0</ele><time>2026-04-11T12:51:24.999Z</time></trkpt><trkpt lat="45.88742954270263" lon="3.222350526146889"><ele>310.0</ele><time>2026-04-11T12:51:25.999Z</time></trkpt><trkpt lat="45.887498963313284" lon="3.222390662180516"><ele>310.0</ele><time>2026-04-11T12:51:26.999Z</time></trkpt><trkpt lat="45.88757051386654" lon="3.222433513808823"><ele>310.0</ele><time>2026-04-11T12:51:27.999Z</time></trkpt><trkpt lat="45.887638056215174" lon="3.2224791843609237"><ele>310.0</ele><time>2026-04-11T12:51:28.999Z</time></trkpt><trkpt lat="45.88770549481899" lon="3.222523730284816"><ele>310.0</ele><time>2026-04-11T12:51:29.999Z</time></trkpt><trkpt lat="45.887771839366515" lon="3.222570703154354"><ele>310.0</ele><time>2026-04-11T12:51:30.999Z</time></trkpt><trkpt lat="45.88783630074228" lon="3.222618838595525"><ele>310.0</ele><time>2026-04-11T12:51:31.999Z</time></trkpt><trkpt lat="45.88789987342854" lon="3.222671867526484"><ele>310.2857142857143</ele><time>2026-04-11T12:51:32.999Z</time></trkpt><trkpt lat="45.88796071636587" lon="3.2227235734547377"><ele>310.57142857142856</ele><time>2026-04-11T12:51:33.999Z</time></trkpt><trkpt lat="45.88802216627194" lon="3.222779074041781"><ele>310.8571428571429</ele><time>2026-04-11T12:51:34.999Z</time></trkpt><trkpt lat="45.888085265565095" lon="3.2228300800594836"><ele>311.1428571428571</ele><time>2026-04-11T12:51:35.999Z</time></trkpt><trkpt lat="45.888151029010174" lon="3.222885909765466"><ele>311.4285714285714</ele><time>2026-04-11T12:51:36.999Z</time></trkpt><trkpt lat="45.888216598106595" lon="3.2229382168543905"><ele>311.7142857142857</ele><time>2026-04-11T12:51:37.999Z</time></trkpt><trkpt lat="45.888283668222996" lon="3.2229846300798553"><ele>312.0</ele><time>2026-04-11T12:51:38.999Z</time></trkpt><trkpt lat="45.88835476739169" lon="3.2230257244006615"><ele>312.0</ele><time>2026-04-11T12:51:39.999Z</time></trkpt><trkpt lat="45.88842153641509" lon="3.223062860106381"><ele>312.0</ele><time>2026-04-11T12:51:40.999Z</time></trkpt><trkpt lat="45.88849114062273" lon="3.2231014574381867"><ele>312.0</ele><time>2026-04-11T12:51:41.999Z</time></trkpt><trkpt lat="45.88856101075301" lon="3.2231318512094083"><ele>312.0</ele><time>2026-04-11T12:51:42.999Z</time></trkpt><trkpt lat="45.88863254840034" lon="3.223152734792783"><ele>312.0</ele><time>2026-04-11T12:51:43.999Z</time></trkpt><trkpt lat="45.88870383201429" lon="3.223165790891291"><ele>312.0</ele><time>2026-04-11T12:51:45Z</time></trkpt><trkpt lat="45.88877353792642" lon="3.2231791083386256"><ele>312.0</ele><time>2026-04-11T12:51:46Z</time></trkpt><trkpt lat="45.888843651849484" lon="3.2232028035475824"><ele>311.8333333333333</ele><time>2026-04-11T12:51:47Z</time></trkpt><trkpt lat="45.8889097091453" lon="3.223260708242668"><ele>311.6666666666667</ele><time>2026-04-11T12:51:48Z</time></trkpt><trkpt lat="45.888951627132755" lon="3.223354789303722"><ele>311.5</ele><time>2026-04-11T12:51:49Z</time></trkpt><trkpt lat="45.888979723983034" lon="3.2234618524867926"><ele>311.33333333333337</ele><time>2026-04-11T12:51:50Z</time></trkpt><trkpt lat="45.889024617071" lon="3.2235504799604464"><ele>311.1666666666667</ele><time>2026-04-11T12:51:51Z</time></trkpt><trkpt lat="45.88908207322643" lon="3.223626004144824"><ele>311.0</ele><time>2026-04-11T12:51:52Z</time></trkpt><trkpt lat="45.889152147349854" lon="3.2236758784030846"><ele>311.0</ele><time>2026-04-11T12:51:53Z</time></trkpt><trkpt lat="45.88922807713993" lon="3.2236999834612154"><ele>311.0</ele><time>2026-04-11T12:51:54Z</time></trkpt><trkpt lat="45.88930457861713" lon="3.223688601398053"><ele>311.0</ele><time>2026-04-11T12:51:55Z</time></trkpt><trkpt lat="45.88937567874273" lon="3.2236461715736024"><ele>311.0</ele><time>2026-04-11T12:51:56Z</time></trkpt><trkpt lat="45.889440972775375" lon="3.2235916438192964"><ele>311.0</ele><time>2026-04-11T12:51:57Z</time></trkpt><trkpt lat="45.88951095399795" lon="3.2235538523219573"><ele>311.0</ele><time>2026-04-11T12:51:58Z</time></trkpt><trkpt lat="45.88958722674142" lon="3.223552165107785"><ele>310.6666666666667</ele><time>2026-04-11T12:51:59Z</time></trkpt><trkpt lat="45.8896603902928" lon="3.2235730302785126"><ele>310.33333333333337</ele><time>2026-04-11T12:52:00Z</time></trkpt><trkpt lat="45.889726326201036" lon="3.22354624126711"><ele>310.0</ele><time>2026-04-11T12:52:01Z</time></trkpt><trkpt lat="45.88979875219749" lon="3.223652723945425"><ele>309.6666666666667</ele><time>2026-04-11T12:52:02Z</time></trkpt><trkpt lat="45.889867170712336" lon="3.2236852297739067"><ele>309.3333333333333</ele><time>2026-04-11T12:52:03Z</time></trkpt><trkpt lat="45.889936162738245" lon="3.2237202473270408"><ele>309.0</ele><time>2026-04-11T12:52:04Z</time></trkpt><trkpt lat="45.89000650682983" lon="3.223751111503741"><ele>309.00000000000006</ele><time>2026-04-11T12:52:05Z</time></trkpt><trkpt lat="45.890075957885394" lon="3.2237896321901194"><ele>309.0</ele><time>2026-04-11T12:52:06Z</time></trkpt><trkpt lat="45.890143995117405" lon="3.2238302284996427"><ele>309.0</ele><time>2026-04-11T12:52:07Z</time></trkpt><trkpt lat="45.89021172333987" lon="3.2238675516714212"><ele>309.0</ele><time>2026-04-11T12:52:08Z</time></trkpt><trkpt lat="45.890280556351364" lon="3.223904055813105"><ele>309.0</ele><time>2026-04-11T12:52:09Z</time></trkpt><trkpt lat="45.89034927746429" lon="3.223941834087823"><ele>309.00000000000006</ele><time>2026-04-11T12:52:10Z</time></trkpt><trkpt lat="45.89041935354794" lon="3.223977444470634"><ele>309.0</ele><time>2026-04-11T12:52:11Z</time></trkpt><trkpt lat="45.89048769448231" lon="3.22401316064565"><ele>309.14285714285717</ele><time>2026-04-11T12:52:12Z</time></trkpt><trkpt lat="45.890555520235615" lon="3.2240522757472445"><ele>309.2857142857143</ele><time>2026-04-11T12:52:13Z</time></trkpt><trkpt lat="45.8906228143307" lon="3.224085978128681"><ele>309.42857142857144</ele><time>2026-04-11T12:52:14Z</time></trkpt><trkpt lat="45.890690447184916" lon="3.22412117858596"><ele>309.57142857142856</ele><time>2026-04-11T12:52:15Z</time></trkpt><trkpt lat="45.89075639694477" lon="3.2241554582921457"><ele>309.7142857142857</ele><time>2026-04-11T12:52:16Z</time></trkpt><trkpt lat="45.890821505629624" lon="3.2241914134011216"><ele>309.8571428571429</ele><time>2026-04-11T12:52:17Z</time></trkpt><trkpt lat="45.89088834817516" lon="3.224224151754695"><ele>310.0</ele><time>2026-04-11T12:52:18Z</time></trkpt><trkpt lat="45.89095744257691" lon="3.2242548864783585"><ele>310.0</ele><time>2026-04-11T12:52:19Z</time></trkpt><trkpt lat="45.89102396071707" lon="3.224286448230046"><ele>310.0</ele><time>2026-04-11T12:52:20Z</time></trkpt><trkpt lat="45.891088716612515" lon="3.2243100966430576"><ele>310.0</ele><time>2026-04-11T12:52:21Z</time></trkpt><trkpt lat="45.891158752119146" lon="3.2243421074782277"><ele>310.0</ele><time>2026-04-11T12:52:22Z</time></trkpt><trkpt lat="45.8912281225723" lon="3.224370901372493"><ele>310.0</ele><time>2026-04-11T12:52:23Z</time></trkpt><trkpt lat="45.89129556386273" lon="3.224407555869386"><ele>310.0</ele><time>2026-04-11T12:52:24Z</time></trkpt><trkpt lat="45.891362950852404" lon="3.2244374804284046"><ele>310.0</ele><time>2026-04-11T12:52:25Z</time></trkpt><trkpt lat="45.89143004713527" lon="3.2244661387328093"><ele>310.0</ele><time>2026-04-11T12:52:26Z</time></trkpt><trkpt lat="45.89149895995953" lon="3.2244958832115613"><ele>310.0</ele><time>2026-04-11T12:52:27Z</time></trkpt><trkpt lat="45.891567300954065" lon="3.2245184262815583"><ele>310.0</ele><time>2026-04-11T12:52:28Z</time></trkpt><trkpt lat="45.8916335597772" lon="3.2245307081078782"><ele>310.0</ele><time>2026-04-11T12:52:29Z</time></trkpt><trkpt lat="45.891705347795956" lon="3.2245385590920583"><ele>310.0</ele><time>2026-04-11T12:52:30Z</time></trkpt><trkpt lat="45.89177296167476" lon="3.224550225224256"><ele>310.0</ele><time>2026-04-11T12:52:31Z</time></trkpt><trkpt lat="45.89183912518915" lon="3.224564094190634"><ele>310.0</ele><time>2026-04-11T12:52:32Z</time></trkpt><trkpt lat="45.891911112237004" lon="3.224574620992086"><ele>310.57142857142856</ele><time>2026-04-11T12:52:33Z</time></trkpt><trkpt lat="45.89197917233783" lon="3.2245870146027604"><ele>311.1428571428571</ele><time>2026-04-11T12:52:34Z</time></trkpt><trkpt lat="45.89204536576391" lon="3.224597074876877"><ele>311.71428571428567</ele><time>2026-04-11T12:52:35Z</time></trkpt><trkpt lat="45.892113101007084" lon="3.224609542881025"><ele>312.2857142857143</ele><time>2026-04-11T12:52:36Z</time></trkpt><trkpt lat="45.89217860802392" lon="3.2246188058791767"><ele>312.85714285714283</ele><time>2026-04-11T12:52:37Z</time></trkpt><trkpt lat="45.89224508767213" lon="3.2246250936123646"><ele>313.4285714285714</ele><time>2026-04-11T12:52:38Z</time></trkpt><trkpt lat="45.89231130798491" lon="3.2246301941315907"><ele>314.0</ele><time>2026-04-11T12:52:39Z</time></trkpt><trkpt lat="45.89237661633969" lon="3.2246386067302453"><ele>314.0</ele><time>2026-04-11T12:52:40Z</time></trkpt><trkpt lat="45.89244275895169" lon="3.2246458790652532"><ele>314.0</ele><time>2026-04-11T12:52:41Z</time></trkpt><trkpt lat="45.89257095296518" lon="3.2246474091906676"><ele>314.0</ele><time>2026-04-11T12:52:43Z</time></trkpt><trkpt lat="45.89263785526433" lon="3.2246470246505705"><ele>314.0</ele><time>2026-04-11T12:52:44Z</time></trkpt><trkpt lat="45.892702763592474" lon="3.2246673440825218"><ele>314.0</ele><time>2026-04-11T12:52:45Z</time></trkpt><trkpt lat="45.8927674458015" lon="3.224646450715192"><ele>314.0</ele><time>2026-04-11T12:52:46Z</time></trkpt><trkpt lat="45.89283143677151" lon="3.2246472568457327"><ele>314.4</ele><time>2026-04-11T12:52:47Z</time></trkpt><trkpt lat="45.89289592683725" lon="3.224664784663258"><ele>314.79999999999995</ele><time>2026-04-11T12:52:48Z</time></trkpt><trkpt lat="45.89302286557324" lon="3.224661764128964"><ele>315.20000000000005</ele><time>2026-04-11T12:52:50Z</time></trkpt><trkpt lat="45.89308566451961" lon="3.2246376208866905"><ele>315.6</ele><time>2026-04-11T12:52:51Z</time></trkpt><trkpt lat="45.89315047861974" lon="3.224636289650586"><ele>316.0</ele><time>2026-04-11T12:52:51.999Z</time></trkpt><trkpt lat="45.8933368435462" lon="3.2246331165423707"><ele>316.0</ele><time>2026-04-11T12:52:54.999Z</time></trkpt><trkpt lat="45.893455746223246" lon="3.2246329941812912"><ele>316.0</ele><time>2026-04-11T12:52:56.999Z</time></trkpt><trkpt lat="45.893570530292564" lon="3.224631764291115"><ele>316.0</ele><time>2026-04-11T12:52:58.999Z</time></trkpt><trkpt lat="45.89368233910852" lon="3.2246275100617763"><ele>316.0</ele><time>2026-04-11T12:53:00.999Z</time></trkpt><trkpt lat="45.8937956752509" lon="3.224645407671028"><ele>316.0</ele><time>2026-04-11T12:53:02.999Z</time></trkpt><trkpt lat="45.89390811858566" lon="3.224644193106888"><ele>316.0</ele><time>2026-04-11T12:53:04.999Z</time></trkpt><trkpt lat="45.89401078101471" lon="3.2246430823407226"><ele>316.0</ele><time>2026-04-11T12:53:06.999Z</time></trkpt><trkpt lat="45.89409031950301" lon="3.224642221765469"><ele>316.0</ele><time>2026-04-11T12:53:08.999Z</time></trkpt><trkpt lat="45.894109763745845" lon="3.2244557652314896"><ele>316.0</ele><time>2026-04-11T12:53:10.999Z</time></trkpt><trkpt lat="45.89403425896697" lon="3.2243496612438034"><ele>316.0</ele><time>2026-04-11T12:53:12.999Z</time></trkpt><trkpt lat="45.89395712552376" lon="3.2242617679157504"><ele>316.0</ele><time>2026-04-11T12:53:14.999Z</time></trkpt><trkpt lat="45.89387552487994" lon="3.2241558405324606"><ele>316.0</ele><time>2026-04-11T12:53:16.999Z</time></trkpt><trkpt lat="45.89377507231661" lon="3.2240697677896093"><ele>316.0</ele><time>2026-04-11T12:53:18.999Z</time></trkpt><trkpt lat="45.893656015612514" lon="3.224007080184432"><ele>316.00000000000006</ele><time>2026-04-11T12:53:20.999Z</time></trkpt><trkpt lat="45.893593724122795" lon="3.223979898046964"><ele>316.0</ele><time>2026-04-11T12:53:21.999Z</time></trkpt><trkpt lat="45.89352695123319" lon="3.223951323472735"><ele>316.0</ele><time>2026-04-11T12:53:22.999Z</time></trkpt><trkpt lat="45.8934629833846" lon="3.2239177818091336"><ele>316.0</ele><time>2026-04-11T12:53:23.999Z</time></trkpt><trkpt lat="45.89339883352022" lon="3.2238861593674675"><ele>316.0</ele><time>2026-04-11T12:53:24.999Z</time></trkpt><trkpt lat="45.89333128019185" lon="3.22385659003031"><ele>316.00000000000006</ele><time>2026-04-11T12:53:25.999Z</time></trkpt><trkpt lat="45.893263297569504" lon="3.223821499137468"><ele>316.0</ele><time>2026-04-11T12:53:26.999Z</time></trkpt><trkpt lat="45.89319501467016" lon="3.2237776784961505"><ele>315.5</ele><time>2026-04-11T12:53:27.999Z</time></trkpt><trkpt lat="45.89312646114035" lon="3.2237383271932365"><ele>315.0</ele><time>2026-04-11T12:53:28.999Z</time></trkpt><trkpt lat="45.89305584023263" lon="3.2237017867138427"><ele>314.5</ele><time>2026-04-11T12:53:29.999Z</time></trkpt><trkpt lat="45.89298576191274" lon="3.2236656468925053"><ele>314.0</ele><time>2026-04-11T12:53:30.999Z</time></trkpt><trkpt lat="45.89291262525041" lon="3.2236342106109737"><ele>313.5</ele><time>2026-04-11T12:53:31.999Z</time></trkpt><trkpt lat="45.89284006213789" lon="3.223599048282245"><ele>313.0</ele><time>2026-04-11T12:53:32.999Z</time></trkpt><trkpt lat="45.89276859572253" lon="3.223562365224282"><ele>313.0</ele><time>2026-04-11T12:53:33.999Z</time></trkpt><trkpt lat="45.89269441257882" lon="3.223529330376012"><ele>313.0</ele><time>2026-04-11T12:53:34.999Z</time></trkpt><trkpt lat="45.89262360682802" lon="3.2234928656772173"><ele>313.0</ele><time>2026-04-11T12:53:35.999Z</time></trkpt><trkpt lat="45.892557292610135" lon="3.223453775377349"><ele>313.0</ele><time>2026-04-11T12:53:36.999Z</time></trkpt><trkpt lat="45.892498757793625" lon="3.223418399558496"><ele>313.0</ele><time>2026-04-11T12:53:37.999Z</time></trkpt><trkpt lat="45.89242019904437" lon="3.223332727629491"><ele>313.0</ele><time>2026-04-11T12:53:39.999Z</time></trkpt><trkpt lat="45.892397744158785" lon="3.223225218208163"><ele>312.5</ele><time>2026-04-11T12:53:41.999Z</time></trkpt><trkpt lat="45.892507019127606" lon="3.2230887773245778"><ele>312.0</ele><time>2026-04-11T12:53:44.999Z</time></trkpt><trkpt lat="45.89260854872871" lon="3.2230267975306117"><ele>311.5</ele><time>2026-04-11T12:53:46.999Z</time></trkpt><trkpt lat="45.89271108435704" lon="3.2229427375120987"><ele>311.0</ele><time>2026-04-11T12:53:48.999Z</time></trkpt><trkpt lat="45.892815733790435" lon="3.2228601462148596"><ele>311.0</ele><time>2026-04-11T12:53:51Z</time></trkpt><trkpt lat="45.89286997635253" lon="3.2228108797646366"><ele>311.0</ele><time>2026-04-11T12:53:52Z</time></trkpt><trkpt lat="45.89298034436953" lon="3.2227371516140373"><ele>311.0</ele><time>2026-04-11T12:53:54Z</time></trkpt><trkpt lat="45.893036570429025" lon="3.222692823328698"><ele>311.0</ele><time>2026-04-11T12:53:55Z</time></trkpt><trkpt lat="45.89309133274299" lon="3.222645075460693"><ele>311.0</ele><time>2026-04-11T12:53:56Z</time></trkpt><trkpt lat="45.893145025428375" lon="3.22259352305109"><ele>311.0</ele><time>2026-04-11T12:53:57Z</time></trkpt><trkpt lat="45.89320448697623" lon="3.222553732654352"><ele>311.0</ele><time>2026-04-11T12:53:58Z</time></trkpt><trkpt lat="45.89326245518405" lon="3.222515258731755"><ele>311.0</ele><time>2026-04-11T12:53:59Z</time></trkpt><trkpt lat="45.8933791716303" lon="3.222429144216381"><ele>311.0</ele><time>2026-04-11T12:54:01Z</time></trkpt><trkpt lat="45.89349447466818" lon="3.2223503605322525"><ele>311.0</ele><time>2026-04-11T12:54:03Z</time></trkpt><trkpt lat="45.8935489522452" lon="3.2223020186090263"><ele>311.0</ele><time>2026-04-11T12:54:04Z</time></trkpt><trkpt lat="45.893607517326544" lon="3.222262918583562"><ele>311.0</ele><time>2026-04-11T12:54:05Z</time></trkpt><trkpt lat="45.893717193753254" lon="3.222179561249162"><ele>311.2857142857143</ele><time>2026-04-11T12:54:07Z</time></trkpt><trkpt lat="45.89377498526594" lon="3.2221403153125134"><ele>311.5714285714286</ele><time>2026-04-11T12:54:08Z</time></trkpt><trkpt lat="45.89383354614575" lon="3.2221049459798206"><ele>311.8571428571429</ele><time>2026-04-11T12:54:09Z</time></trkpt><trkpt lat="45.89389184952335" lon="3.2220697059353554"><ele>312.1428571428571</ele><time>2026-04-11T12:54:10Z</time></trkpt><trkpt lat="45.89395702242885" lon="3.222058906984558"><ele>312.42857142857144</ele><time>2026-04-11T12:54:11Z</time></trkpt><trkpt lat="45.89401738195621" lon="3.2220305633942394"><ele>312.7142857142857</ele><time>2026-04-11T12:54:12Z</time></trkpt><trkpt lat="45.89413721352545" lon="3.2219795000118485"><ele>313.0</ele><time>2026-04-11T12:54:14Z</time></trkpt><trkpt lat="45.89425439114347" lon="3.221909562061472"><ele>313.0</ele><time>2026-04-11T12:54:16Z</time></trkpt><trkpt lat="45.89431988546751" lon="3.2219070337972093"><ele>313.0</ele><time>2026-04-11T12:54:17Z</time></trkpt><trkpt lat="45.894438939996895" lon="3.2218624644828724"><ele>313.0</ele><time>2026-04-11T12:54:19Z</time></trkpt><trkpt lat="45.89456061023322" lon="3.221814086718801"><ele>313.0</ele><time>2026-04-11T12:54:21Z</time></trkpt><trkpt lat="45.89467890507676" lon="3.2217663580959437"><ele>313.0</ele><time>2026-04-11T12:54:23Z</time></trkpt><trkpt lat="45.8947963774858" lon="3.2217187538741845"><ele>313.0</ele><time>2026-04-11T12:54:25Z</time></trkpt><trkpt lat="45.89490347875249" lon="3.221674108758079"><ele>313.0</ele><time>2026-04-11T12:54:27Z</time></trkpt><trkpt lat="45.89499298102944" lon="3.221610288828304"><ele>313.0</ele><time>2026-04-11T12:54:29Z</time></trkpt><trkpt lat="45.89508693724781" lon="3.2215762168537343"><ele>313.0</ele><time>2026-04-11T12:54:31Z</time></trkpt><trkpt lat="45.8951669998371" lon="3.2215371916506754"><ele>313.0</ele><time>2026-04-11T12:54:33Z</time></trkpt><trkpt lat="45.89524497668094" lon="3.221502928829132"><ele>313.0</ele><time>2026-04-11T12:54:35Z</time></trkpt><trkpt lat="45.89531638889304" lon="3.2214866176557635"><ele>313.0</ele><time>2026-04-11T12:54:38Z</time></trkpt><trkpt lat="45.8953230642585" lon="3.221332395093291"><ele>313.0</ele><time>2026-04-11T12:54:40Z</time></trkpt><trkpt lat="45.89529658819472" lon="3.221192872884652"><ele>313.0</ele><time>2026-04-11T12:54:42Z</time></trkpt><trkpt lat="45.89533768629629" lon="3.2210484610795818"><ele>313.0</ele><time>2026-04-11T12:54:44Z</time></trkpt><trkpt lat="45.89539800581331" lon="3.220915982476132"><ele>313.0</ele><time>2026-04-11T12:54:46Z</time></trkpt><trkpt lat="45.89548677815249" lon="3.2208092413641283"><ele>313.0</ele><time>2026-04-11T12:54:48Z</time></trkpt><trkpt lat="45.89558286546999" lon="3.2207040659191497"><ele>313.0</ele><time>2026-04-11T12:54:50Z</time></trkpt><trkpt lat="45.89570242218871" lon="3.220656735350603"><ele>313.0</ele><time>2026-04-11T12:54:52Z</time></trkpt><trkpt lat="45.89576548044787" lon="3.220665221738479"><ele>313.0</ele><time>2026-04-11T12:54:53Z</time></trkpt><trkpt lat="45.89582964092309" lon="3.2206540067788922"><ele>313.5</ele><time>2026-04-11T12:54:54Z</time></trkpt><trkpt lat="45.89594823976995" lon="3.2206347340185206"><ele>314.0</ele><time>2026-04-11T12:54:56Z</time></trkpt><trkpt lat="45.896066995852856" lon="3.2206132288233373"><ele>314.5</ele><time>2026-04-11T12:54:57.999Z</time></trkpt><trkpt lat="45.89618502154689" lon="3.2206580265855678"><ele>315.0</ele><time>2026-04-11T12:54:59.999Z</time></trkpt><trkpt lat="45.896305590247415" lon="3.22067892931287"><ele>315.0</ele><time>2026-04-11T12:55:01.999Z</time></trkpt><trkpt lat="45.896426110952994" lon="3.2206958778747454"><ele>315.0</ele><time>2026-04-11T12:55:03.999Z</time></trkpt><trkpt lat="45.8965455829082" lon="3.220721942182989"><ele>315.0</ele><time>2026-04-11T12:55:05.999Z</time></trkpt><trkpt lat="45.89666795558903" lon="3.220740435725109"><ele>315.0</ele><time>2026-04-11T12:55:07.999Z</time></trkpt><trkpt lat="45.89678678560509" lon="3.220757847764268"><ele>315.25</ele><time>2026-04-11T12:55:09.999Z</time></trkpt><trkpt lat="45.89690856028793" lon="3.2207783936123433"><ele>315.5</ele><time>2026-04-11T12:55:11.999Z</time></trkpt><trkpt lat="45.89702532908283" lon="3.2208042613106054"><ele>315.75</ele><time>2026-04-11T12:55:13.999Z</time></trkpt><trkpt lat="45.89713692777148" lon="3.2208247803157"><ele>316.0</ele><time>2026-04-11T12:55:15.999Z</time></trkpt><trkpt lat="45.89724551327495" lon="3.220851229590298"><ele>316.0</ele><time>2026-04-11T12:55:17.999Z</time></trkpt><trkpt lat="45.89735698132197" lon="3.2208717797206776"><ele>316.0</ele><time>2026-04-11T12:55:19.999Z</time></trkpt><trkpt lat="45.897464763946246" lon="3.220894924263264"><ele>316.0</ele><time>2026-04-11T12:55:21.999Z</time></trkpt><trkpt lat="45.897573648114644" lon="3.220918827660314"><ele>316.0</ele><time>2026-04-11T12:55:23.999Z</time></trkpt><trkpt lat="45.89765964004243" lon="3.220949018856039"><ele>316.0</ele><time>2026-04-11T12:55:25.999Z</time></trkpt><trkpt lat="45.89772941389173" lon="3.2209467923939044"><ele>316.0</ele><time>2026-04-11T12:55:33.999Z</time></trkpt><trkpt lat="45.89778477906101" lon="3.2208645612612417"><ele>316.0</ele><time>2026-04-11T12:55:37.999Z</time></trkpt><trkpt lat="45.897773653880755" lon="3.220979588286893"><ele>316.0</ele><time>2026-04-11T12:55:39.999Z</time></trkpt><trkpt lat="45.897816825215656" lon="3.220653462896256"><ele>316.0</ele><time>2026-04-11T12:55:41.999Z</time></trkpt><trkpt lat="45.8978306824354" lon="3.2205185617197407"><ele>316.0</ele><time>2026-04-11T12:55:43.999Z</time></trkpt><trkpt lat="45.89785304773595" lon="3.2203900175597013"><ele>316.0</ele><time>2026-04-11T12:55:45.999Z</time></trkpt><trkpt lat="45.89788133836525" lon="3.22025764874828"><ele>316.0</ele><time>2026-04-11T12:55:47.999Z</time></trkpt><trkpt lat="45.89791114099307" lon="3.220124739716452"><ele>316.0</ele><time>2026-04-11T12:55:49.999Z</time></trkpt><trkpt lat="45.89794605994349" lon="3.219992338510129"><ele>316.0</ele><time>2026-04-11T12:55:51.999Z</time></trkpt><trkpt lat="45.897976485431634" lon="3.219860638849711"><ele>315.66666666666663</ele><time>2026-04-11T12:55:53.999Z</time></trkpt><trkpt lat="45.89800254521063" lon="3.2197304990063165"><ele>315.3333333333333</ele><time>2026-04-11T12:55:55.999Z</time></trkpt><trkpt lat="45.898028050009536" lon="3.2196039511284016"><ele>315.0</ele><time>2026-04-11T12:55:57.999Z</time></trkpt><trkpt lat="45.89805893757214" lon="3.219487187650555"><ele>314.6666666666667</ele><time>2026-04-11T12:55:59.999Z</time></trkpt><trkpt lat="45.898087606805696" lon="3.219372340379068"><ele>314.33333333333337</ele><time>2026-04-11T12:56:01.999Z</time></trkpt><trkpt lat="45.89811582467809" lon="3.219252974728781"><ele>314.0</ele><time>2026-04-11T12:56:04Z</time></trkpt><trkpt lat="45.89816029615854" lon="3.2191341420443376"><ele>314.0</ele><time>2026-04-11T12:56:06Z</time></trkpt><trkpt lat="45.8981898225737" lon="3.2190086387306276"><ele>314.0</ele><time>2026-04-11T12:56:08Z</time></trkpt><trkpt lat="45.89821728476687" lon="3.218881146358997"><ele>314.0</ele><time>2026-04-11T12:56:10Z</time></trkpt><trkpt lat="45.898243931772264" lon="3.218751826517872"><ele>314.0</ele><time>2026-04-11T12:56:12Z</time></trkpt><trkpt lat="45.89827301842653" lon="3.21862593775846"><ele>314.0</ele><time>2026-04-11T12:56:14Z</time></trkpt><trkpt lat="45.89830328430926" lon="3.218496276498361"><ele>314.0</ele><time>2026-04-11T12:56:16Z</time></trkpt><trkpt lat="45.89832109380027" lon="3.218362361187583"><ele>314.0</ele><time>2026-04-11T12:56:18Z</time></trkpt><trkpt lat="45.89835760944271" lon="3.218220365184482"><ele>314.0</ele><time>2026-04-11T12:56:20Z</time></trkpt><trkpt lat="45.898384670865084" lon="3.2180577995290487"><ele>314.0</ele><time>2026-04-11T12:56:22Z</time></trkpt><trkpt lat="45.898411561752596" lon="3.2178865221426314"><ele>314.0</ele><time>2026-04-11T12:56:24Z</time></trkpt><trkpt lat="45.89843423804606" lon="3.217709425820732"><ele>314.0</ele><time>2026-04-11T12:56:26Z</time></trkpt><trkpt lat="45.89844334535588" lon="3.217618609767205"><ele>314.0</ele><time>2026-04-11T12:56:27Z</time></trkpt><trkpt lat="45.89844986056919" lon="3.217525617487093"><ele>314.0</ele><time>2026-04-11T12:56:28Z</time></trkpt><trkpt lat="45.898462107074344" lon="3.2173453435792707"><ele>314.0</ele><time>2026-04-11T12:56:30Z</time></trkpt><trkpt lat="45.89846361368551" lon="3.2171650316122395"><ele>314.0</ele><time>2026-04-11T12:56:32Z</time></trkpt><trkpt lat="45.89846212952763" lon="3.2169878025028287"><ele>313.5</ele><time>2026-04-11T12:56:34Z</time></trkpt><trkpt lat="45.89845946285414" lon="3.2168159605461764"><ele>313.0</ele><time>2026-04-11T12:56:36Z</time></trkpt><trkpt lat="45.89844625725538" lon="3.216646014061271"><ele>312.5</ele><time>2026-04-11T12:56:38Z</time></trkpt><trkpt lat="45.89843161647574" lon="3.2164763839598463"><ele>312.0</ele><time>2026-04-11T12:56:40Z</time></trkpt><trkpt lat="45.89842489045473" lon="3.2163099634063754"><ele>311.8</ele><time>2026-04-11T12:56:42Z</time></trkpt><trkpt lat="45.89842252524861" lon="3.216219294560818"><ele>311.6</ele><time>2026-04-11T12:56:43Z</time></trkpt><trkpt lat="45.89839450990433" lon="3.216065433986909"><ele>311.40000000000003</ele><time>2026-04-11T12:56:45Z</time></trkpt><trkpt lat="45.89843024930967" lon="3.215966815194809"><ele>311.2</ele><time>2026-04-11T12:56:46Z</time></trkpt><trkpt lat="45.89841105793309" lon="3.2158022641617467"><ele>311.0</ele><time>2026-04-11T12:56:48Z</time></trkpt><trkpt lat="45.89835719322679" lon="3.215643187400297"><ele>311.40000000000003</ele><time>2026-04-11T12:56:50Z</time></trkpt><trkpt lat="45.898302434970844" lon="3.21548955392353"><ele>311.8</ele><time>2026-04-11T12:56:52Z</time></trkpt><trkpt lat="45.89822818821583" lon="3.2153517312267765"><ele>312.20000000000005</ele><time>2026-04-11T12:56:54Z</time></trkpt><trkpt lat="45.89815378847571" lon="3.2152158271489593"><ele>312.6</ele><time>2026-04-11T12:56:56Z</time></trkpt><trkpt lat="45.89810982758326" lon="3.21515010952274"><ele>313.0</ele><time>2026-04-11T12:56:57Z</time></trkpt><trkpt lat="45.8980211970623" lon="3.2150246028860927"><ele>313.0</ele><time>2026-04-11T12:56:58.999Z</time></trkpt><trkpt lat="45.897943011445854" lon="3.2148913699270483"><ele>313.0</ele><time>2026-04-11T12:57:00.999Z</time></trkpt><trkpt lat="45.897877285327965" lon="3.214757994786021"><ele>313.0</ele><time>2026-04-11T12:57:02.999Z</time></trkpt><trkpt lat="45.897798304100824" lon="3.214619650866008"><ele>313.0</ele><time>2026-04-11T12:57:04.999Z</time></trkpt><trkpt lat="45.89775495022748" lon="3.2145482541226893"><ele>313.0</ele><time>2026-04-11T12:57:05.999Z</time></trkpt><trkpt lat="45.897710659390285" lon="3.2144824458207584"><ele>312.85714285714283</ele><time>2026-04-11T12:57:06.999Z</time></trkpt><trkpt lat="45.89766852905439" lon="3.2144113142041446"><ele>312.7142857142857</ele><time>2026-04-11T12:57:07.999Z</time></trkpt><trkpt lat="45.897626583346295" lon="3.214342331084659"><ele>312.57142857142856</ele><time>2026-04-11T12:57:08.999Z</time></trkpt><trkpt lat="45.89758172725953" lon="3.2142699163301223"><ele>312.42857142857144</ele><time>2026-04-11T12:57:09.999Z</time></trkpt><trkpt lat="45.897535813933196" lon="3.2141971381932275"><ele>312.2857142857143</ele><time>2026-04-11T12:57:10.999Z</time></trkpt><trkpt lat="45.897491394802444" lon="3.2141265050092747"><ele>312.14285714285717</ele><time>2026-04-11T12:57:11.999Z</time></trkpt><trkpt lat="45.89744815565264" lon="3.2140532994030937"><ele>312.0</ele><time>2026-04-11T12:57:12.999Z</time></trkpt><trkpt lat="45.897401252209164" lon="3.2139810712464563"><ele>312.0</ele><time>2026-04-11T12:57:13.999Z</time></trkpt><trkpt lat="45.89735465206092" lon="3.2139075547658558"><ele>312.0</ele><time>2026-04-11T12:57:14.999Z</time></trkpt><trkpt lat="45.89730532730636" lon="3.2138282525029025"><ele>312.0</ele><time>2026-04-11T12:57:15.999Z</time></trkpt><trkpt lat="45.89725694588001" lon="3.213754188926855"><ele>312.0</ele><time>2026-04-11T12:57:16.999Z</time></trkpt><trkpt lat="45.8972119212712" lon="3.2136797073561825"><ele>312.0</ele><time>2026-04-11T12:57:17.999Z</time></trkpt><trkpt lat="45.897165999360105" lon="3.2136054882940224"><ele>312.0</ele><time>2026-04-11T12:57:18.999Z</time></trkpt><trkpt lat="45.89711778855383" lon="3.2135302344649386"><ele>312.0</ele><time>2026-04-11T12:57:19.999Z</time></trkpt><trkpt lat="45.897069906499596" lon="3.213454821559206"><ele>312.0</ele><time>2026-04-11T12:57:20.999Z</time></trkpt><trkpt lat="45.897023503668954" lon="3.2133751699096926"><ele>312.0</ele><time>2026-04-11T12:57:21.999Z</time></trkpt><trkpt lat="45.89697538962445" lon="3.2133032071705068"><ele>312.0</ele><time>2026-04-11T12:57:22.999Z</time></trkpt><trkpt lat="45.89692764471514" lon="3.2132233789026103"><ele>312.0</ele><time>2026-04-11T12:57:23.999Z</time></trkpt><trkpt lat="45.896875775739375" lon="3.213153593269361"><ele>312.0</ele><time>2026-04-11T12:57:24.999Z</time></trkpt><trkpt lat="45.896830663235846" lon="3.2130758005889595"><ele>312.0</ele><time>2026-04-11T12:57:25.999Z</time></trkpt><trkpt lat="45.89678110718805" lon="3.2129997930276213"><ele>312.0</ele><time>2026-04-11T12:57:26.999Z</time></trkpt><trkpt lat="45.896734043043324" lon="3.2129222374242565"><ele>311.8571428571429</ele><time>2026-04-11T12:57:27.999Z</time></trkpt><trkpt lat="45.896685557145496" lon="3.212846825198627"><ele>311.71428571428567</ele><time>2026-04-11T12:57:28.999Z</time></trkpt><trkpt lat="45.89663692168121" lon="3.2127684716818097"><ele>311.57142857142856</ele><time>2026-04-11T12:57:29.999Z</time></trkpt><trkpt lat="45.89659111579013" lon="3.2126899964570383"><ele>311.42857142857144</ele><time>2026-04-11T12:57:30.999Z</time></trkpt><trkpt lat="45.896544324599034" lon="3.2126122259585235"><ele>311.28571428571433</ele><time>2026-04-11T12:57:31.999Z</time></trkpt><trkpt lat="45.89649586088499" lon="3.2125342298211548"><ele>311.1428571428571</ele><time>2026-04-11T12:57:32.999Z</time></trkpt><trkpt lat="45.89644582377601" lon="3.2124557249288364"><ele>311.0</ele><time>2026-04-11T12:57:33.999Z</time></trkpt><trkpt lat="45.89639730626757" lon="3.21237726899809"><ele>311.0</ele><time>2026-04-11T12:57:34.999Z</time></trkpt><trkpt lat="45.8963503962469" lon="3.21229713305025"><ele>311.0</ele><time>2026-04-11T12:57:35.999Z</time></trkpt><trkpt lat="45.89630185810491" lon="3.2122230056878336"><ele>311.0</ele><time>2026-04-11T12:57:36.999Z</time></trkpt><trkpt lat="45.89625542807027" lon="3.212148657125358"><ele>311.0</ele><time>2026-04-11T12:57:37.999Z</time></trkpt><trkpt lat="45.896209136103" lon="3.2120725349767416"><ele>311.0</ele><time>2026-04-11T12:57:38.999Z</time></trkpt><trkpt lat="45.896163178273916" lon="3.2119983151143967"><ele>311.0</ele><time>2026-04-11T12:57:39.999Z</time></trkpt><trkpt lat="45.89611545307086" lon="3.211925289136937"><ele>311.0</ele><time>2026-04-11T12:57:40.999Z</time></trkpt><trkpt lat="45.89606702330235" lon="3.211850446734391"><ele>311.0</ele><time>2026-04-11T12:57:41.999Z</time></trkpt><trkpt lat="45.89601990935751" lon="3.2117748886456714"><ele>311.0</ele><time>2026-04-11T12:57:42.999Z</time></trkpt><trkpt lat="45.89597699441053" lon="3.2116963234443614"><ele>311.0</ele><time>2026-04-11T12:57:43.999Z</time></trkpt><trkpt lat="45.89593097539661" lon="3.2116200815014064"><ele>311.0</ele><time>2026-04-11T12:57:44.999Z</time></trkpt><trkpt lat="45.89588273454787" lon="3.2115468739512205"><ele>311.0</ele><time>2026-04-11T12:57:45.999Z</time></trkpt><trkpt lat="45.895834412889826" lon="3.2114701201803446"><ele>311.0</ele><time>2026-04-11T12:57:46.999Z</time></trkpt><trkpt lat="45.89578962527038" lon="3.211390493518253"><ele>311.0</ele><time>2026-04-11T12:57:47.999Z</time></trkpt><trkpt lat="45.89574468074412" lon="3.2113155458177025"><ele>311.0</ele><time>2026-04-11T12:57:48.999Z</time></trkpt><trkpt lat="45.895696074049106" lon="3.2112379601218235"><ele>311.0</ele><time>2026-04-11T12:57:49.999Z</time></trkpt><trkpt lat="45.89564671878045" lon="3.211159169761409"><ele>311.0</ele><time>2026-04-11T12:57:50.999Z</time></trkpt><trkpt lat="45.895600410732854" lon="3.2110877286516546"><ele>311.0</ele><time>2026-04-11T12:57:51.999Z</time></trkpt><trkpt lat="45.89555289915563" lon="3.2110145632916223"><ele>311.0</ele><time>2026-04-11T12:57:52.999Z</time></trkpt><trkpt lat="45.895504550851335" lon="3.210940126551213"><ele>311.0</ele><time>2026-04-11T12:57:53.999Z</time></trkpt><trkpt lat="45.89545817520092" lon="3.2108666670387143"><ele>311.0</ele><time>2026-04-11T12:57:54.999Z</time></trkpt><trkpt lat="45.8954123099362" lon="3.2107927795669813"><ele>311.0</ele><time>2026-04-11T12:57:55.999Z</time></trkpt><trkpt lat="45.89536321718486" lon="3.210718476682451"><ele>311.0</ele><time>2026-04-11T12:57:56.999Z</time></trkpt><trkpt lat="45.89531625411735" lon="3.2106387226758657"><ele>311.0</ele><time>2026-04-11T12:57:57.999Z</time></trkpt><trkpt lat="45.89526990549691" lon="3.2105641408806993"><ele>311.0</ele><time>2026-04-11T12:57:58.999Z</time></trkpt><trkpt lat="45.8952214872582" lon="3.210487915240995"><ele>311.0</ele><time>2026-04-11T12:57:59.999Z</time></trkpt><trkpt lat="45.89517520444487" lon="3.2104121726257975"><ele>311.0</ele><time>2026-04-11T12:58:00.999Z</time></trkpt><trkpt lat="45.895127996207904" lon="3.2103360885595347"><ele>311.0</ele><time>2026-04-11T12:58:01.999Z</time></trkpt><trkpt lat="45.89507965203806" lon="3.2102597395419523"><ele>310.85714285714283</ele><time>2026-04-11T12:58:03Z</time></trkpt><trkpt lat="45.89503108787813" lon="3.210182539737676"><ele>310.7142857142857</ele><time>2026-04-11T12:58:04Z</time></trkpt><trkpt lat="45.89498271979847" lon="3.2101036250155928"><ele>310.57142857142856</ele><time>2026-04-11T12:58:05Z</time></trkpt><trkpt lat="45.89493317285125" lon="3.210026032770832"><ele>310.42857142857144</ele><time>2026-04-11T12:58:06Z</time></trkpt><trkpt lat="45.89488468198956" lon="3.2099482521855274"><ele>310.2857142857143</ele><time>2026-04-11T12:58:07Z</time></trkpt><trkpt lat="45.89483556719284" lon="3.20987150971454"><ele>310.14285714285717</ele><time>2026-04-11T12:58:08Z</time></trkpt><trkpt lat="45.89478819443839" lon="3.209792568213626"><ele>310.0</ele><time>2026-04-11T12:58:09Z</time></trkpt><trkpt lat="45.894742407643626" lon="3.2097143838205473"><ele>310.0</ele><time>2026-04-11T12:58:10Z</time></trkpt><trkpt lat="45.89469581888375" lon="3.2096379751263675"><ele>310.0</ele><time>2026-04-11T12:58:11Z</time></trkpt><trkpt lat="45.89464779824911" lon="3.209562817862807"><ele>310.0</ele><time>2026-04-11T12:58:12Z</time></trkpt><trkpt lat="45.89459775468737" lon="3.209483752978932"><ele>310.0</ele><time>2026-04-11T12:58:13Z</time></trkpt><trkpt lat="45.89455096571597" lon="3.2094098240722166"><ele>310.0</ele><time>2026-04-11T12:58:14Z</time></trkpt><trkpt lat="45.894503857439275" lon="3.209334564293873"><ele>310.0</ele><time>2026-04-11T12:58:15Z</time></trkpt><trkpt lat="45.894457774510045" lon="3.2092587105540566"><ele>310.0</ele><time>2026-04-11T12:58:16Z</time></trkpt><trkpt lat="45.89441034322434" lon="3.209187344721184"><ele>310.0</ele><time>2026-04-11T12:58:17Z</time></trkpt><trkpt lat="45.894362836723275" lon="3.2091125016123483"><ele>310.0</ele><time>2026-04-11T12:58:18Z</time></trkpt><trkpt lat="45.894316453927935" lon="3.2090375799278847"><ele>310.0</ele><time>2026-04-11T12:58:19Z</time></trkpt><trkpt lat="45.894270845587435" lon="3.2089610249727385"><ele>310.0</ele><time>2026-04-11T12:58:20Z</time></trkpt><trkpt lat="45.894225111270906" lon="3.2088871076173873"><ele>310.0</ele><time>2026-04-11T12:58:21Z</time></trkpt><trkpt lat="45.89417868728121" lon="3.208811690842276"><ele>310.0</ele><time>2026-04-11T12:58:22Z</time></trkpt><trkpt lat="45.894132144389275" lon="3.2087403540496924"><ele>310.0</ele><time>2026-04-11T12:58:23Z</time></trkpt><trkpt lat="45.89408414156992" lon="3.2086662822766265"><ele>310.14285714285717</ele><time>2026-04-11T12:58:24Z</time></trkpt><trkpt lat="45.89403783912778" lon="3.2085947979571694"><ele>310.2857142857143</ele><time>2026-04-11T12:58:25Z</time></trkpt><trkpt lat="45.893992585004376" lon="3.2085193235339915"><ele>310.42857142857144</ele><time>2026-04-11T12:58:26Z</time></trkpt><trkpt lat="45.89394637781631" lon="3.2084457540925078"><ele>310.57142857142856</ele><time>2026-04-11T12:58:27Z</time></trkpt><trkpt lat="45.89390398326124" lon="3.2083671787508754"><ele>310.7142857142857</ele><time>2026-04-11T12:58:28Z</time></trkpt><trkpt lat="45.89385763820709" lon="3.2082916292344517"><ele>310.85714285714283</ele><time>2026-04-11T12:58:29Z</time></trkpt><trkpt lat="45.893812830726986" lon="3.20822232480607"><ele>311.0</ele><time>2026-04-11T12:58:30Z</time></trkpt><trkpt lat="45.893760638168764" lon="3.2081610791836743"><ele>310.85714285714283</ele><time>2026-04-11T12:58:31Z</time></trkpt><trkpt lat="45.893701991792376" lon="3.2081064601787084"><ele>310.7142857142857</ele><time>2026-04-11T12:58:32Z</time></trkpt><trkpt lat="45.89364174671237" lon="3.2080564031336927"><ele>310.57142857142856</ele><time>2026-04-11T12:58:33Z</time></trkpt><trkpt lat="45.89357824785049" lon="3.208023223287026"><ele>310.42857142857144</ele><time>2026-04-11T12:58:34Z</time></trkpt><trkpt lat="45.89351573811072" lon="3.207998874232796"><ele>310.2857142857143</ele><time>2026-04-11T12:58:35Z</time></trkpt><trkpt lat="45.89345284854933" lon="3.2079871598441345"><ele>310.14285714285717</ele><time>2026-04-11T12:58:36Z</time></trkpt><trkpt lat="45.8933895093769" lon="3.207984516296341"><ele>310.0</ele><time>2026-04-11T12:58:37Z</time></trkpt><trkpt lat="45.89327461238686" lon="3.2080105423642014"><ele>310.4</ele><time>2026-04-11T12:58:39Z</time></trkpt><trkpt lat="45.89318785043242" lon="3.208041981446101"><ele>310.8</ele><time>2026-04-11T12:58:41Z</time></trkpt><trkpt lat="45.89313490062221" lon="3.2078519264245204"><ele>311.2</ele><time>2026-04-11T12:58:42Z</time></trkpt><trkpt lat="45.893121042242996" lon="3.207762429600606"><ele>311.6</ele><time>2026-04-11T12:58:43Z</time></trkpt><trkpt lat="45.89311372823461" lon="3.2076696832151224"><ele>312.0</ele><time>2026-04-11T12:58:44Z</time></trkpt><trkpt lat="45.893075247162976" lon="3.207495321395709"><ele>312.0</ele><time>2026-04-11T12:58:46Z</time></trkpt><trkpt lat="45.89305316862412" lon="3.2074076869833985"><ele>312.0</ele><time>2026-04-11T12:58:47Z</time></trkpt><trkpt lat="45.893029291928805" lon="3.207320524410714"><ele>312.0</ele><time>2026-04-11T12:58:48Z</time></trkpt><trkpt lat="45.893006020658795" lon="3.207233740972738"><ele>312.0</ele><time>2026-04-11T12:58:49Z</time></trkpt><trkpt lat="45.892982933968085" lon="3.207148582103072"><ele>312.0</ele><time>2026-04-11T12:58:50Z</time></trkpt><trkpt lat="45.892957820914205" lon="3.2070620649562906"><ele>312.0</ele><time>2026-04-11T12:58:51Z</time></trkpt><trkpt lat="45.89292651626093" lon="3.2069761061522266"><ele>312.0</ele><time>2026-04-11T12:58:52Z</time></trkpt><trkpt lat="45.8928957628228" lon="3.206889240297687"><ele>312.0</ele><time>2026-04-11T12:58:53Z</time></trkpt><trkpt lat="45.89286140962065" lon="3.2068013693311914"><ele>312.0</ele><time>2026-04-11T12:58:54Z</time></trkpt><trkpt lat="45.892824211000196" lon="3.2067168513486903"><ele>312.0</ele><time>2026-04-11T12:58:55Z</time></trkpt><trkpt lat="45.89278811411031" lon="3.2066310959086612"><ele>312.0</ele><time>2026-04-11T12:58:56Z</time></trkpt><trkpt lat="45.892748548682874" lon="3.2065463610747176"><ele>312.0</ele><time>2026-04-11T12:58:57Z</time></trkpt><trkpt lat="45.892707722621125" lon="3.206466057140543"><ele>312.0</ele><time>2026-04-11T12:58:58Z</time></trkpt><trkpt lat="45.89266350608243" lon="3.206387835336172"><ele>312.0</ele><time>2026-04-11T12:58:59Z</time></trkpt><trkpt lat="45.89261957341223" lon="3.2063093374011067"><ele>312.0</ele><time>2026-04-11T12:59:00Z</time></trkpt><trkpt lat="45.89257400295046" lon="3.2062297781390074"><ele>312.0</ele><time>2026-04-11T12:59:01Z</time></trkpt><trkpt lat="45.892527500464745" lon="3.20615190998688"><ele>312.0</ele><time>2026-04-11T12:59:02Z</time></trkpt><trkpt lat="45.8924802741444" lon="3.206072623052311"><ele>312.0</ele><time>2026-04-11T12:59:03Z</time></trkpt><trkpt lat="45.89243156609396" lon="3.2059941016012754"><ele>312.0</ele><time>2026-04-11T12:59:04Z</time></trkpt><trkpt lat="45.89238313596174" lon="3.2059172262576707"><ele>312.0</ele><time>2026-04-11T12:59:05Z</time></trkpt><trkpt lat="45.89233145604293" lon="3.205841878554456"><ele>312.0</ele><time>2026-04-11T12:59:06Z</time></trkpt><trkpt lat="45.892283739661046" lon="3.20576136836502"><ele>312.0</ele><time>2026-04-11T12:59:07Z</time></trkpt><trkpt lat="45.89223577244099" lon="3.205679955168929"><ele>312.0</ele><time>2026-04-11T12:59:08Z</time></trkpt><trkpt lat="45.8921873284023" lon="3.2055996674547464"><ele>312.0</ele><time>2026-04-11T12:59:09Z</time></trkpt><trkpt lat="45.89213741668337" lon="3.2055186694621924"><ele>312.0</ele><time>2026-04-11T12:59:09.999Z</time></trkpt><trkpt lat="45.89208706358623" lon="3.2054409545664635"><ele>312.0</ele><time>2026-04-11T12:59:10.999Z</time></trkpt><trkpt lat="45.89203705853763" lon="3.205360956473669"><ele>312.0</ele><time>2026-04-11T12:59:11.999Z</time></trkpt><trkpt lat="45.89198610142755" lon="3.2052845709575752"><ele>312.0</ele><time>2026-04-11T12:59:12.999Z</time></trkpt><trkpt lat="45.89193928814464" lon="3.2052031412392146"><ele>312.0</ele><time>2026-04-11T12:59:13.999Z</time></trkpt><trkpt lat="45.89188891204037" lon="3.205123724526783"><ele>312.0</ele><time>2026-04-11T12:59:14.999Z</time></trkpt><trkpt lat="45.89183932012941" lon="3.2050430132567196"><ele>312.0</ele><time>2026-04-11T12:59:15.999Z</time></trkpt><trkpt lat="45.89179011971124" lon="3.2049651482103454"><ele>312.0</ele><time>2026-04-11T12:59:16.999Z</time></trkpt><trkpt lat="45.89173964008924" lon="3.2048866050050346"><ele>312.0</ele><time>2026-04-11T12:59:17.999Z</time></trkpt><trkpt lat="45.891690549918344" lon="3.20480471605815"><ele>312.0</ele><time>2026-04-11T12:59:18.999Z</time></trkpt><trkpt lat="45.89163961665125" lon="3.2047256437092106"><ele>312.0</ele><time>2026-04-11T12:59:19.999Z</time></trkpt><trkpt lat="45.891589296979184" lon="3.2046479950439055"><ele>312.0</ele><time>2026-04-11T12:59:20.999Z</time></trkpt><trkpt lat="45.89153918824427" lon="3.204569488540164"><ele>312.0</ele><time>2026-04-11T12:59:21.999Z</time></trkpt><trkpt lat="45.89149174215264" lon="3.204490616706453"><ele>312.0</ele><time>2026-04-11T12:59:22.999Z</time></trkpt><trkpt lat="45.89144165301732" lon="3.2044091756465773"><ele>312.0</ele><time>2026-04-11T12:59:23.999Z</time></trkpt><trkpt lat="45.891392310454975" lon="3.2043304652388263"><ele>312.0</ele><time>2026-04-11T12:59:24.999Z</time></trkpt><trkpt lat="45.89134341009667" lon="3.204252154190089"><ele>312.0</ele><time>2026-04-11T12:59:25.999Z</time></trkpt><trkpt lat="45.89129358511396" lon="3.204175334033813"><ele>312.0</ele><time>2026-04-11T12:59:26.999Z</time></trkpt><trkpt lat="45.89124481703893" lon="3.2040953675528887"><ele>312.0</ele><time>2026-04-11T12:59:27.999Z</time></trkpt><trkpt lat="45.891196626846174" lon="3.2040123568061"><ele>312.0</ele><time>2026-04-11T12:59:28.999Z</time></trkpt><trkpt lat="45.89114751043255" lon="3.2039282804167986"><ele>312.0</ele><time>2026-04-11T12:59:29.999Z</time></trkpt><trkpt lat="45.89109554774601" lon="3.203843635272836"><ele>312.0</ele><time>2026-04-11T12:59:30.999Z</time></trkpt><trkpt lat="45.89104263183351" lon="3.2037572668998977"><ele>312.0</ele><time>2026-04-11T12:59:31.999Z</time></trkpt><trkpt lat="45.89099114576217" lon="3.2036717176114387"><ele>312.0</ele><time>2026-04-11T12:59:32.999Z</time></trkpt><trkpt lat="45.890940115235786" lon="3.20358513537256"><ele>312.0</ele><time>2026-04-11T12:59:33.999Z</time></trkpt><trkpt lat="45.89089073796642" lon="3.203498112448964"><ele>312.0</ele><time>2026-04-11T12:59:34.999Z</time></trkpt><trkpt lat="45.890842975678176" lon="3.2034080752368808"><ele>312.0</ele><time>2026-04-11T12:59:35.999Z</time></trkpt><trkpt lat="45.89079465231031" lon="3.203318941508975"><ele>312.0</ele><time>2026-04-11T12:59:36.999Z</time></trkpt><trkpt lat="45.89074743883904" lon="3.2032286664080023"><ele>312.0</ele><time>2026-04-11T12:59:37.999Z</time></trkpt><trkpt lat="45.89070250748753" lon="3.203136260262888"><ele>312.0</ele><time>2026-04-11T12:59:38.999Z</time></trkpt><trkpt lat="45.89066039545926" lon="3.203043202940671"><ele>312.0</ele><time>2026-04-11T12:59:39.999Z</time></trkpt><trkpt lat="45.8906158996357" lon="3.202950258320847"><ele>312.0</ele><time>2026-04-11T12:59:40.999Z</time></trkpt><trkpt lat="45.89057197238128" lon="3.2028554530503457"><ele>312.0</ele><time>2026-04-11T12:59:41.999Z</time></trkpt><trkpt lat="45.89052909487997" lon="3.202763141109237"><ele>312.0</ele><time>2026-04-11T12:59:42.999Z</time></trkpt><trkpt lat="45.890495699664584" lon="3.2026602663694774"><ele>312.0</ele><time>2026-04-11T12:59:43.999Z</time></trkpt><trkpt lat="45.89045688556132" lon="3.2025572213204576"><ele>312.0</ele><time>2026-04-11T12:59:44.999Z</time></trkpt><trkpt lat="45.89041767272756" lon="3.2024577927779316"><ele>312.0</ele><time>2026-04-11T12:59:45.999Z</time></trkpt><trkpt lat="45.89038259383311" lon="3.2023563625779077"><ele>312.0</ele><time>2026-04-11T12:59:46.999Z</time></trkpt><trkpt lat="45.89035002597771" lon="3.20225482058569"><ele>312.0</ele><time>2026-04-11T12:59:47.999Z</time></trkpt><trkpt lat="45.89031831005703" lon="3.202149039862731"><ele>312.0</ele><time>2026-04-11T12:59:48.999Z</time></trkpt><trkpt lat="45.89028724647475" lon="3.20204610880734"><ele>312.0</ele><time>2026-04-11T12:59:49.999Z</time></trkpt><trkpt lat="45.89025839765988" lon="3.2019416053436602"><ele>312.0</ele><time>2026-04-11T12:59:50.999Z</time></trkpt><trkpt lat="45.89022802138372" lon="3.2018352268791133"><ele>311.8333333333333</ele><time>2026-04-11T12:59:51.999Z</time></trkpt><trkpt lat="45.890202292788686" lon="3.2017279686724054"><ele>311.6666666666667</ele><time>2026-04-11T12:59:52.999Z</time></trkpt><trkpt lat="45.89017219031205" lon="3.201621845426819"><ele>311.5</ele><time>2026-04-11T12:59:53.999Z</time></trkpt><trkpt lat="45.89014266087337" lon="3.2015162818090244"><ele>311.33333333333337</ele><time>2026-04-11T12:59:54.999Z</time></trkpt><trkpt lat="45.89011661967169" lon="3.2014076315861"><ele>311.1666666666667</ele><time>2026-04-11T12:59:55.999Z</time></trkpt><trkpt lat="45.890087184981134" lon="3.2012990531502283"><ele>311.0</ele><time>2026-04-11T12:59:56.999Z</time></trkpt><trkpt lat="45.89005780171618" lon="3.201191219937463"><ele>311.0</ele><time>2026-04-11T12:59:57.999Z</time></trkpt><trkpt lat="45.89002895465052" lon="3.201083022280477"><ele>311.0</ele><time>2026-04-11T12:59:58.999Z</time></trkpt><trkpt lat="45.889998788196905" lon="3.200976163029757"><ele>311.0</ele><time>2026-04-11T12:59:59.999Z</time></trkpt><trkpt lat="45.889966376070106" lon="3.2008697755507676"><ele>311.0</ele><time>2026-04-11T13:00:00.999Z</time></trkpt><trkpt lat="45.88994104833848" lon="3.200764807229451"><ele>311.0</ele><time>2026-04-11T13:00:01.999Z</time></trkpt><trkpt lat="45.88991302490465" lon="3.2006573757494743"><ele>311.0</ele><time>2026-04-11T13:00:02.999Z</time></trkpt><trkpt lat="45.88988714270352" lon="3.200545952942062"><ele>311.1666666666667</ele><time>2026-04-11T13:00:03.999Z</time></trkpt><trkpt lat="45.88985988479332" lon="3.200443196358551"><ele>311.33333333333337</ele><time>2026-04-11T13:00:04.999Z</time></trkpt><trkpt lat="45.889830425422424" lon="3.2003346335427416"><ele>311.5</ele><time>2026-04-11T13:00:05.999Z</time></trkpt><trkpt lat="45.889803807203734" lon="3.200231834727417"><ele>311.6666666666667</ele><time>2026-04-11T13:00:06.999Z</time></trkpt><trkpt lat="45.88977799622973" lon="3.200121798836552"><ele>311.8333333333333</ele><time>2026-04-11T13:00:07.999Z</time></trkpt><trkpt lat="45.88974676982838" lon="3.200014204670579"><ele>312.0</ele><time>2026-04-11T13:00:09Z</time></trkpt><trkpt lat="45.88971827483246" lon="3.1999052467962215"><ele>311.8333333333333</ele><time>2026-04-11T13:00:10Z</time></trkpt><trkpt lat="45.889687234297334" lon="3.199797521972053"><ele>311.6666666666667</ele><time>2026-04-11T13:00:11Z</time></trkpt><trkpt lat="45.889657793329384" lon="3.199689938783752"><ele>311.5</ele><time>2026-04-11T13:00:12Z</time></trkpt><trkpt lat="45.88962996880889" lon="3.1995857649740524"><ele>311.33333333333337</ele><time>2026-04-11T13:00:13Z</time></trkpt><trkpt lat="45.88960060468785" lon="3.1994800739070595"><ele>311.1666666666667</ele><time>2026-04-11T13:00:14Z</time></trkpt><trkpt lat="45.88957084117212" lon="3.199371003838366"><ele>311.0</ele><time>2026-04-11T13:00:15Z</time></trkpt><trkpt lat="45.88954294659539" lon="3.1992641200399"><ele>311.0</ele><time>2026-04-11T13:00:16Z</time></trkpt><trkpt lat="45.88951401487264" lon="3.1991589424050373"><ele>311.0</ele><time>2026-04-11T13:00:17Z</time></trkpt><trkpt lat="45.88948746511549" lon="3.1990527348973608"><ele>311.0</ele><time>2026-04-11T13:00:18Z</time></trkpt><trkpt lat="45.889457255229686" lon="3.1989447095515207"><ele>311.0</ele><time>2026-04-11T13:00:19Z</time></trkpt><trkpt lat="45.88942807311329" lon="3.1988409640407505"><ele>311.0</ele><time>2026-04-11T13:00:20Z</time></trkpt><trkpt lat="45.889400033249984" lon="3.1987345229937274"><ele>311.0</ele><time>2026-04-11T13:00:21Z</time></trkpt><trkpt lat="45.88937144813176" lon="3.198628589762453"><ele>311.1666666666667</ele><time>2026-04-11T13:00:22Z</time></trkpt><trkpt lat="45.889342849699176" lon="3.198522857949986"><ele>311.33333333333337</ele><time>2026-04-11T13:00:23Z</time></trkpt><trkpt lat="45.889315479768804" lon="3.1984156405804316"><ele>311.5</ele><time>2026-04-11T13:00:24Z</time></trkpt><trkpt lat="45.88928710068451" lon="3.1983092752739455"><ele>311.6666666666667</ele><time>2026-04-11T13:00:25Z</time></trkpt><trkpt lat="45.88925973915949" lon="3.1982023505600887"><ele>311.8333333333333</ele><time>2026-04-11T13:00:26Z</time></trkpt><trkpt lat="45.88922958972813" lon="3.19809843958892"><ele>312.0</ele><time>2026-04-11T13:00:27Z</time></trkpt><trkpt lat="45.88920206360868" lon="3.197992455811217"><ele>312.1666666666667</ele><time>2026-04-11T13:00:28Z</time></trkpt><trkpt lat="45.8891738585707" lon="3.1978870179094607"><ele>312.3333333333333</ele><time>2026-04-11T13:00:29Z</time></trkpt><trkpt lat="45.889142040776825" lon="3.197779979498507"><ele>312.5</ele><time>2026-04-11T13:00:30Z</time></trkpt><trkpt lat="45.889114256596436" lon="3.197672349169533"><ele>312.66666666666663</ele><time>2026-04-11T13:00:31Z</time></trkpt><trkpt lat="45.88908542865729" lon="3.197565299265399"><ele>312.8333333333333</ele><time>2026-04-11T13:00:32Z</time></trkpt><trkpt lat="45.88905973151049" lon="3.197459684008472"><ele>313.0</ele><time>2026-04-11T13:00:33Z</time></trkpt><trkpt lat="45.88903190694821" lon="3.1973552297086707"><ele>313.0</ele><time>2026-04-11T13:00:34Z</time></trkpt><trkpt lat="45.889000489245944" lon="3.1972515409229785"><ele>313.0</ele><time>2026-04-11T13:00:35Z</time></trkpt><trkpt lat="45.88897190624339" lon="3.197146434191852"><ele>313.0</ele><time>2026-04-11T13:00:36Z</time></trkpt><trkpt lat="45.888945957194885" lon="3.1970397059149738"><ele>313.0</ele><time>2026-04-11T13:00:37Z</time></trkpt><trkpt lat="45.88891619596629" lon="3.196935364260205"><ele>313.0</ele><time>2026-04-11T13:00:38Z</time></trkpt><trkpt lat="45.888891332993495" lon="3.1968249186425237"><ele>313.0</ele><time>2026-04-11T13:00:39Z</time></trkpt><trkpt lat="45.88886324451149" lon="3.1967193746544473"><ele>313.0</ele><time>2026-04-11T13:00:40Z</time></trkpt><trkpt lat="45.88883365837422" lon="3.1966127562414233"><ele>313.0</ele><time>2026-04-11T13:00:41Z</time></trkpt><trkpt lat="45.888803836466515" lon="3.1965092125396155"><ele>313.0</ele><time>2026-04-11T13:00:42Z</time></trkpt><trkpt lat="45.88877385460144" lon="3.1964016617473807"><ele>313.0</ele><time>2026-04-11T13:00:43Z</time></trkpt><trkpt lat="45.88875474940105" lon="3.196295116149328"><ele>313.0</ele><time>2026-04-11T13:00:44Z</time></trkpt><trkpt lat="45.88872990763082" lon="3.1961878601238753"><ele>313.0</ele><time>2026-04-11T13:00:45Z</time></trkpt><trkpt lat="45.88870623212773" lon="3.1960792827338187"><ele>312.8333333333333</ele><time>2026-04-11T13:00:46Z</time></trkpt><trkpt lat="45.88868273821291" lon="3.1959690645363357"><ele>312.66666666666663</ele><time>2026-04-11T13:00:47Z</time></trkpt><trkpt lat="45.888663732591226" lon="3.195858651774771"><ele>312.5</ele><time>2026-04-11T13:00:48Z</time></trkpt><trkpt lat="45.88864289343178" lon="3.195749374990782"><ele>312.3333333333333</ele><time>2026-04-11T13:00:49Z</time></trkpt><trkpt lat="45.88862138691101" lon="3.195640110302014"><ele>312.1666666666667</ele><time>2026-04-11T13:00:50Z</time></trkpt><trkpt lat="45.888601118308756" lon="3.1955293000919927"><ele>312.0</ele><time>2026-04-11T13:00:51Z</time></trkpt><trkpt lat="45.888579480789566" lon="3.195418571052327"><ele>312.0</ele><time>2026-04-11T13:00:52Z</time></trkpt><trkpt lat="45.888562441060074" lon="3.1953091683362977"><ele>312.0</ele><time>2026-04-11T13:00:53Z</time></trkpt><trkpt lat="45.888547302952865" lon="3.1951988932155233"><ele>312.0</ele><time>2026-04-11T13:00:54Z</time></trkpt><trkpt lat="45.8885297560016" lon="3.195088959146216"><ele>312.0</ele><time>2026-04-11T13:00:55Z</time></trkpt><trkpt lat="45.8885116225799" lon="3.1949791228057123"><ele>312.0</ele><time>2026-04-11T13:00:56Z</time></trkpt><trkpt lat="45.88849798994587" lon="3.1948668609778945"><ele>312.0</ele><time>2026-04-11T13:00:57Z</time></trkpt><trkpt lat="45.88848184305417" lon="3.1947567469645586"><ele>312.0</ele><time>2026-04-11T13:00:58Z</time></trkpt><trkpt lat="45.888468476591214" lon="3.1946458227951737"><ele>312.0</ele><time>2026-04-11T13:00:59Z</time></trkpt><trkpt lat="45.88845800521287" lon="3.194530908044792"><ele>312.0</ele><time>2026-04-11T13:01:00Z</time></trkpt><trkpt lat="45.888449210803294" lon="3.1944180094836296"><ele>312.0</ele><time>2026-04-11T13:01:01Z</time></trkpt><trkpt lat="45.88843551898097" lon="3.1943037105363876"><ele>312.0</ele><time>2026-04-11T13:01:02Z</time></trkpt><trkpt lat="45.8884235612279" lon="3.194191169260763"><ele>312.0</ele><time>2026-04-11T13:01:03Z</time></trkpt><trkpt lat="45.888413193292024" lon="3.194079034457919"><ele>312.1666666666667</ele><time>2026-04-11T13:01:04Z</time></trkpt><trkpt lat="45.88840513206565" lon="3.193965103129874"><ele>312.3333333333333</ele><time>2026-04-11T13:01:05Z</time></trkpt><trkpt lat="45.8883955847896" lon="3.1938536659021652"><ele>312.5</ele><time>2026-04-11T13:01:06Z</time></trkpt><trkpt lat="45.88838034782837" lon="3.1937431350915193"><ele>312.66666666666663</ele><time>2026-04-11T13:01:07Z</time></trkpt><trkpt lat="45.888371737666084" lon="3.1936326583988612"><ele>312.8333333333333</ele><time>2026-04-11T13:01:08Z</time></trkpt><trkpt lat="45.88836200958933" lon="3.193519641974327"><ele>313.0</ele><time>2026-04-11T13:01:09Z</time></trkpt><trkpt lat="45.8883544470204" lon="3.1934066231106097"><ele>313.0</ele><time>2026-04-11T13:01:10Z</time></trkpt><trkpt lat="45.88834345592437" lon="3.1932927869723873"><ele>313.0</ele><time>2026-04-11T13:01:11Z</time></trkpt><trkpt lat="45.88833600157455" lon="3.193181102484094"><ele>313.0</ele><time>2026-04-11T13:01:12Z</time></trkpt><trkpt lat="45.88832411556089" lon="3.193072092710898"><ele>313.0</ele><time>2026-04-11T13:01:13Z</time></trkpt><trkpt lat="45.88831242632268" lon="3.1929633958130026"><ele>313.0</ele><time>2026-04-11T13:01:14Z</time></trkpt><trkpt lat="45.88830353417593" lon="3.1928536834434453"><ele>313.0</ele><time>2026-04-11T13:01:15Z</time></trkpt><trkpt lat="45.88829349436704" lon="3.19274557505836"><ele>313.0</ele><time>2026-04-11T13:01:16Z</time></trkpt><trkpt lat="45.888284358652236" lon="3.1926368861567074"><ele>313.0</ele><time>2026-04-11T13:01:17Z</time></trkpt><trkpt lat="45.8882774298317" lon="3.1925268656095813"><ele>313.0</ele><time>2026-04-11T13:01:18Z</time></trkpt><trkpt lat="45.888267010298755" lon="3.192417825753714"><ele>313.0</ele><time>2026-04-11T13:01:19Z</time></trkpt><trkpt lat="45.88825996776515" lon="3.192308124029785"><ele>313.0</ele><time>2026-04-11T13:01:20Z</time></trkpt><trkpt lat="45.8882518248853" lon="3.192196514124171"><ele>313.0</ele><time>2026-04-11T13:01:21Z</time></trkpt><trkpt lat="45.88824311057915" lon="3.1920861980969435"><ele>313.0</ele><time>2026-04-11T13:01:22Z</time></trkpt><trkpt lat="45.88823167592627" lon="3.1919738980152887"><ele>313.0</ele><time>2026-04-11T13:01:23Z</time></trkpt><trkpt lat="45.88821785270565" lon="3.191863458284818"><ele>313.0</ele><time>2026-04-11T13:01:24Z</time></trkpt><trkpt lat="45.888207583462815" lon="3.1917559242168507"><ele>313.0</ele><time>2026-04-11T13:01:25Z</time></trkpt><trkpt lat="45.8881988180269" lon="3.1916473169953967"><ele>313.0</ele><time>2026-04-11T13:01:26Z</time></trkpt><trkpt lat="45.888190581216556" lon="3.1915351376560372"><ele>313.0</ele><time>2026-04-11T13:01:27Z</time></trkpt><trkpt lat="45.88818423011059" lon="3.191422486315335"><ele>313.0</ele><time>2026-04-11T13:01:28Z</time></trkpt><trkpt lat="45.88817448459523" lon="3.1913093907297205"><ele>313.0</ele><time>2026-04-11T13:01:29Z</time></trkpt><trkpt lat="45.888164338394574" lon="3.1911973502149205"><ele>313.0</ele><time>2026-04-11T13:01:30Z</time></trkpt><trkpt lat="45.88815673845285" lon="3.1910864669828674"><ele>313.0</ele><time>2026-04-11T13:01:31Z</time></trkpt><trkpt lat="45.88815370509514" lon="3.1909759713125685"><ele>313.0</ele><time>2026-04-11T13:01:32Z</time></trkpt><trkpt lat="45.88814939268342" lon="3.1908643812112563"><ele>313.0</ele><time>2026-04-11T13:01:33Z</time></trkpt><trkpt lat="45.888144425939046" lon="3.1907518878419396"><ele>312.8333333333333</ele><time>2026-04-11T13:01:34Z</time></trkpt><trkpt lat="45.88814587163745" lon="3.1906399696356025"><ele>312.66666666666663</ele><time>2026-04-11T13:01:35Z</time></trkpt><trkpt lat="45.88814320844762" lon="3.190527102513696"><ele>312.5</ele><time>2026-04-11T13:01:36Z</time></trkpt><trkpt lat="45.88814258432696" lon="3.190414712690886"><ele>312.3333333333333</ele><time>2026-04-11T13:01:37Z</time></trkpt><trkpt lat="45.88814889088044" lon="3.190302927044067"><ele>312.1666666666667</ele><time>2026-04-11T13:01:37.999Z</time></trkpt><trkpt lat="45.88814970432496" lon="3.1901916873113265"><ele>312.0</ele><time>2026-04-11T13:01:38.999Z</time></trkpt><trkpt lat="45.88815068648599" lon="3.190081343255211"><ele>312.0</ele><time>2026-04-11T13:01:39.999Z</time></trkpt><trkpt lat="45.888152237705555" lon="3.189969791286459"><ele>312.0</ele><time>2026-04-11T13:01:40.999Z</time></trkpt><trkpt lat="45.88816098652599" lon="3.1898569396006704"><ele>312.0</ele><time>2026-04-11T13:01:41.999Z</time></trkpt><trkpt lat="45.88816855025199" lon="3.1897444222860436"><ele>312.0</ele><time>2026-04-11T13:01:42.999Z</time></trkpt><trkpt lat="45.888176960723094" lon="3.189634340068356"><ele>312.0</ele><time>2026-04-11T13:01:43.999Z</time></trkpt><trkpt lat="45.88818047234484" lon="3.1895223126876306"><ele>312.0</ele><time>2026-04-11T13:01:44.999Z</time></trkpt><trkpt lat="45.88818505592486" lon="3.1894123849703506"><ele>312.1666666666667</ele><time>2026-04-11T13:01:45.999Z</time></trkpt><trkpt lat="45.888198377228406" lon="3.189298550972805"><ele>312.3333333333333</ele><time>2026-04-11T13:01:46.999Z</time></trkpt><trkpt lat="45.88820290903079" lon="3.1891890451619638"><ele>312.5</ele><time>2026-04-11T13:01:47.999Z</time></trkpt><trkpt lat="45.88821023795784" lon="3.189080526384451"><ele>312.66666666666663</ele><time>2026-04-11T13:01:48.999Z</time></trkpt><trkpt lat="45.888218551239575" lon="3.1889705601694804"><ele>312.8333333333333</ele><time>2026-04-11T13:01:49.999Z</time></trkpt><trkpt lat="45.888225878503775" lon="3.188859707585602"><ele>313.0</ele><time>2026-04-11T13:01:50.999Z</time></trkpt><trkpt lat="45.888231697604965" lon="3.1887498083429215"><ele>313.0</ele><time>2026-04-11T13:01:51.999Z</time></trkpt><trkpt lat="45.88823705663482" lon="3.188640189978824"><ele>313.0</ele><time>2026-04-11T13:01:52.999Z</time></trkpt><trkpt lat="45.8882435477258" lon="3.1885324009675773"><ele>313.0</ele><time>2026-04-11T13:01:53.999Z</time></trkpt><trkpt lat="45.888252869783905" lon="3.188421013786082"><ele>313.0</ele><time>2026-04-11T13:01:54.999Z</time></trkpt><trkpt lat="45.888258631100655" lon="3.1883121055748775"><ele>313.0</ele><time>2026-04-11T13:01:55.999Z</time></trkpt><trkpt lat="45.88826413714186" lon="3.188200733029864"><ele>313.0</ele><time>2026-04-11T13:01:56.999Z</time></trkpt><trkpt lat="45.88827221272459" lon="3.1880921021842608"><ele>313.16666666666663</ele><time>2026-04-11T13:01:57.999Z</time></trkpt><trkpt lat="45.888278345899955" lon="3.1879814792264654"><ele>313.3333333333333</ele><time>2026-04-11T13:01:58.999Z</time></trkpt><trkpt lat="45.88828576773531" lon="3.187871482937559"><ele>313.5</ele><time>2026-04-11T13:01:59.999Z</time></trkpt><trkpt lat="45.88829254867387" lon="3.1877590987484834"><ele>313.6666666666667</ele><time>2026-04-11T13:02:00.999Z</time></trkpt><trkpt lat="45.88829936418287" lon="3.187650115549967"><ele>313.83333333333337</ele><time>2026-04-11T13:02:01.999Z</time></trkpt><trkpt lat="45.88830570961757" lon="3.187537842957181"><ele>314.0</ele><time>2026-04-11T13:02:02.999Z</time></trkpt><trkpt lat="45.88831230835691" lon="3.18742982715067"><ele>314.0</ele><time>2026-04-11T13:02:03.999Z</time></trkpt><trkpt lat="45.888320006065875" lon="3.187320046133867"><ele>314.0</ele><time>2026-04-11T13:02:04.999Z</time></trkpt><trkpt lat="45.88832700468777" lon="3.187208968354346"><ele>314.0</ele><time>2026-04-11T13:02:05.999Z</time></trkpt><trkpt lat="45.88833353621995" lon="3.1870993769385816"><ele>314.0</ele><time>2026-04-11T13:02:06.999Z</time></trkpt><trkpt lat="45.88833872591449" lon="3.1869874319197677"><ele>314.0</ele><time>2026-04-11T13:02:07.999Z</time></trkpt><trkpt lat="45.888346365414044" lon="3.186878612115892"><ele>314.0</ele><time>2026-04-11T13:02:08.999Z</time></trkpt><trkpt lat="45.88835202259308" lon="3.1867678746165944"><ele>314.0</ele><time>2026-04-11T13:02:09.999Z</time></trkpt><trkpt lat="45.88835759564203" lon="3.18665705488739"><ele>314.0</ele><time>2026-04-11T13:02:10.999Z</time></trkpt><trkpt lat="45.888365397835685" lon="3.1865442452386326"><ele>314.0</ele><time>2026-04-11T13:02:11.999Z</time></trkpt><trkpt lat="45.88837353746515" lon="3.186431754715175"><ele>314.0</ele><time>2026-04-11T13:02:12.999Z</time></trkpt><trkpt lat="45.888380191990386" lon="3.186320540708226"><ele>314.0</ele><time>2026-04-11T13:02:13.999Z</time></trkpt><trkpt lat="45.88838663121613" lon="3.1862083519699405"><ele>314.0</ele><time>2026-04-11T13:02:15Z</time></trkpt><trkpt lat="45.88839370782039" lon="3.1860965619699044"><ele>313.83333333333337</ele><time>2026-04-11T13:02:16Z</time></trkpt><trkpt lat="45.88840036404001" lon="3.1859844298247553"><ele>313.6666666666667</ele><time>2026-04-11T13:02:17Z</time></trkpt><trkpt lat="45.888405965267886" lon="3.185874204977085"><ele>313.5</ele><time>2026-04-11T13:02:18Z</time></trkpt><trkpt lat="45.888411919424556" lon="3.185764318412844"><ele>313.3333333333333</ele><time>2026-04-11T13:02:19Z</time></trkpt><trkpt lat="45.88842018327432" lon="3.185652197375281"><ele>313.16666666666663</ele><time>2026-04-11T13:02:20Z</time></trkpt><trkpt lat="45.88842605264534" lon="3.1855386796150116"><ele>313.0</ele><time>2026-04-11T13:02:21Z</time></trkpt><trkpt lat="45.8884332629464" lon="3.185429632822619"><ele>312.8333333333333</ele><time>2026-04-11T13:02:22Z</time></trkpt><trkpt lat="45.888440657169745" lon="3.185318514048475"><ele>312.66666666666663</ele><time>2026-04-11T13:02:23Z</time></trkpt><trkpt lat="45.88844639452774" lon="3.185204787976565"><ele>312.5</ele><time>2026-04-11T13:02:24Z</time></trkpt><trkpt lat="45.888454722330145" lon="3.1850943659047823"><ele>312.3333333333333</ele><time>2026-04-11T13:02:25Z</time></trkpt><trkpt lat="45.88846014542829" lon="3.184982810422837"><ele>312.1666666666667</ele><time>2026-04-11T13:02:26Z</time></trkpt><trkpt lat="45.88846490511894" lon="3.1848726274360133"><ele>312.0</ele><time>2026-04-11T13:02:27Z</time></trkpt><trkpt lat="45.88847183155832" lon="3.1847624958131386"><ele>312.0</ele><time>2026-04-11T13:02:28Z</time></trkpt><trkpt lat="45.888480711731624" lon="3.1846505403757868"><ele>312.0</ele><time>2026-04-11T13:02:29Z</time></trkpt><trkpt lat="45.888489047768104" lon="3.1845372519239747"><ele>312.0</ele><time>2026-04-11T13:02:30Z</time></trkpt><trkpt lat="45.888494343237234" lon="3.1844234417013904"><ele>312.0</ele><time>2026-04-11T13:02:31Z</time></trkpt><trkpt lat="45.88850126862215" lon="3.1843120037955535"><ele>312.0</ele><time>2026-04-11T13:02:32Z</time></trkpt><trkpt lat="45.888508433199256" lon="3.184200133102691"><ele>312.0</ele><time>2026-04-11T13:02:33Z</time></trkpt><trkpt lat="45.88851281427292" lon="3.184086164365162"><ele>312.0</ele><time>2026-04-11T13:02:34Z</time></trkpt><trkpt lat="45.88851808317678" lon="3.1839739858535387"><ele>312.0</ele><time>2026-04-11T13:02:35Z</time></trkpt><trkpt lat="45.88852613205264" lon="3.1838614815471833"><ele>312.0</ele><time>2026-04-11T13:02:36Z</time></trkpt><trkpt lat="45.88853347659975" lon="3.1837496136824175"><ele>312.0</ele><time>2026-04-11T13:02:37Z</time></trkpt><trkpt lat="45.88854125536085" lon="3.1836365827689965"><ele>312.0</ele><time>2026-04-11T13:02:38Z</time></trkpt><trkpt lat="45.888548754638514" lon="3.1835251209512916"><ele>312.0</ele><time>2026-04-11T13:02:39Z</time></trkpt><trkpt lat="45.888555365608575" lon="3.1834130899397026"><ele>312.0</ele><time>2026-04-11T13:02:40Z</time></trkpt><trkpt lat="45.88856373416651" lon="3.1833008950889936"><ele>312.0</ele><time>2026-04-11T13:02:41Z</time></trkpt><trkpt lat="45.88856987505087" lon="3.1831880520013427"><ele>312.0</ele><time>2026-04-11T13:02:42Z</time></trkpt><trkpt lat="45.8885764960506" lon="3.1830775635414734"><ele>312.0</ele><time>2026-04-11T13:02:43Z</time></trkpt><trkpt lat="45.88858432934991" lon="3.182966271667862"><ele>312.0</ele><time>2026-04-11T13:02:44Z</time></trkpt><trkpt lat="45.888590689247074" lon="3.1828562833892695"><ele>312.0</ele><time>2026-04-11T13:02:45Z</time></trkpt><trkpt lat="45.8885993806557" lon="3.1827447046989694"><ele>312.1666666666667</ele><time>2026-04-11T13:02:46Z</time></trkpt><trkpt lat="45.888606478605354" lon="3.182634814399576"><ele>312.3333333333333</ele><time>2026-04-11T13:02:47Z</time></trkpt><trkpt lat="45.88861163028442" lon="3.182521095801087"><ele>312.5</ele><time>2026-04-11T13:02:48Z</time></trkpt><trkpt lat="45.88861605422851" lon="3.1824093480534397"><ele>312.66666666666663</ele><time>2026-04-11T13:02:49Z</time></trkpt><trkpt lat="45.88862416975405" lon="3.1822984219323827"><ele>312.8333333333333</ele><time>2026-04-11T13:02:50Z</time></trkpt><trkpt lat="45.88863273224603" lon="3.1821862815547197"><ele>313.0</ele><time>2026-04-11T13:02:51Z</time></trkpt><trkpt lat="45.88864040876159" lon="3.1820724568677274"><ele>313.16666666666663</ele><time>2026-04-11T13:02:52Z</time></trkpt><trkpt lat="45.8886466128192" lon="3.1819582307807273"><ele>313.3333333333333</ele><time>2026-04-11T13:02:53Z</time></trkpt><trkpt lat="45.888652902449415" lon="3.1818443648393244"><ele>313.5</ele><time>2026-04-11T13:02:54Z</time></trkpt><trkpt lat="45.88866043822848" lon="3.181730502169154"><ele>313.6666666666667</ele><time>2026-04-11T13:02:55Z</time></trkpt><trkpt lat="45.888667423701406" lon="3.181616741775716"><ele>313.83333333333337</ele><time>2026-04-11T13:02:56Z</time></trkpt><trkpt lat="45.888672433535724" lon="3.18150298630056"><ele>314.0</ele><time>2026-04-11T13:02:57Z</time></trkpt><trkpt lat="45.8886810992508" lon="3.1813903855802734"><ele>314.1666666666667</ele><time>2026-04-11T13:02:58Z</time></trkpt><trkpt lat="45.888688426553756" lon="3.181276958753389"><ele>314.33333333333337</ele><time>2026-04-11T13:02:59Z</time></trkpt><trkpt lat="45.88869509081912" lon="3.181164026952632"><ele>314.5</ele><time>2026-04-11T13:03:00Z</time></trkpt><trkpt lat="45.88870082366199" lon="3.181051217156192"><ele>314.6666666666667</ele><time>2026-04-11T13:03:01Z</time></trkpt><trkpt lat="45.88870798976988" lon="3.180939062193488"><ele>314.8333333333333</ele><time>2026-04-11T13:03:02Z</time></trkpt><trkpt lat="45.88870910893691" lon="3.18082517714586"><ele>315.0</ele><time>2026-04-11T13:03:03Z</time></trkpt><trkpt lat="45.88871778692911" lon="3.1807159735650288"><ele>315.0</ele><time>2026-04-11T13:03:04Z</time></trkpt><trkpt lat="45.88872552977658" lon="3.180606172229165"><ele>315.0</ele><time>2026-04-11T13:03:05Z</time></trkpt><trkpt lat="45.88873297489017" lon="3.180499347858043"><ele>315.0</ele><time>2026-04-11T13:03:06Z</time></trkpt><trkpt lat="45.88873971810959" lon="3.18039112245999"><ele>315.0</ele><time>2026-04-11T13:03:07Z</time></trkpt><trkpt lat="45.888752432468515" lon="3.1802796587988142"><ele>315.0</ele><time>2026-04-11T13:03:08Z</time></trkpt><trkpt lat="45.88875651459216" lon="3.1801705282487323"><ele>315.0</ele><time>2026-04-11T13:03:09Z</time></trkpt><trkpt lat="45.888760886732115" lon="3.1800623240784494"><ele>315.0</ele><time>2026-04-11T13:03:10Z</time></trkpt><trkpt lat="45.88876919560799" lon="3.1799552113662"><ele>315.0</ele><time>2026-04-11T13:03:11Z</time></trkpt><trkpt lat="45.88877622907682" lon="3.1798463591101354"><ele>315.0</ele><time>2026-04-11T13:03:12Z</time></trkpt><trkpt lat="45.88878324588658" lon="3.179737922546008"><ele>315.0</ele><time>2026-04-11T13:03:13Z</time></trkpt><trkpt lat="45.88879290696662" lon="3.179628783332885"><ele>315.0</ele><time>2026-04-11T13:03:14Z</time></trkpt><trkpt lat="45.88880094960441" lon="3.179521093969073"><ele>315.0</ele><time>2026-04-11T13:03:15Z</time></trkpt><trkpt lat="45.88880503457198" lon="3.1794108639052663"><ele>314.7142857142857</ele><time>2026-04-11T13:03:16Z</time></trkpt><trkpt lat="45.888812930485585" lon="3.1793051337181764"><ele>314.42857142857144</ele><time>2026-04-11T13:03:17Z</time></trkpt><trkpt lat="45.888820548558606" lon="3.179197897732639"><ele>314.1428571428571</ele><time>2026-04-11T13:03:18Z</time></trkpt><trkpt lat="45.888827531566406" lon="3.1790906593970996"><ele>313.8571428571429</ele><time>2026-04-11T13:03:19Z</time></trkpt><trkpt lat="45.88883242561839" lon="3.178981814925422"><ele>313.57142857142856</ele><time>2026-04-11T13:03:20Z</time></trkpt><trkpt lat="45.8888357514836" lon="3.1788749627097537"><ele>313.2857142857143</ele><time>2026-04-11T13:03:21Z</time></trkpt><trkpt lat="45.88884022398853" lon="3.1787697111358524"><ele>313.0</ele><time>2026-04-11T13:03:22Z</time></trkpt><trkpt lat="45.888845525343996" lon="3.178662696310395"><ele>313.0</ele><time>2026-04-11T13:03:23Z</time></trkpt><trkpt lat="45.888854178828275" lon="3.178560610629381"><ele>313.0</ele><time>2026-04-11T13:03:24Z</time></trkpt><trkpt lat="45.88885949620627" lon="3.1784586375995065"><ele>313.0</ele><time>2026-04-11T13:03:25Z</time></trkpt><trkpt lat="45.88886594270918" lon="3.1783558730603563"><ele>313.0</ele><time>2026-04-11T13:03:26Z</time></trkpt><trkpt lat="45.88887064325691" lon="3.178253954760081"><ele>313.0</ele><time>2026-04-11T13:03:27Z</time></trkpt><trkpt lat="45.88887736234988" lon="3.1781512606732134"><ele>313.0</ele><time>2026-04-11T13:03:28Z</time></trkpt><trkpt lat="45.88888553272758" lon="3.1780511346191376"><ele>313.0</ele><time>2026-04-11T13:03:29Z</time></trkpt><trkpt lat="45.888890757170344" lon="3.1779490875215792"><ele>313.0</ele><time>2026-04-11T13:03:30Z</time></trkpt><trkpt lat="45.88889398510914" lon="3.1778460503399972"><ele>313.0</ele><time>2026-04-11T13:03:31Z</time></trkpt><trkpt lat="45.88889882922625" lon="3.1777458415461526"><ele>313.0</ele><time>2026-04-11T13:03:32Z</time></trkpt><trkpt lat="45.88890521601918" lon="3.177646034356273"><ele>313.0</ele><time>2026-04-11T13:03:33Z</time></trkpt><trkpt lat="45.88891079489072" lon="3.1775432712457015"><ele>313.0</ele><time>2026-04-11T13:03:34Z</time></trkpt><trkpt lat="45.88891630588657" lon="3.177443164481895"><ele>313.0</ele><time>2026-04-11T13:03:35Z</time></trkpt><trkpt lat="45.88892293621381" lon="3.177344912066696"><ele>313.0</ele><time>2026-04-11T13:03:36Z</time></trkpt><trkpt lat="45.88892953506727" lon="3.177245730637015"><ele>313.1428571428571</ele><time>2026-04-11T13:03:37Z</time></trkpt><trkpt lat="45.888936510629684" lon="3.17714682897904"><ele>313.2857142857143</ele><time>2026-04-11T13:03:38Z</time></trkpt><trkpt lat="45.888941428932974" lon="3.1770482999896656"><ele>313.42857142857144</ele><time>2026-04-11T13:03:39Z</time></trkpt><trkpt lat="45.888945959804666" lon="3.176947522299668"><ele>313.57142857142856</ele><time>2026-04-11T13:03:40Z</time></trkpt><trkpt lat="45.888952981909874" lon="3.1768465648725517"><ele>313.7142857142857</ele><time>2026-04-11T13:03:41Z</time></trkpt><trkpt lat="45.88895954590434" lon="3.176746737593193"><ele>313.85714285714283</ele><time>2026-04-11T13:03:42Z</time></trkpt><trkpt lat="45.888965510614405" lon="3.1766438735447204"><ele>314.0</ele><time>2026-04-11T13:03:43Z</time></trkpt><trkpt lat="45.88897191528967" lon="3.1765408099384103"><ele>313.85714285714283</ele><time>2026-04-11T13:03:44Z</time></trkpt><trkpt lat="45.88897554656106" lon="3.1764404539477136"><ele>313.7142857142857</ele><time>2026-04-11T13:03:45Z</time></trkpt><trkpt lat="45.88898068640596" lon="3.1763396107297184"><ele>313.57142857142856</ele><time>2026-04-11T13:03:46Z</time></trkpt><trkpt lat="45.888986538126815" lon="3.1762367270197798"><ele>313.42857142857144</ele><time>2026-04-11T13:03:47Z</time></trkpt><trkpt lat="45.88899723514319" lon="3.176134041691449"><ele>313.2857142857143</ele><time>2026-04-11T13:03:48Z</time></trkpt><trkpt lat="45.889000917383825" lon="3.1760320856445827"><ele>313.1428571428571</ele><time>2026-04-11T13:03:49Z</time></trkpt><trkpt lat="45.88900633296295" lon="3.1759312752445106"><ele>313.0</ele><time>2026-04-11T13:03:50Z</time></trkpt><trkpt lat="45.889013763302025" lon="3.17583077722588"><ele>313.0</ele><time>2026-04-11T13:03:51Z</time></trkpt><trkpt lat="45.88902123481775" lon="3.175729553302067"><ele>313.0</ele><time>2026-04-11T13:03:52Z</time></trkpt><trkpt lat="45.88902567953027" lon="3.175628034328624"><ele>313.0</ele><time>2026-04-11T13:03:53Z</time></trkpt><trkpt lat="45.88903236483674" lon="3.175525826984947"><ele>313.0</ele><time>2026-04-11T13:03:54Z</time></trkpt><trkpt lat="45.88903867670186" lon="3.1754229983818254"><ele>313.0</ele><time>2026-04-11T13:03:55Z</time></trkpt><trkpt lat="45.88904717696165" lon="3.1753168516227674"><ele>313.0</ele><time>2026-04-11T13:03:56Z</time></trkpt><trkpt lat="45.88905146928404" lon="3.17521535074111"><ele>313.0</ele><time>2026-04-11T13:03:57Z</time></trkpt><trkpt lat="45.889058538019526" lon="3.175115748093568"><ele>313.0</ele><time>2026-04-11T13:03:58Z</time></trkpt><trkpt lat="45.88906559069932" lon="3.1750149175557305"><ele>313.0</ele><time>2026-04-11T13:03:59Z</time></trkpt><trkpt lat="45.88906917689214" lon="3.174913339965729"><ele>313.0</ele><time>2026-04-11T13:04:00Z</time></trkpt><trkpt lat="45.8890730253185" lon="3.1748112951921246"><ele>313.0</ele><time>2026-04-11T13:04:01Z</time></trkpt><trkpt lat="45.889077088182745" lon="3.174711930431342"><ele>313.0</ele><time>2026-04-11T13:04:02Z</time></trkpt><trkpt lat="45.88908293360728" lon="3.1746079782249255"><ele>313.0</ele><time>2026-04-11T13:04:02.999Z</time></trkpt><trkpt lat="45.889086909737166" lon="3.1745082159089817"><ele>313.0</ele><time>2026-04-11T13:04:03.999Z</time></trkpt><trkpt lat="45.88909063120826" lon="3.1744053506891325"><ele>313.0</ele><time>2026-04-11T13:04:04.999Z</time></trkpt><trkpt lat="45.88909345112396" lon="3.174305055580637"><ele>313.0</ele><time>2026-04-11T13:04:05.999Z</time></trkpt><trkpt lat="45.88909584919253" lon="3.1742041931821814"><ele>313.0</ele><time>2026-04-11T13:04:06.999Z</time></trkpt><trkpt lat="45.88909983268477" lon="3.174103439205331"><ele>313.0</ele><time>2026-04-11T13:04:07.999Z</time></trkpt><trkpt lat="45.889101240381684" lon="3.1740025550146687"><ele>313.0</ele><time>2026-04-11T13:04:08.999Z</time></trkpt><trkpt lat="45.88910299746695" lon="3.173902573511847"><ele>313.0</ele><time>2026-04-11T13:04:09.999Z</time></trkpt><trkpt lat="45.88910490073852" lon="3.173804354638422"><ele>313.0</ele><time>2026-04-11T13:04:10.999Z</time></trkpt><trkpt lat="45.88910762141916" lon="3.173703467601694"><ele>313.0</ele><time>2026-04-11T13:04:11.999Z</time></trkpt><trkpt lat="45.88911068967235" lon="3.173601299423168"><ele>313.0</ele><time>2026-04-11T13:04:12.999Z</time></trkpt><trkpt lat="45.889111207219884" lon="3.1734990081477075"><ele>313.0</ele><time>2026-04-11T13:04:13.999Z</time></trkpt><trkpt lat="45.88910924004661" lon="3.173396746034621"><ele>313.0</ele><time>2026-04-11T13:04:14.999Z</time></trkpt><trkpt lat="45.889109552001514" lon="3.173293803007791"><ele>313.0</ele><time>2026-04-11T13:04:15.999Z</time></trkpt><trkpt lat="45.889110775328525" lon="3.17319171852092"><ele>313.0</ele><time>2026-04-11T13:04:16.999Z</time></trkpt><trkpt lat="45.88910997145721" lon="3.1730901433863554"><ele>313.0</ele><time>2026-04-11T13:04:17.999Z</time></trkpt><trkpt lat="45.88910961918595" lon="3.172987377906169"><ele>313.0</ele><time>2026-04-11T13:04:18.999Z</time></trkpt><trkpt lat="45.889109859844964" lon="3.172883108463677"><ele>313.0</ele><time>2026-04-11T13:04:19.999Z</time></trkpt><trkpt lat="45.889108366706125" lon="3.172779436373199"><ele>313.0</ele><time>2026-04-11T13:04:21Z</time></trkpt><trkpt lat="45.88910717700497" lon="3.172676577370171"><ele>313.0</ele><time>2026-04-11T13:04:22Z</time></trkpt><trkpt lat="45.88910517644962" lon="3.172575813725507"><ele>313.0</ele><time>2026-04-11T13:04:23Z</time></trkpt><trkpt lat="45.889102516148284" lon="3.1724698623552356"><ele>313.0</ele><time>2026-04-11T13:04:24Z</time></trkpt><trkpt lat="45.889099370141125" lon="3.1723654117955933"><ele>313.0</ele><time>2026-04-11T13:04:25Z</time></trkpt><trkpt lat="45.889097493538316" lon="3.1722638700148407"><ele>313.0</ele><time>2026-04-11T13:04:26Z</time></trkpt><trkpt lat="45.88909503082795" lon="3.1721615521864774"><ele>313.0</ele><time>2026-04-11T13:04:27Z</time></trkpt><trkpt lat="45.889091372441726" lon="3.1720583278951144"><ele>313.0</ele><time>2026-04-11T13:04:28Z</time></trkpt><trkpt lat="45.8890871944296" lon="3.1719545165408602"><ele>313.0</ele><time>2026-04-11T13:04:29Z</time></trkpt><trkpt lat="45.889085588472696" lon="3.1718535643247563"><ele>313.0</ele><time>2026-04-11T13:04:30Z</time></trkpt><trkpt lat="45.889079096841826" lon="3.1717509647318636"><ele>313.0</ele><time>2026-04-11T13:04:31Z</time></trkpt><trkpt lat="45.88907488737867" lon="3.1716484198040975"><ele>313.0</ele><time>2026-04-11T13:04:32Z</time></trkpt><trkpt lat="45.889070045612314" lon="3.1715437699247713"><ele>313.0</ele><time>2026-04-11T13:04:33Z</time></trkpt><trkpt lat="45.88906484937623" lon="3.1714404646860723"><ele>313.0</ele><time>2026-04-11T13:04:34Z</time></trkpt><trkpt lat="45.88906075570509" lon="3.1713383380745928"><ele>313.0</ele><time>2026-04-11T13:04:35Z</time></trkpt><trkpt lat="45.88905463309258" lon="3.1712313738559"><ele>313.0</ele><time>2026-04-11T13:04:36Z</time></trkpt><trkpt lat="45.88905119784218" lon="3.1711269620330484"><ele>313.0</ele><time>2026-04-11T13:04:37Z</time></trkpt><trkpt lat="45.889046845684504" lon="3.1710202001677326"><ele>313.0</ele><time>2026-04-11T13:04:38Z</time></trkpt><trkpt lat="45.88904038686932" lon="3.170914876637436"><ele>313.0</ele><time>2026-04-11T13:04:39Z</time></trkpt><trkpt lat="45.8890342876263" lon="3.1708103722446084"><ele>313.0</ele><time>2026-04-11T13:04:40Z</time></trkpt><trkpt lat="45.889029188386374" lon="3.1707064000104586"><ele>313.0</ele><time>2026-04-11T13:04:41Z</time></trkpt><trkpt lat="45.88902421252824" lon="3.1706010134787226"><ele>313.0</ele><time>2026-04-11T13:04:42Z</time></trkpt><trkpt lat="45.88901681263677" lon="3.1704967079730935"><ele>313.0</ele><time>2026-04-11T13:04:43Z</time></trkpt><trkpt lat="45.88901064265065" lon="3.1703921477298347"><ele>313.0</ele><time>2026-04-11T13:04:44Z</time></trkpt><trkpt lat="45.889008723104304" lon="3.1702874774164096"><ele>313.0</ele><time>2026-04-11T13:04:45Z</time></trkpt><trkpt lat="45.889003806800766" lon="3.170182189467819"><ele>313.0</ele><time>2026-04-11T13:04:46Z</time></trkpt><trkpt lat="45.88899662525342" lon="3.1700795347071002"><ele>313.0</ele><time>2026-04-11T13:04:47Z</time></trkpt><trkpt lat="45.88899119456211" lon="3.169978822966357"><ele>313.0</ele><time>2026-04-11T13:04:48Z</time></trkpt><trkpt lat="45.88898769262635" lon="3.1698787222874465"><ele>313.0</ele><time>2026-04-11T13:04:49Z</time></trkpt><trkpt lat="45.888983085456246" lon="3.169775426710908"><ele>313.0</ele><time>2026-04-11T13:04:50Z</time></trkpt><trkpt lat="45.88897844032667" lon="3.1696744221287108"><ele>313.0</ele><time>2026-04-11T13:04:51Z</time></trkpt><trkpt lat="45.888973798749305" lon="3.169573974160724"><ele>313.0</ele><time>2026-04-11T13:04:52Z</time></trkpt><trkpt lat="45.888968355132235" lon="3.1694735827799922"><ele>313.0</ele><time>2026-04-11T13:04:53Z</time></trkpt><trkpt lat="45.888964830150265" lon="3.169374384091212"><ele>313.2857142857143</ele><time>2026-04-11T13:04:54Z</time></trkpt><trkpt lat="45.888959345296385" lon="3.1692746420690363"><ele>313.57142857142856</ele><time>2026-04-11T13:04:55Z</time></trkpt><trkpt lat="45.8889528319458" lon="3.1691732553760583"><ele>313.8571428571429</ele><time>2026-04-11T13:04:56Z</time></trkpt><trkpt lat="45.88895207460602" lon="3.1690742436844372"><ele>314.1428571428571</ele><time>2026-04-11T13:04:57Z</time></trkpt><trkpt lat="45.888946689689654" lon="3.1689745576928976"><ele>314.42857142857144</ele><time>2026-04-11T13:04:58Z</time></trkpt><trkpt lat="45.88894136433279" lon="3.1688750794329663"><ele>314.7142857142857</ele><time>2026-04-11T13:04:59Z</time></trkpt><trkpt lat="45.88893700854129" lon="3.168773990107866"><ele>315.0</ele><time>2026-04-11T13:05:00Z</time></trkpt><trkpt lat="45.888933079020084" lon="3.168676605612993"><ele>315.0</ele><time>2026-04-11T13:05:01Z</time></trkpt><trkpt lat="45.88892758055963" lon="3.1685782742484334"><ele>315.0</ele><time>2026-04-11T13:05:02Z</time></trkpt><trkpt lat="45.88892316302667" lon="3.168478986445922"><ele>315.0</ele><time>2026-04-11T13:05:03Z</time></trkpt><trkpt lat="45.88891842681573" lon="3.168381441082281"><ele>315.0</ele><time>2026-04-11T13:05:04Z</time></trkpt><trkpt lat="45.88891295437355" lon="3.1682837006641815"><ele>315.0</ele><time>2026-04-11T13:05:05Z</time></trkpt><trkpt lat="45.888907919648055" lon="3.1681842013001047"><ele>315.0</ele><time>2026-04-11T13:05:06Z</time></trkpt><trkpt lat="45.888902391318666" lon="3.1680858342335556"><ele>315.0</ele><time>2026-04-11T13:05:07Z</time></trkpt><trkpt lat="45.88889654810242" lon="3.1679863950098213"><ele>314.85714285714283</ele><time>2026-04-11T13:05:08Z</time></trkpt><trkpt lat="45.88889112097967" lon="3.1678861583687286"><ele>314.7142857142857</ele><time>2026-04-11T13:05:09Z</time></trkpt><trkpt lat="45.88888581010415" lon="3.1677848218766105"><ele>314.57142857142856</ele><time>2026-04-11T13:05:10Z</time></trkpt><trkpt lat="45.88888410020844" lon="3.167686687428632"><ele>314.42857142857144</ele><time>2026-04-11T13:05:11Z</time></trkpt><trkpt lat="45.88888117249351" lon="3.167585452089843"><ele>314.2857142857143</ele><time>2026-04-11T13:05:12Z</time></trkpt><trkpt lat="45.88887450059793" lon="3.167484878154215"><ele>314.1428571428571</ele><time>2026-04-11T13:05:13Z</time></trkpt><trkpt lat="45.888868929150554" lon="3.167384152846098"><ele>314.0</ele><time>2026-04-11T13:05:14Z</time></trkpt><trkpt lat="45.88886489322505" lon="3.167286991529389"><ele>313.99999999999994</ele><time>2026-04-11T13:05:15Z</time></trkpt><trkpt lat="45.88886075168106" lon="3.1671853529017535"><ele>314.0</ele><time>2026-04-11T13:05:16Z</time></trkpt><trkpt lat="45.8888542719534" lon="3.1670850919227833"><ele>314.0</ele><time>2026-04-11T13:05:17Z</time></trkpt><trkpt lat="45.888848061090634" lon="3.166981964751525"><ele>314.0</ele><time>2026-04-11T13:05:18Z</time></trkpt><trkpt lat="45.888842950137445" lon="3.1668827185057635"><ele>314.0</ele><time>2026-04-11T13:05:19Z</time></trkpt><trkpt lat="45.8888384300913" lon="3.166782610751926"><ele>313.99999999999994</ele><time>2026-04-11T13:05:20Z</time></trkpt><trkpt lat="45.88883380743834" lon="3.1666802004914127"><ele>314.0</ele><time>2026-04-11T13:05:21Z</time></trkpt><trkpt lat="45.888828298587015" lon="3.1665784908879653"><ele>314.1428571428571</ele><time>2026-04-11T13:05:22Z</time></trkpt><trkpt lat="45.888821640112404" lon="3.1664783808246475"><ele>314.2857142857143</ele><time>2026-04-11T13:05:23Z</time></trkpt><trkpt lat="45.88881760379188" lon="3.1663722583831704"><ele>314.42857142857144</ele><time>2026-04-11T13:05:24Z</time></trkpt><trkpt lat="45.88881167468576" lon="3.166270032056121"><ele>314.57142857142856</ele><time>2026-04-11T13:05:25Z</time></trkpt><trkpt lat="45.88880647569444" lon="3.166168098764087"><ele>314.7142857142857</ele><time>2026-04-11T13:05:26Z</time></trkpt><trkpt lat="45.888801445849204" lon="3.1660667543876326"><ele>314.85714285714283</ele><time>2026-04-11T13:05:27Z</time></trkpt><trkpt lat="45.888797450728326" lon="3.165965922112291"><ele>315.0</ele><time>2026-04-11T13:05:28Z</time></trkpt><trkpt lat="45.8887909624998" lon="3.165863675061337"><ele>315.0</ele><time>2026-04-11T13:05:29Z</time></trkpt><trkpt lat="45.88878436776116" lon="3.1657611057267685"><ele>315.0</ele><time>2026-04-11T13:05:30Z</time></trkpt><trkpt lat="45.888781018621565" lon="3.1656581914079402"><ele>315.0</ele><time>2026-04-11T13:05:31Z</time></trkpt><trkpt lat="45.888778207448404" lon="3.165555953526413"><ele>315.0</ele><time>2026-04-11T13:05:32Z</time></trkpt><trkpt lat="45.888773693356484" lon="3.1654562758880247"><ele>315.0</ele><time>2026-04-11T13:05:33Z</time></trkpt><trkpt lat="45.88876874205741" lon="3.1653557558622003"><ele>315.0</ele><time>2026-04-11T13:05:34Z</time></trkpt><trkpt lat="45.888764915373926" lon="3.1652556244353107"><ele>315.0</ele><time>2026-04-11T13:05:35Z</time></trkpt><trkpt lat="45.88875962689207" lon="3.165154390116891"><ele>315.0</ele><time>2026-04-11T13:05:36Z</time></trkpt><trkpt lat="45.8887545340357" lon="3.1650540242565715"><ele>315.0</ele><time>2026-04-11T13:05:37Z</time></trkpt><trkpt lat="45.88874868190821" lon="3.1649537553684075"><ele>315.0</ele><time>2026-04-11T13:05:38Z</time></trkpt><trkpt lat="45.88874087341531" lon="3.164853348573792"><ele>315.0</ele><time>2026-04-11T13:05:39Z</time></trkpt><trkpt lat="45.888737722471916" lon="3.164748582585794"><ele>315.0</ele><time>2026-04-11T13:05:40Z</time></trkpt><trkpt lat="45.88873403005557" lon="3.1646467291418"><ele>315.0</ele><time>2026-04-11T13:05:41Z</time></trkpt><trkpt lat="45.88872717093386" lon="3.164545887294843"><ele>315.0</ele><time>2026-04-11T13:05:42Z</time></trkpt><trkpt lat="45.88872294952153" lon="3.1644425792056365"><ele>315.0</ele><time>2026-04-11T13:05:43Z</time></trkpt><trkpt lat="45.888719293887945" lon="3.1643403080231876"><ele>315.0</ele><time>2026-04-11T13:05:44Z</time></trkpt><trkpt lat="45.88871275316489" lon="3.164240419242508"><ele>315.0</ele><time>2026-04-11T13:05:45Z</time></trkpt><trkpt lat="45.88870737955905" lon="3.1641393337546675"><ele>315.0</ele><time>2026-04-11T13:05:46Z</time></trkpt><trkpt lat="45.888701771887206" lon="3.1640404508366458"><ele>315.0</ele><time>2026-04-11T13:05:47Z</time></trkpt><trkpt lat="45.888697338740364" lon="3.163940632401386"><ele>315.0</ele><time>2026-04-11T13:05:48Z</time></trkpt><trkpt lat="45.888694310432165" lon="3.163841539108025"><ele>315.0</ele><time>2026-04-11T13:05:49Z</time></trkpt><trkpt lat="45.88868852339521" lon="3.1637390163748305"><ele>315.0</ele><time>2026-04-11T13:05:50Z</time></trkpt><trkpt lat="45.88868288131964" lon="3.163643316938934"><ele>315.0</ele><time>2026-04-11T13:05:51Z</time></trkpt><trkpt lat="45.88867647705278" lon="3.163547366015108"><ele>315.0</ele><time>2026-04-11T13:05:52Z</time></trkpt><trkpt lat="45.88867054419537" lon="3.1634478368218213"><ele>315.0</ele><time>2026-04-11T13:05:53Z</time></trkpt><trkpt lat="45.88866482159388" lon="3.1633500959162397"><ele>315.0</ele><time>2026-04-11T13:05:54Z</time></trkpt><trkpt lat="45.88866232984873" lon="3.16325323901222"><ele>315.0</ele><time>2026-04-11T13:05:55Z</time></trkpt><trkpt lat="45.88865807153203" lon="3.1631546841226235"><ele>315.0</ele><time>2026-04-11T13:05:56Z</time></trkpt><trkpt lat="45.88865073064718" lon="3.1630547189999367"><ele>315.0</ele><time>2026-04-11T13:05:57Z</time></trkpt><trkpt lat="45.88864608745302" lon="3.162954479066131"><ele>315.0</ele><time>2026-04-11T13:05:58Z</time></trkpt><trkpt lat="45.88864042495549" lon="3.162856334289903"><ele>315.0</ele><time>2026-04-11T13:05:59Z</time></trkpt><trkpt lat="45.88863737852785" lon="3.162757272517424"><ele>315.0</ele><time>2026-04-11T13:06:00Z</time></trkpt><trkpt lat="45.88863153402787" lon="3.1626584026343947"><ele>315.0</ele><time>2026-04-11T13:06:01Z</time></trkpt><trkpt lat="45.888627982325104" lon="3.162559244745901"><ele>315.0</ele><time>2026-04-11T13:06:02Z</time></trkpt><trkpt lat="45.888623775947224" lon="3.1624603349849942"><ele>315.0</ele><time>2026-04-11T13:06:03Z</time></trkpt><trkpt lat="45.88862128094003" lon="3.1623586009603644"><ele>315.14285714285717</ele><time>2026-04-11T13:06:04Z</time></trkpt><trkpt lat="45.88861828663325" lon="3.162257287498827"><ele>315.2857142857143</ele><time>2026-04-11T13:06:05Z</time></trkpt><trkpt lat="45.888615626720934" lon="3.1621530437010708"><ele>315.42857142857144</ele><time>2026-04-11T13:06:06Z</time></trkpt><trkpt lat="45.88861261821702" lon="3.162049518223479"><ele>315.57142857142856</ele><time>2026-04-11T13:06:07Z</time></trkpt><trkpt lat="45.88861289869375" lon="3.161947352387522"><ele>315.7142857142857</ele><time>2026-04-11T13:06:08Z</time></trkpt><trkpt lat="45.88861310246531" lon="3.161845526133957"><ele>315.8571428571429</ele><time>2026-04-11T13:06:09Z</time></trkpt><trkpt lat="45.88861531473132" lon="3.1617428647125223"><ele>316.0</ele><time>2026-04-11T13:06:10Z</time></trkpt><trkpt lat="45.88861765112016" lon="3.1616423952470325"><ele>316.00000000000006</ele><time>2026-04-11T13:06:11Z</time></trkpt><trkpt lat="45.88862262802485" lon="3.1615422553853314"><ele>316.0</ele><time>2026-04-11T13:06:12Z</time></trkpt><trkpt lat="45.888624327067916" lon="3.161440440854441"><ele>316.0</ele><time>2026-04-11T13:06:12.999Z</time></trkpt><trkpt lat="45.88862852208621" lon="3.1613390654461972"><ele>316.0</ele><time>2026-04-11T13:06:13.999Z</time></trkpt><trkpt lat="45.88863508206862" lon="3.161236588629231"><ele>316.0</ele><time>2026-04-11T13:06:14.999Z</time></trkpt><trkpt lat="45.888640220979" lon="3.1611377728763776"><ele>316.00000000000006</ele><time>2026-04-11T13:06:15.999Z</time></trkpt><trkpt lat="45.88864611008922" lon="3.161035657361596"><ele>316.0</ele><time>2026-04-11T13:06:16.999Z</time></trkpt><trkpt lat="45.88865270404398" lon="3.160932107303871"><ele>316.00000000000006</ele><time>2026-04-11T13:06:17.999Z</time></trkpt><trkpt lat="45.88865852829524" lon="3.1608276537088096"><ele>316.0</ele><time>2026-04-11T13:06:18.999Z</time></trkpt><trkpt lat="45.88866281882692" lon="3.1607247346552185"><ele>316.0</ele><time>2026-04-11T13:06:19.999Z</time></trkpt><trkpt lat="45.8886700690926" lon="3.160624291858737"><ele>316.0</ele><time>2026-04-11T13:06:20.999Z</time></trkpt><trkpt lat="45.88867765985738" lon="3.160523836897741"><ele>316.0</ele><time>2026-04-11T13:06:21.999Z</time></trkpt><trkpt lat="45.88868507519477" lon="3.160423628800286"><ele>316.00000000000006</ele><time>2026-04-11T13:06:22.999Z</time></trkpt><trkpt lat="45.88868820564282" lon="3.160320876346653"><ele>316.0</ele><time>2026-04-11T13:06:23.999Z</time></trkpt><trkpt lat="45.888692480144066" lon="3.1602202063076836"><ele>316.00000000000006</ele><time>2026-04-11T13:06:24.999Z</time></trkpt><trkpt lat="45.88869693061352" lon="3.160121909553109"><ele>316.0</ele><time>2026-04-11T13:06:25.999Z</time></trkpt><trkpt lat="45.888703590698164" lon="3.1600203256365913"><ele>316.0</ele><time>2026-04-11T13:06:27Z</time></trkpt><trkpt lat="45.88870610396041" lon="3.1599223600040456"><ele>316.0</ele><time>2026-04-11T13:06:28Z</time></trkpt><trkpt lat="45.88870990835684" lon="3.159823847722214"><ele>316.0</ele><time>2026-04-11T13:06:29Z</time></trkpt><trkpt lat="45.888709992003186" lon="3.1597258896524925"><ele>316.00000000000006</ele><time>2026-04-11T13:06:30Z</time></trkpt><trkpt lat="45.88871281186172" lon="3.159631305839537"><ele>316.0</ele><time>2026-04-11T13:06:31Z</time></trkpt><trkpt lat="45.88871271865404" lon="3.159538836590605"><ele>316.0</ele><time>2026-04-11T13:06:32Z</time></trkpt><trkpt lat="45.888714932657415" lon="3.1593617332084296"><ele>316.0</ele><time>2026-04-11T13:06:34Z</time></trkpt><trkpt lat="45.88871492147927" lon="3.1591835403263957"><ele>316.0</ele><time>2026-04-11T13:06:36Z</time></trkpt><trkpt lat="45.88871934559746" lon="3.1590034278513652"><ele>316.0</ele><time>2026-04-11T13:06:38Z</time></trkpt><trkpt lat="45.88871910674479" lon="3.158824555522544"><ele>316.16666666666663</ele><time>2026-04-11T13:06:40Z</time></trkpt><trkpt lat="45.88870995507548" lon="3.1586417677992906"><ele>316.3333333333333</ele><time>2026-04-11T13:06:42Z</time></trkpt><trkpt lat="45.888706280113034" lon="3.1585488756523517"><ele>316.5</ele><time>2026-04-11T13:06:43Z</time></trkpt><trkpt lat="45.88870169513318" lon="3.1584534973435074"><ele>316.6666666666667</ele><time>2026-04-11T13:06:44Z</time></trkpt><trkpt lat="45.88869354102103" lon="3.158360401467947"><ele>316.83333333333337</ele><time>2026-04-11T13:06:45Z</time></trkpt><trkpt lat="45.888685281944376" lon="3.1582682994062057"><ele>317.0</ele><time>2026-04-11T13:06:46Z</time></trkpt><trkpt lat="45.888680147101695" lon="3.1581741856259704"><ele>317.0</ele><time>2026-04-11T13:06:47Z</time></trkpt><trkpt lat="45.8886759842604" lon="3.1580813114164625"><ele>317.0</ele><time>2026-04-11T13:06:48Z</time></trkpt><trkpt lat="45.88867420398368" lon="3.1579870230177325"><ele>317.0</ele><time>2026-04-11T13:06:49Z</time></trkpt><trkpt lat="45.88866942341292" lon="3.1578915575512667"><ele>317.0</ele><time>2026-04-11T13:06:50Z</time></trkpt><trkpt lat="45.888661979635955" lon="3.157795472152258"><ele>317.0</ele><time>2026-04-11T13:06:51Z</time></trkpt><trkpt lat="45.888658073004585" lon="3.157700971564449"><ele>317.0</ele><time>2026-04-11T13:06:52Z</time></trkpt><trkpt lat="45.88865417145876" lon="3.157607798148952"><ele>317.0</ele><time>2026-04-11T13:06:53Z</time></trkpt><trkpt lat="45.88865494010331" lon="3.1575132582465404"><ele>317.0</ele><time>2026-04-11T13:06:54Z</time></trkpt><trkpt lat="45.88865586378167" lon="3.157419567263213"><ele>317.0</ele><time>2026-04-11T13:06:55Z</time></trkpt><trkpt lat="45.88865638543173" lon="3.1573247452469175"><ele>317.0</ele><time>2026-04-11T13:06:56Z</time></trkpt><trkpt lat="45.88865640549607" lon="3.1572321531913343"><ele>317.0</ele><time>2026-04-11T13:06:57Z</time></trkpt><trkpt lat="45.88866196896685" lon="3.157138162681485"><ele>317.0</ele><time>2026-04-11T13:06:58Z</time></trkpt><trkpt lat="45.88866399417989" lon="3.1570471190636584"><ele>317.0</ele><time>2026-04-11T13:06:59Z</time></trkpt><trkpt lat="45.888665579938916" lon="3.156954566342035"><ele>317.0</ele><time>2026-04-11T13:07:00Z</time></trkpt><trkpt lat="45.888675289347574" lon="3.156863190776987"><ele>317.0</ele><time>2026-04-11T13:07:01Z</time></trkpt><trkpt lat="45.88869011593993" lon="3.156686429866523"><ele>317.0</ele><time>2026-04-11T13:07:03Z</time></trkpt><trkpt lat="45.888702729704136" lon="3.1565142618936237"><ele>317.0</ele><time>2026-04-11T13:07:05Z</time></trkpt><trkpt lat="45.888714005852776" lon="3.156339961976945"><ele>317.0</ele><time>2026-04-11T13:07:07Z</time></trkpt><trkpt lat="45.8887240475427" lon="3.156168236822474"><ele>317.2</ele><time>2026-04-11T13:07:09Z</time></trkpt><trkpt lat="45.88872866828536" lon="3.1560002417695325"><ele>317.4</ele><time>2026-04-11T13:07:11Z</time></trkpt><trkpt lat="45.88873637013286" lon="3.1558434717395536"><ele>317.6</ele><time>2026-04-11T13:07:13Z</time></trkpt><trkpt lat="45.88873873144379" lon="3.1556895402068053"><ele>317.8</ele><time>2026-04-11T13:07:15Z</time></trkpt><trkpt lat="45.88873935326921" lon="3.1555413585911163"><ele>318.0</ele><time>2026-04-11T13:07:17Z</time></trkpt><trkpt lat="45.88874043676973" lon="3.1553963624470582"><ele>318.0</ele><time>2026-04-11T13:07:19Z</time></trkpt><trkpt lat="45.88873539400031" lon="3.155257833135139"><ele>318.0</ele><time>2026-04-11T13:07:21Z</time></trkpt><trkpt lat="45.888728035339135" lon="3.1551160354437675"><ele>318.0</ele><time>2026-04-11T13:07:23Z</time></trkpt><trkpt lat="45.88871748804857" lon="3.154972481677283"><ele>318.0</ele><time>2026-04-11T13:07:25Z</time></trkpt><trkpt lat="45.88870957381765" lon="3.154827459806579"><ele>318.0</ele><time>2026-04-11T13:07:27Z</time></trkpt><trkpt lat="45.88869726781225" lon="3.1546838178137304"><ele>318.2</ele><time>2026-04-11T13:07:29Z</time></trkpt><trkpt lat="45.88868152101819" lon="3.154541865672571"><ele>318.4</ele><time>2026-04-11T13:07:31Z</time></trkpt><trkpt lat="45.88866505239022" lon="3.1543973696424943"><ele>318.59999999999997</ele><time>2026-04-11T13:07:33Z</time></trkpt><trkpt lat="45.88864701881289" lon="3.1542553191617273"><ele>318.8</ele><time>2026-04-11T13:07:35Z</time></trkpt><trkpt lat="45.888623408482886" lon="3.1541074615297613"><ele>319.0</ele><time>2026-04-11T13:07:37Z</time></trkpt><trkpt lat="45.888603531921206" lon="3.1539639608247168"><ele>319.0</ele><time>2026-04-11T13:07:39Z</time></trkpt><trkpt lat="45.88858452336333" lon="3.1538237626241923"><ele>319.0</ele><time>2026-04-11T13:07:41Z</time></trkpt><trkpt lat="45.88856376663608" lon="3.153678229328763"><ele>319.0</ele><time>2026-04-11T13:07:43Z</time></trkpt><trkpt lat="45.88854531336328" lon="3.1535299465789657"><ele>319.0</ele><time>2026-04-11T13:07:45Z</time></trkpt><trkpt lat="45.88852527222327" lon="3.1533821546731824"><ele>319.0</ele><time>2026-04-11T13:07:47Z</time></trkpt><trkpt lat="45.888503197766084" lon="3.1532296188560847"><ele>319.2</ele><time>2026-04-11T13:07:49Z</time></trkpt><trkpt lat="45.888481449509165" lon="3.1530708046687113"><ele>319.4</ele><time>2026-04-11T13:07:51Z</time></trkpt><trkpt lat="45.88845631203837" lon="3.152904074149769"><ele>319.6</ele><time>2026-04-11T13:07:53Z</time></trkpt><trkpt lat="45.88842951263306" lon="3.1527347953793448"><ele>319.8</ele><time>2026-04-11T13:07:55Z</time></trkpt><trkpt lat="45.888416208445875" lon="3.1526428510626205"><ele>320.0</ele><time>2026-04-11T13:07:56Z</time></trkpt><trkpt lat="45.88839649824076" lon="3.1525547671698644"><ele>320.0</ele><time>2026-04-11T13:07:57Z</time></trkpt><trkpt lat="45.88837842409758" lon="3.1524625230417294"><ele>320.0</ele><time>2026-04-11T13:07:58Z</time></trkpt><trkpt lat="45.88836537928993" lon="3.1523684110456776"><ele>320.0</ele><time>2026-04-11T13:07:59Z</time></trkpt><trkpt lat="45.88834138235213" lon="3.152275574060211"><ele>320.0</ele><time>2026-04-11T13:08:00Z</time></trkpt><trkpt lat="45.8883177913065" lon="3.152181569803408"><ele>320.0</ele><time>2026-04-11T13:08:01Z</time></trkpt><trkpt lat="45.888293611803086" lon="3.1520830546031116"><ele>320.0</ele><time>2026-04-11T13:08:02Z</time></trkpt><trkpt lat="45.88827112897832" lon="3.1519861591586467"><ele>320.0</ele><time>2026-04-11T13:08:03Z</time></trkpt><trkpt lat="45.8882463630685" lon="3.151887586781611"><ele>319.8</ele><time>2026-04-11T13:08:04Z</time></trkpt><trkpt lat="45.88822292007287" lon="3.151782937742437"><ele>319.6</ele><time>2026-04-11T13:08:05Z</time></trkpt><trkpt lat="45.888192937400696" lon="3.1516796462607024"><ele>319.4</ele><time>2026-04-11T13:08:06Z</time></trkpt><trkpt lat="45.88813220762498" lon="3.151466398933582"><ele>319.2</ele><time>2026-04-11T13:08:08Z</time></trkpt><trkpt lat="45.88810271733726" lon="3.151354932840648"><ele>319.0</ele><time>2026-04-11T13:08:09Z</time></trkpt><trkpt lat="45.888076468091725" lon="3.151238555492051"><ele>318.8</ele><time>2026-04-11T13:08:10Z</time></trkpt><trkpt lat="45.88804669610693" lon="3.151121629713642"><ele>318.59999999999997</ele><time>2026-04-11T13:08:11Z</time></trkpt><trkpt lat="45.8879952075207" lon="3.15088080331046"><ele>318.4</ele><time>2026-04-11T13:08:13Z</time></trkpt><trkpt lat="45.88797314343818" lon="3.150755749768169"><ele>318.2</ele><time>2026-04-11T13:08:14Z</time></trkpt><trkpt lat="45.88794812709385" lon="3.150630804849007"><ele>318.0</ele><time>2026-04-11T13:08:15Z</time></trkpt><trkpt lat="45.88792832594662" lon="3.150502597571344"><ele>318.0</ele><time>2026-04-11T13:08:16Z</time></trkpt><trkpt lat="45.88791260385098" lon="3.1503767769656013"><ele>318.0</ele><time>2026-04-11T13:08:17Z</time></trkpt><trkpt lat="45.88789470828887" lon="3.1502530836304796"><ele>318.0</ele><time>2026-04-11T13:08:18Z</time></trkpt><trkpt lat="45.88788027280184" lon="3.1501308898145703"><ele>318.0</ele><time>2026-04-11T13:08:19Z</time></trkpt><trkpt lat="45.88786683360238" lon="3.150010380004638"><ele>318.0</ele><time>2026-04-11T13:08:20Z</time></trkpt><trkpt lat="45.887854717331884" lon="3.149891038460077"><ele>318.0</ele><time>2026-04-11T13:08:21Z</time></trkpt><trkpt lat="45.88784573566297" lon="3.14977310075646"><ele>318.0</ele><time>2026-04-11T13:08:22Z</time></trkpt><trkpt lat="45.88783664320801" lon="3.1496565150662037"><ele>318.0</ele><time>2026-04-11T13:08:23Z</time></trkpt><trkpt lat="45.88782781703062" lon="3.1495406301597546"><ele>318.0</ele><time>2026-04-11T13:08:24Z</time></trkpt><trkpt lat="45.88782514310098" lon="3.149424990458119"><ele>318.0</ele><time>2026-04-11T13:08:25Z</time></trkpt><trkpt lat="45.88781874269011" lon="3.1493091674382963"><ele>318.0</ele><time>2026-04-11T13:08:26Z</time></trkpt><trkpt lat="45.88781215160876" lon="3.1491928001681417"><ele>318.0</ele><time>2026-04-11T13:08:27Z</time></trkpt><trkpt lat="45.88780415470739" lon="3.1490780362700206"><ele>318.0</ele><time>2026-04-11T13:08:28Z</time></trkpt><trkpt lat="45.887800134861074" lon="3.148968219494595"><ele>318.0</ele><time>2026-04-11T13:08:29Z</time></trkpt><trkpt lat="45.88779328712731" lon="3.1488505481672324"><ele>318.0</ele><time>2026-04-11T13:08:30Z</time></trkpt><trkpt lat="45.887786855404165" lon="3.1487415776223395"><ele>318.0</ele><time>2026-04-11T13:08:31Z</time></trkpt><trkpt lat="45.887780359430934" lon="3.1486307929764754"><ele>318.0</ele><time>2026-04-11T13:08:32Z</time></trkpt><trkpt lat="45.88777706611044" lon="3.148521955757189"><ele>318.0</ele><time>2026-04-11T13:08:33Z</time></trkpt><trkpt lat="45.88777103074029" lon="3.148413596072975"><ele>318.0</ele><time>2026-04-11T13:08:34Z</time></trkpt><trkpt lat="45.88776621778841" lon="3.1483055526875074"><ele>318.0</ele><time>2026-04-11T13:08:35Z</time></trkpt><trkpt lat="45.88776026247758" lon="3.1481996013847504"><ele>318.0</ele><time>2026-04-11T13:08:36Z</time></trkpt><trkpt lat="45.88775375738696" lon="3.1480964273102625"><ele>318.0</ele><time>2026-04-11T13:08:37Z</time></trkpt><trkpt lat="45.88774579106385" lon="3.1479936633109813"><ele>318.0</ele><time>2026-04-11T13:08:38Z</time></trkpt><trkpt lat="45.88774107939471" lon="3.147890927463466"><ele>318.0</ele><time>2026-04-11T13:08:39Z</time></trkpt><trkpt lat="45.8877386711753" lon="3.1477896710781166"><ele>318.0</ele><time>2026-04-11T13:08:40Z</time></trkpt><trkpt lat="45.887733122930484" lon="3.1476885124489162"><ele>317.85714285714283</ele><time>2026-04-11T13:08:41Z</time></trkpt><trkpt lat="45.8877288535433" lon="3.1475876191296606"><ele>317.7142857142857</ele><time>2026-04-11T13:08:42Z</time></trkpt><trkpt lat="45.887727138350826" lon="3.1474859430355444"><ele>317.57142857142856</ele><time>2026-04-11T13:08:43Z</time></trkpt><trkpt lat="45.88772583219977" lon="3.1473847559132326"><ele>317.42857142857144</ele><time>2026-04-11T13:08:44Z</time></trkpt><trkpt lat="45.887722679534825" lon="3.1472885522386203"><ele>317.2857142857143</ele><time>2026-04-11T13:08:45Z</time></trkpt><trkpt lat="45.88772812210829" lon="3.1471900793167364"><ele>317.14285714285717</ele><time>2026-04-11T13:08:46Z</time></trkpt><trkpt lat="45.88774076793943" lon="3.147094761850101"><ele>317.0</ele><time>2026-04-11T13:08:47Z</time></trkpt><trkpt lat="45.88775956836509" lon="3.1470038093166637"><ele>317.0</ele><time>2026-04-11T13:08:48Z</time></trkpt><trkpt lat="45.88777992071826" lon="3.1469155269510467"><ele>317.0</ele><time>2026-04-11T13:08:49Z</time></trkpt><trkpt lat="45.88781147141335" lon="3.1468350382396295"><ele>317.0</ele><time>2026-04-11T13:08:50Z</time></trkpt><trkpt lat="45.88786378603209" lon="3.1467760019608693"><ele>317.0</ele><time>2026-04-11T13:08:51Z</time></trkpt><trkpt lat="45.887923838706406" lon="3.14673371790576"><ele>317.0</ele><time>2026-04-11T13:08:52Z</time></trkpt><trkpt lat="45.888014251328826" lon="3.1466326153921127"><ele>317.0</ele><time>2026-04-11T13:08:54Z</time></trkpt><trkpt lat="45.88799706723182" lon="3.146491368030549"><ele>317.0</ele><time>2026-04-11T13:08:55Z</time></trkpt><trkpt lat="45.887975175232484" lon="3.146403081731931"><ele>317.0</ele><time>2026-04-11T13:08:56Z</time></trkpt><trkpt lat="45.887932415271386" lon="3.1463299499160273"><ele>317.0</ele><time>2026-04-11T13:08:57Z</time></trkpt><trkpt lat="45.887877960699754" lon="3.1462783541085573"><ele>317.0</ele><time>2026-04-11T13:08:58Z</time></trkpt><trkpt lat="45.88781313873589" lon="3.146270550484472"><ele>317.0</ele><time>2026-04-11T13:08:59Z</time></trkpt><trkpt lat="45.887717443776395" lon="3.146130490847683"><ele>317.0</ele><time>2026-04-11T13:09:01Z</time></trkpt><trkpt lat="45.88768503797749" lon="3.1460475886259474"><ele>317.0</ele><time>2026-04-11T13:09:02Z</time></trkpt><trkpt lat="45.887651663727404" lon="3.1458671233763695"><ele>317.0</ele><time>2026-04-11T13:09:04Z</time></trkpt><trkpt lat="45.887639577047544" lon="3.145776727658297"><ele>317.0</ele><time>2026-04-11T13:09:05Z</time></trkpt><trkpt lat="45.887626964099745" lon="3.1456845177451154"><ele>317.0</ele><time>2026-04-11T13:09:06Z</time></trkpt><trkpt lat="45.88762152735832" lon="3.1455893203480443"><ele>317.0</ele><time>2026-04-11T13:09:07Z</time></trkpt><trkpt lat="45.88761382279161" lon="3.145493560245919"><ele>317.0</ele><time>2026-04-11T13:09:08Z</time></trkpt><trkpt lat="45.88760646268775" lon="3.145399162032806"><ele>317.14285714285717</ele><time>2026-04-11T13:09:09Z</time></trkpt><trkpt lat="45.88759845058808" lon="3.145302860270551"><ele>317.2857142857143</ele><time>2026-04-11T13:09:10Z</time></trkpt><trkpt lat="45.887592957261745" lon="3.145207586947679"><ele>317.42857142857144</ele><time>2026-04-11T13:09:11Z</time></trkpt><trkpt lat="45.88758676550659" lon="3.1451131296870334"><ele>317.57142857142856</ele><time>2026-04-11T13:09:12Z</time></trkpt><trkpt lat="45.88757912320813" lon="3.145019487080018"><ele>317.7142857142857</ele><time>2026-04-11T13:09:13Z</time></trkpt><trkpt lat="45.8875738280005" lon="3.1449259950291757"><ele>317.85714285714283</ele><time>2026-04-11T13:09:14Z</time></trkpt><trkpt lat="45.88756765935354" lon="3.1448326041177403"><ele>318.0</ele><time>2026-04-11T13:09:15Z</time></trkpt><trkpt lat="45.88756116600802" lon="3.1447369122138817"><ele>318.0</ele><time>2026-04-11T13:09:16Z</time></trkpt><trkpt lat="45.88755411780119" lon="3.1446419875090523"><ele>318.0</ele><time>2026-04-11T13:09:17Z</time></trkpt><trkpt lat="45.88754759140998" lon="3.1445481216352182"><ele>318.0</ele><time>2026-04-11T13:09:18Z</time></trkpt><trkpt lat="45.887542079746574" lon="3.144454885241287"><ele>318.0</ele><time>2026-04-11T13:09:19Z</time></trkpt><trkpt lat="45.88753378246678" lon="3.144358334487963"><ele>318.0</ele><time>2026-04-11T13:09:20Z</time></trkpt><trkpt lat="45.88752816773604" lon="3.1442650329352952"><ele>318.0</ele><time>2026-04-11T13:09:21Z</time></trkpt><trkpt lat="45.88752073433883" lon="3.144169576706481"><ele>318.0</ele><time>2026-04-11T13:09:22Z</time></trkpt><trkpt lat="45.887515996623" lon="3.1440758773391133"><ele>317.57142857142856</ele><time>2026-04-11T13:09:23Z</time></trkpt><trkpt lat="45.88750984434485" lon="3.143979816130579"><ele>317.14285714285717</ele><time>2026-04-11T13:09:24Z</time></trkpt><trkpt lat="45.887503420129036" lon="3.1438859544064073"><ele>316.7142857142857</ele><time>2026-04-11T13:09:25Z</time></trkpt><trkpt lat="45.887495250262035" lon="3.1437918437738857"><ele>316.2857142857143</ele><time>2026-04-11T13:09:26Z</time></trkpt><trkpt lat="45.88748856320581" lon="3.143698608937605"><ele>315.8571428571429</ele><time>2026-04-11T13:09:27Z</time></trkpt><trkpt lat="45.887482773797785" lon="3.1436047042208815"><ele>315.42857142857144</ele><time>2026-04-11T13:09:28Z</time></trkpt><trkpt lat="45.887475875008946" lon="3.1435136638896184"><ele>315.0</ele><time>2026-04-11T13:09:29Z</time></trkpt><trkpt lat="45.88747125973343" lon="3.1434193409666107"><ele>315.0</ele><time>2026-04-11T13:09:30Z</time></trkpt><trkpt lat="45.88746882334364" lon="3.1433246937800785"><ele>315.0</ele><time>2026-04-11T13:09:31Z</time></trkpt><trkpt lat="45.88746425818315" lon="3.143231975317115"><ele>315.0</ele><time>2026-04-11T13:09:32Z</time></trkpt><trkpt lat="45.88746026321907" lon="3.1431371584302306"><ele>315.0</ele><time>2026-04-11T13:09:33Z</time></trkpt><trkpt lat="45.88745753032403" lon="3.143041787119229"><ele>315.0</ele><time>2026-04-11T13:09:34Z</time></trkpt><trkpt lat="45.88745592727316" lon="3.1429464945108054"><ele>315.0</ele><time>2026-04-11T13:09:35Z</time></trkpt><trkpt lat="45.88745466702506" lon="3.1428523792351886"><ele>315.0</ele><time>2026-04-11T13:09:36Z</time></trkpt><trkpt lat="45.88745159528722" lon="3.1427551267531824"><ele>315.0</ele><time>2026-04-11T13:09:37Z</time></trkpt><trkpt lat="45.88745184535729" lon="3.1426591907845376"><ele>315.0</ele><time>2026-04-11T13:09:38Z</time></trkpt><trkpt lat="45.887452357401386" lon="3.142565872248354"><ele>315.0</ele><time>2026-04-11T13:09:39Z</time></trkpt><trkpt lat="45.88745451802127" lon="3.142471168859244"><ele>315.0</ele><time>2026-04-11T13:09:40Z</time></trkpt><trkpt lat="45.88746111356589" lon="3.142377389606452"><ele>315.0</ele><time>2026-04-11T13:09:41Z</time></trkpt><trkpt lat="45.88746531546161" lon="3.1422832825392444"><ele>315.0</ele><time>2026-04-11T13:09:42Z</time></trkpt><trkpt lat="45.887470188764226" lon="3.142188390065586"><ele>315.0</ele><time>2026-04-11T13:09:43Z</time></trkpt><trkpt lat="45.88747651403073" lon="3.1420958814209863"><ele>315.42857142857144</ele><time>2026-04-11T13:09:44Z</time></trkpt><trkpt lat="45.88748343270216" lon="3.1420021350068383"><ele>315.8571428571429</ele><time>2026-04-11T13:09:45Z</time></trkpt><trkpt lat="45.8874924531701" lon="3.1419095595060003"><ele>316.2857142857143</ele><time>2026-04-11T13:09:46Z</time></trkpt><trkpt lat="45.88750142767732" lon="3.141817965744757"><ele>316.7142857142857</ele><time>2026-04-11T13:09:47Z</time></trkpt><trkpt lat="45.88751287574792" lon="3.1417258979347165"><ele>317.14285714285717</ele><time>2026-04-11T13:09:48Z</time></trkpt><trkpt lat="45.88752468958568" lon="3.1416328943291396"><ele>317.57142857142856</ele><time>2026-04-11T13:09:49Z</time></trkpt><trkpt lat="45.887536023646696" lon="3.1415431716692703"><ele>318.0</ele><time>2026-04-11T13:09:50Z</time></trkpt><trkpt lat="45.887549657443564" lon="3.1414529989657707"><ele>318.1428571428571</ele><time>2026-04-11T13:09:51Z</time></trkpt><trkpt lat="45.887563665141656" lon="3.141361460059138"><ele>318.28571428571433</ele><time>2026-04-11T13:09:52Z</time></trkpt><trkpt lat="45.88757915892531" lon="3.1412719400723477"><ele>318.42857142857144</ele><time>2026-04-11T13:09:53Z</time></trkpt><trkpt lat="45.88759639419139" lon="3.1411827997390067"><ele>318.57142857142856</ele><time>2026-04-11T13:09:54Z</time></trkpt><trkpt lat="45.887615056412855" lon="3.1410947524241712"><ele>318.71428571428567</ele><time>2026-04-11T13:09:55Z</time></trkpt><trkpt lat="45.88763380710681" lon="3.1410049556569293"><ele>318.8571428571429</ele><time>2026-04-11T13:09:56Z</time></trkpt><trkpt lat="45.887651279896644" lon="3.140915750760495"><ele>319.0</ele><time>2026-04-11T13:09:57Z</time></trkpt><trkpt lat="45.88767056096227" lon="3.140825889373355"><ele>319.14285714285717</ele><time>2026-04-11T13:09:58Z</time></trkpt><trkpt lat="45.8876918850099" lon="3.1407372240415556"><ele>319.2857142857143</ele><time>2026-04-11T13:09:59Z</time></trkpt><trkpt lat="45.88771247302752" lon="3.1406488143480202"><ele>319.42857142857144</ele><time>2026-04-11T13:10:00Z</time></trkpt><trkpt lat="45.88773420112394" lon="3.1405606096352265"><ele>319.57142857142856</ele><time>2026-04-11T13:10:01Z</time></trkpt><trkpt lat="45.887756343126135" lon="3.1404753937756276"><ele>319.7142857142857</ele><time>2026-04-11T13:10:02Z</time></trkpt><trkpt lat="45.88777916585274" lon="3.14038852058609"><ele>319.85714285714283</ele><time>2026-04-11T13:10:03Z</time></trkpt><trkpt lat="45.88780306449699" lon="3.140302686019441"><ele>320.0</ele><time>2026-04-11T13:10:04Z</time></trkpt><trkpt lat="45.88782675008918" lon="3.1402186823740563"><ele>320.2857142857143</ele><time>2026-04-11T13:10:05Z</time></trkpt><trkpt lat="45.88785052681777" lon="3.1401333863349783"><ele>320.57142857142856</ele><time>2026-04-11T13:10:06Z</time></trkpt><trkpt lat="45.887905432891834" lon="3.1399703139564052"><ele>320.8571428571429</ele><time>2026-04-11T13:10:08Z</time></trkpt><trkpt lat="45.88793384843104" lon="3.139888373740279"><ele>321.1428571428571</ele><time>2026-04-11T13:10:09Z</time></trkpt><trkpt lat="45.887962605163395" lon="3.1398077710503483"><ele>321.42857142857144</ele><time>2026-04-11T13:10:10Z</time></trkpt><trkpt lat="45.8879919242511" lon="3.139725130632813"><ele>321.7142857142857</ele><time>2026-04-11T13:10:11Z</time></trkpt><trkpt lat="45.888022643081804" lon="3.1396448008058035"><ele>322.0</ele><time>2026-04-11T13:10:12Z</time></trkpt><trkpt lat="45.888054857072" lon="3.1395658094110552"><ele>322.0</ele><time>2026-04-11T13:10:13Z</time></trkpt><trkpt lat="45.88808894176109" lon="3.139487617603132"><ele>322.0</ele><time>2026-04-11T13:10:14Z</time></trkpt><trkpt lat="45.88812166880204" lon="3.1394048788210798"><ele>322.0</ele><time>2026-04-11T13:10:15Z</time></trkpt><trkpt lat="45.88815663997656" lon="3.139325509749955"><ele>322.0</ele><time>2026-04-11T13:10:16Z</time></trkpt><trkpt lat="45.8881906244678" lon="3.1392473964058976"><ele>322.0</ele><time>2026-04-11T13:10:17Z</time></trkpt><trkpt lat="45.88822507762698" lon="3.1391693066174446"><ele>322.0</ele><time>2026-04-11T13:10:18Z</time></trkpt><trkpt lat="45.888261516448345" lon="3.1390925414895245"><ele>322.0</ele><time>2026-04-11T13:10:19Z</time></trkpt><trkpt lat="45.88830057486547" lon="3.1390182545440632"><ele>322.0</ele><time>2026-04-11T13:10:20Z</time></trkpt><trkpt lat="45.88834141771356" lon="3.1389491080045375"><ele>322.0</ele><time>2026-04-11T13:10:21Z</time></trkpt><trkpt lat="45.888379267357536" lon="3.1388727157808742"><ele>322.0</ele><time>2026-04-11T13:10:22Z</time></trkpt><trkpt lat="45.8884146560963" lon="3.138796490628578"><ele>322.0</ele><time>2026-04-11T13:10:23Z</time></trkpt><trkpt lat="45.88845161538369" lon="3.138721711983044"><ele>322.0</ele><time>2026-04-11T13:10:24Z</time></trkpt><trkpt lat="45.88849080248247" lon="3.1386507871433658"><ele>322.0</ele><time>2026-04-11T13:10:25Z</time></trkpt><trkpt lat="45.88852915409385" lon="3.1385777682724734"><ele>322.0</ele><time>2026-04-11T13:10:26Z</time></trkpt><trkpt lat="45.88860266704163" lon="3.1384336028283135"><ele>322.40000000000003</ele><time>2026-04-11T13:10:28Z</time></trkpt><trkpt lat="45.88867132323995" lon="3.138286776603617"><ele>322.8</ele><time>2026-04-11T13:10:30Z</time></trkpt><trkpt lat="45.888739226472936" lon="3.138141921855978"><ele>323.2</ele><time>2026-04-11T13:10:32Z</time></trkpt><trkpt lat="45.88880911684144" lon="3.137994261500581"><ele>323.6</ele><time>2026-04-11T13:10:33.999Z</time></trkpt><trkpt lat="45.88884260743697" lon="3.137914334619887"><ele>324.0</ele><time>2026-04-11T13:10:34.999Z</time></trkpt><trkpt lat="45.8888746315916" lon="3.137834889893158"><ele>324.2</ele><time>2026-04-11T13:10:35.999Z</time></trkpt><trkpt lat="45.88891876988229" lon="3.137769813936412"><ele>324.4</ele><time>2026-04-11T13:10:36.999Z</time></trkpt><trkpt lat="45.888977495907945" lon="3.1376152392138112"><ele>324.6</ele><time>2026-04-11T13:10:39Z</time></trkpt><trkpt lat="45.889039014005704" lon="3.137467541020755"><ele>324.8</ele><time>2026-04-11T13:10:41Z</time></trkpt><trkpt lat="45.8891015150228" lon="3.1373177435382114"><ele>325.0</ele><time>2026-04-11T13:10:43Z</time></trkpt><trkpt lat="45.88916396916631" lon="3.1371685975367365"><ele>325.0</ele><time>2026-04-11T13:10:45Z</time></trkpt><trkpt lat="45.88924401744708" lon="3.13704028465727"><ele>325.0</ele><time>2026-04-11T13:10:47Z</time></trkpt><trkpt lat="45.889318659869694" lon="3.1369007170886363"><ele>325.0</ele><time>2026-04-11T13:10:49Z</time></trkpt><trkpt lat="45.88938006037769" lon="3.1367553901900047"><ele>325.0</ele><time>2026-04-11T13:10:51Z</time></trkpt><trkpt lat="45.88944113433864" lon="3.136613833669789"><ele>324.5</ele><time>2026-04-11T13:10:53Z</time></trkpt><trkpt lat="45.88950407725826" lon="3.1364712667622467"><ele>324.0</ele><time>2026-04-11T13:10:55Z</time></trkpt><trkpt lat="45.88955703632981" lon="3.136322600907717"><ele>323.5</ele><time>2026-04-11T13:10:57Z</time></trkpt><trkpt lat="45.88960511244607" lon="3.136175571615162"><ele>323.0</ele><time>2026-04-11T13:10:59Z</time></trkpt><trkpt lat="45.88964848180632" lon="3.13604145601858"><ele>323.0</ele><time>2026-04-11T13:11:01Z</time></trkpt><trkpt lat="45.88966992696631" lon="3.1359285120595186"><ele>323.0</ele><time>2026-04-11T13:11:03Z</time></trkpt><trkpt lat="45.8897541820891" lon="3.135911826714525"><ele>323.0</ele><time>2026-04-11T13:11:04Z</time></trkpt><trkpt lat="45.88985573014908" lon="3.135865666799758"><ele>323.0</ele><time>2026-04-11T13:11:06Z</time></trkpt><trkpt lat="45.88994000398838" lon="3.1357690934801488"><ele>323.0</ele><time>2026-04-11T13:11:08Z</time></trkpt><trkpt lat="45.88999487152915" lon="3.1356351746939746"><ele>323.2</ele><time>2026-04-11T13:11:10Z</time></trkpt><trkpt lat="45.89002081526076" lon="3.135484740360731"><ele>323.4</ele><time>2026-04-11T13:11:12Z</time></trkpt><trkpt lat="45.89001670871775" lon="3.135333953997482"><ele>323.59999999999997</ele><time>2026-04-11T13:11:14Z</time></trkpt><trkpt lat="45.88998078040785" lon="3.1351979485276233"><ele>323.79999999999995</ele><time>2026-04-11T13:11:16Z</time></trkpt><trkpt lat="45.89001702834242" lon="3.1351130473886792"><ele>324.0</ele><time>2026-04-11T13:11:17Z</time></trkpt><trkpt lat="45.89008007848253" lon="3.134985542626471"><ele>325.0</ele><time>2026-04-11T13:11:19Z</time></trkpt><trkpt lat="45.89016047515684" lon="3.1348790903731176"><ele>326.0</ele><time>2026-04-11T13:11:21Z</time></trkpt><trkpt lat="45.89021022808154" lon="3.1347406251078342"><ele>327.0</ele><time>2026-04-11T13:11:23Z</time></trkpt><trkpt lat="45.89026933672277" lon="3.1346917748470644"><ele>328.0</ele><time>2026-04-11T13:11:24Z</time></trkpt><trkpt lat="45.89033480110397" lon="3.1345540487440324"><ele>329.0</ele><time>2026-04-11T13:11:26Z</time></trkpt><trkpt lat="45.8903968757409" lon="3.1344106679365424"><ele>329.0</ele><time>2026-04-11T13:11:28Z</time></trkpt><trkpt lat="45.89046050723223" lon="3.1342705163270255"><ele>329.0</ele><time>2026-04-11T13:11:30Z</time></trkpt><trkpt lat="45.89052637015748" lon="3.134128530476972"><ele>329.0</ele><time>2026-04-11T13:11:32Z</time></trkpt><trkpt lat="45.8905909655872" lon="3.133994152466942"><ele>329.0</ele><time>2026-04-11T13:11:34Z</time></trkpt><trkpt lat="45.89065313094351" lon="3.1338512068730267"><ele>328.5</ele><time>2026-04-11T13:11:36Z</time></trkpt><trkpt lat="45.890715092709634" lon="3.133707823963749"><ele>328.0</ele><time>2026-04-11T13:11:38Z</time></trkpt><trkpt lat="45.89078092456832" lon="3.1335677090391596"><ele>327.5</ele><time>2026-04-11T13:11:40Z</time></trkpt><trkpt lat="45.89084665750175" lon="3.1334274365918544"><ele>327.0</ele><time>2026-04-11T13:11:42Z</time></trkpt><trkpt lat="45.89090728707723" lon="3.133286426910084"><ele>326.75</ele><time>2026-04-11T13:11:44Z</time></trkpt><trkpt lat="45.89097014912494" lon="3.1331438837257317"><ele>326.5</ele><time>2026-04-11T13:11:46Z</time></trkpt><trkpt lat="45.89103859186478" lon="3.1330046842564436"><ele>326.25</ele><time>2026-04-11T13:11:47.999Z</time></trkpt><trkpt lat="45.891107365596746" lon="3.1328604791345587"><ele>326.0</ele><time>2026-04-11T13:11:49.999Z</time></trkpt><trkpt lat="45.89117668121388" lon="3.1327179374113965"><ele>326.0</ele><time>2026-04-11T13:11:51.999Z</time></trkpt><trkpt lat="45.891242984182036" lon="3.1325859170627814"><ele>326.0</ele><time>2026-04-11T13:11:53.999Z</time></trkpt><trkpt lat="45.891306852979476" lon="3.1324630745121986"><ele>326.0</ele><time>2026-04-11T13:11:55.999Z</time></trkpt><trkpt lat="45.8913694257253" lon="3.132347281360433"><ele>326.0</ele><time>2026-04-11T13:11:57.999Z</time></trkpt><trkpt lat="45.89144230511226" lon="3.132231657334125"><ele>326.0</ele><time>2026-04-11T13:11:59.999Z</time></trkpt><trkpt lat="45.891514878336096" lon="3.132114117045446"><ele>326.0</ele><time>2026-04-11T13:12:01.999Z</time></trkpt><trkpt lat="45.89158365905527" lon="3.131992818757419"><ele>326.0</ele><time>2026-04-11T13:12:03.999Z</time></trkpt><trkpt lat="45.891657887023655" lon="3.1318760895121045"><ele>326.0</ele><time>2026-04-11T13:12:05.999Z</time></trkpt><trkpt lat="45.89172950537241" lon="3.1317546481903817"><ele>326.0</ele><time>2026-04-11T13:12:07.999Z</time></trkpt><trkpt lat="45.89180387758417" lon="3.1316331664721715"><ele>326.0</ele><time>2026-04-11T13:12:09.999Z</time></trkpt><trkpt lat="45.89187804139793" lon="3.131511676171982"><ele>326.25</ele><time>2026-04-11T13:12:11.999Z</time></trkpt><trkpt lat="45.89195202423288" lon="3.1313899500617333"><ele>326.5</ele><time>2026-04-11T13:12:13.999Z</time></trkpt><trkpt lat="45.89202666110789" lon="3.131268447113095"><ele>326.75</ele><time>2026-04-11T13:12:15.999Z</time></trkpt><trkpt lat="45.892103524132715" lon="3.131146773862668"><ele>327.0</ele><time>2026-04-11T13:12:17.999Z</time></trkpt><trkpt lat="45.89218051030397" lon="3.1310211723632277"><ele>327.0</ele><time>2026-04-11T13:12:19.999Z</time></trkpt><trkpt lat="45.89225871645321" lon="3.130893422179364"><ele>327.0</ele><time>2026-04-11T13:12:21.999Z</time></trkpt><trkpt lat="45.89233866012266" lon="3.1307710680292256"><ele>327.0</ele><time>2026-04-11T13:12:23.999Z</time></trkpt><trkpt lat="45.89241171636686" lon="3.1306413017417785"><ele>327.0</ele><time>2026-04-11T13:12:25.999Z</time></trkpt><trkpt lat="45.892498575535335" lon="3.1305304669602805"><ele>327.0</ele><time>2026-04-11T13:12:27.999Z</time></trkpt><trkpt lat="45.89257310711654" lon="3.130409640574533"><ele>327.0</ele><time>2026-04-11T13:12:29.999Z</time></trkpt><trkpt lat="45.8926301115539" lon="3.130285865303097"><ele>327.0</ele><time>2026-04-11T13:12:31.999Z</time></trkpt><trkpt lat="45.89269214031445" lon="3.13018691650713"><ele>327.0</ele><time>2026-04-11T13:12:33.999Z</time></trkpt><trkpt lat="45.89275629751206" lon="3.1301126625499287"><ele>327.0</ele><time>2026-04-11T13:12:35.999Z</time></trkpt><trkpt lat="45.89279658239254" lon="3.1300228296121193"><ele>327.40000000000003</ele><time>2026-04-11T13:12:37.999Z</time></trkpt><trkpt lat="45.89284849937901" lon="3.1299365087476367"><ele>327.8</ele><time>2026-04-11T13:12:39.999Z</time></trkpt><trkpt lat="45.89290846975089" lon="3.129842294047601"><ele>328.2</ele><time>2026-04-11T13:12:41.999Z</time></trkpt><trkpt lat="45.89297271811952" lon="3.129739102406192"><ele>328.6</ele><time>2026-04-11T13:12:43.999Z</time></trkpt><trkpt lat="45.893037239000705" lon="3.1296323200848817"><ele>329.0</ele><time>2026-04-11T13:12:45.999Z</time></trkpt><trkpt lat="45.8931021849916" lon="3.1295276334750715"><ele>329.4</ele><time>2026-04-11T13:12:47.999Z</time></trkpt><trkpt lat="45.893162101639604" lon="3.1294285232589507"><ele>329.79999999999995</ele><time>2026-04-11T13:12:49.999Z</time></trkpt><trkpt lat="45.89322543466906" lon="3.1293514041982404"><ele>330.20000000000005</ele><time>2026-04-11T13:12:51.999Z</time></trkpt><trkpt lat="45.89327732763042" lon="3.1292470255390428"><ele>330.6</ele><time>2026-04-11T13:12:53.999Z</time></trkpt><trkpt lat="45.893337735459994" lon="3.129139517413172"><ele>331.0</ele><time>2026-04-11T13:12:55.999Z</time></trkpt><trkpt lat="45.89340269439527" lon="3.129040764744282"><ele>331.4</ele><time>2026-04-11T13:12:57.999Z</time></trkpt><trkpt lat="45.89346375496365" lon="3.1289401306789353"><ele>331.8</ele><time>2026-04-11T13:12:59.999Z</time></trkpt><trkpt lat="45.89352639604191" lon="3.1288412568104174"><ele>332.2</ele><time>2026-04-11T13:13:02Z</time></trkpt><trkpt lat="45.893595106080845" lon="3.1287383937533786"><ele>332.59999999999997</ele><time>2026-04-11T13:13:04Z</time></trkpt><trkpt lat="45.89365864360017" lon="3.12862771137113"><ele>333.0</ele><time>2026-04-11T13:13:06Z</time></trkpt><trkpt lat="45.89372561427101" lon="3.128521800611274"><ele>333.0</ele><time>2026-04-11T13:13:08Z</time></trkpt><trkpt lat="45.893788605320054" lon="3.128412876863217"><ele>333.0</ele><time>2026-04-11T13:13:10Z</time></trkpt><trkpt lat="45.89385630278121" lon="3.128305705544236"><ele>333.0</ele><time>2026-04-11T13:13:12Z</time></trkpt><trkpt lat="45.89392316678923" lon="3.1282008716160226"><ele>333.0</ele><time>2026-04-11T13:13:14Z</time></trkpt><trkpt lat="45.89398500471628" lon="3.128091148633183"><ele>333.0</ele><time>2026-04-11T13:13:16Z</time></trkpt><trkpt lat="45.8940466558135" lon="3.1279840133397467"><ele>333.4</ele><time>2026-04-11T13:13:18Z</time></trkpt><trkpt lat="45.89411190175987" lon="3.1278801649036203"><ele>333.79999999999995</ele><time>2026-04-11T13:13:20Z</time></trkpt><trkpt lat="45.89417638994126" lon="3.1277750513169043"><ele>334.2</ele><time>2026-04-11T13:13:22Z</time></trkpt><trkpt lat="45.8942416814121" lon="3.1276762278954777"><ele>334.6</ele><time>2026-04-11T13:13:24Z</time></trkpt><trkpt lat="45.8942978656608" lon="3.127569366208369"><ele>335.0</ele><time>2026-04-11T13:13:26Z</time></trkpt><trkpt lat="45.89434885000702" lon="3.1274602830584928"><ele>335.4</ele><time>2026-04-11T13:13:28Z</time></trkpt><trkpt lat="45.89438432443669" lon="3.127338338473268"><ele>335.8</ele><time>2026-04-11T13:13:30Z</time></trkpt><trkpt lat="45.89442230391425" lon="3.1272209565757705"><ele>336.20000000000005</ele><time>2026-04-11T13:13:32Z</time></trkpt><trkpt lat="45.894450271715186" lon="3.1271056350054334"><ele>336.6</ele><time>2026-04-11T13:13:34Z</time></trkpt><trkpt lat="45.89447488375197" lon="3.126994212492786"><ele>337.0</ele><time>2026-04-11T13:13:36Z</time></trkpt><trkpt lat="45.89449105831801" lon="3.1268194028430143"><ele>337.0</ele><time>2026-04-11T13:13:39Z</time></trkpt><trkpt lat="45.894498876526605" lon="3.126705982138245"><ele>337.0</ele><time>2026-04-11T13:13:41Z</time></trkpt><trkpt lat="45.894504157676636" lon="3.1265963891558894"><ele>337.0</ele><time>2026-04-11T13:13:43Z</time></trkpt><trkpt lat="45.89449625718422" lon="3.1264847985387894"><ele>337.0</ele><time>2026-04-11T13:13:45Z</time></trkpt><trkpt lat="45.89450018776606" lon="3.1263725934009297"><ele>337.0</ele><time>2026-04-11T13:13:47Z</time></trkpt><trkpt lat="45.894497094198826" lon="3.1260434065291918"><ele>337.3333333333333</ele><time>2026-04-11T13:13:53Z</time></trkpt><trkpt lat="45.89450374558875" lon="3.1259391396946365"><ele>337.66666666666663</ele><time>2026-04-11T13:13:55Z</time></trkpt><trkpt lat="45.89450117969749" lon="3.125827249901589"><ele>338.0</ele><time>2026-04-11T13:13:57Z</time></trkpt><trkpt lat="45.89450359485721" lon="3.1257156185733446"><ele>338.3333333333333</ele><time>2026-04-11T13:13:59Z</time></trkpt><trkpt lat="45.89449768509168" lon="3.1255983119770563"><ele>338.6666666666667</ele><time>2026-04-11T13:14:01Z</time></trkpt><trkpt lat="45.89450211556682" lon="3.12548261720492"><ele>339.0</ele><time>2026-04-11T13:14:03Z</time></trkpt><trkpt lat="45.89450058549459" lon="3.1253644411487547"><ele>339.0</ele><time>2026-04-11T13:14:04.999Z</time></trkpt><trkpt lat="45.89449882968049" lon="3.125245338501875"><ele>339.0</ele><time>2026-04-11T13:14:06.999Z</time></trkpt><trkpt lat="45.8945015840864" lon="3.1251307444193723"><ele>339.0</ele><time>2026-04-11T13:14:08.999Z</time></trkpt><trkpt lat="45.89449803257169" lon="3.1250162414176983"><ele>339.0</ele><time>2026-04-11T13:14:10.999Z</time></trkpt><trkpt lat="45.89449889294811" lon="3.1249009151277654"><ele>339.0</ele><time>2026-04-11T13:14:12.999Z</time></trkpt><trkpt lat="45.89449818788132" lon="3.1247867336556867"><ele>339.0</ele><time>2026-04-11T13:14:14.999Z</time></trkpt><trkpt lat="45.89449484431741" lon="3.1246743640121237"><ele>339.0</ele><time>2026-04-11T13:14:16.999Z</time></trkpt><trkpt lat="45.89449128828986" lon="3.124562247707014"><ele>339.0</ele><time>2026-04-11T13:14:18.999Z</time></trkpt><trkpt lat="45.89454873466372" lon="3.1244805873791863"><ele>339.0</ele><time>2026-04-11T13:14:20.999Z</time></trkpt><trkpt lat="45.89461647953545" lon="3.1244207655009846"><ele>339.0</ele><time>2026-04-11T13:14:22.999Z</time></trkpt><trkpt lat="45.89464030061211" lon="3.1243129684853193"><ele>339.0</ele><time>2026-04-11T13:14:24.999Z</time></trkpt><trkpt lat="45.89461795892008" lon="3.1242032692580146"><ele>339.0</ele><time>2026-04-11T13:14:26.999Z</time></trkpt><trkpt lat="45.8946256444442" lon="3.1241014281205106"><ele>339.6666666666667</ele><time>2026-04-11T13:14:28.999Z</time></trkpt><trkpt lat="45.894685581043525" lon="3.124017059225725"><ele>340.3333333333333</ele><time>2026-04-11T13:14:30.999Z</time></trkpt><trkpt lat="45.89474637453306" lon="3.12393505097559"><ele>341.0</ele><time>2026-04-11T13:14:32.999Z</time></trkpt><trkpt lat="45.89480176938942" lon="3.123845173836267"><ele>341.66666666666663</ele><time>2026-04-11T13:14:34.999Z</time></trkpt><trkpt lat="45.8948531494917" lon="3.1237615902983755"><ele>342.3333333333333</ele><time>2026-04-11T13:14:36.999Z</time></trkpt><trkpt lat="45.89489582445428" lon="3.123676901717679"><ele>343.0</ele><time>2026-04-11T13:14:38.999Z</time></trkpt><trkpt lat="45.89491402123656" lon="3.123566073742024"><ele>343.0</ele><time>2026-04-11T13:14:40.999Z</time></trkpt><trkpt lat="45.89491385292573" lon="3.1234441022467294"><ele>343.0</ele><time>2026-04-11T13:14:42.999Z</time></trkpt><trkpt lat="45.89490256831237" lon="3.1233207149890014"><ele>343.0</ele><time>2026-04-11T13:14:44.999Z</time></trkpt><trkpt lat="45.89489150143011" lon="3.1231960969471637"><ele>343.0</ele><time>2026-04-11T13:14:46.999Z</time></trkpt><trkpt lat="45.894883341767844" lon="3.123073508798723"><ele>343.0</ele><time>2026-04-11T13:14:48.999Z</time></trkpt><trkpt lat="45.894872873436896" lon="3.122948848491064"><ele>343.0</ele><time>2026-04-11T13:14:50.999Z</time></trkpt><trkpt lat="45.89486192600038" lon="3.122828363883722"><ele>343.79999999999995</ele><time>2026-04-11T13:14:52.999Z</time></trkpt><trkpt lat="45.89485655439013" lon="3.122698548881315"><ele>344.6</ele><time>2026-04-11T13:14:54.999Z</time></trkpt><trkpt lat="45.89484506771914" lon="3.1225655611628778"><ele>345.4</ele><time>2026-04-11T13:14:56.999Z</time></trkpt><trkpt lat="45.894840509395266" lon="3.122430614752751"><ele>346.20000000000005</ele><time>2026-04-11T13:14:58.999Z</time></trkpt><trkpt lat="45.894832270511586" lon="3.122282530159928"><ele>347.0</ele><time>2026-04-11T13:15:00.999Z</time></trkpt><trkpt lat="45.89482811872695" lon="3.122127386197266"><ele>347.40000000000003</ele><time>2026-04-11T13:15:02.999Z</time></trkpt><trkpt lat="45.8948133909121" lon="3.121974490312554"><ele>347.8</ele><time>2026-04-11T13:15:04.999Z</time></trkpt><trkpt lat="45.89480439309311" lon="3.121824703059669"><ele>348.2</ele><time>2026-04-11T13:15:06.999Z</time></trkpt><trkpt lat="45.89479151335121" lon="3.1216730860611697"><ele>348.6</ele><time>2026-04-11T13:15:08.999Z</time></trkpt><trkpt lat="45.89477934949987" lon="3.121522024997805"><ele>349.0</ele><time>2026-04-11T13:15:11Z</time></trkpt><trkpt lat="45.89476665121128" lon="3.1213690134657575"><ele>349.2</ele><time>2026-04-11T13:15:13Z</time></trkpt><trkpt lat="45.894775511135826" lon="3.121212760051999"><ele>349.4</ele><time>2026-04-11T13:15:15Z</time></trkpt><trkpt lat="45.89475856958101" lon="3.1210571006894536"><ele>349.6</ele><time>2026-04-11T13:15:17Z</time></trkpt><trkpt lat="45.8947378111949" lon="3.120905611999013"><ele>349.8</ele><time>2026-04-11T13:15:19Z</time></trkpt><trkpt lat="45.894720577605185" lon="3.120760385959339"><ele>350.0</ele><time>2026-04-11T13:15:21Z</time></trkpt><trkpt lat="45.894699806121054" lon="3.120617082987254"><ele>350.2</ele><time>2026-04-11T13:15:23Z</time></trkpt><trkpt lat="45.894683816436206" lon="3.120473901168119"><ele>350.4</ele><time>2026-04-11T13:15:25Z</time></trkpt><trkpt lat="45.89467107477825" lon="3.120331713739182"><ele>350.6</ele><time>2026-04-11T13:15:27Z</time></trkpt><trkpt lat="45.89465229382009" lon="3.120187992700975"><ele>350.8</ele><time>2026-04-11T13:15:29Z</time></trkpt><trkpt lat="45.89463265073158" lon="3.120043370294602"><ele>351.0</ele><time>2026-04-11T13:15:31Z</time></trkpt><trkpt lat="45.894619824172906" lon="3.119897935800509"><ele>351.0</ele><time>2026-04-11T13:15:33Z</time></trkpt><trkpt lat="45.89458175512016" lon="3.1197586933725043"><ele>351.0</ele><time>2026-04-11T13:15:35Z</time></trkpt><trkpt lat="45.894575021489494" lon="3.1196130728415947"><ele>351.0</ele><time>2026-04-11T13:15:37Z</time></trkpt><trkpt lat="45.894535581181344" lon="3.1194886381439537"><ele>351.0</ele><time>2026-04-11T13:15:39Z</time></trkpt><trkpt lat="45.894512065849284" lon="3.1193628506737308"><ele>351.0</ele><time>2026-04-11T13:15:41Z</time></trkpt><trkpt lat="45.894505464432235" lon="3.119233291038204"><ele>351.0</ele><time>2026-04-11T13:15:43Z</time></trkpt><trkpt lat="45.89448323172927" lon="3.119116148884408"><ele>351.0</ele><time>2026-04-11T13:15:45Z</time></trkpt><trkpt lat="45.894441871660426" lon="3.119008376523603"><ele>351.0</ele><time>2026-04-11T13:15:47Z</time></trkpt><trkpt lat="45.89441118714601" lon="3.1188862627119285"><ele>351.0</ele><time>2026-04-11T13:15:49Z</time></trkpt><trkpt lat="45.894381535006346" lon="3.1187550595822917"><ele>351.0</ele><time>2026-04-11T13:15:51Z</time></trkpt><trkpt lat="45.894362694907485" lon="3.1186187763288498"><ele>351.0</ele><time>2026-04-11T13:15:53Z</time></trkpt><trkpt lat="45.894338686429755" lon="3.1184700992141865"><ele>351.0</ele><time>2026-04-11T13:15:55Z</time></trkpt><trkpt lat="45.89431072539999" lon="3.118311722562868"><ele>351.0</ele><time>2026-04-11T13:15:57Z</time></trkpt><trkpt lat="45.89428502491154" lon="3.1181501096829427"><ele>351.0</ele><time>2026-04-11T13:15:59Z</time></trkpt><trkpt lat="45.894282887207275" lon="3.1179760748961347"><ele>351.5</ele><time>2026-04-11T13:16:01Z</time></trkpt><trkpt lat="45.894258049799255" lon="3.117806012157523"><ele>352.0</ele><time>2026-04-11T13:16:03Z</time></trkpt><trkpt lat="45.894234310982306" lon="3.1176434711168945"><ele>352.5</ele><time>2026-04-11T13:16:05Z</time></trkpt><trkpt lat="45.894155227141795" lon="3.117503728373124"><ele>353.0</ele><time>2026-04-11T13:16:07Z</time></trkpt><trkpt lat="45.894113006491864" lon="3.117353528521686"><ele>353.79999999999995</ele><time>2026-04-11T13:16:09Z</time></trkpt><trkpt lat="45.894056462933776" lon="3.1172150757221697"><ele>354.6</ele><time>2026-04-11T13:16:11Z</time></trkpt><trkpt lat="45.89401759354216" lon="3.1170727990467806"><ele>355.4</ele><time>2026-04-11T13:16:13Z</time></trkpt><trkpt lat="45.89399854463725" lon="3.116921512387091"><ele>356.20000000000005</ele><time>2026-04-11T13:16:15Z</time></trkpt><trkpt lat="45.89394860761517" lon="3.1167774674911004"><ele>357.0</ele><time>2026-04-11T13:16:17Z</time></trkpt><trkpt lat="45.8939281073422" lon="3.1166238025342152"><ele>357.0</ele><time>2026-04-11T13:16:19Z</time></trkpt><trkpt lat="45.893895452551924" lon="3.116470870164065"><ele>357.0</ele><time>2026-04-11T13:16:21Z</time></trkpt><trkpt lat="45.89385675488402" lon="3.1163180819807517"><ele>357.0</ele><time>2026-04-11T13:16:23Z</time></trkpt><trkpt lat="45.893844529249215" lon="3.116170657823995"><ele>357.0</ele><time>2026-04-11T13:16:25Z</time></trkpt><trkpt lat="45.89384405857847" lon="3.116076600088145"><ele>357.0</ele><time>2026-04-11T13:16:27Z</time></trkpt><trkpt lat="45.893825210829334" lon="3.115988267706282"><ele>357.0</ele><time>2026-04-11T13:16:30Z</time></trkpt><trkpt lat="45.89377649435866" lon="3.115879541153397"><ele>357.0</ele><time>2026-04-11T13:16:33Z</time></trkpt><trkpt lat="45.893802691842765" lon="3.115765783213637"><ele>357.0</ele><time>2026-04-11T13:16:35Z</time></trkpt><trkpt lat="45.89379434595296" lon="3.1156541586529034"><ele>357.0</ele><time>2026-04-11T13:16:37Z</time></trkpt><trkpt lat="45.89379518839842" lon="3.1155281166064333"><ele>357.0</ele><time>2026-04-11T13:16:39Z</time></trkpt><trkpt lat="45.89379222316523" lon="3.1154047677970294"><ele>357.0</ele><time>2026-04-11T13:16:41Z</time></trkpt><trkpt lat="45.893789719794434" lon="3.115280672050076"><ele>357.0</ele><time>2026-04-11T13:16:43Z</time></trkpt><trkpt lat="45.89379458551433" lon="3.1151598069625774"><ele>357.0</ele><time>2026-04-11T13:16:45Z</time></trkpt><trkpt lat="45.89379150802047" lon="3.115040356565265"><ele>357.0</ele><time>2026-04-11T13:16:47Z</time></trkpt><trkpt lat="45.89378360493049" lon="3.1148607500149725"><ele>357.0</ele><time>2026-04-11T13:16:50Z</time></trkpt><trkpt lat="45.89378708432522" lon="3.1147444891278493"><ele>357.0</ele><time>2026-04-11T13:16:52Z</time></trkpt><trkpt lat="45.893787209648096" lon="3.1146161256507385"><ele>357.5</ele><time>2026-04-11T13:16:54Z</time></trkpt><trkpt lat="45.89379316112016" lon="3.114489600002805"><ele>358.0</ele><time>2026-04-11T13:16:56Z</time></trkpt><trkpt lat="45.89379045446879" lon="3.1143951983585856"><ele>358.5</ele><time>2026-04-11T13:16:58Z</time></trkpt><trkpt lat="45.89371310037063" lon="3.1143555795368956"><ele>359.0</ele><time>2026-04-11T13:17:01Z</time></trkpt><trkpt lat="45.89363121445246" lon="3.114379866611649"><ele>359.5</ele><time>2026-04-11T13:17:03Z</time></trkpt><trkpt lat="45.89355855335731" lon="3.1143736313086245"><ele>360.0</ele><time>2026-04-11T13:17:05Z</time></trkpt><trkpt lat="45.893457550532894" lon="3.11438092481695"><ele>359.8</ele><time>2026-04-11T13:17:07Z</time></trkpt><trkpt lat="45.89336211761378" lon="3.1143861820662555"><ele>359.6</ele><time>2026-04-11T13:17:09Z</time></trkpt><trkpt lat="45.8932712739679" lon="3.1143743709883793"><ele>359.4</ele><time>2026-04-11T13:17:11Z</time></trkpt><trkpt lat="45.893206141148895" lon="3.114351439243706"><ele>359.2</ele><time>2026-04-11T13:17:12Z</time></trkpt><trkpt lat="45.89310300379211" lon="3.1143718484401663"><ele>359.0</ele><time>2026-04-11T13:17:14Z</time></trkpt><trkpt lat="45.89299364065446" lon="3.1143373114048596"><ele>359.0</ele><time>2026-04-11T13:17:16Z</time></trkpt><trkpt lat="45.892896828874356" lon="3.114282897340325"><ele>359.0</ele><time>2026-04-11T13:17:18Z</time></trkpt><trkpt lat="45.89282412443466" lon="3.1142783446988442"><ele>359.0</ele><time>2026-04-11T13:17:20Z</time></trkpt><trkpt lat="45.89274422418541" lon="3.11426039662124"><ele>359.0</ele><time>2026-04-11T13:17:23Z</time></trkpt><trkpt lat="45.892663320996114" lon="3.1142003837117356"><ele>359.0</ele><time>2026-04-11T13:17:25Z</time></trkpt><trkpt lat="45.89258327777514" lon="3.114185090614373"><ele>359.0</ele><time>2026-04-11T13:17:27Z</time></trkpt><trkpt lat="45.892490457061385" lon="3.1141521527014113"><ele>358.6</ele><time>2026-04-11T13:17:29Z</time></trkpt><trkpt lat="45.89236767782638" lon="3.114114595897957"><ele>358.2</ele><time>2026-04-11T13:17:31Z</time></trkpt><trkpt lat="45.892300625019956" lon="3.114103638976107"><ele>357.8</ele><time>2026-04-11T13:17:32Z</time></trkpt><trkpt lat="45.8921894691307" lon="3.1140661108607004"><ele>357.40000000000003</ele><time>2026-04-11T13:17:34Z</time></trkpt><trkpt lat="45.89211380534157" lon="3.1140189939832323"><ele>357.0</ele><time>2026-04-11T13:17:35Z</time></trkpt><trkpt lat="45.89199495265903" lon="3.113973846014433"><ele>356.8333333333333</ele><time>2026-04-11T13:17:37Z</time></trkpt><trkpt lat="45.891924048720796" lon="3.113943045481476"><ele>356.6666666666667</ele><time>2026-04-11T13:17:41Z</time></trkpt><trkpt lat="45.89184497013272" lon="3.1138978660543652"><ele>356.5</ele><time>2026-04-11T13:17:43Z</time></trkpt><trkpt lat="45.89176468566783" lon="3.1138566158131593"><ele>356.33333333333337</ele><time>2026-04-11T13:17:45Z</time></trkpt><trkpt lat="45.89166901492866" lon="3.113819718484161"><ele>356.1666666666667</ele><time>2026-04-11T13:17:47Z</time></trkpt><trkpt lat="45.89157277715415" lon="3.1137686998156364"><ele>356.0</ele><time>2026-04-11T13:17:49Z</time></trkpt><trkpt lat="45.89151240928739" lon="3.113736006053769"><ele>354.8</ele><time>2026-04-11T13:17:50Z</time></trkpt><trkpt lat="45.89139916105936" lon="3.1136761350702797"><ele>353.6</ele><time>2026-04-11T13:17:52Z</time></trkpt><trkpt lat="45.89130037311326" lon="3.1136606003922056"><ele>352.4</ele><time>2026-04-11T13:17:54Z</time></trkpt><trkpt lat="45.89123945882441" lon="3.113621956236045"><ele>351.2</ele><time>2026-04-11T13:17:56Z</time></trkpt><trkpt lat="45.891241377461995" lon="3.113487663659813"><ele>350.0</ele><time>2026-04-11T13:17:58Z</time></trkpt><trkpt lat="45.891253195148046" lon="3.1133769272957914"><ele>350.0</ele><time>2026-04-11T13:18:00Z</time></trkpt><trkpt lat="45.89126040894211" lon="3.1132683929371017"><ele>350.0</ele><time>2026-04-11T13:18:02Z</time></trkpt><trkpt lat="45.891261134519006" lon="3.113160196527421"><ele>350.0</ele><time>2026-04-11T13:18:04Z</time></trkpt><trkpt lat="45.89127138078948" lon="3.1130594610034876"><ele>350.0</ele><time>2026-04-11T13:18:09Z</time></trkpt><trkpt lat="45.89122155114689" lon="3.112979667202083"><ele>350.0</ele><time>2026-04-11T13:18:18Z</time></trkpt><trkpt lat="45.89113738121914" lon="3.112996175915854"><ele>350.0</ele><time>2026-04-11T13:18:21Z</time></trkpt><trkpt lat="45.891070803291505" lon="3.1129845787579646"><ele>350.0</ele><time>2026-04-11T13:18:23Z</time></trkpt><trkpt lat="45.890988221723035" lon="3.1130111046588516"><ele>349.6</ele><time>2026-04-11T13:18:25Z</time></trkpt><trkpt lat="45.89088561429442" lon="3.1130447690053527"><ele>349.2</ele><time>2026-04-11T13:18:27Z</time></trkpt><trkpt lat="45.89077366826423" lon="3.1130989750358227"><ele>348.79999999999995</ele><time>2026-04-11T13:18:29Z</time></trkpt><trkpt lat="45.890684531194616" lon="3.1131156344557516"><ele>348.4</ele><time>2026-04-11T13:18:31Z</time></trkpt><trkpt lat="45.890609740203935" lon="3.1131470083518544"><ele>348.0</ele><time>2026-04-11T13:18:33Z</time></trkpt><trkpt lat="45.890536477176255" lon="3.1131087715831622"><ele>348.0</ele><time>2026-04-11T13:18:39Z</time></trkpt><trkpt lat="45.89048490765114" lon="3.113045861802429"><ele>348.0</ele><time>2026-04-11T13:18:41Z</time></trkpt><trkpt lat="45.89041184998307" lon="3.1130124720458183"><ele>348.0</ele><time>2026-04-11T13:18:43Z</time></trkpt><trkpt lat="45.8903287763073" lon="3.1130804244279218"><ele>348.0</ele><time>2026-04-11T13:18:45Z</time></trkpt><trkpt lat="45.89026142686867" lon="3.1131905280904517"><ele>348.0</ele><time>2026-04-11T13:18:47Z</time></trkpt><trkpt lat="45.89017710708662" lon="3.113285793447762"><ele>348.0</ele><time>2026-04-11T13:18:49Z</time></trkpt><trkpt lat="45.89006565447374" lon="3.1133340653364026"><ele>347.4</ele><time>2026-04-11T13:18:51Z</time></trkpt><trkpt lat="45.889983828247985" lon="3.1133459990499395"><ele>346.79999999999995</ele><time>2026-04-11T13:18:52Z</time></trkpt><trkpt lat="45.88986590425643" lon="3.113368582236829"><ele>346.2</ele><time>2026-04-11T13:18:54Z</time></trkpt><trkpt lat="45.889802639973816" lon="3.113382083635543"><ele>345.6</ele><time>2026-04-11T13:18:55Z</time></trkpt><trkpt lat="45.889673526536605" lon="3.1134324181898254"><ele>345.0</ele><time>2026-04-11T13:18:57Z</time></trkpt><trkpt lat="45.88960424969428" lon="3.1134563130186517"><ele>345.0</ele><time>2026-04-11T13:18:58Z</time></trkpt><trkpt lat="45.88953300238162" lon="3.1134731558287267"><ele>345.0</ele><time>2026-04-11T13:18:59Z</time></trkpt><trkpt lat="45.889463819006274" lon="3.1135036054447114"><ele>345.0</ele><time>2026-04-11T13:19:00Z</time></trkpt><trkpt lat="45.88939598512191" lon="3.1135267131814186"><ele>345.0</ele><time>2026-04-11T13:19:01Z</time></trkpt><trkpt lat="45.889326670432496" lon="3.113545154686552"><ele>345.0</ele><time>2026-04-11T13:19:02Z</time></trkpt><trkpt lat="45.88925810443974" lon="3.1135769347482785"><ele>345.0</ele><time>2026-04-11T13:19:03Z</time></trkpt><trkpt lat="45.8891853709368" lon="3.113588813345651"><ele>345.0</ele><time>2026-04-11T13:19:04Z</time></trkpt><trkpt lat="45.88911285769432" lon="3.113617335905632"><ele>344.7142857142857</ele><time>2026-04-11T13:19:05Z</time></trkpt><trkpt lat="45.88904600540356" lon="3.1136428389048376"><ele>344.42857142857144</ele><time>2026-04-11T13:19:06Z</time></trkpt><trkpt lat="45.88897320448361" lon="3.1136563242100994"><ele>344.1428571428571</ele><time>2026-04-11T13:19:07Z</time></trkpt><trkpt lat="45.88890745514029" lon="3.1136666749537825"><ele>343.8571428571429</ele><time>2026-04-11T13:19:08Z</time></trkpt><trkpt lat="45.88884138691068" lon="3.113693116812941"><ele>343.57142857142856</ele><time>2026-04-11T13:19:09Z</time></trkpt><trkpt lat="45.888779792772596" lon="3.1137266759558893"><ele>343.2857142857143</ele><time>2026-04-11T13:19:10Z</time></trkpt><trkpt lat="45.888717962299296" lon="3.113751761742736"><ele>343.0</ele><time>2026-04-11T13:19:11Z</time></trkpt><trkpt lat="45.88864983635877" lon="3.113788942357508"><ele>343.0</ele><time>2026-04-11T13:19:12Z</time></trkpt><trkpt lat="45.888531107231664" lon="3.1138183692140475"><ele>343.0</ele><time>2026-04-11T13:19:14Z</time></trkpt><trkpt lat="45.88841098412756" lon="3.1138664188371923"><ele>343.0</ele><time>2026-04-11T13:19:16Z</time></trkpt><trkpt lat="45.88833914347108" lon="3.1138731554776835"><ele>343.0</ele><time>2026-04-11T13:19:17Z</time></trkpt><trkpt lat="45.88827102532011" lon="3.1138965017555065"><ele>343.0</ele><time>2026-04-11T13:19:18Z</time></trkpt><trkpt lat="45.88819873191264" lon="3.1139228889591544"><ele>342.57142857142856</ele><time>2026-04-11T13:19:19Z</time></trkpt><trkpt lat="45.888133975117654" lon="3.1139474351696768"><ele>342.1428571428571</ele><time>2026-04-11T13:19:20Z</time></trkpt><trkpt lat="45.888064696660635" lon="3.1139799214372377"><ele>341.7142857142857</ele><time>2026-04-11T13:19:21Z</time></trkpt><trkpt lat="45.88798719265505" lon="3.1140108296582643"><ele>341.2857142857143</ele><time>2026-04-11T13:19:22Z</time></trkpt><trkpt lat="45.88791061134984" lon="3.11402769161847"><ele>340.85714285714283</ele><time>2026-04-11T13:19:23Z</time></trkpt><trkpt lat="45.88783981741122" lon="3.114038396459323"><ele>340.42857142857144</ele><time>2026-04-11T13:19:24Z</time></trkpt><trkpt lat="45.887762462189485" lon="3.1140592468397896"><ele>340.0</ele><time>2026-04-11T13:19:25Z</time></trkpt><trkpt lat="45.88770427795811" lon="3.114097116741346"><ele>340.2</ele><time>2026-04-11T13:19:26Z</time></trkpt><trkpt lat="45.88758106064854" lon="3.114109887804587"><ele>340.4</ele><time>2026-04-11T13:19:28Z</time></trkpt><trkpt lat="45.88747033646935" lon="3.114129589649352"><ele>340.6</ele><time>2026-04-11T13:19:30Z</time></trkpt><trkpt lat="45.887379860665185" lon="3.1141432078760753"><ele>340.8</ele><time>2026-04-11T13:19:32Z</time></trkpt><trkpt lat="45.88730305257311" lon="3.114153417486231"><ele>341.0</ele><time>2026-04-11T13:19:34Z</time></trkpt><trkpt lat="45.88722403473508" lon="3.1141727828461985"><ele>341.0</ele><time>2026-04-11T13:19:37Z</time></trkpt><trkpt lat="45.88713001060977" lon="3.1141976432952987"><ele>341.0</ele><time>2026-04-11T13:19:40Z</time></trkpt><trkpt lat="45.88704215730788" lon="3.1142065317873526"><ele>341.0</ele><time>2026-04-11T13:19:42Z</time></trkpt><trkpt lat="45.88694779102126" lon="3.114241377863397"><ele>341.0</ele><time>2026-04-11T13:19:44Z</time></trkpt><trkpt lat="45.886849062802966" lon="3.114284752830539"><ele>341.0</ele><time>2026-04-11T13:19:46Z</time></trkpt><trkpt lat="45.88674214417918" lon="3.1143316388591757"><ele>341.0</ele><time>2026-04-11T13:19:48Z</time></trkpt><trkpt lat="45.88662765929593" lon="3.114381249144397"><ele>341.0</ele><time>2026-04-11T13:19:50Z</time></trkpt><trkpt lat="45.88651206460138" lon="3.1144218821893888"><ele>341.0</ele><time>2026-04-11T13:19:52Z</time></trkpt><trkpt lat="45.886450713913774" lon="3.1144513801853297"><ele>341.0</ele><time>2026-04-11T13:19:53Z</time></trkpt><trkpt lat="45.8863270128706" lon="3.114505392202964"><ele>341.0</ele><time>2026-04-11T13:19:55Z</time></trkpt><trkpt lat="45.886266024111336" lon="3.11453277476694"><ele>341.0</ele><time>2026-04-11T13:19:56Z</time></trkpt><trkpt lat="45.88620182103291" lon="3.1145603410915386"><ele>341.0</ele><time>2026-04-11T13:19:57Z</time></trkpt><trkpt lat="45.886137773941954" lon="3.114587619401535"><ele>341.0</ele><time>2026-04-11T13:19:58Z</time></trkpt><trkpt lat="45.88607232260664" lon="3.1146133985086437"><ele>341.0</ele><time>2026-04-11T13:19:59Z</time></trkpt><trkpt lat="45.886005031046906" lon="3.114640173835515"><ele>341.0</ele><time>2026-04-11T13:20:00Z</time></trkpt><trkpt lat="45.88593868129821" lon="3.11466670720453"><ele>341.0</ele><time>2026-04-11T13:20:01Z</time></trkpt><trkpt lat="45.88587241030497" lon="3.1146975864714577"><ele>341.0</ele><time>2026-04-11T13:20:02Z</time></trkpt><trkpt lat="45.88580803773563" lon="3.1147258179702852"><ele>341.0</ele><time>2026-04-11T13:20:03Z</time></trkpt><trkpt lat="45.88574130483139" lon="3.1147565467404"><ele>341.0</ele><time>2026-04-11T13:20:04Z</time></trkpt><trkpt lat="45.885674849203745" lon="3.114781727417108"><ele>341.0</ele><time>2026-04-11T13:20:05Z</time></trkpt><trkpt lat="45.885605596135335" lon="3.114805761991327"><ele>341.0</ele><time>2026-04-11T13:20:06Z</time></trkpt><trkpt lat="45.885538027032325" lon="3.1148331867102512"><ele>341.0</ele><time>2026-04-11T13:20:07Z</time></trkpt><trkpt lat="45.88546865889342" lon="3.114862672015289"><ele>341.0</ele><time>2026-04-11T13:20:08Z</time></trkpt><trkpt lat="45.88540281466712" lon="3.1148967635208433"><ele>341.0</ele><time>2026-04-11T13:20:09Z</time></trkpt><trkpt lat="45.88533202092686" lon="3.114929250699808"><ele>341.0</ele><time>2026-04-11T13:20:10Z</time></trkpt><trkpt lat="45.88525933118994" lon="3.114960635553308"><ele>341.0</ele><time>2026-04-11T13:20:11Z</time></trkpt><trkpt lat="45.88519280566377" lon="3.114991344419754"><ele>341.0</ele><time>2026-04-11T13:20:12Z</time></trkpt><trkpt lat="45.88512216499871" lon="3.115020064657492"><ele>341.0</ele><time>2026-04-11T13:20:13Z</time></trkpt><trkpt lat="45.885051962251204" lon="3.1150582615276248"><ele>341.0</ele><time>2026-04-11T13:20:14Z</time></trkpt><trkpt lat="45.88498196069737" lon="3.1150855086486353"><ele>341.0</ele><time>2026-04-11T13:20:15Z</time></trkpt><trkpt lat="45.88491063438109" lon="3.115120246458823"><ele>341.0</ele><time>2026-04-11T13:20:16Z</time></trkpt><trkpt lat="45.88484345691755" lon="3.1151419812994607"><ele>341.0</ele><time>2026-04-11T13:20:17Z</time></trkpt><trkpt lat="45.88477404039889" lon="3.115161406797925"><ele>341.0</ele><time>2026-04-11T13:20:18Z</time></trkpt><trkpt lat="45.88470607222262" lon="3.1151991667553314"><ele>341.0</ele><time>2026-04-11T13:20:19Z</time></trkpt><trkpt lat="45.884639561225434" lon="3.1152295634925484"><ele>341.0</ele><time>2026-04-11T13:20:20Z</time></trkpt><trkpt lat="45.884576330265396" lon="3.1152592222281563"><ele>341.0</ele><time>2026-04-11T13:20:21Z</time></trkpt><trkpt lat="45.88451298598318" lon="3.1152883699929768"><ele>341.0</ele><time>2026-04-11T13:20:22Z</time></trkpt><trkpt lat="45.884451390701024" lon="3.1153165929537994"><ele>341.0</ele><time>2026-04-11T13:20:23Z</time></trkpt><trkpt lat="45.884328202714265" lon="3.1153676005550377"><ele>341.0</ele><time>2026-04-11T13:20:25Z</time></trkpt><trkpt lat="45.8842648706619" lon="3.115398189548886"><ele>341.0</ele><time>2026-04-11T13:20:26Z</time></trkpt><trkpt lat="45.88420091131713" lon="3.1154254852473744"><ele>341.0</ele><time>2026-04-11T13:20:27Z</time></trkpt><trkpt lat="45.88413731290851" lon="3.115453193870196"><ele>341.0</ele><time>2026-04-11T13:20:28Z</time></trkpt><trkpt lat="45.88407502840766" lon="3.1154872352534335"><ele>341.0</ele><time>2026-04-11T13:20:29Z</time></trkpt><trkpt lat="45.884014073228066" lon="3.115513729388999"><ele>341.0</ele><time>2026-04-11T13:20:30Z</time></trkpt><trkpt lat="45.88394793808292" lon="3.1155462694144993"><ele>341.0</ele><time>2026-04-11T13:20:31Z</time></trkpt><trkpt lat="45.88388457503558" lon="3.115578558266039"><ele>340.85714285714283</ele><time>2026-04-11T13:20:32Z</time></trkpt><trkpt lat="45.88381965427095" lon="3.1156075221715995"><ele>340.7142857142857</ele><time>2026-04-11T13:20:33Z</time></trkpt><trkpt lat="45.883756787005765" lon="3.115634168060796"><ele>340.57142857142856</ele><time>2026-04-11T13:20:34Z</time></trkpt><trkpt lat="45.88369105611135" lon="3.1156621218393443"><ele>340.42857142857144</ele><time>2026-04-11T13:20:35Z</time></trkpt><trkpt lat="45.88362253292967" lon="3.1156863641471353"><ele>340.2857142857143</ele><time>2026-04-11T13:20:36Z</time></trkpt><trkpt lat="45.88355765160647" lon="3.1157170866830746"><ele>340.14285714285717</ele><time>2026-04-11T13:20:37Z</time></trkpt><trkpt lat="45.88349040612445" lon="3.1157489759914534"><ele>340.0</ele><time>2026-04-11T13:20:38Z</time></trkpt><trkpt lat="45.883421821236816" lon="3.115775081698865"><ele>339.8571428571429</ele><time>2026-04-11T13:20:39Z</time></trkpt><trkpt lat="45.883350820210666" lon="3.1157995649404353"><ele>339.71428571428567</ele><time>2026-04-11T13:20:40Z</time></trkpt><trkpt lat="45.88328387136655" lon="3.1158245982488273"><ele>339.57142857142856</ele><time>2026-04-11T13:20:41Z</time></trkpt><trkpt lat="45.88321412844542" lon="3.1158456088009574"><ele>339.42857142857144</ele><time>2026-04-11T13:20:42Z</time></trkpt><trkpt lat="45.88314257168544" lon="3.115862048555809"><ele>339.28571428571433</ele><time>2026-04-11T13:20:43Z</time></trkpt><trkpt lat="45.88307032610362" lon="3.115889310140341"><ele>339.1428571428571</ele><time>2026-04-11T13:20:44Z</time></trkpt><trkpt lat="45.88300128152781" lon="3.115918360437571"><ele>339.0</ele><time>2026-04-11T13:20:45Z</time></trkpt><trkpt lat="45.882931106661964" lon="3.1159518199036915"><ele>339.0</ele><time>2026-04-11T13:20:46Z</time></trkpt><trkpt lat="45.882861147621064" lon="3.115981096807189"><ele>339.0</ele><time>2026-04-11T13:20:47Z</time></trkpt><trkpt lat="45.882789928334844" lon="3.1160120442031913"><ele>339.0</ele><time>2026-04-11T13:20:48Z</time></trkpt><trkpt lat="45.882717732844974" lon="3.116046366955017"><ele>339.0</ele><time>2026-04-11T13:20:49Z</time></trkpt><trkpt lat="45.882647136413006" lon="3.116078030749988"><ele>339.0</ele><time>2026-04-11T13:20:50Z</time></trkpt><trkpt lat="45.882577675807084" lon="3.116107509418759"><ele>339.0</ele><time>2026-04-11T13:20:51Z</time></trkpt><trkpt lat="45.882509759023044" lon="3.1161380609188853"><ele>339.0</ele><time>2026-04-11T13:20:52Z</time></trkpt><trkpt lat="45.88243869275378" lon="3.116162655334909"><ele>338.57142857142856</ele><time>2026-04-11T13:20:53Z</time></trkpt><trkpt lat="45.88237169126193" lon="3.1161921475247434"><ele>338.14285714285717</ele><time>2026-04-11T13:20:54Z</time></trkpt><trkpt lat="45.8823059699208" lon="3.1162198863709447"><ele>337.7142857142857</ele><time>2026-04-11T13:20:55Z</time></trkpt><trkpt lat="45.882241112547625" lon="3.1162465612330092"><ele>337.2857142857143</ele><time>2026-04-11T13:20:56Z</time></trkpt><trkpt lat="45.88217336249931" lon="3.116275127718196"><ele>336.8571428571429</ele><time>2026-04-11T13:20:57Z</time></trkpt><trkpt lat="45.882105928341666" lon="3.11630496426615"><ele>336.42857142857144</ele><time>2026-04-11T13:20:58Z</time></trkpt><trkpt lat="45.8820387288102" lon="3.1163348507052193"><ele>336.0</ele><time>2026-04-11T13:20:59Z</time></trkpt><trkpt lat="45.88197051249845" lon="3.116365820108955"><ele>336.0</ele><time>2026-04-11T13:21:00Z</time></trkpt><trkpt lat="45.881902144802794" lon="3.1163964439155887"><ele>336.0</ele><time>2026-04-11T13:21:01Z</time></trkpt><trkpt lat="45.88183266578087" lon="3.116425884059875"><ele>336.0</ele><time>2026-04-11T13:21:02Z</time></trkpt><trkpt lat="45.88176202802416" lon="3.1164503920036735"><ele>336.0</ele><time>2026-04-11T13:21:03Z</time></trkpt><trkpt lat="45.88169372781502" lon="3.116478295256659"><ele>336.0</ele><time>2026-04-11T13:21:04Z</time></trkpt><trkpt lat="45.881624005804056" lon="3.1164993711296063"><ele>336.0</ele><time>2026-04-11T13:21:05Z</time></trkpt><trkpt lat="45.881551323036234" lon="3.116523809520428"><ele>336.0</ele><time>2026-04-11T13:21:06Z</time></trkpt><trkpt lat="45.88147762627767" lon="3.1165335504319502"><ele>335.85714285714283</ele><time>2026-04-11T13:21:07Z</time></trkpt><trkpt lat="45.881404465881445" lon="3.1165413343144635"><ele>335.7142857142857</ele><time>2026-04-11T13:21:08Z</time></trkpt><trkpt lat="45.88133068183742" lon="3.116540176719272"><ele>335.57142857142856</ele><time>2026-04-11T13:21:09Z</time></trkpt><trkpt lat="45.88125932427809" lon="3.1165390099275427"><ele>335.42857142857144</ele><time>2026-04-11T13:21:10Z</time></trkpt><trkpt lat="45.88118758327069" lon="3.1165346500522317"><ele>335.2857142857143</ele><time>2026-04-11T13:21:11Z</time></trkpt><trkpt lat="45.88111624293269" lon="3.116524207534445"><ele>335.1428571428571</ele><time>2026-04-11T13:21:12Z</time></trkpt><trkpt lat="45.88104283666857" lon="3.1165248165360433"><ele>335.0</ele><time>2026-04-11T13:21:13Z</time></trkpt><trkpt lat="45.88097201881298" lon="3.11652024234794"><ele>335.1428571428571</ele><time>2026-04-11T13:21:14Z</time></trkpt><trkpt lat="45.880899752575345" lon="3.116513075955828"><ele>335.2857142857143</ele><time>2026-04-11T13:21:15Z</time></trkpt><trkpt lat="45.88082671836874" lon="3.1165089087488216"><ele>335.42857142857144</ele><time>2026-04-11T13:21:16Z</time></trkpt><trkpt lat="45.880751376787" lon="3.1165006872665297"><ele>335.57142857142856</ele><time>2026-04-11T13:21:17Z</time></trkpt><trkpt lat="45.88068258594831" lon="3.116500008295287"><ele>335.7142857142857</ele><time>2026-04-11T13:21:18Z</time></trkpt><trkpt lat="45.880613233185166" lon="3.116495856503875"><ele>335.85714285714283</ele><time>2026-04-11T13:21:19Z</time></trkpt><trkpt lat="45.88054759987376" lon="3.116486878686281"><ele>336.0</ele><time>2026-04-11T13:21:20Z</time></trkpt><trkpt lat="45.88048021539966" lon="3.1164839524199563"><ele>336.0</ele><time>2026-04-11T13:21:21Z</time></trkpt><trkpt lat="45.88041332032224" lon="3.11647659182128"><ele>336.0</ele><time>2026-04-11T13:21:22Z</time></trkpt><trkpt lat="45.880349342979535" lon="3.116474460738043"><ele>336.0</ele><time>2026-04-11T13:21:23Z</time></trkpt><trkpt lat="45.880282627124224" lon="3.1164695815328805"><ele>336.0</ele><time>2026-04-11T13:21:24Z</time></trkpt><trkpt lat="45.88021828604206" lon="3.1164648840639932"><ele>336.0</ele><time>2026-04-11T13:21:25Z</time></trkpt><trkpt lat="45.88014805843242" lon="3.116465217987619"><ele>336.0</ele><time>2026-04-11T13:21:26Z</time></trkpt><trkpt lat="45.880080832334244" lon="3.116461503971242"><ele>336.0</ele><time>2026-04-11T13:21:27Z</time></trkpt><trkpt lat="45.880014433775166" lon="3.1164606491760822"><ele>335.8333333333333</ele><time>2026-04-11T13:21:28Z</time></trkpt><trkpt lat="45.87994570176641" lon="3.116458590160807"><ele>335.6666666666667</ele><time>2026-04-11T13:21:29Z</time></trkpt><trkpt lat="45.87987828063889" lon="3.116457750108445"><ele>335.5</ele><time>2026-04-11T13:21:30Z</time></trkpt><trkpt lat="45.87981392968664" lon="3.1164502620239714"><ele>335.33333333333337</ele><time>2026-04-11T13:21:31Z</time></trkpt><trkpt lat="45.879746808148425" lon="3.116445122336339"><ele>335.1666666666667</ele><time>2026-04-11T13:21:32Z</time></trkpt><trkpt lat="45.87968275573591" lon="3.116439634546115"><ele>335.0</ele><time>2026-04-11T13:21:33Z</time></trkpt><trkpt lat="45.87955832660581" lon="3.116436291867054"><ele>335.0</ele><time>2026-04-11T13:21:35Z</time></trkpt><trkpt lat="45.87944220927406" lon="3.116458657595728"><ele>335.0</ele><time>2026-04-11T13:21:37Z</time></trkpt><trkpt lat="45.87933660445966" lon="3.116449637408268"><ele>335.0</ele><time>2026-04-11T13:21:39Z</time></trkpt><trkpt lat="45.87923713908753" lon="3.1164634935028723"><ele>335.0</ele><time>2026-04-11T13:21:41Z</time></trkpt><trkpt lat="45.87914938572082" lon="3.11645560869186"><ele>335.0</ele><time>2026-04-11T13:21:44Z</time></trkpt><trkpt lat="45.87908420378" lon="3.1164265585828788"><ele>335.0</ele><time>2026-04-11T13:21:55Z</time></trkpt><trkpt lat="45.878986171003426" lon="3.116416638150045"><ele>335.0</ele><time>2026-04-11T13:21:58Z</time></trkpt><trkpt lat="45.87889098602463" lon="3.116406039670593"><ele>335.0</ele><time>2026-04-11T13:22:00Z</time></trkpt><trkpt lat="45.878784750701485" lon="3.1163937147952154"><ele>335.0</ele><time>2026-04-11T13:22:02Z</time></trkpt><trkpt lat="45.878681027993764" lon="3.1163937147957785"><ele>335.0</ele><time>2026-04-11T13:22:04Z</time></trkpt><trkpt lat="45.87861277324727" lon="3.116569926002788"><ele>335.0</ele><time>2026-04-11T13:22:06Z</time></trkpt><trkpt lat="45.87855365309015" lon="3.1166992396136144"><ele>335.0</ele><time>2026-04-11T13:22:08Z</time></trkpt><trkpt lat="45.878518014680154" lon="3.116861247198237"><ele>335.0</ele><time>2026-04-11T13:22:10Z</time></trkpt><trkpt lat="45.87849010737444" lon="3.1170348046513894"><ele>335.0</ele><time>2026-04-11T13:22:12Z</time></trkpt><trkpt lat="45.87846297674861" lon="3.1172085475983735"><ele>334.99999999999994</ele><time>2026-04-11T13:22:14Z</time></trkpt><trkpt lat="45.87844899409018" lon="3.1172988006425904"><ele>335.0</ele><time>2026-04-11T13:22:15Z</time></trkpt><trkpt lat="45.8784364144704" lon="3.1173882563362607"><ele>335.0</ele><time>2026-04-11T13:22:16Z</time></trkpt><trkpt lat="45.87841177518943" lon="3.1175624672458673"><ele>335.0</ele><time>2026-04-11T13:22:18Z</time></trkpt><trkpt lat="45.878396754175014" lon="3.117652463894682"><ele>335.0</ele><time>2026-04-11T13:22:19Z</time></trkpt><trkpt lat="45.87838405371191" lon="3.117744535835165"><ele>334.99999999999994</ele><time>2026-04-11T13:22:20Z</time></trkpt><trkpt lat="45.878368863318556" lon="3.11783548566949"><ele>335.0</ele><time>2026-04-11T13:22:21Z</time></trkpt><trkpt lat="45.87835354766759" lon="3.117928936428891"><ele>334.85714285714283</ele><time>2026-04-11T13:22:22Z</time></trkpt><trkpt lat="45.87834079242215" lon="3.11802382366813"><ele>334.7142857142857</ele><time>2026-04-11T13:22:23Z</time></trkpt><trkpt lat="45.87832680172982" lon="3.1181181290442987"><ele>334.57142857142856</ele><time>2026-04-11T13:22:24Z</time></trkpt><trkpt lat="45.87831135035349" lon="3.1182112834699818"><ele>334.42857142857144</ele><time>2026-04-11T13:22:25Z</time></trkpt><trkpt lat="45.87829671970102" lon="3.1183052136143363"><ele>334.2857142857143</ele><time>2026-04-11T13:22:26Z</time></trkpt><trkpt lat="45.87828135477581" lon="3.1183993815078592"><ele>334.1428571428571</ele><time>2026-04-11T13:22:27Z</time></trkpt><trkpt lat="45.87826625464392" lon="3.118495520329934"><ele>334.0</ele><time>2026-04-11T13:22:28Z</time></trkpt><trkpt lat="45.878251370145115" lon="3.1185861341376677"><ele>333.85714285714283</ele><time>2026-04-11T13:22:29Z</time></trkpt><trkpt lat="45.878234977801824" lon="3.118682328961895"><ele>333.7142857142857</ele><time>2026-04-11T13:22:30Z</time></trkpt><trkpt lat="45.87822018872892" lon="3.118776382506629"><ele>333.57142857142856</ele><time>2026-04-11T13:22:31Z</time></trkpt><trkpt lat="45.87820421511292" lon="3.118870187317376"><ele>333.42857142857144</ele><time>2026-04-11T13:22:32Z</time></trkpt><trkpt lat="45.878178472052255" lon="3.1189613459000873"><ele>333.2857142857143</ele><time>2026-04-11T13:22:33Z</time></trkpt><trkpt lat="45.878152544970256" lon="3.1190476059352124"><ele>333.14285714285717</ele><time>2026-04-11T13:22:34Z</time></trkpt><trkpt lat="45.878117485019935" lon="3.1191265590278796"><ele>333.0</ele><time>2026-04-11T13:22:35Z</time></trkpt><trkpt lat="45.87807928397498" lon="3.119200592148191"><ele>333.0</ele><time>2026-04-11T13:22:36Z</time></trkpt><trkpt lat="45.8779948850243" lon="3.1193331080084508"><ele>333.0</ele><time>2026-04-11T13:22:38Z</time></trkpt><trkpt lat="45.877900489857865" lon="3.1194136419926988"><ele>333.0</ele><time>2026-04-11T13:22:40Z</time></trkpt><trkpt lat="45.87778654224733" lon="3.119398065917526"><ele>333.0</ele><time>2026-04-11T13:22:42Z</time></trkpt><trkpt lat="45.877674969449984" lon="3.1194115028861193"><ele>333.0</ele><time>2026-04-11T13:22:44Z</time></trkpt><trkpt lat="45.87759433204696" lon="3.11953112130935"><ele>333.0</ele><time>2026-04-11T13:22:46Z</time></trkpt><trkpt lat="45.87755937615769" lon="3.1196942496481492"><ele>333.0</ele><time>2026-04-11T13:22:48Z</time></trkpt><trkpt lat="45.87749768403768" lon="3.1198446879015185"><ele>333.0</ele><time>2026-04-11T13:22:50Z</time></trkpt><trkpt lat="45.87744371915308" lon="3.1198978557022095"><ele>333.0</ele><time>2026-04-11T13:22:51Z</time></trkpt><trkpt lat="45.877342483515804" lon="3.120008238020215"><ele>333.0</ele><time>2026-04-11T13:22:53Z</time></trkpt><trkpt lat="45.877291844379904" lon="3.120064123978259"><ele>333.0</ele><time>2026-04-11T13:22:54Z</time></trkpt><trkpt lat="45.87723895712542" lon="3.1201194398990726"><ele>333.0</ele><time>2026-04-11T13:22:55Z</time></trkpt><trkpt lat="45.87718461372487" lon="3.1201749634148657"><ele>333.0</ele><time>2026-04-11T13:22:56Z</time></trkpt><trkpt lat="45.87712834275468" lon="3.120228849891601"><ele>333.0</ele><time>2026-04-11T13:22:57Z</time></trkpt><trkpt lat="45.87707119227047" lon="3.120283002552511"><ele>333.0</ele><time>2026-04-11T13:22:58Z</time></trkpt><trkpt lat="45.87701392121718" lon="3.1203377431383674"><ele>333.0</ele><time>2026-04-11T13:22:59Z</time></trkpt><trkpt lat="45.876958322960796" lon="3.12039399033494"><ele>333.0</ele><time>2026-04-11T13:23:00Z</time></trkpt><trkpt lat="45.87690204272243" lon="3.1204520349798206"><ele>333.0</ele><time>2026-04-11T13:23:01Z</time></trkpt><trkpt lat="45.87684406030236" lon="3.1205033269136124"><ele>333.0</ele><time>2026-04-11T13:23:02Z</time></trkpt><trkpt lat="45.87678725771176" lon="3.120563860725126"><ele>333.0</ele><time>2026-04-11T13:23:03Z</time></trkpt><trkpt lat="45.87672403913238" lon="3.1206208543139913"><ele>333.0</ele><time>2026-04-11T13:23:04Z</time></trkpt><trkpt lat="45.87666822893355" lon="3.1206819842508495"><ele>333.0</ele><time>2026-04-11T13:23:05Z</time></trkpt><trkpt lat="45.87661104314998" lon="3.1207409410697715"><ele>333.0</ele><time>2026-04-11T13:23:06Z</time></trkpt><trkpt lat="45.876551775312464" lon="3.1207923179698893"><ele>333.0</ele><time>2026-04-11T13:23:07Z</time></trkpt><trkpt lat="45.87649412998057" lon="3.1208605038417594"><ele>333.0</ele><time>2026-04-11T13:23:08Z</time></trkpt><trkpt lat="45.876434062805636" lon="3.1209170453925896"><ele>333.0</ele><time>2026-04-11T13:23:09Z</time></trkpt><trkpt lat="45.876374982498604" lon="3.1209718960055746"><ele>333.0</ele><time>2026-04-11T13:23:10Z</time></trkpt><trkpt lat="45.87632169163008" lon="3.1210303835578665"><ele>333.0</ele><time>2026-04-11T13:23:11Z</time></trkpt><trkpt lat="45.87627244615539" lon="3.1210931097453307"><ele>333.0</ele><time>2026-04-11T13:23:12Z</time></trkpt><trkpt lat="45.876218649709486" lon="3.121162558712515"><ele>333.0</ele><time>2026-04-11T13:23:13Z</time></trkpt><trkpt lat="45.87616821551986" lon="3.1212368308489524"><ele>333.0</ele><time>2026-04-11T13:23:14Z</time></trkpt><trkpt lat="45.876119049327514" lon="3.1213155986889585"><ele>333.0</ele><time>2026-04-11T13:23:15Z</time></trkpt><trkpt lat="45.876066799282746" lon="3.1213884331817705"><ele>333.0</ele><time>2026-04-11T13:23:16Z</time></trkpt><trkpt lat="45.87602184780344" lon="3.1214671007867345"><ele>333.0</ele><time>2026-04-11T13:23:17Z</time></trkpt><trkpt lat="45.87596802488289" lon="3.121543728030248"><ele>333.0</ele><time>2026-04-11T13:23:18Z</time></trkpt><trkpt lat="45.87591799846992" lon="3.1216239053201185"><ele>333.0</ele><time>2026-04-11T13:23:19Z</time></trkpt><trkpt lat="45.87586777968462" lon="3.121702062451707"><ele>333.0</ele><time>2026-04-11T13:23:20Z</time></trkpt><trkpt lat="45.875822054274224" lon="3.1217841261750383"><ele>333.1666666666667</ele><time>2026-04-11T13:23:21Z</time></trkpt><trkpt lat="45.87572677188609" lon="3.121916599103499"><ele>333.3333333333333</ele><time>2026-04-11T13:23:23Z</time></trkpt><trkpt lat="45.87567037891803" lon="3.1219839653761707"><ele>333.5</ele><time>2026-04-11T13:23:24Z</time></trkpt><trkpt lat="45.87563130969218" lon="3.1220835579018904"><ele>333.66666666666663</ele><time>2026-04-11T13:23:25Z</time></trkpt><trkpt lat="45.87558166084252" lon="3.1221637896809904"><ele>333.8333333333333</ele><time>2026-04-11T13:23:26Z</time></trkpt><trkpt lat="45.87553329459325" lon="3.1222384950521516"><ele>334.0</ele><time>2026-04-11T13:23:27Z</time></trkpt><trkpt lat="45.875490022905275" lon="3.122320183743623"><ele>334.0</ele><time>2026-04-11T13:23:28Z</time></trkpt><trkpt lat="45.875444237411514" lon="3.1223949327571354"><ele>334.0</ele><time>2026-04-11T13:23:29Z</time></trkpt><trkpt lat="45.875395040042726" lon="3.1224749756653782"><ele>334.0</ele><time>2026-04-11T13:23:30Z</time></trkpt><trkpt lat="45.87534498018467" lon="3.122546565754231"><ele>334.0</ele><time>2026-04-11T13:23:31Z</time></trkpt><trkpt lat="45.87529490918633" lon="3.122620988356209"><ele>334.0</ele><time>2026-04-11T13:23:32Z</time></trkpt><trkpt lat="45.875245011618034" lon="3.1226892596533267"><ele>334.0</ele><time>2026-04-11T13:23:33Z</time></trkpt><trkpt lat="45.875190822297554" lon="3.122755942702252"><ele>334.0</ele><time>2026-04-11T13:23:34Z</time></trkpt><trkpt lat="45.87513868139664" lon="3.122832449448186"><ele>333.7142857142857</ele><time>2026-04-11T13:23:35Z</time></trkpt><trkpt lat="45.87508553569411" lon="3.1229047161750825"><ele>333.42857142857144</ele><time>2026-04-11T13:23:36Z</time></trkpt><trkpt lat="45.875035884876766" lon="3.1229805426309367"><ele>333.1428571428571</ele><time>2026-04-11T13:23:37Z</time></trkpt><trkpt lat="45.874986946642295" lon="3.1230595950514544"><ele>332.8571428571429</ele><time>2026-04-11T13:23:38Z</time></trkpt><trkpt lat="45.874937637331506" lon="3.1231372652115743"><ele>332.5714285714286</ele><time>2026-04-11T13:23:39Z</time></trkpt><trkpt lat="45.87488978944609" lon="3.123213477014651"><ele>332.2857142857143</ele><time>2026-04-11T13:23:40Z</time></trkpt><trkpt lat="45.87484000430262" lon="3.123286463198698"><ele>332.0</ele><time>2026-04-11T13:23:41Z</time></trkpt><trkpt lat="45.874784853194264" lon="3.123357628880501"><ele>331.85714285714283</ele><time>2026-04-11T13:23:42Z</time></trkpt><trkpt lat="45.87473234003805" lon="3.1234199724043594"><ele>331.7142857142857</ele><time>2026-04-11T13:23:43Z</time></trkpt><trkpt lat="45.874676510917055" lon="3.123480679025329"><ele>331.57142857142856</ele><time>2026-04-11T13:23:44Z</time></trkpt><trkpt lat="45.87462295980498" lon="3.12354054376632"><ele>331.42857142857144</ele><time>2026-04-11T13:23:45Z</time></trkpt><trkpt lat="45.87456781887073" lon="3.123602034204757"><ele>331.2857142857143</ele><time>2026-04-11T13:23:46Z</time></trkpt><trkpt lat="45.87451322464848" lon="3.1236599937809615"><ele>331.14285714285717</ele><time>2026-04-11T13:23:47Z</time></trkpt><trkpt lat="45.87445607877057" lon="3.1237240295241437"><ele>331.0</ele><time>2026-04-11T13:23:48Z</time></trkpt><trkpt lat="45.874397343699485" lon="3.1237850717568696"><ele>331.0</ele><time>2026-04-11T13:23:49Z</time></trkpt><trkpt lat="45.874340975859845" lon="3.1238440936277425"><ele>331.0</ele><time>2026-04-11T13:23:50Z</time></trkpt><trkpt lat="45.874287778365414" lon="3.1238998260994495"><ele>331.0</ele><time>2026-04-11T13:23:51Z</time></trkpt><trkpt lat="45.87422959334831" lon="3.1239622961805313"><ele>331.0</ele><time>2026-04-11T13:23:52Z</time></trkpt><trkpt lat="45.8741746488113" lon="3.1240274740655054"><ele>331.0</ele><time>2026-04-11T13:23:53Z</time></trkpt><trkpt lat="45.874122720683744" lon="3.1240914898943233"><ele>331.0</ele><time>2026-04-11T13:23:54Z</time></trkpt><trkpt lat="45.87406473928905" lon="3.124146464385705"><ele>331.0</ele><time>2026-04-11T13:23:55Z</time></trkpt><trkpt lat="45.87401024877971" lon="3.1242046688432557"><ele>331.14285714285717</ele><time>2026-04-11T13:23:56Z</time></trkpt><trkpt lat="45.87395571802045" lon="3.1242777875150796"><ele>331.2857142857143</ele><time>2026-04-11T13:23:57Z</time></trkpt><trkpt lat="45.873899661548926" lon="3.124329753060113"><ele>331.42857142857144</ele><time>2026-04-11T13:23:58Z</time></trkpt><trkpt lat="45.873841467152786" lon="3.12437657125021"><ele>331.57142857142856</ele><time>2026-04-11T13:23:59Z</time></trkpt><trkpt lat="45.87377314001893" lon="3.124402896227462"><ele>331.7142857142857</ele><time>2026-04-11T13:24:00Z</time></trkpt><trkpt lat="45.873703223433246" lon="3.1244068438682953"><ele>331.85714285714283</ele><time>2026-04-11T13:24:01Z</time></trkpt><trkpt lat="45.873635458804145" lon="3.124407176971036"><ele>332.0</ele><time>2026-04-11T13:24:02Z</time></trkpt><trkpt lat="45.87356546480594" lon="3.1244190163477747"><ele>332.0</ele><time>2026-04-11T13:24:03Z</time></trkpt><trkpt lat="45.873493865218656" lon="3.1244302904119863"><ele>332.0</ele><time>2026-04-11T13:24:04Z</time></trkpt><trkpt lat="45.87342556473737" lon="3.124435184768065"><ele>332.0</ele><time>2026-04-11T13:24:05Z</time></trkpt><trkpt lat="45.87335814874718" lon="3.1244502725632004"><ele>332.0</ele><time>2026-04-11T13:24:06Z</time></trkpt><trkpt lat="45.873290268464025" lon="3.1244702507460866"><ele>332.0</ele><time>2026-04-11T13:24:07Z</time></trkpt><trkpt lat="45.873215492918426" lon="3.124469522368955"><ele>332.0</ele><time>2026-04-11T13:24:08Z</time></trkpt><trkpt lat="45.8731430319096" lon="3.124478663438743"><ele>332.0</ele><time>2026-04-11T13:24:09Z</time></trkpt><trkpt lat="45.87307885620571" lon="3.124486834489811"><ele>332.0</ele><time>2026-04-11T13:24:10Z</time></trkpt><trkpt lat="45.87295581406965" lon="3.1244891242845707"><ele>332.0</ele><time>2026-04-11T13:24:12Z</time></trkpt><trkpt lat="45.872862841397996" lon="3.1246077899190148"><ele>332.0</ele><time>2026-04-11T13:24:14Z</time></trkpt><trkpt lat="45.87283425841799" lon="3.1247081262102765"><ele>332.0</ele><time>2026-04-11T13:24:15Z</time></trkpt><trkpt lat="45.8728000534913" lon="3.1247960729033464"><ele>332.0</ele><time>2026-04-11T13:24:16Z</time></trkpt><trkpt lat="45.87275453358575" lon="3.124871633930207"><ele>332.0</ele><time>2026-04-11T13:24:17Z</time></trkpt><trkpt lat="45.872711110869695" lon="3.1249514615452685"><ele>332.0</ele><time>2026-04-11T13:24:18Z</time></trkpt><trkpt lat="45.87266741737408" lon="3.125036686823353"><ele>332.0</ele><time>2026-04-11T13:24:19Z</time></trkpt><trkpt lat="45.8725877860821" lon="3.1251826105334057"><ele>332.0</ele><time>2026-04-11T13:24:21Z</time></trkpt><trkpt lat="45.87253656809793" lon="3.1252688934239288"><ele>332.0</ele><time>2026-04-11T13:24:22Z</time></trkpt><trkpt lat="45.87248912132378" lon="3.1253568894610453"><ele>332.0</ele><time>2026-04-11T13:24:23Z</time></trkpt><trkpt lat="45.87244575303067" lon="3.125440385672353"><ele>331.83333333333337</ele><time>2026-04-11T13:24:24Z</time></trkpt><trkpt lat="45.87240195034704" lon="3.1255259249309573"><ele>331.6666666666667</ele><time>2026-04-11T13:24:25Z</time></trkpt><trkpt lat="45.87235555220952" lon="3.1256176269146714"><ele>331.5</ele><time>2026-04-11T13:24:26Z</time></trkpt><trkpt lat="45.87231513621766" lon="3.125696840231093"><ele>331.3333333333333</ele><time>2026-04-11T13:24:27Z</time></trkpt><trkpt lat="45.87226178147456" lon="3.125773179773647"><ele>331.16666666666663</ele><time>2026-04-11T13:24:28Z</time></trkpt><trkpt lat="45.87220750507187" lon="3.125871477049418"><ele>331.0</ele><time>2026-04-11T13:24:29Z</time></trkpt><trkpt lat="45.872162403919134" lon="3.1259560788120484"><ele>330.8333333333333</ele><time>2026-04-11T13:24:30Z</time></trkpt><trkpt lat="45.87211300751108" lon="3.126046346111337"><ele>330.66666666666663</ele><time>2026-04-11T13:24:31Z</time></trkpt><trkpt lat="45.872068252185834" lon="3.1261243994119208"><ele>330.5</ele><time>2026-04-11T13:24:32Z</time></trkpt><trkpt lat="45.8720158743641" lon="3.126214072783264"><ele>330.3333333333333</ele><time>2026-04-11T13:24:33Z</time></trkpt><trkpt lat="45.87196223210557" lon="3.1262976851546767"><ele>330.1666666666667</ele><time>2026-04-11T13:24:34Z</time></trkpt><trkpt lat="45.87190543339822" lon="3.126365642662767"><ele>330.0</ele><time>2026-04-11T13:24:35Z</time></trkpt><trkpt lat="45.87183839009573" lon="3.1264250808018472"><ele>329.8333333333333</ele><time>2026-04-11T13:24:36Z</time></trkpt><trkpt lat="45.87176836566255" lon="3.1264559360111526"><ele>329.6666666666667</ele><time>2026-04-11T13:24:37Z</time></trkpt><trkpt lat="45.87169122859193" lon="3.1264733681084618"><ele>329.5</ele><time>2026-04-11T13:24:38Z</time></trkpt><trkpt lat="45.8716199043363" lon="3.1265108711269125"><ele>329.33333333333337</ele><time>2026-04-11T13:24:39Z</time></trkpt><trkpt lat="45.871542808551126" lon="3.126527941481214"><ele>329.1666666666667</ele><time>2026-04-11T13:24:40Z</time></trkpt><trkpt lat="45.871460074085725" lon="3.1265669838793184"><ele>329.0</ele><time>2026-04-11T13:24:41Z</time></trkpt><trkpt lat="45.87139715174515" lon="3.126605484912371"><ele>329.0</ele><time>2026-04-11T13:24:42Z</time></trkpt><trkpt lat="45.87134197171681" lon="3.1266761769855216"><ele>329.0</ele><time>2026-04-11T13:24:43Z</time></trkpt><trkpt lat="45.87129869683616" lon="3.1267656704973867"><ele>329.0</ele><time>2026-04-11T13:24:44Z</time></trkpt><trkpt lat="45.87126943868368" lon="3.126862700250741"><ele>329.0</ele><time>2026-04-11T13:24:45Z</time></trkpt><trkpt lat="45.87125180320677" lon="3.1269619552637633"><ele>329.0</ele><time>2026-04-11T13:24:46Z</time></trkpt><trkpt lat="45.87124154568287" lon="3.127060948698493"><ele>329.0</ele><time>2026-04-11T13:24:47Z</time></trkpt><trkpt lat="45.87121484423607" lon="3.127251731129485"><ele>329.0</ele><time>2026-04-11T13:24:49Z</time></trkpt><trkpt lat="45.87120563731345" lon="3.127348125714597"><ele>329.0</ele><time>2026-04-11T13:24:50Z</time></trkpt><trkpt lat="45.87119348048913" lon="3.1274441860981796"><ele>329.0</ele><time>2026-04-11T13:24:51Z</time></trkpt><trkpt lat="45.871185774474526" lon="3.1275387187285926"><ele>329.0</ele><time>2026-04-11T13:24:52Z</time></trkpt><trkpt lat="45.871176739715885" lon="3.1276370839006957"><ele>329.0</ele><time>2026-04-11T13:24:53Z</time></trkpt><trkpt lat="45.87116389085049" lon="3.1277328604239023"><ele>329.0</ele><time>2026-04-11T13:24:54Z</time></trkpt><trkpt lat="45.87115298907962" lon="3.127829355356646"><ele>329.0</ele><time>2026-04-11T13:24:55Z</time></trkpt><trkpt lat="45.871141376390966" lon="3.127924591394592"><ele>329.0</ele><time>2026-04-11T13:24:56Z</time></trkpt><trkpt lat="45.871130797430936" lon="3.1280197126167555"><ele>329.0</ele><time>2026-04-11T13:24:57Z</time></trkpt><trkpt lat="45.87113142636456" lon="3.128116022569748"><ele>329.0</ele><time>2026-04-11T13:24:58Z</time></trkpt><trkpt lat="45.87113687272379" lon="3.12820822107077"><ele>329.0</ele><time>2026-04-11T13:24:59Z</time></trkpt><trkpt lat="45.8711534068922" lon="3.128374984994971"><ele>329.0</ele><time>2026-04-11T13:25:01Z</time></trkpt><trkpt lat="45.871163755770766" lon="3.12846883913983"><ele>329.0</ele><time>2026-04-11T13:25:02Z</time></trkpt><trkpt lat="45.87117906336672" lon="3.1285710375017457"><ele>329.1666666666667</ele><time>2026-04-11T13:25:03Z</time></trkpt><trkpt lat="45.87118427754778" lon="3.128676720672371"><ele>329.33333333333337</ele><time>2026-04-11T13:25:04Z</time></trkpt><trkpt lat="45.87119213965684" lon="3.1287908914947544"><ele>329.5</ele><time>2026-04-11T13:25:05Z</time></trkpt><trkpt lat="45.87119518694614" lon="3.1289004469608526"><ele>329.6666666666667</ele><time>2026-04-11T13:25:06Z</time></trkpt><trkpt lat="45.87120121525276" lon="3.1290140548680565"><ele>329.8333333333333</ele><time>2026-04-11T13:25:07Z</time></trkpt><trkpt lat="45.87120273611431" lon="3.1291295273675335"><ele>330.0</ele><time>2026-04-11T13:25:08Z</time></trkpt><trkpt lat="45.87119404570908" lon="3.129245967766519"><ele>329.5</ele><time>2026-04-11T13:25:09Z</time></trkpt><trkpt lat="45.871179115215554" lon="3.129358341835974"><ele>329.0</ele><time>2026-04-11T13:25:10Z</time></trkpt><trkpt lat="45.871158182032524" lon="3.129458693453691"><ele>328.5</ele><time>2026-04-11T13:25:11Z</time></trkpt><trkpt lat="45.87113711950094" lon="3.1295508155446"><ele>328.0</ele><time>2026-04-11T13:25:12Z</time></trkpt><trkpt lat="45.871070275508025" lon="3.1296975589092364"><ele>327.5</ele><time>2026-04-11T13:25:14Z</time></trkpt><trkpt lat="45.8710676496323" lon="3.129793634570134"><ele>327.0</ele><time>2026-04-11T13:25:15Z</time></trkpt><trkpt lat="45.87107159700856" lon="3.129894673528806"><ele>327.0</ele><time>2026-04-11T13:25:16Z</time></trkpt><trkpt lat="45.87106160031256" lon="3.1299953870723853"><ele>327.0</ele><time>2026-04-11T13:25:17Z</time></trkpt><trkpt lat="45.87104001674441" lon="3.1300966424584593"><ele>327.0</ele><time>2026-04-11T13:25:18Z</time></trkpt><trkpt lat="45.87101366925765" lon="3.130192815227071"><ele>327.0</ele><time>2026-04-11T13:25:19Z</time></trkpt><trkpt lat="45.87098650926797" lon="3.1302896340415804"><ele>327.0</ele><time>2026-04-11T13:25:20Z</time></trkpt><trkpt lat="45.87095344428324" lon="3.1303825507213032"><ele>327.0</ele><time>2026-04-11T13:25:21Z</time></trkpt><trkpt lat="45.87091856221881" lon="3.1304762443778094"><ele>327.0</ele><time>2026-04-11T13:25:22Z</time></trkpt><trkpt lat="45.87088288215599" lon="3.130565354846695"><ele>326.8333333333333</ele><time>2026-04-11T13:25:23Z</time></trkpt><trkpt lat="45.8708450640769" lon="3.130656280018546"><ele>326.6666666666667</ele><time>2026-04-11T13:25:24Z</time></trkpt><trkpt lat="45.870800638804354" lon="3.1307433480067424"><ele>326.5</ele><time>2026-04-11T13:25:25Z</time></trkpt><trkpt lat="45.87075232595823" lon="3.1308158979045526"><ele>326.33333333333337</ele><time>2026-04-11T13:25:26Z</time></trkpt><trkpt lat="45.87070394019551" lon="3.1308966497239004"><ele>326.1666666666667</ele><time>2026-04-11T13:25:27Z</time></trkpt><trkpt lat="45.87065875552708" lon="3.130972253069438"><ele>326.0</ele><time>2026-04-11T13:25:28Z</time></trkpt><trkpt lat="45.87058933124749" lon="3.1310925777223475"><ele>326.0</ele><time>2026-04-11T13:25:30Z</time></trkpt><trkpt lat="45.870522686591805" lon="3.131183990291644"><ele>326.0</ele><time>2026-04-11T13:25:32Z</time></trkpt><trkpt lat="45.870445628336704" lon="3.131300151747095"><ele>326.0</ele><time>2026-04-11T13:25:34Z</time></trkpt><trkpt lat="45.870365438826155" lon="3.131426203140126"><ele>326.0</ele><time>2026-04-11T13:25:36Z</time></trkpt><trkpt lat="45.870293399323806" lon="3.131566972380275"><ele>326.0</ele><time>2026-04-11T13:25:38Z</time></trkpt><trkpt lat="45.87022196474647" lon="3.1316866607056566"><ele>326.0</ele><time>2026-04-11T13:25:40Z</time></trkpt><trkpt lat="45.87016630516207" lon="3.131784715619126"><ele>326.0</ele><time>2026-04-11T13:25:42Z</time></trkpt><trkpt lat="45.87012261593706" lon="3.1318607483674117"><ele>326.0</ele><time>2026-04-11T13:26:57Z</time></trkpt><trkpt lat="45.87008135568192" lon="3.1319290798271546"><ele>326.0</ele><time>2026-04-11T13:27:03Z</time></trkpt><trkpt lat="45.87007401094024" lon="3.1320430146200757"><ele>326.0</ele><time>2026-04-11T13:27:09Z</time></trkpt><trkpt lat="45.87002592741802" lon="3.1321154294135667"><ele>326.0</ele><time>2026-04-11T13:27:15Z</time></trkpt><trkpt lat="45.86997432346465" lon="3.132186487357219"><ele>326.0</ele><time>2026-04-11T13:27:21Z</time></trkpt><trkpt lat="45.869923526554686" lon="3.1322495466251854"><ele>326.0</ele><time>2026-04-11T13:31:39Z</time></trkpt><trkpt lat="45.869869261932905" lon="3.1323299946288334"><ele>326.0</ele><time>2026-04-11T13:31:43Z</time></trkpt><trkpt lat="45.86981021268972" lon="3.13240954054072"><ele>326.0</ele><time>2026-04-11T13:31:45Z</time></trkpt><trkpt lat="45.86974537405832" lon="3.1324850832937585"><ele>326.0</ele><time>2026-04-11T13:31:47Z</time></trkpt><trkpt lat="45.86968109150457" lon="3.1325724867279763"><ele>326.0</ele><time>2026-04-11T13:31:49Z</time></trkpt><trkpt lat="45.86961184178684" lon="3.132659193681296"><ele>326.0</ele><time>2026-04-11T13:31:51Z</time></trkpt><trkpt lat="45.86953445452563" lon="3.132754311019133"><ele>326.0</ele><time>2026-04-11T13:31:53Z</time></trkpt><trkpt lat="45.86945250923027" lon="3.1328503349239702"><ele>326.0</ele><time>2026-04-11T13:31:55Z</time></trkpt><trkpt lat="45.869369490040526" lon="3.132949265244888"><ele>326.0</ele><time>2026-04-11T13:31:57Z</time></trkpt><trkpt lat="45.86930591884266" lon="3.1329547616419977"><ele>326.0</ele><time>2026-04-11T13:31:58Z</time></trkpt><trkpt lat="45.869230065624485" lon="3.133050391948774"><ele>326.0</ele><time>2026-04-11T13:32:00Z</time></trkpt><trkpt lat="45.8691648134874" lon="3.1331326570420956"><ele>326.0</ele><time>2026-04-11T13:32:02Z</time></trkpt><trkpt lat="45.86910560324404" lon="3.1332032310330926"><ele>326.0</ele><time>2026-04-11T13:32:04Z</time></trkpt><trkpt lat="45.86904182602956" lon="3.1332631073739754"><ele>326.0</ele><time>2026-04-11T13:32:06Z</time></trkpt><trkpt lat="45.86896714979749" lon="3.1333186062570095"><ele>326.0</ele><time>2026-04-11T13:32:08Z</time></trkpt><trkpt lat="45.86888776411459" lon="3.1333650902533834"><ele>326.0</ele><time>2026-04-11T13:32:10Z</time></trkpt><trkpt lat="45.86881033096647" lon="3.133398511245166"><ele>326.0</ele><time>2026-04-11T13:32:12Z</time></trkpt><trkpt lat="45.868721417446814" lon="3.133424321665594"><ele>325.8</ele><time>2026-04-11T13:32:14Z</time></trkpt><trkpt lat="45.8686256475336" lon="3.1334451620305326"><ele>325.6</ele><time>2026-04-11T13:32:16Z</time></trkpt><trkpt lat="45.86851546196963" lon="3.1334866099017495"><ele>325.4</ele><time>2026-04-11T13:32:18Z</time></trkpt><trkpt lat="45.86841832740189" lon="3.133556104251953"><ele>325.2</ele><time>2026-04-11T13:32:20Z</time></trkpt><trkpt lat="45.86832420084156" lon="3.1336595226000905"><ele>325.0</ele><time>2026-04-11T13:32:22Z</time></trkpt><trkpt lat="45.86824451371272" lon="3.1337813551597433"><ele>324.8</ele><time>2026-04-11T13:32:24Z</time></trkpt><trkpt lat="45.86818541593133" lon="3.1339311038944917"><ele>324.6</ele><time>2026-04-11T13:32:26Z</time></trkpt><trkpt lat="45.86814396600532" lon="3.1340623277473205"><ele>324.4</ele><time>2026-04-11T13:32:28Z</time></trkpt><trkpt lat="45.868113900920584" lon="3.1341627776268184"><ele>324.2</ele><time>2026-04-11T13:32:30Z</time></trkpt><trkpt lat="45.868065216008624" lon="3.1342548115701976"><ele>324.0</ele><time>2026-04-11T13:32:35Z</time></trkpt><trkpt lat="45.86802294881743" lon="3.1343760069121793"><ele>324.0</ele><time>2026-04-11T13:32:38Z</time></trkpt><trkpt lat="45.86793036634015" lon="3.134406013462028"><ele>324.0</ele><time>2026-04-11T13:32:39Z</time></trkpt><trkpt lat="45.86784777877324" lon="3.1343658246732935"><ele>324.0</ele><time>2026-04-11T13:32:40Z</time></trkpt><trkpt lat="45.86775394602831" lon="3.1343344549987084"><ele>324.0</ele><time>2026-04-11T13:32:42Z</time></trkpt><trkpt lat="45.86765643155286" lon="3.1342279849522283"><ele>324.0</ele><time>2026-04-11T13:32:44Z</time></trkpt><trkpt lat="45.86755400728061" lon="3.134167185574208"><ele>323.79999999999995</ele><time>2026-04-11T13:32:46Z</time></trkpt><trkpt lat="45.86744811763769" lon="3.134104465336613"><ele>323.59999999999997</ele><time>2026-04-11T13:32:48Z</time></trkpt><trkpt lat="45.867341964463044" lon="3.1340525585662737"><ele>323.4</ele><time>2026-04-11T13:32:50Z</time></trkpt><trkpt lat="45.867241663918975" lon="3.1340005962543844"><ele>323.2</ele><time>2026-04-11T13:32:52Z</time></trkpt><trkpt lat="45.86713779641012" lon="3.1339528093859057"><ele>323.0</ele><time>2026-04-11T13:32:54Z</time></trkpt><trkpt lat="45.86702669129901" lon="3.133915801916915"><ele>323.0</ele><time>2026-04-11T13:32:56Z</time></trkpt><trkpt lat="45.86691345200318" lon="3.1338814945428752"><ele>323.0</ele><time>2026-04-11T13:32:58Z</time></trkpt><trkpt lat="45.866799627828506" lon="3.133842047733675"><ele>323.0</ele><time>2026-04-11T13:33:00Z</time></trkpt><trkpt lat="45.86667742266024" lon="3.133818787784825"><ele>323.0</ele><time>2026-04-11T13:33:02Z</time></trkpt><trkpt lat="45.86655639660081" lon="3.1337966014697334"><ele>323.0</ele><time>2026-04-11T13:33:04Z</time></trkpt><trkpt lat="45.86643467461603" lon="3.1337893762261575"><ele>323.0</ele><time>2026-04-11T13:33:06Z</time></trkpt><trkpt lat="45.866308397511574" lon="3.133779459417595"><ele>323.0</ele><time>2026-04-11T13:33:08Z</time></trkpt><trkpt lat="45.866185164053924" lon="3.133778663778398"><ele>323.0</ele><time>2026-04-11T13:33:10Z</time></trkpt><trkpt lat="45.866122014796915" lon="3.1337818931586168"><ele>323.0</ele><time>2026-04-11T13:33:11Z</time></trkpt><trkpt lat="45.86605823251006" lon="3.1337891366508095"><ele>323.00000000000006</ele><time>2026-04-11T13:33:12Z</time></trkpt><trkpt lat="45.86599435227601" lon="3.1337944472256676"><ele>323.0</ele><time>2026-04-11T13:33:13Z</time></trkpt><trkpt lat="45.86592974221376" lon="3.1337965340001763"><ele>323.0</ele><time>2026-04-11T13:33:14Z</time></trkpt><trkpt lat="45.86586365049256" lon="3.133801499818681"><ele>323.0</ele><time>2026-04-11T13:33:15Z</time></trkpt><trkpt lat="45.865796412644215" lon="3.1338093061352037"><ele>323.0</ele><time>2026-04-11T13:33:16Z</time></trkpt><trkpt lat="45.865727392039354" lon="3.133817393108597"><ele>323.00000000000006</ele><time>2026-04-11T13:33:17Z</time></trkpt><trkpt lat="45.86565884956064" lon="3.133829126379573"><ele>323.0</ele><time>2026-04-11T13:33:18Z</time></trkpt><trkpt lat="45.86559027016021" lon="3.1338383053497627"><ele>323.00000000000006</ele><time>2026-04-11T13:33:19Z</time></trkpt><trkpt lat="45.8655204865615" lon="3.1338495273170186"><ele>323.0</ele><time>2026-04-11T13:33:20Z</time></trkpt><trkpt lat="45.86545011408669" lon="3.1338588850054188"><ele>323.0</ele><time>2026-04-11T13:33:21Z</time></trkpt><trkpt lat="45.865379833047776" lon="3.1338692751907846"><ele>323.0</ele><time>2026-04-11T13:33:22Z</time></trkpt><trkpt lat="45.86530790117017" lon="3.133880735413401"><ele>323.0</ele><time>2026-04-11T13:33:23Z</time></trkpt><trkpt lat="45.865236537935594" lon="3.1338907296348335"><ele>323.00000000000006</ele><time>2026-04-11T13:33:24Z</time></trkpt><trkpt lat="45.86516535745033" lon="3.1339004596093565"><ele>323.0</ele><time>2026-04-11T13:33:25Z</time></trkpt><trkpt lat="45.86509182588507" lon="3.1339097247015477"><ele>323.0</ele><time>2026-04-11T13:33:26Z</time></trkpt><trkpt lat="45.86501808228325" lon="3.133920647097219"><ele>323.0</ele><time>2026-04-11T13:33:27Z</time></trkpt><trkpt lat="45.86494387809267" lon="3.1339322019536717"><ele>323.0</ele><time>2026-04-11T13:33:28Z</time></trkpt><trkpt lat="45.864869018720654" lon="3.1339419989112827"><ele>323.0</ele><time>2026-04-11T13:33:28.999Z</time></trkpt><trkpt lat="45.864792987607146" lon="3.13395302628882"><ele>323.0</ele><time>2026-04-11T13:33:29.999Z</time></trkpt><trkpt lat="45.86471591564285" lon="3.133962276879626"><ele>323.0</ele><time>2026-04-11T13:33:30.999Z</time></trkpt><trkpt lat="45.864638697827246" lon="3.133972401962803"><ele>323.0</ele><time>2026-04-11T13:33:31.999Z</time></trkpt><trkpt lat="45.86456040154497" lon="3.1339844227660127"><ele>323.0</ele><time>2026-04-11T13:33:32.999Z</time></trkpt><trkpt lat="45.86448239900007" lon="3.133997964972694"><ele>323.0</ele><time>2026-04-11T13:33:33.999Z</time></trkpt><trkpt lat="45.864403823172545" lon="3.1340067830403378"><ele>323.0</ele><time>2026-04-11T13:33:34.999Z</time></trkpt><trkpt lat="45.86432460560537" lon="3.134017228907968"><ele>323.0</ele><time>2026-04-11T13:33:35.999Z</time></trkpt><trkpt lat="45.86424436646736" lon="3.1340288601935797"><ele>323.0</ele><time>2026-04-11T13:33:36.999Z</time></trkpt><trkpt lat="45.8641644689511" lon="3.134040637372507"><ele>323.0</ele><time>2026-04-11T13:33:37.999Z</time></trkpt><trkpt lat="45.864083761500595" lon="3.1340529823568084"><ele>323.0</ele><time>2026-04-11T13:33:38.999Z</time></trkpt><trkpt lat="45.864004799814786" lon="3.1340673927361133"><ele>323.0</ele><time>2026-04-11T13:33:39.999Z</time></trkpt><trkpt lat="45.86392552217406" lon="3.134078055963388"><ele>323.0</ele><time>2026-04-11T13:33:40.999Z</time></trkpt><trkpt lat="45.863845642560584" lon="3.1340899261478"><ele>323.0</ele><time>2026-04-11T13:33:41.999Z</time></trkpt><trkpt lat="45.86376683723133" lon="3.1341017487622413"><ele>323.0</ele><time>2026-04-11T13:33:42.999Z</time></trkpt><trkpt lat="45.86368775936306" lon="3.13411170483887"><ele>322.83333333333337</ele><time>2026-04-11T13:33:43.999Z</time></trkpt><trkpt lat="45.86360824605071" lon="3.1341218718983694"><ele>322.6666666666667</ele><time>2026-04-11T13:33:44.999Z</time></trkpt><trkpt lat="45.86352919880982" lon="3.1341306496665866"><ele>322.5</ele><time>2026-04-11T13:33:45.999Z</time></trkpt><trkpt lat="45.86345151774449" lon="3.1341422728268182"><ele>322.3333333333333</ele><time>2026-04-11T13:33:46.999Z</time></trkpt><trkpt lat="45.863373779887205" lon="3.134158213340608"><ele>322.16666666666663</ele><time>2026-04-11T13:33:47.999Z</time></trkpt><trkpt lat="45.863293365897306" lon="3.1341709647445324"><ele>322.0</ele><time>2026-04-11T13:33:48.999Z</time></trkpt><trkpt lat="45.86321424144295" lon="3.1341798265942353"><ele>322.0</ele><time>2026-04-11T13:33:49.999Z</time></trkpt><trkpt lat="45.8631339395347" lon="3.1341901485747776"><ele>322.0</ele><time>2026-04-11T13:33:50.999Z</time></trkpt><trkpt lat="45.86305615755757" lon="3.1342012022596677"><ele>322.0</ele><time>2026-04-11T13:33:51.999Z</time></trkpt><trkpt lat="45.862977992523966" lon="3.134216066387311"><ele>322.0</ele><time>2026-04-11T13:33:52.999Z</time></trkpt><trkpt lat="45.86290039223824" lon="3.1342277647634056"><ele>322.0</ele><time>2026-04-11T13:33:53.999Z</time></trkpt><trkpt lat="45.862821882798656" lon="3.1342398467817065"><ele>322.0</ele><time>2026-04-11T13:33:54.999Z</time></trkpt><trkpt lat="45.862744617500375" lon="3.1342496516788723"><ele>322.0</ele><time>2026-04-11T13:33:55.999Z</time></trkpt><trkpt lat="45.86266574411377" lon="3.134263105843481"><ele>322.0</ele><time>2026-04-11T13:33:56.999Z</time></trkpt><trkpt lat="45.862585540060046" lon="3.1342705087434757"><ele>322.0</ele><time>2026-04-11T13:33:57.999Z</time></trkpt><trkpt lat="45.86250701541601" lon="3.1342784063037867"><ele>322.0</ele><time>2026-04-11T13:33:58.999Z</time></trkpt><trkpt lat="45.86242647513584" lon="3.134293487892096"><ele>322.0</ele><time>2026-04-11T13:33:59.999Z</time></trkpt><trkpt lat="45.86234468534084" lon="3.1343043850769807"><ele>322.0</ele><time>2026-04-11T13:34:00.999Z</time></trkpt><trkpt lat="45.86226404902669" lon="3.1343143827282165"><ele>321.8333333333333</ele><time>2026-04-11T13:34:01.999Z</time></trkpt><trkpt lat="45.86218338064305" lon="3.1343270270857397"><ele>321.66666666666663</ele><time>2026-04-11T13:34:02.999Z</time></trkpt><trkpt lat="45.86210128886903" lon="3.1343370836617614"><ele>321.5</ele><time>2026-04-11T13:34:04Z</time></trkpt><trkpt lat="45.862020074681226" lon="3.1343463530807782"><ele>321.3333333333333</ele><time>2026-04-11T13:34:05Z</time></trkpt><trkpt lat="45.861939377606035" lon="3.1343570656938575"><ele>321.1666666666667</ele><time>2026-04-11T13:34:06Z</time></trkpt><trkpt lat="45.861859239673464" lon="3.134368984162163"><ele>321.0</ele><time>2026-04-11T13:34:07Z</time></trkpt><trkpt lat="45.861778891983384" lon="3.134378958655528"><ele>320.8333333333333</ele><time>2026-04-11T13:34:08Z</time></trkpt><trkpt lat="45.8616987012604" lon="3.134387155446423"><ele>320.6666666666667</ele><time>2026-04-11T13:34:09Z</time></trkpt><trkpt lat="45.86161770207111" lon="3.1343998707054483"><ele>320.5</ele><time>2026-04-11T13:34:10Z</time></trkpt><trkpt lat="45.86153783283285" lon="3.1344152696208436"><ele>320.33333333333337</ele><time>2026-04-11T13:34:11Z</time></trkpt><trkpt lat="45.8614582759314" lon="3.134429286254698"><ele>320.1666666666667</ele><time>2026-04-11T13:34:12Z</time></trkpt><trkpt lat="45.861377696129736" lon="3.134441814394341"><ele>320.0</ele><time>2026-04-11T13:34:13Z</time></trkpt><trkpt lat="45.86130026963338" lon="3.134456417754929"><ele>320.0</ele><time>2026-04-11T13:34:14Z</time></trkpt><trkpt lat="45.861218764621356" lon="3.1344773646929363"><ele>320.0</ele><time>2026-04-11T13:34:15Z</time></trkpt><trkpt lat="45.86113930753084" lon="3.1344931739385102"><ele>320.0</ele><time>2026-04-11T13:34:16Z</time></trkpt><trkpt lat="45.86105827352616" lon="3.1345074959733705"><ele>320.0</ele><time>2026-04-11T13:34:17Z</time></trkpt><trkpt lat="45.86097681009628" lon="3.134526265779483"><ele>320.0</ele><time>2026-04-11T13:34:18Z</time></trkpt><trkpt lat="45.860896189134124" lon="3.134545816789859"><ele>320.0</ele><time>2026-04-11T13:34:19Z</time></trkpt><trkpt lat="45.860817122171866" lon="3.1345685117501527"><ele>320.1666666666667</ele><time>2026-04-11T13:34:20Z</time></trkpt><trkpt lat="45.86073773761167" lon="3.1345909623194026"><ele>320.33333333333337</ele><time>2026-04-11T13:34:21Z</time></trkpt><trkpt lat="45.86065595137552" lon="3.134612851056876"><ele>320.5</ele><time>2026-04-11T13:34:22Z</time></trkpt><trkpt lat="45.86057615136265" lon="3.134636069854521"><ele>320.6666666666667</ele><time>2026-04-11T13:34:23Z</time></trkpt><trkpt lat="45.86049766437341" lon="3.134665394363057"><ele>320.8333333333333</ele><time>2026-04-11T13:34:24Z</time></trkpt><trkpt lat="45.860417362124196" lon="3.1346898713097526"><ele>321.0</ele><time>2026-04-11T13:34:25Z</time></trkpt><trkpt lat="45.86034056548771" lon="3.1347165269766744"><ele>321.0</ele><time>2026-04-11T13:34:26Z</time></trkpt><trkpt lat="45.860262282045305" lon="3.1347426793938777"><ele>321.0</ele><time>2026-04-11T13:34:27Z</time></trkpt><trkpt lat="45.86018248870337" lon="3.1347665551568977"><ele>321.0</ele><time>2026-04-11T13:34:28Z</time></trkpt><trkpt lat="45.860103034665045" lon="3.1347954979787587"><ele>321.0</ele><time>2026-04-11T13:34:29Z</time></trkpt><trkpt lat="45.860023352753444" lon="3.1348242747420456"><ele>321.0</ele><time>2026-04-11T13:34:30Z</time></trkpt><trkpt lat="45.859944643525345" lon="3.1348552787766537"><ele>321.0</ele><time>2026-04-11T13:34:31Z</time></trkpt><trkpt lat="45.85986702057965" lon="3.1348850740877636"><ele>321.1666666666667</ele><time>2026-04-11T13:34:32Z</time></trkpt><trkpt lat="45.859789291656334" lon="3.1349131660357306"><ele>321.3333333333333</ele><time>2026-04-11T13:34:33Z</time></trkpt><trkpt lat="45.859709987081914" lon="3.134941564527949"><ele>321.5</ele><time>2026-04-11T13:34:34Z</time></trkpt><trkpt lat="45.859633688267735" lon="3.13497113503819"><ele>321.66666666666663</ele><time>2026-04-11T13:34:35Z</time></trkpt><trkpt lat="45.859556784461105" lon="3.1350021784702813"><ele>321.8333333333333</ele><time>2026-04-11T13:34:36Z</time></trkpt><trkpt lat="45.85947930336816" lon="3.1350319777814732"><ele>322.0</ele><time>2026-04-11T13:34:37Z</time></trkpt><trkpt lat="45.859400565972734" lon="3.1350592696673707"><ele>322.0</ele><time>2026-04-11T13:34:38Z</time></trkpt><trkpt lat="45.85932177045344" lon="3.1350868328813424"><ele>322.0</ele><time>2026-04-11T13:34:39Z</time></trkpt><trkpt lat="45.859244676790766" lon="3.1351142455146643"><ele>322.0</ele><time>2026-04-11T13:34:40Z</time></trkpt><trkpt lat="45.85916583852221" lon="3.1351402992145445"><ele>322.0</ele><time>2026-04-11T13:34:41Z</time></trkpt><trkpt lat="45.85908809531572" lon="3.1351690355311552"><ele>322.0</ele><time>2026-04-11T13:34:42Z</time></trkpt><trkpt lat="45.85901070346657" lon="3.1351961515563116"><ele>322.0</ele><time>2026-04-11T13:34:43Z</time></trkpt><trkpt lat="45.85893166450219" lon="3.1352228991240367"><ele>321.8333333333333</ele><time>2026-04-11T13:34:44Z</time></trkpt><trkpt lat="45.858852999200046" lon="3.135249083335394"><ele>321.66666666666663</ele><time>2026-04-11T13:34:45Z</time></trkpt><trkpt lat="45.858773979332405" lon="3.13527348586377"><ele>321.5</ele><time>2026-04-11T13:34:46Z</time></trkpt><trkpt lat="45.858696977154764" lon="3.135301777388888"><ele>321.3333333333333</ele><time>2026-04-11T13:34:47Z</time></trkpt><trkpt lat="45.858619322969375" lon="3.1353287338327522"><ele>321.1666666666667</ele><time>2026-04-11T13:34:48Z</time></trkpt><trkpt lat="45.85854050583013" lon="3.135352557182027"><ele>321.0</ele><time>2026-04-11T13:34:49Z</time></trkpt><trkpt lat="45.858462501936025" lon="3.1353775958093193"><ele>321.0</ele><time>2026-04-11T13:34:50Z</time></trkpt><trkpt lat="45.858385078733264" lon="3.1354060700251507"><ele>321.0</ele><time>2026-04-11T13:34:51Z</time></trkpt><trkpt lat="45.85830784946142" lon="3.135438753334192"><ele>321.0</ele><time>2026-04-11T13:34:52Z</time></trkpt><trkpt lat="45.858229574319715" lon="3.1354682922729755"><ele>321.0</ele><time>2026-04-11T13:34:53Z</time></trkpt><trkpt lat="45.85815063833498" lon="3.135498015738771"><ele>321.0</ele><time>2026-04-11T13:34:54Z</time></trkpt><trkpt lat="45.858073186672556" lon="3.135528383816997"><ele>321.0</ele><time>2026-04-11T13:34:55Z</time></trkpt><trkpt lat="45.857996438327376" lon="3.135559603048353"><ele>321.0</ele><time>2026-04-11T13:34:56Z</time></trkpt><trkpt lat="45.85791877631182" lon="3.1355930174901836"><ele>321.0</ele><time>2026-04-11T13:34:57Z</time></trkpt><trkpt lat="45.85784170444319" lon="3.1356256419045097"><ele>321.0</ele><time>2026-04-11T13:34:58Z</time></trkpt><trkpt lat="45.85776428886382" lon="3.135656899345958"><ele>321.0</ele><time>2026-04-11T13:34:59Z</time></trkpt><trkpt lat="45.8576871266755" lon="3.135686694879866"><ele>321.0</ele><time>2026-04-11T13:35:00Z</time></trkpt><trkpt lat="45.85761100472037" lon="3.135718820579235"><ele>321.0</ele><time>2026-04-11T13:35:01Z</time></trkpt><trkpt lat="45.85753542979717" lon="3.13575073846808"><ele>320.8333333333333</ele><time>2026-04-11T13:35:02Z</time></trkpt><trkpt lat="45.85745784964405" lon="3.135782191387336"><ele>320.6666666666667</ele><time>2026-04-11T13:35:03Z</time></trkpt><trkpt lat="45.85737987344281" lon="3.1358095831034167"><ele>320.5</ele><time>2026-04-11T13:35:04Z</time></trkpt><trkpt lat="45.85730254466377" lon="3.135837521185923"><ele>320.33333333333337</ele><time>2026-04-11T13:35:05Z</time></trkpt><trkpt lat="45.85722572265848" lon="3.135868746975204"><ele>320.1666666666667</ele><time>2026-04-11T13:35:06Z</time></trkpt><trkpt lat="45.8571489704305" lon="3.135899320597952"><ele>320.0</ele><time>2026-04-11T13:35:07Z</time></trkpt><trkpt lat="45.85707070172752" lon="3.1359287871251973"><ele>320.0</ele><time>2026-04-11T13:35:08Z</time></trkpt><trkpt lat="45.85699450040456" lon="3.135957917079039"><ele>320.0</ele><time>2026-04-11T13:35:09Z</time></trkpt><trkpt lat="45.85691556947329" lon="3.1359862561960163"><ele>320.0</ele><time>2026-04-11T13:35:10Z</time></trkpt><trkpt lat="45.85683844455428" lon="3.136013220906424"><ele>320.0</ele><time>2026-04-11T13:35:11Z</time></trkpt><trkpt lat="45.85676152153003" lon="3.1360418952159974"><ele>320.0</ele><time>2026-04-11T13:35:12Z</time></trkpt><trkpt lat="45.856685040739315" lon="3.136072977413906"><ele>320.0</ele><time>2026-04-11T13:35:13Z</time></trkpt><trkpt lat="45.8566073167096" lon="3.1361040862580856"><ele>320.0</ele><time>2026-04-11T13:35:14Z</time></trkpt><trkpt lat="45.85653065764234" lon="3.1361284929559092"><ele>320.0</ele><time>2026-04-11T13:35:15Z</time></trkpt><trkpt lat="45.856452974649116" lon="3.136153147776545"><ele>320.0</ele><time>2026-04-11T13:35:16Z</time></trkpt><trkpt lat="45.85637501010487" lon="3.1361833584826395"><ele>320.0</ele><time>2026-04-11T13:35:17Z</time></trkpt><trkpt lat="45.85629655781386" lon="3.1362138186794675"><ele>320.0</ele><time>2026-04-11T13:35:18Z</time></trkpt><trkpt lat="45.85621866956948" lon="3.1362406032824275"><ele>320.0</ele><time>2026-04-11T13:35:19Z</time></trkpt><trkpt lat="45.856141118616804" lon="3.1362666613747074"><ele>320.0</ele><time>2026-04-11T13:35:20Z</time></trkpt><trkpt lat="45.856063235002225" lon="3.136297556671098"><ele>320.0</ele><time>2026-04-11T13:35:21Z</time></trkpt><trkpt lat="45.85598685969136" lon="3.136327120052804"><ele>320.0</ele><time>2026-04-11T13:35:22Z</time></trkpt><trkpt lat="45.855910181416554" lon="3.13635521925814"><ele>320.0</ele><time>2026-04-11T13:35:23Z</time></trkpt><trkpt lat="45.85583271425352" lon="3.136380721043321"><ele>320.0</ele><time>2026-04-11T13:35:24Z</time></trkpt><trkpt lat="45.85575439334467" lon="3.136409352598857"><ele>320.0</ele><time>2026-04-11T13:35:25Z</time></trkpt><trkpt lat="45.85567762054539" lon="3.136434648407834"><ele>320.0</ele><time>2026-04-11T13:35:26Z</time></trkpt><trkpt lat="45.855598936578296" lon="3.136462453220465"><ele>320.0</ele><time>2026-04-11T13:35:27Z</time></trkpt><trkpt lat="45.85552103642017" lon="3.136491202785378"><ele>320.0</ele><time>2026-04-11T13:35:28Z</time></trkpt><trkpt lat="45.85544515071812" lon="3.1365224783545202"><ele>320.0</ele><time>2026-04-11T13:35:29Z</time></trkpt><trkpt lat="45.85536627153069" lon="3.1365489129385162"><ele>320.0</ele><time>2026-04-11T13:35:29.999Z</time></trkpt><trkpt lat="45.855288298203256" lon="3.1365726230103252"><ele>320.0</ele><time>2026-04-11T13:35:30.999Z</time></trkpt><trkpt lat="45.855210838379435" lon="3.136595617373269"><ele>320.0</ele><time>2026-04-11T13:35:31.999Z</time></trkpt><trkpt lat="45.855132563596186" lon="3.136618740322102"><ele>320.0</ele><time>2026-04-11T13:35:32.999Z</time></trkpt><trkpt lat="45.85505521392254" lon="3.136642792002733"><ele>320.0</ele><time>2026-04-11T13:35:33.999Z</time></trkpt><trkpt lat="45.85497597436376" lon="3.136663453683076"><ele>320.0</ele><time>2026-04-11T13:35:34.999Z</time></trkpt><trkpt lat="45.854896566605575" lon="3.136684089006134"><ele>320.0</ele><time>2026-04-11T13:35:35.999Z</time></trkpt><trkpt lat="45.85481829651268" lon="3.1367058334300135"><ele>320.0</ele><time>2026-04-11T13:35:36.999Z</time></trkpt><trkpt lat="45.85473684873064" lon="3.1367223743604176"><ele>320.0</ele><time>2026-04-11T13:35:37.999Z</time></trkpt><trkpt lat="45.85465630252841" lon="3.1367407069473714"><ele>320.0</ele><time>2026-04-11T13:35:38.999Z</time></trkpt><trkpt lat="45.85457674422366" lon="3.136759482122682"><ele>320.0</ele><time>2026-04-11T13:35:39.999Z</time></trkpt><trkpt lat="45.85449670121639" lon="3.136780015328515"><ele>320.0</ele><time>2026-04-11T13:35:40.999Z</time></trkpt><trkpt lat="45.85441599166302" lon="3.1367967602602898"><ele>320.0</ele><time>2026-04-11T13:35:41.999Z</time></trkpt><trkpt lat="45.85433483653402" lon="3.1368154018715604"><ele>320.0</ele><time>2026-04-11T13:35:42.999Z</time></trkpt><trkpt lat="45.85425300515978" lon="3.1368327071173385"><ele>320.0</ele><time>2026-04-11T13:35:43.999Z</time></trkpt><trkpt lat="45.85417312268698" lon="3.1368530674741315"><ele>320.0</ele><time>2026-04-11T13:35:44.999Z</time></trkpt><trkpt lat="45.854094016970855" lon="3.136874197744109"><ele>320.0</ele><time>2026-04-11T13:35:45.999Z</time></trkpt><trkpt lat="45.85401476400645" lon="3.1368939502350766"><ele>320.0</ele><time>2026-04-11T13:35:46.999Z</time></trkpt><trkpt lat="45.85393514725725" lon="3.1369131569957887"><ele>320.0</ele><time>2026-04-11T13:35:47.999Z</time></trkpt><trkpt lat="45.85385613122056" lon="3.136931496110007"><ele>320.0</ele><time>2026-04-11T13:35:48.999Z</time></trkpt><trkpt lat="45.853774852163085" lon="3.1369487358961545"><ele>320.0</ele><time>2026-04-11T13:35:49.999Z</time></trkpt><trkpt lat="45.853694755925275" lon="3.136968140493083"><ele>320.0</ele><time>2026-04-11T13:35:51Z</time></trkpt><trkpt lat="45.85361471440119" lon="3.1369893596970337"><ele>320.0</ele><time>2026-04-11T13:35:52Z</time></trkpt><trkpt lat="45.853531854343245" lon="3.137011331815634"><ele>320.0</ele><time>2026-04-11T13:35:53Z</time></trkpt><trkpt lat="45.85345014368295" lon="3.1370326092224152"><ele>320.0</ele><time>2026-04-11T13:35:54Z</time></trkpt><trkpt lat="45.85337044134019" lon="3.1370564887791152"><ele>320.0</ele><time>2026-04-11T13:35:55Z</time></trkpt><trkpt lat="45.853290739479434" lon="3.137082559557401"><ele>320.0</ele><time>2026-04-11T13:35:56Z</time></trkpt><trkpt lat="45.85320930806935" lon="3.1371049046749357"><ele>320.0</ele><time>2026-04-11T13:35:57Z</time></trkpt><trkpt lat="45.853129245551216" lon="3.1371296768810053"><ele>320.0</ele><time>2026-04-11T13:35:58Z</time></trkpt><trkpt lat="45.853047735087344" lon="3.1371573662288275"><ele>320.0</ele><time>2026-04-11T13:35:59Z</time></trkpt><trkpt lat="45.85296366631941" lon="3.1371855090832246"><ele>320.0</ele><time>2026-04-11T13:36:00Z</time></trkpt><trkpt lat="45.852885700527" lon="3.137217266602344"><ele>320.0</ele><time>2026-04-11T13:36:01Z</time></trkpt><trkpt lat="45.85280894515872" lon="3.1372465031980075"><ele>320.0</ele><time>2026-04-11T13:36:02Z</time></trkpt><trkpt lat="45.852728298906484" lon="3.1372769755935668"><ele>320.0</ele><time>2026-04-11T13:36:03Z</time></trkpt><trkpt lat="45.8526497836374" lon="3.137307543074102"><ele>320.0</ele><time>2026-04-11T13:36:04Z</time></trkpt><trkpt lat="45.852571473821634" lon="3.137340263570287"><ele>320.0</ele><time>2026-04-11T13:36:05Z</time></trkpt><trkpt lat="45.85249269581819" lon="3.1373717061877806"><ele>320.0</ele><time>2026-04-11T13:36:06Z</time></trkpt><trkpt lat="45.85241441548056" lon="3.1374052460562076"><ele>320.0</ele><time>2026-04-11T13:36:07Z</time></trkpt><trkpt lat="45.852336159486285" lon="3.137439561789691"><ele>320.1666666666667</ele><time>2026-04-11T13:36:08Z</time></trkpt><trkpt lat="45.852257976424184" lon="3.137479619462615"><ele>320.33333333333337</ele><time>2026-04-11T13:36:09Z</time></trkpt><trkpt lat="45.85218055227003" lon="3.1375163708723073"><ele>320.5</ele><time>2026-04-11T13:36:10Z</time></trkpt><trkpt lat="45.852102785694356" lon="3.137552527244879"><ele>320.6666666666667</ele><time>2026-04-11T13:36:11Z</time></trkpt><trkpt lat="45.85202498685023" lon="3.1375896512433226"><ele>320.8333333333333</ele><time>2026-04-11T13:36:12Z</time></trkpt><trkpt lat="45.85194741959759" lon="3.137625884356544"><ele>321.0</ele><time>2026-04-11T13:36:13Z</time></trkpt><trkpt lat="45.85186921474247" lon="3.137660143488838"><ele>321.0</ele><time>2026-04-11T13:36:14Z</time></trkpt><trkpt lat="45.85178917424079" lon="3.137700672634511"><ele>321.0</ele><time>2026-04-11T13:36:15Z</time></trkpt><trkpt lat="45.85171300730495" lon="3.1377407783058673"><ele>321.0</ele><time>2026-04-11T13:36:16Z</time></trkpt><trkpt lat="45.851635829256686" lon="3.1377743334463792"><ele>321.0</ele><time>2026-04-11T13:36:17Z</time></trkpt><trkpt lat="45.85155621644346" lon="3.1378123821292925"><ele>321.0</ele><time>2026-04-11T13:36:18Z</time></trkpt><trkpt lat="45.85147749604469" lon="3.137848417584223"><ele>321.0</ele><time>2026-04-11T13:36:19Z</time></trkpt><trkpt lat="45.851399296553765" lon="3.137886496249014"><ele>321.0</ele><time>2026-04-11T13:36:20Z</time></trkpt><trkpt lat="45.851322432328885" lon="3.1379230574650285"><ele>321.0</ele><time>2026-04-11T13:36:21Z</time></trkpt><trkpt lat="45.851245439546204" lon="3.1379605479923076"><ele>321.0</ele><time>2026-04-11T13:36:22Z</time></trkpt><trkpt lat="45.85116916690274" lon="3.137993861640334"><ele>321.0</ele><time>2026-04-11T13:36:23Z</time></trkpt><trkpt lat="45.85109168811329" lon="3.138027195137589"><ele>321.0</ele><time>2026-04-11T13:36:24Z</time></trkpt><trkpt lat="45.851013848358036" lon="3.138065076469872"><ele>321.0</ele><time>2026-04-11T13:36:25Z</time></trkpt><trkpt lat="45.85093746779297" lon="3.138100469733009"><ele>321.0</ele><time>2026-04-11T13:36:26Z</time></trkpt><trkpt lat="45.850858425760016" lon="3.1381304823087968"><ele>321.0</ele><time>2026-04-11T13:36:27Z</time></trkpt><trkpt lat="45.85078401942609" lon="3.138167025004185"><ele>321.0</ele><time>2026-04-11T13:36:28Z</time></trkpt><trkpt lat="45.85070835885106" lon="3.138204105339321"><ele>321.0</ele><time>2026-04-11T13:36:29Z</time></trkpt><trkpt lat="45.85062942013585" lon="3.138239927757205"><ele>321.0</ele><time>2026-04-11T13:36:30Z</time></trkpt><trkpt lat="45.850553860524" lon="3.138274475952132"><ele>321.0</ele><time>2026-04-11T13:36:31Z</time></trkpt><trkpt lat="45.8504774384993" lon="3.138308748359069"><ele>321.0</ele><time>2026-04-11T13:36:32Z</time></trkpt><trkpt lat="45.85040073527321" lon="3.1383442140555107"><ele>321.0</ele><time>2026-04-11T13:36:33Z</time></trkpt><trkpt lat="45.850323567550646" lon="3.1383834118802976"><ele>321.0</ele><time>2026-04-11T13:36:34Z</time></trkpt><trkpt lat="45.850247496734184" lon="3.1384221410998387"><ele>321.0</ele><time>2026-04-11T13:36:35Z</time></trkpt><trkpt lat="45.850171258646775" lon="3.1384614377829885"><ele>321.0</ele><time>2026-04-11T13:36:36Z</time></trkpt><trkpt lat="45.85009574928711" lon="3.1385025135672953"><ele>321.0</ele><time>2026-04-11T13:36:37Z</time></trkpt><trkpt lat="45.850020147087726" lon="3.1385445059335133"><ele>321.0</ele><time>2026-04-11T13:36:38Z</time></trkpt><trkpt lat="45.84994385565225" lon="3.138583886517819"><ele>321.0</ele><time>2026-04-11T13:36:39Z</time></trkpt><trkpt lat="45.84986741472534" lon="3.138620374219307"><ele>321.0</ele><time>2026-04-11T13:36:40Z</time></trkpt><trkpt lat="45.84979173144218" lon="3.1386567860254475"><ele>321.0</ele><time>2026-04-11T13:36:41Z</time></trkpt><trkpt lat="45.84971667918621" lon="3.1386966684325"><ele>321.0</ele><time>2026-04-11T13:36:42Z</time></trkpt><trkpt lat="45.849640188982725" lon="3.1387374625498112"><ele>321.0</ele><time>2026-04-11T13:36:43Z</time></trkpt><trkpt lat="45.84956676550123" lon="3.138774504388934"><ele>321.0</ele><time>2026-04-11T13:36:44Z</time></trkpt><trkpt lat="45.8494909520538" lon="3.1388115028088834"><ele>321.0</ele><time>2026-04-11T13:36:45Z</time></trkpt><trkpt lat="45.84941614399754" lon="3.1388508895774208"><ele>321.0</ele><time>2026-04-11T13:36:46Z</time></trkpt><trkpt lat="45.849339795967616" lon="3.138888471472427"><ele>321.0</ele><time>2026-04-11T13:36:47Z</time></trkpt><trkpt lat="45.849263073267025" lon="3.138922959348861"><ele>321.0</ele><time>2026-04-11T13:36:48Z</time></trkpt><trkpt lat="45.84918779834325" lon="3.1389568146059066"><ele>321.0</ele><time>2026-04-11T13:36:49Z</time></trkpt><trkpt lat="45.849112416095906" lon="3.138995259321955"><ele>320.8333333333333</ele><time>2026-04-11T13:36:50Z</time></trkpt><trkpt lat="45.84903689760922" lon="3.1390331149915367"><ele>320.6666666666667</ele><time>2026-04-11T13:36:51Z</time></trkpt><trkpt lat="45.848958926206706" lon="3.139068362575086"><ele>320.5</ele><time>2026-04-11T13:36:52Z</time></trkpt><trkpt lat="45.84888197408512" lon="3.139104887234689"><ele>320.33333333333337</ele><time>2026-04-11T13:36:53Z</time></trkpt><trkpt lat="45.848805523717886" lon="3.1391427841360264"><ele>320.1666666666667</ele><time>2026-04-11T13:36:54Z</time></trkpt><trkpt lat="45.848729169968856" lon="3.1391830963769536"><ele>320.0</ele><time>2026-04-11T13:36:55Z</time></trkpt><trkpt lat="45.8486538721056" lon="3.1392201311659416"><ele>320.0</ele><time>2026-04-11T13:36:56Z</time></trkpt><trkpt lat="45.84857694583491" lon="3.139254856955025"><ele>320.0</ele><time>2026-04-11T13:36:57Z</time></trkpt><trkpt lat="45.848499745738636" lon="3.139289086747181"><ele>320.0</ele><time>2026-04-11T13:36:58Z</time></trkpt><trkpt lat="45.84842286011957" lon="3.1393254908885564"><ele>320.0</ele><time>2026-04-11T13:36:59Z</time></trkpt><trkpt lat="45.84834729648018" lon="3.1393641189250916"><ele>320.0</ele><time>2026-04-11T13:37:00Z</time></trkpt><trkpt lat="45.8482720425774" lon="3.13940278013146"><ele>320.0</ele><time>2026-04-11T13:37:01Z</time></trkpt><trkpt lat="45.84819732563814" lon="3.1394383503670102"><ele>320.1666666666667</ele><time>2026-04-11T13:37:02Z</time></trkpt><trkpt lat="45.848120232431164" lon="3.1394744601453057"><ele>320.33333333333337</ele><time>2026-04-11T13:37:03Z</time></trkpt><trkpt lat="45.84804361896079" lon="3.1395091942701123"><ele>320.5</ele><time>2026-04-11T13:37:04Z</time></trkpt><trkpt lat="45.847968926254985" lon="3.139548474761426"><ele>320.6666666666667</ele><time>2026-04-11T13:37:05Z</time></trkpt><trkpt lat="45.84789376984093" lon="3.1395815659848694"><ele>320.8333333333333</ele><time>2026-04-11T13:37:06Z</time></trkpt><trkpt lat="45.84781927186788" lon="3.1396185434004704"><ele>321.0</ele><time>2026-04-11T13:37:07Z</time></trkpt><trkpt lat="45.84774388386728" lon="3.1396537868294216"><ele>321.0</ele><time>2026-04-11T13:37:08Z</time></trkpt><trkpt lat="45.84766806861215" lon="3.1396887479374946"><ele>321.0</ele><time>2026-04-11T13:37:09Z</time></trkpt><trkpt lat="45.84759341842895" lon="3.139725565613724"><ele>321.0</ele><time>2026-04-11T13:37:10Z</time></trkpt><trkpt lat="45.847516974145115" lon="3.1397619369650993"><ele>321.0</ele><time>2026-04-11T13:37:11Z</time></trkpt><trkpt lat="45.847441708115554" lon="3.13979551405677"><ele>321.0</ele><time>2026-04-11T13:37:12Z</time></trkpt><trkpt lat="45.847365008413824" lon="3.139827468190257"><ele>321.0</ele><time>2026-04-11T13:37:13Z</time></trkpt><trkpt lat="45.84729060575045" lon="3.1398613681916165"><ele>321.0</ele><time>2026-04-11T13:37:14Z</time></trkpt><trkpt lat="45.847217454674066" lon="3.1398997035100136"><ele>321.0</ele><time>2026-04-11T13:37:15Z</time></trkpt><trkpt lat="45.84714352930945" lon="3.1399343852936523"><ele>321.0</ele><time>2026-04-11T13:37:16Z</time></trkpt><trkpt lat="45.847070115448886" lon="3.139970847165047"><ele>321.0</ele><time>2026-04-11T13:37:17Z</time></trkpt><trkpt lat="45.84699496970589" lon="3.1400064506057936"><ele>321.0</ele><time>2026-04-11T13:37:18Z</time></trkpt><trkpt lat="45.846919661904685" lon="3.1400446114996745"><ele>321.0</ele><time>2026-04-11T13:37:19Z</time></trkpt><trkpt lat="45.84684343787808" lon="3.1400802712503473"><ele>321.3333333333333</ele><time>2026-04-11T13:37:20Z</time></trkpt><trkpt lat="45.84676749235553" lon="3.140116121738839"><ele>321.6666666666667</ele><time>2026-04-11T13:37:21Z</time></trkpt><trkpt lat="45.846691360212894" lon="3.1401558740689413"><ele>322.0</ele><time>2026-04-11T13:37:22Z</time></trkpt><trkpt lat="45.84661560999094" lon="3.1401923186103797"><ele>322.33333333333337</ele><time>2026-04-11T13:37:23Z</time></trkpt><trkpt lat="45.846539402813725" lon="3.140225675924724"><ele>322.6666666666667</ele><time>2026-04-11T13:37:24Z</time></trkpt><trkpt lat="45.846463834112065" lon="3.140263975798982"><ele>323.0</ele><time>2026-04-11T13:37:25Z</time></trkpt><trkpt lat="45.84638928228748" lon="3.140302731063056"><ele>323.0</ele><time>2026-04-11T13:37:26Z</time></trkpt><trkpt lat="45.846312747360244" lon="3.1403370589644077"><ele>323.0</ele><time>2026-04-11T13:37:27Z</time></trkpt><trkpt lat="45.84623583844964" lon="3.1403734717121936"><ele>323.0</ele><time>2026-04-11T13:37:28Z</time></trkpt><trkpt lat="45.84615846676681" lon="3.14040885637948"><ele>323.0</ele><time>2026-04-11T13:37:29Z</time></trkpt><trkpt lat="45.84608120928494" lon="3.14044481275866"><ele>323.0</ele><time>2026-04-11T13:37:30Z</time></trkpt><trkpt lat="45.84600347230632" lon="3.1404818514748065"><ele>323.0</ele><time>2026-04-11T13:37:31Z</time></trkpt><trkpt lat="45.84592589147779" lon="3.1405198747734704"><ele>323.0</ele><time>2026-04-11T13:37:32Z</time></trkpt><trkpt lat="45.84584970863429" lon="3.1405542354695304"><ele>323.0</ele><time>2026-04-11T13:37:33Z</time></trkpt><trkpt lat="45.8457694025985" lon="3.140590636158323"><ele>323.0</ele><time>2026-04-11T13:37:34Z</time></trkpt><trkpt lat="45.84569066472462" lon="3.1406316607512297"><ele>323.0</ele><time>2026-04-11T13:37:35Z</time></trkpt><trkpt lat="45.84561226999434" lon="3.1406720745155194"><ele>323.0</ele><time>2026-04-11T13:37:36Z</time></trkpt><trkpt lat="45.84553355906137" lon="3.1407125514396794"><ele>323.0</ele><time>2026-04-11T13:37:37Z</time></trkpt><trkpt lat="45.845454274183304" lon="3.1407501773538393"><ele>323.0</ele><time>2026-04-11T13:37:38Z</time></trkpt><trkpt lat="45.84537485080381" lon="3.1407862350489006"><ele>323.0</ele><time>2026-04-11T13:37:39Z</time></trkpt><trkpt lat="45.8452951548621" lon="3.140820150294175"><ele>323.0</ele><time>2026-04-11T13:37:40Z</time></trkpt><trkpt lat="45.845216424074664" lon="3.1408612444787143"><ele>323.0</ele><time>2026-04-11T13:37:41Z</time></trkpt><trkpt lat="45.8451385592722" lon="3.1408991278092846"><ele>323.0</ele><time>2026-04-11T13:37:42Z</time></trkpt><trkpt lat="45.84505992152846" lon="3.1409404045198017"><ele>323.0</ele><time>2026-04-11T13:37:43Z</time></trkpt><trkpt lat="45.844981711862815" lon="3.140981100566358"><ele>323.0</ele><time>2026-04-11T13:37:44Z</time></trkpt><trkpt lat="45.844902521288425" lon="3.141019222065596"><ele>323.0</ele><time>2026-04-11T13:37:45Z</time></trkpt><trkpt lat="45.84482399585122" lon="3.141057417935053"><ele>323.0</ele><time>2026-04-11T13:37:46Z</time></trkpt><trkpt lat="45.844744114944966" lon="3.141093898551575"><ele>323.0</ele><time>2026-04-11T13:37:47Z</time></trkpt><trkpt lat="45.844666322415115" lon="3.1411282553443036"><ele>323.0</ele><time>2026-04-11T13:37:48Z</time></trkpt><trkpt lat="45.8445885823428" lon="3.1411643233063913"><ele>323.0</ele><time>2026-04-11T13:37:49Z</time></trkpt><trkpt lat="45.84450917871537" lon="3.1412040020985077"><ele>323.0</ele><time>2026-04-11T13:37:50Z</time></trkpt><trkpt lat="45.84442966747257" lon="3.1412412116898047"><ele>323.0</ele><time>2026-04-11T13:37:51Z</time></trkpt><trkpt lat="45.8443504691597" lon="3.1412798106870765"><ele>323.0</ele><time>2026-04-11T13:37:52Z</time></trkpt><trkpt lat="45.844271530139615" lon="3.1413176107251926"><ele>323.0</ele><time>2026-04-11T13:37:53Z</time></trkpt><trkpt lat="45.84419190157266" lon="3.1413572243441372"><ele>323.0</ele><time>2026-04-11T13:37:54Z</time></trkpt><trkpt lat="45.84411046245312" lon="3.1413984783468427"><ele>323.0</ele><time>2026-04-11T13:37:55Z</time></trkpt><trkpt lat="45.8440306911004" lon="3.1414401351447023"><ele>322.83333333333337</ele><time>2026-04-11T13:37:56Z</time></trkpt><trkpt lat="45.843948788380644" lon="3.1414788866981476"><ele>322.6666666666667</ele><time>2026-04-11T13:37:57.001Z</time></trkpt><trkpt lat="45.8438666532156" lon="3.1415171804563795"><ele>322.5</ele><time>2026-04-11T13:37:58.001Z</time></trkpt><trkpt lat="45.843785143658565" lon="3.1415574608770274"><ele>322.3333333333333</ele><time>2026-04-11T13:37:59.001Z</time></trkpt><trkpt lat="45.84370293669895" lon="3.1415943190891484"><ele>322.16666666666663</ele><time>2026-04-11T13:38:00.001Z</time></trkpt><trkpt lat="45.843620459784155" lon="3.1416359965089766"><ele>322.0</ele><time>2026-04-11T13:38:01.001Z</time></trkpt><trkpt lat="45.843539134646484" lon="3.1416739588058196"><ele>321.8333333333333</ele><time>2026-04-11T13:38:02.001Z</time></trkpt><trkpt lat="45.843457955941965" lon="3.1417118328726823"><ele>321.66666666666663</ele><time>2026-04-11T13:38:03.001Z</time></trkpt><trkpt lat="45.843373995772616" lon="3.1417486014734965"><ele>321.5</ele><time>2026-04-11T13:38:04.001Z</time></trkpt><trkpt lat="45.843291253680015" lon="3.141789241053943"><ele>321.3333333333333</ele><time>2026-04-11T13:38:05.001Z</time></trkpt><trkpt lat="45.843209420519514" lon="3.1418311694270966"><ele>321.1666666666667</ele><time>2026-04-11T13:38:06.001Z</time></trkpt><trkpt lat="45.84312657052094" lon="3.141875454890566"><ele>321.0</ele><time>2026-04-11T13:38:07.001Z</time></trkpt><trkpt lat="45.8430450433815" lon="3.141916304789925"><ele>321.0</ele><time>2026-04-11T13:38:08.001Z</time></trkpt><trkpt lat="45.842962676232375" lon="3.1419585257594287"><ele>321.0</ele><time>2026-04-11T13:38:09.001Z</time></trkpt><trkpt lat="45.84288131836058" lon="3.141999521968607"><ele>321.0</ele><time>2026-04-11T13:38:10.001Z</time></trkpt><trkpt lat="45.84280075933584" lon="3.142039368442955"><ele>321.0</ele><time>2026-04-11T13:38:11Z</time></trkpt><trkpt lat="45.84272340674722" lon="3.1420841327560027"><ele>321.0</ele><time>2026-04-11T13:38:12Z</time></trkpt><trkpt lat="45.84264735013935" lon="3.142121766267991"><ele>321.0</ele><time>2026-04-11T13:38:13Z</time></trkpt><trkpt lat="45.84257692004019" lon="3.1421712524651255"><ele>321.1428571428571</ele><time>2026-04-11T13:38:14Z</time></trkpt><trkpt lat="45.84250997243596" lon="3.1422195184645707"><ele>321.2857142857143</ele><time>2026-04-11T13:38:15Z</time></trkpt><trkpt lat="45.8424422748927" lon="3.1422644298460893"><ele>321.42857142857144</ele><time>2026-04-11T13:38:16Z</time></trkpt><trkpt lat="45.84237788218158" lon="3.142310739167126"><ele>321.57142857142856</ele><time>2026-04-11T13:38:17Z</time></trkpt><trkpt lat="45.84231821782763" lon="3.142365111764463"><ele>321.7142857142857</ele><time>2026-04-11T13:38:18Z</time></trkpt><trkpt lat="45.842258818949716" lon="3.142413830437812"><ele>321.85714285714283</ele><time>2026-04-11T13:38:19Z</time></trkpt><trkpt lat="45.842201157756236" lon="3.1424637187820506"><ele>322.0</ele><time>2026-04-11T13:38:20Z</time></trkpt><trkpt lat="45.84214445816461" lon="3.1425151506903224"><ele>322.0</ele><time>2026-04-11T13:38:21Z</time></trkpt><trkpt lat="45.84209191935819" lon="3.142568716381869"><ele>322.0</ele><time>2026-04-11T13:38:22Z</time></trkpt><trkpt lat="45.84204092758337" lon="3.1426232708972615"><ele>322.0</ele><time>2026-04-11T13:38:23Z</time></trkpt><trkpt lat="45.84195128334071" lon="3.1427289315499474"><ele>322.0</ele><time>2026-04-11T13:38:25Z</time></trkpt><trkpt lat="45.84186443638392" lon="3.1428329109784796"><ele>322.0</ele><time>2026-04-11T13:38:27Z</time></trkpt><trkpt lat="45.84178553767036" lon="3.14293583160714"><ele>323.0</ele><time>2026-04-11T13:38:29Z</time></trkpt><trkpt lat="45.84171247303331" lon="3.1430368424833834"><ele>324.0</ele><time>2026-04-11T13:38:31Z</time></trkpt><trkpt lat="45.84165175833213" lon="3.143142048851234"><ele>325.0</ele><time>2026-04-11T13:38:33Z</time></trkpt><trkpt lat="45.84158196750388" lon="3.143232692755737"><ele>326.0</ele><time>2026-04-11T13:38:35Z</time></trkpt><trkpt lat="45.841517087915456" lon="3.143333269328861"><ele>327.0</ele><time>2026-04-11T13:38:37Z</time></trkpt><trkpt lat="45.84145244943777" lon="3.1434278790273633"><ele>327.5</ele><time>2026-04-11T13:38:39Z</time></trkpt><trkpt lat="45.84139192515165" lon="3.143522386595691"><ele>328.0</ele><time>2026-04-11T13:38:41Z</time></trkpt><trkpt lat="45.84133045010678" lon="3.1436168216128624"><ele>328.5</ele><time>2026-04-11T13:38:43Z</time></trkpt><trkpt lat="45.84127460294148" lon="3.1437033038245183"><ele>329.0</ele><time>2026-04-11T13:38:45Z</time></trkpt><trkpt lat="45.84122008592551" lon="3.1437952919697265"><ele>329.5</ele><time>2026-04-11T13:38:47Z</time></trkpt><trkpt lat="45.84115579778586" lon="3.143868985975411"><ele>330.0</ele><time>2026-04-11T13:38:49Z</time></trkpt><trkpt lat="45.84109921088872" lon="3.1439560914390183"><ele>330.00000000000006</ele><time>2026-04-11T13:38:51Z</time></trkpt><trkpt lat="45.84103320759136" lon="3.144035437826044"><ele>330.0</ele><time>2026-04-11T13:38:53Z</time></trkpt><trkpt lat="45.84096687654848" lon="3.144110371712522"><ele>330.0</ele><time>2026-04-11T13:38:55Z</time></trkpt><trkpt lat="45.84090351173482" lon="3.1441686850190056"><ele>330.0</ele><time>2026-04-11T13:38:57Z</time></trkpt><trkpt lat="45.84084603740295" lon="3.1442219871181516"><ele>330.0</ele><time>2026-04-11T13:38:59Z</time></trkpt><trkpt lat="45.84078872193234" lon="3.14426276092156"><ele>330.00000000000006</ele><time>2026-04-11T13:39:01Z</time></trkpt><trkpt lat="45.840726695978034" lon="3.1443003222629033"><ele>330.0</ele><time>2026-04-11T13:39:04Z</time></trkpt><trkpt lat="45.84063596496449" lon="3.1443121217459167"><ele>331.5</ele><time>2026-04-11T13:39:07Z</time></trkpt><trkpt lat="45.84056059076043" lon="3.144284653177849"><ele>333.0</ele><time>2026-04-11T13:39:09Z</time></trkpt><trkpt lat="45.84047893876578" lon="3.1443000214054013"><ele>334.5</ele><time>2026-04-11T13:39:11Z</time></trkpt><trkpt lat="45.84040793916426" lon="3.1443485231447963"><ele>336.0</ele><time>2026-04-11T13:39:13Z</time></trkpt><trkpt lat="45.840352549051126" lon="3.1444319009260275"><ele>337.5</ele><time>2026-04-11T13:39:15Z</time></trkpt><trkpt lat="45.840317227562814" lon="3.1445375246779883"><ele>339.0</ele><time>2026-04-11T13:39:17Z</time></trkpt><trkpt lat="45.84026131319165" lon="3.144621018593148"><ele>339.0</ele><time>2026-04-11T13:39:19Z</time></trkpt><trkpt lat="45.840186055154724" lon="3.144669411985582"><ele>339.0</ele><time>2026-04-11T13:39:21Z</time></trkpt><trkpt lat="45.84010524630428" lon="3.1447108115546327"><ele>339.0</ele><time>2026-04-11T13:39:23Z</time></trkpt><trkpt lat="45.84001512947663" lon="3.1447513004851606"><ele>339.0</ele><time>2026-04-11T13:39:25Z</time></trkpt><trkpt lat="45.839918172671574" lon="3.1447863641884"><ele>339.0</ele><time>2026-04-11T13:39:27Z</time></trkpt><trkpt lat="45.83982071801812" lon="3.1448323944636547"><ele>339.4</ele><time>2026-04-11T13:39:29Z</time></trkpt><trkpt lat="45.83972120578475" lon="3.144878648915067"><ele>339.79999999999995</ele><time>2026-04-11T13:39:31Z</time></trkpt><trkpt lat="45.839619914084" lon="3.144919907925287"><ele>340.20000000000005</ele><time>2026-04-11T13:39:33Z</time></trkpt><trkpt lat="45.8395081199732" lon="3.144960339579016"><ele>340.6</ele><time>2026-04-11T13:39:35Z</time></trkpt><trkpt lat="45.83944483409924" lon="3.1449726335419936"><ele>341.0</ele><time>2026-04-11T13:39:36Z</time></trkpt><trkpt lat="45.83938196427356" lon="3.144986433348002"><ele>341.0</ele><time>2026-04-11T13:39:37Z</time></trkpt><trkpt lat="45.83931382362959" lon="3.1449950499609556"><ele>341.0</ele><time>2026-04-11T13:39:38Z</time></trkpt><trkpt lat="45.83924210891024" lon="3.1449986034041593"><ele>341.0</ele><time>2026-04-11T13:39:39Z</time></trkpt><trkpt lat="45.839166327582724" lon="3.144997044839172"><ele>341.0</ele><time>2026-04-11T13:39:40Z</time></trkpt><trkpt lat="45.83908660626118" lon="3.1449951081288394"><ele>341.0</ele><time>2026-04-11T13:39:41Z</time></trkpt><trkpt lat="45.83900367798707" lon="3.1449894603199424"><ele>341.0</ele><time>2026-04-11T13:39:42Z</time></trkpt><trkpt lat="45.83891631737694" lon="3.144983084035094"><ele>340.4</ele><time>2026-04-11T13:39:43Z</time></trkpt><trkpt lat="45.838823299826785" lon="3.14497609693182"><ele>339.8</ele><time>2026-04-11T13:39:44Z</time></trkpt><trkpt lat="45.838726057054856" lon="3.144969642737676"><ele>339.2</ele><time>2026-04-11T13:39:45Z</time></trkpt><trkpt lat="45.838632625833746" lon="3.1449668922248373"><ele>338.59999999999997</ele><time>2026-04-11T13:39:46Z</time></trkpt><trkpt lat="45.83853707208728" lon="3.144965129398523"><ele>338.0</ele><time>2026-04-11T13:39:47Z</time></trkpt><trkpt lat="45.83843834701806" lon="3.1449588422994266"><ele>336.59999999999997</ele><time>2026-04-11T13:39:48Z</time></trkpt><trkpt lat="45.83833503918351" lon="3.1449503603281097"><ele>335.2</ele><time>2026-04-11T13:39:49Z</time></trkpt><trkpt lat="45.8382269175104" lon="3.1449478779763993"><ele>333.8</ele><time>2026-04-11T13:39:50Z</time></trkpt><trkpt lat="45.83811706721731" lon="3.1449544779073486"><ele>332.4</ele><time>2026-04-11T13:39:51Z</time></trkpt><trkpt lat="45.838010141429606" lon="3.144943510891817"><ele>331.0</ele><time>2026-04-11T13:39:52Z</time></trkpt><trkpt lat="45.8379017331075" lon="3.1449370593261183"><ele>331.0</ele><time>2026-04-11T13:39:53Z</time></trkpt><trkpt lat="45.83779412252348" lon="3.1449274773339617"><ele>331.0</ele><time>2026-04-11T13:39:54Z</time></trkpt><trkpt lat="45.83769040416369" lon="3.144924227361013"><ele>331.0</ele><time>2026-04-11T13:39:55Z</time></trkpt><trkpt lat="45.837590936076346" lon="3.1449164726073913"><ele>331.0</ele><time>2026-04-11T13:39:56Z</time></trkpt><trkpt lat="45.837496471652834" lon="3.1449092733793966"><ele>331.0</ele><time>2026-04-11T13:39:57Z</time></trkpt><trkpt lat="45.83740297340327" lon="3.144896399494521"><ele>330.57142857142856</ele><time>2026-04-11T13:39:58Z</time></trkpt><trkpt lat="45.83732329974647" lon="3.1448756161844034"><ele>330.1428571428571</ele><time>2026-04-11T13:39:59Z</time></trkpt><trkpt lat="45.83725664318775" lon="3.1448616030897165"><ele>329.71428571428567</ele><time>2026-04-11T13:40:00Z</time></trkpt><trkpt lat="45.83718791670497" lon="3.144844469327946"><ele>329.2857142857143</ele><time>2026-04-11T13:40:01Z</time></trkpt><trkpt lat="45.83711302376706" lon="3.1448175609464712"><ele>328.85714285714283</ele><time>2026-04-11T13:40:02Z</time></trkpt><trkpt lat="45.83704084438768" lon="3.144783728344503"><ele>328.4285714285714</ele><time>2026-04-11T13:40:03.001Z</time></trkpt><trkpt lat="45.83697377357129" lon="3.1447628973687873"><ele>328.0</ele><time>2026-04-11T13:40:04.001Z</time></trkpt><trkpt lat="45.83690075289578" lon="3.1447367794432193"><ele>327.99999999999994</ele><time>2026-04-11T13:40:05.001Z</time></trkpt><trkpt lat="45.83683152955615" lon="3.1447106583475577"><ele>328.0</ele><time>2026-04-11T13:40:06.001Z</time></trkpt><trkpt lat="45.83676634511597" lon="3.144675720027282"><ele>328.0</ele><time>2026-04-11T13:40:07.001Z</time></trkpt><trkpt lat="45.8367007476337" lon="3.144639437862687"><ele>328.0</ele><time>2026-04-11T13:40:08.001Z</time></trkpt><trkpt lat="45.836637443467595" lon="3.144599288267954"><ele>328.0</ele><time>2026-04-11T13:40:09.001Z</time></trkpt><trkpt lat="45.83657597655192" lon="3.1445613770051146"><ele>327.99999999999994</ele><time>2026-04-11T13:40:10.001Z</time></trkpt><trkpt lat="45.83651311604734" lon="3.144523679554757"><ele>328.0</ele><time>2026-04-11T13:40:11.001Z</time></trkpt><trkpt lat="45.83645057636391" lon="3.144482213968206"><ele>327.99999999999994</ele><time>2026-04-11T13:40:12.001Z</time></trkpt><trkpt lat="45.83638699796742" lon="3.1444406039723587"><ele>328.0</ele><time>2026-04-11T13:40:13.001Z</time></trkpt><trkpt lat="45.83632546969755" lon="3.144402793523682"><ele>328.0</ele><time>2026-04-11T13:40:14.001Z</time></trkpt><trkpt lat="45.836263485976154" lon="3.1443621675340667"><ele>328.0</ele><time>2026-04-11T13:40:15.001Z</time></trkpt><trkpt lat="45.83620008001637" lon="3.1443202503348866"><ele>328.0</ele><time>2026-04-11T13:40:16.001Z</time></trkpt><trkpt lat="45.836135838507175" lon="3.144284549835412"><ele>327.99999999999994</ele><time>2026-04-11T13:40:17.001Z</time></trkpt><trkpt lat="45.8360757182967" lon="3.144247379363537"><ele>328.0</ele><time>2026-04-11T13:40:18.001Z</time></trkpt><trkpt lat="45.83601513993675" lon="3.1442135255351253"><ele>327.99999999999994</ele><time>2026-04-11T13:40:19.001Z</time></trkpt><trkpt lat="45.83595375087077" lon="3.144177288900276"><ele>328.0</ele><time>2026-04-11T13:40:20.001Z</time></trkpt><trkpt lat="45.83589321035263" lon="3.1441315615701817"><ele>328.0</ele><time>2026-04-11T13:40:21Z</time></trkpt><trkpt lat="45.83582904703307" lon="3.1440949912090583"><ele>328.0</ele><time>2026-04-11T13:40:22Z</time></trkpt><trkpt lat="45.83576611575069" lon="3.1440544090344584"><ele>328.0</ele><time>2026-04-11T13:40:23Z</time></trkpt><trkpt lat="45.83570306070752" lon="3.1440158163898455"><ele>327.99999999999994</ele><time>2026-04-11T13:40:24Z</time></trkpt><trkpt lat="45.83564138688628" lon="3.143976425534038"><ele>328.0</ele><time>2026-04-11T13:40:25Z</time></trkpt><trkpt lat="45.83557923250033" lon="3.1439351146117747"><ele>328.2857142857143</ele><time>2026-04-11T13:40:26Z</time></trkpt><trkpt lat="45.835518062522404" lon="3.143897220617596"><ele>328.57142857142856</ele><time>2026-04-11T13:40:27Z</time></trkpt><trkpt lat="45.83545552226769" lon="3.143865087235587"><ele>328.8571428571429</ele><time>2026-04-11T13:40:28Z</time></trkpt><trkpt lat="45.83539709823577" lon="3.1438240730906033"><ele>329.1428571428571</ele><time>2026-04-11T13:40:29Z</time></trkpt><trkpt lat="45.83533416549136" lon="3.1437898473200296"><ele>329.42857142857144</ele><time>2026-04-11T13:40:30Z</time></trkpt><trkpt lat="45.83527576228119" lon="3.1437481930838107"><ele>329.7142857142857</ele><time>2026-04-11T13:40:31Z</time></trkpt><trkpt lat="45.835216361435315" lon="3.1437074737196173"><ele>330.0</ele><time>2026-04-11T13:40:32Z</time></trkpt><trkpt lat="45.83515289573699" lon="3.143674454630515"><ele>330.00000000000006</ele><time>2026-04-11T13:40:33Z</time></trkpt><trkpt lat="45.835088834428916" lon="3.1436465063743393"><ele>330.0</ele><time>2026-04-11T13:40:34Z</time></trkpt><trkpt lat="45.83502431261757" lon="3.14362012534402"><ele>330.0</ele><time>2026-04-11T13:40:35Z</time></trkpt><trkpt lat="45.83495665139885" lon="3.1436012211389643"><ele>330.0</ele><time>2026-04-11T13:40:36Z</time></trkpt><trkpt lat="45.83488864991918" lon="3.1435867413618293"><ele>330.0</ele><time>2026-04-11T13:40:37Z</time></trkpt><trkpt lat="45.834820515929366" lon="3.1435737383795392"><ele>330.00000000000006</ele><time>2026-04-11T13:40:38Z</time></trkpt><trkpt lat="45.834750734510244" lon="3.143563539711892"><ele>330.0</ele><time>2026-04-11T13:40:39Z</time></trkpt><trkpt lat="45.83468158823998" lon="3.143551367688191"><ele>330.00000000000006</ele><time>2026-04-11T13:40:40Z</time></trkpt><trkpt lat="45.83461116391947" lon="3.1435447092635105"><ele>330.0</ele><time>2026-04-11T13:40:41Z</time></trkpt><trkpt lat="45.83454266289726" lon="3.143534647776894"><ele>330.0</ele><time>2026-04-11T13:40:42Z</time></trkpt><trkpt lat="45.83447147938157" lon="3.1435267536213196"><ele>330.0</ele><time>2026-04-11T13:40:43Z</time></trkpt><trkpt lat="45.83440147494678" lon="3.1435174452525763"><ele>330.0</ele><time>2026-04-11T13:40:44Z</time></trkpt><trkpt lat="45.83433043379406" lon="3.1435084003371174"><ele>330.00000000000006</ele><time>2026-04-11T13:40:45Z</time></trkpt><trkpt lat="45.834260932127286" lon="3.1434964785149324"><ele>330.0</ele><time>2026-04-11T13:40:46Z</time></trkpt><trkpt lat="45.83419286915313" lon="3.1434848889812526"><ele>330.00000000000006</ele><time>2026-04-11T13:40:47Z</time></trkpt><trkpt lat="45.83412172562189" lon="3.143478111218417"><ele>330.0</ele><time>2026-04-11T13:40:48Z</time></trkpt><trkpt lat="45.83405310581178" lon="3.1434732099463694"><ele>330.0</ele><time>2026-04-11T13:40:49Z</time></trkpt><trkpt lat="45.833985045127434" lon="3.143465169903886"><ele>330.0</ele><time>2026-04-11T13:40:50Z</time></trkpt><trkpt lat="45.83391600861613" lon="3.143455688483215"><ele>330.0</ele><time>2026-04-11T13:40:51Z</time></trkpt><trkpt lat="45.83385178458024" lon="3.1434456737470784"><ele>330.00000000000006</ele><time>2026-04-11T13:40:52Z</time></trkpt><trkpt lat="45.833788300865386" lon="3.143440194165605"><ele>330.0</ele><time>2026-04-11T13:40:53Z</time></trkpt><trkpt lat="45.833674776209385" lon="3.143422972613485"><ele>330.0</ele><time>2026-04-11T13:40:55Z</time></trkpt><trkpt lat="45.833583806322274" lon="3.1433750561061937"><ele>330.0</ele><time>2026-04-11T13:40:57Z</time></trkpt><trkpt lat="45.83348111822676" lon="3.143357064835046"><ele>330.0</ele><time>2026-04-11T13:40:59Z</time></trkpt><trkpt lat="45.833374275772236" lon="3.1433595729487167"><ele>330.0</ele><time>2026-04-11T13:41:01Z</time></trkpt><trkpt lat="45.83327421126626" lon="3.143308467059102"><ele>330.0</ele><time>2026-04-11T13:41:03Z</time></trkpt><trkpt lat="45.83317085991666" lon="3.1433326795448293"><ele>330.0</ele><time>2026-04-11T13:41:05Z</time></trkpt><trkpt lat="45.83304590288907" lon="3.143274354998523"><ele>330.0</ele><time>2026-04-11T13:41:07Z</time></trkpt><trkpt lat="45.83292021136348" lon="3.143227934036361"><ele>330.0</ele><time>2026-04-11T13:41:09Z</time></trkpt><trkpt lat="45.83285338834532" lon="3.143212698299305"><ele>330.0</ele><time>2026-04-11T13:41:10Z</time></trkpt><trkpt lat="45.83278405715567" lon="3.14319669350331"><ele>330.0</ele><time>2026-04-11T13:41:11Z</time></trkpt><trkpt lat="45.8327149932959" lon="3.1431821051549074"><ele>330.14285714285717</ele><time>2026-04-11T13:41:12Z</time></trkpt><trkpt lat="45.832644025956846" lon="3.143171163615445"><ele>330.2857142857143</ele><time>2026-04-11T13:41:13Z</time></trkpt><trkpt lat="45.83257044077216" lon="3.143158618629264"><ele>330.42857142857144</ele><time>2026-04-11T13:41:14Z</time></trkpt><trkpt lat="45.83249813287897" lon="3.1431435031645365"><ele>330.57142857142856</ele><time>2026-04-11T13:41:15Z</time></trkpt><trkpt lat="45.83242550557361" lon="3.1431256585192457"><ele>330.7142857142857</ele><time>2026-04-11T13:41:16Z</time></trkpt><trkpt lat="45.832347263251116" lon="3.1431088885716587"><ele>330.8571428571429</ele><time>2026-04-11T13:41:17Z</time></trkpt><trkpt lat="45.832270161580986" lon="3.143092410707111"><ele>331.0</ele><time>2026-04-11T13:41:18Z</time></trkpt><trkpt lat="45.83219087678444" lon="3.143077100868767"><ele>331.3333333333333</ele><time>2026-04-11T13:41:19Z</time></trkpt><trkpt lat="45.83211171198545" lon="3.143057784046255"><ele>331.66666666666663</ele><time>2026-04-11T13:41:20Z</time></trkpt><trkpt lat="45.83203304479703" lon="3.1430374287040097"><ele>332.0</ele><time>2026-04-11T13:41:21Z</time></trkpt><trkpt lat="45.831953512322414" lon="3.1430185930688297"><ele>332.3333333333333</ele><time>2026-04-11T13:41:22Z</time></trkpt><trkpt lat="45.83187319487507" lon="3.143002461541246"><ele>332.6666666666667</ele><time>2026-04-11T13:41:23Z</time></trkpt><trkpt lat="45.83179600528351" lon="3.142987401865208"><ele>333.0</ele><time>2026-04-11T13:41:24Z</time></trkpt><trkpt lat="45.831728949267" lon="3.1429650653433634"><ele>331.59999999999997</ele><time>2026-04-11T13:41:25Z</time></trkpt><trkpt lat="45.83164162667848" lon="3.1429336776168415"><ele>330.2</ele><time>2026-04-11T13:41:27Z</time></trkpt><trkpt lat="45.83156048917606" lon="3.1429132229158014"><ele>328.8</ele><time>2026-04-11T13:41:29Z</time></trkpt><trkpt lat="45.831458167383225" lon="3.1428775214892863"><ele>327.4</ele><time>2026-04-11T13:41:31Z</time></trkpt><trkpt lat="45.83134641792017" lon="3.1428274692735"><ele>326.0</ele><time>2026-04-11T13:41:33Z</time></trkpt><trkpt lat="45.83122446256863" lon="3.142780268132829"><ele>326.0</ele><time>2026-04-11T13:41:35Z</time></trkpt><trkpt lat="45.83116148515083" lon="3.142765096264434"><ele>326.0</ele><time>2026-04-11T13:41:36Z</time></trkpt><trkpt lat="45.83109765588958" lon="3.1427419903778873"><ele>326.0</ele><time>2026-04-11T13:41:37Z</time></trkpt><trkpt lat="45.83103474554035" lon="3.142719161356943"><ele>326.0</ele><time>2026-04-11T13:41:38Z</time></trkpt><trkpt lat="45.83097097306747" lon="3.1426926056021145"><ele>326.0</ele><time>2026-04-11T13:41:39Z</time></trkpt><trkpt lat="45.830907298759996" lon="3.1426668641100313"><ele>326.0</ele><time>2026-04-11T13:41:40Z</time></trkpt><trkpt lat="45.83084362776995" lon="3.1426409581046815"><ele>326.0</ele><time>2026-04-11T13:41:41Z</time></trkpt><trkpt lat="45.83077851255426" lon="3.142617255615177"><ele>325.8571428571429</ele><time>2026-04-11T13:41:42Z</time></trkpt><trkpt lat="45.830714832294035" lon="3.1425949533411335"><ele>325.71428571428567</ele><time>2026-04-11T13:41:43Z</time></trkpt><trkpt lat="45.83065121479662" lon="3.14256501784203"><ele>325.57142857142856</ele><time>2026-04-11T13:41:44Z</time></trkpt><trkpt lat="45.83058780569627" lon="3.142532984856144"><ele>325.42857142857144</ele><time>2026-04-11T13:41:45Z</time></trkpt><trkpt lat="45.83052372376473" lon="3.142505752666893"><ele>325.28571428571433</ele><time>2026-04-11T13:41:46Z</time></trkpt><trkpt lat="45.83045786310578" lon="3.142477558928981"><ele>325.1428571428571</ele><time>2026-04-11T13:41:47Z</time></trkpt><trkpt lat="45.830393928432635" lon="3.142454235509638"><ele>325.0</ele><time>2026-04-11T13:41:48Z</time></trkpt><trkpt lat="45.83033198430612" lon="3.1424292525600093"><ele>325.0</ele><time>2026-04-11T13:41:49Z</time></trkpt><trkpt lat="45.83026628162791" lon="3.142404643946414"><ele>325.0</ele><time>2026-04-11T13:41:50Z</time></trkpt><trkpt lat="45.83020257267344" lon="3.142378452702906"><ele>325.0</ele><time>2026-04-11T13:41:51Z</time></trkpt><trkpt lat="45.83013827182415" lon="3.1423552821936394"><ele>325.0</ele><time>2026-04-11T13:41:52Z</time></trkpt><trkpt lat="45.83007392926717" lon="3.1423324815879594"><ele>325.0</ele><time>2026-04-11T13:41:53Z</time></trkpt><trkpt lat="45.83000540956689" lon="3.14231687285496"><ele>325.0</ele><time>2026-04-11T13:41:54Z</time></trkpt><trkpt lat="45.82993723312718" lon="3.1423076236439127"><ele>325.0</ele><time>2026-04-11T13:41:55Z</time></trkpt><trkpt lat="45.82986989692758" lon="3.1422946418447806"><ele>325.1428571428571</ele><time>2026-04-11T13:41:56Z</time></trkpt><trkpt lat="45.82980164833381" lon="3.142285701932874"><ele>325.28571428571433</ele><time>2026-04-11T13:41:57Z</time></trkpt><trkpt lat="45.829734120042936" lon="3.1422729422020237"><ele>325.42857142857144</ele><time>2026-04-11T13:41:58Z</time></trkpt><trkpt lat="45.829666203388605" lon="3.14226231165724"><ele>325.57142857142856</ele><time>2026-04-11T13:41:59Z</time></trkpt><trkpt lat="45.82959824701889" lon="3.142248395811725"><ele>325.71428571428567</ele><time>2026-04-11T13:42:00Z</time></trkpt><trkpt lat="45.829526967753594" lon="3.1422366187881825"><ele>325.8571428571429</ele><time>2026-04-11T13:42:01Z</time></trkpt><trkpt lat="45.82945994872139" lon="3.142222047470666"><ele>326.0</ele><time>2026-04-11T13:42:02Z</time></trkpt><trkpt lat="45.82939281713152" lon="3.1422038719412604"><ele>326.0</ele><time>2026-04-11T13:42:03Z</time></trkpt><trkpt lat="45.82932506737177" lon="3.14219135363002"><ele>326.0</ele><time>2026-04-11T13:42:04Z</time></trkpt><trkpt lat="45.829257188556035" lon="3.1421748321093763"><ele>326.0</ele><time>2026-04-11T13:42:05Z</time></trkpt><trkpt lat="45.82918716362083" lon="3.1421563809115747"><ele>326.0</ele><time>2026-04-11T13:42:06Z</time></trkpt><trkpt lat="45.8291209062586" lon="3.1421292399560565"><ele>326.0</ele><time>2026-04-11T13:42:07Z</time></trkpt><trkpt lat="45.82905287537605" lon="3.1421029439593404"><ele>326.0</ele><time>2026-04-11T13:42:08Z</time></trkpt><trkpt lat="45.82898788133237" lon="3.1420738261846988"><ele>326.0</ele><time>2026-04-11T13:42:09.001Z</time></trkpt><trkpt lat="45.82892179933234" lon="3.14204353172263"><ele>326.0</ele><time>2026-04-11T13:42:10.001Z</time></trkpt><trkpt lat="45.82885482371598" lon="3.1420160792228664"><ele>326.0</ele><time>2026-04-11T13:42:11.001Z</time></trkpt><trkpt lat="45.82878832930338" lon="3.141987434333818"><ele>326.0</ele><time>2026-04-11T13:42:12.001Z</time></trkpt><trkpt lat="45.82872491026157" lon="3.1419468586828914"><ele>326.0</ele><time>2026-04-11T13:42:13.001Z</time></trkpt><trkpt lat="45.82865836803724" lon="3.1419144283423983"><ele>326.0</ele><time>2026-04-11T13:42:14.001Z</time></trkpt><trkpt lat="45.82859042657624" lon="3.141887299411867"><ele>326.0</ele><time>2026-04-11T13:42:15.001Z</time></trkpt><trkpt lat="45.82852652550624" lon="3.1418533103828765"><ele>326.0</ele><time>2026-04-11T13:42:16.001Z</time></trkpt><trkpt lat="45.82846059342098" lon="3.1418214105441455"><ele>326.0</ele><time>2026-04-11T13:42:17.001Z</time></trkpt><trkpt lat="45.82839395746607" lon="3.1417885744986123"><ele>326.0</ele><time>2026-04-11T13:42:18.001Z</time></trkpt><trkpt lat="45.82832921117372" lon="3.1417534902535955"><ele>326.0</ele><time>2026-04-11T13:42:19.001Z</time></trkpt><trkpt lat="45.82826379544343" lon="3.1417237201620707"><ele>326.0</ele><time>2026-04-11T13:42:20.001Z</time></trkpt><trkpt lat="45.82819781539685" lon="3.1416927368861116"><ele>326.0</ele><time>2026-04-11T13:42:21.001Z</time></trkpt><trkpt lat="45.82813124294271" lon="3.1416606804351654"><ele>326.0</ele><time>2026-04-11T13:42:22Z</time></trkpt><trkpt lat="45.82806550502669" lon="3.1416292367895147"><ele>326.0</ele><time>2026-04-11T13:42:23Z</time></trkpt><trkpt lat="45.827999927515215" lon="3.1415960752715932"><ele>326.0</ele><time>2026-04-11T13:42:24Z</time></trkpt><trkpt lat="45.827932555240956" lon="3.1415639466091645"><ele>326.0</ele><time>2026-04-11T13:42:25Z</time></trkpt><trkpt lat="45.827867022776395" lon="3.1415317810347414"><ele>326.0</ele><time>2026-04-11T13:42:26Z</time></trkpt><trkpt lat="45.8277999296925" lon="3.1415012340821042"><ele>326.0</ele><time>2026-04-11T13:42:27Z</time></trkpt><trkpt lat="45.82773457103775" lon="3.1414675569924175"><ele>326.0</ele><time>2026-04-11T13:42:28Z</time></trkpt><trkpt lat="45.82766931054659" lon="3.1414352984083704"><ele>326.0</ele><time>2026-04-11T13:42:29Z</time></trkpt><trkpt lat="45.827605043495694" lon="3.141404292983656"><ele>326.0</ele><time>2026-04-11T13:42:30Z</time></trkpt><trkpt lat="45.8275391961701" lon="3.141374193249546"><ele>326.33333333333337</ele><time>2026-04-11T13:42:31Z</time></trkpt><trkpt lat="45.82747401070044" lon="3.141345031384137"><ele>326.6666666666667</ele><time>2026-04-11T13:42:32Z</time></trkpt><trkpt lat="45.827412008137586" lon="3.141315852006236"><ele>327.0</ele><time>2026-04-11T13:42:33Z</time></trkpt><trkpt lat="45.82735234426989" lon="3.1412815462899517"><ele>327.3333333333333</ele><time>2026-04-11T13:42:34Z</time></trkpt><trkpt lat="45.827238456705885" lon="3.141223096399631"><ele>327.66666666666663</ele><time>2026-04-11T13:42:36Z</time></trkpt><trkpt lat="45.82712848191581" lon="3.141165809156186"><ele>328.0</ele><time>2026-04-11T13:42:38Z</time></trkpt><trkpt lat="45.8270554270668" lon="3.14113329844064"><ele>328.0</ele><time>2026-04-11T13:42:40Z</time></trkpt><trkpt lat="45.82699222158427" lon="3.141104106525625"><ele>328.0</ele><time>2026-04-11T13:42:42Z</time></trkpt><trkpt lat="45.826899587288715" lon="3.1411134709645516"><ele>328.0</ele><time>2026-04-11T13:42:44Z</time></trkpt><trkpt lat="45.826805748110715" lon="3.1410712294300094"><ele>328.0</ele><time>2026-04-11T13:42:46Z</time></trkpt><trkpt lat="45.826704639095944" lon="3.1410257685785"><ele>328.0</ele><time>2026-04-11T13:42:48Z</time></trkpt><trkpt lat="45.82659690796723" lon="3.1409809314864927"><ele>328.4</ele><time>2026-04-11T13:42:50Z</time></trkpt><trkpt lat="45.82648679878157" lon="3.140927656624062"><ele>328.79999999999995</ele><time>2026-04-11T13:42:52Z</time></trkpt><trkpt lat="45.82637111816801" lon="3.140883874045805"><ele>329.2</ele><time>2026-04-11T13:42:54Z</time></trkpt><trkpt lat="45.82624938139231" lon="3.1408542291853347"><ele>329.6</ele><time>2026-04-11T13:42:56Z</time></trkpt><trkpt lat="45.82618199343314" lon="3.1408546090425746"><ele>330.0</ele><time>2026-04-11T13:42:57Z</time></trkpt><trkpt lat="45.826053093312325" lon="3.1408605190045975"><ele>330.00000000000006</ele><time>2026-04-11T13:42:59Z</time></trkpt><trkpt lat="45.82598510583857" lon="3.1408682207950767"><ele>330.0</ele><time>2026-04-11T13:43:00Z</time></trkpt><trkpt lat="45.82591685608273" lon="3.1408862663315085"><ele>330.0</ele><time>2026-04-11T13:43:01Z</time></trkpt><trkpt lat="45.82584970028911" lon="3.140912807706467"><ele>330.0</ele><time>2026-04-11T13:43:02Z</time></trkpt><trkpt lat="45.825782808969045" lon="3.1409428987758985"><ele>330.0</ele><time>2026-04-11T13:43:03Z</time></trkpt><trkpt lat="45.825714883999616" lon="3.140972887954002"><ele>330.00000000000006</ele><time>2026-04-11T13:43:04Z</time></trkpt><trkpt lat="45.825650388523584" lon="3.1410094553033563"><ele>330.0</ele><time>2026-04-11T13:43:05Z</time></trkpt><trkpt lat="45.825585045513144" lon="3.141039869767644"><ele>329.7142857142857</ele><time>2026-04-11T13:43:06Z</time></trkpt><trkpt lat="45.82551974374681" lon="3.141077151435748"><ele>329.42857142857144</ele><time>2026-04-11T13:43:07Z</time></trkpt><trkpt lat="45.82545393236773" lon="3.1411107479489777"><ele>329.1428571428571</ele><time>2026-04-11T13:43:08Z</time></trkpt><trkpt lat="45.82539205116613" lon="3.141148931524404"><ele>328.8571428571429</ele><time>2026-04-11T13:43:09Z</time></trkpt><trkpt lat="45.82533010013201" lon="3.1411921213558833"><ele>328.57142857142856</ele><time>2026-04-11T13:43:10Z</time></trkpt><trkpt lat="45.82527080104511" lon="3.141236937602224"><ele>328.2857142857143</ele><time>2026-04-11T13:43:11Z</time></trkpt><trkpt lat="45.82521041467238" lon="3.1412809295959723"><ele>328.0</ele><time>2026-04-11T13:43:12Z</time></trkpt><trkpt lat="45.82514911364912" lon="3.1413225403346483"><ele>328.1428571428571</ele><time>2026-04-11T13:43:13Z</time></trkpt><trkpt lat="45.82509218039076" lon="3.1413650322628826"><ele>328.2857142857143</ele><time>2026-04-11T13:43:14Z</time></trkpt><trkpt lat="45.825036564708284" lon="3.1414091038196545"><ele>328.42857142857144</ele><time>2026-04-11T13:43:15Z</time></trkpt><trkpt lat="45.82498105335764" lon="3.1414583056249366"><ele>328.57142857142856</ele><time>2026-04-11T13:43:16Z</time></trkpt><trkpt lat="45.82492377776647" lon="3.1415016039698886"><ele>328.7142857142857</ele><time>2026-04-11T13:43:17Z</time></trkpt><trkpt lat="45.82486576923005" lon="3.141545117399924"><ele>328.85714285714283</ele><time>2026-04-11T13:43:18Z</time></trkpt><trkpt lat="45.82480665004485" lon="3.1415835298533534"><ele>329.0</ele><time>2026-04-11T13:43:19Z</time></trkpt><trkpt lat="45.8247490992295" lon="3.1416277737798026"><ele>329.0</ele><time>2026-04-11T13:43:20Z</time></trkpt><trkpt lat="45.82469170306395" lon="3.141672075507304"><ele>329.0</ele><time>2026-04-11T13:43:21Z</time></trkpt><trkpt lat="45.82463109653008" lon="3.141702678518727"><ele>329.0</ele><time>2026-04-11T13:43:22Z</time></trkpt><trkpt lat="45.82457010450334" lon="3.14172807191298"><ele>329.0</ele><time>2026-04-11T13:43:23Z</time></trkpt><trkpt lat="45.8245090394291" lon="3.1417577066283564"><ele>329.0</ele><time>2026-04-11T13:43:24Z</time></trkpt><trkpt lat="45.82444833069526" lon="3.1417844095642695"><ele>329.0</ele><time>2026-04-11T13:43:25Z</time></trkpt><trkpt lat="45.82432639218069" lon="3.141828161078937"><ele>329.0</ele><time>2026-04-11T13:43:27Z</time></trkpt><trkpt lat="45.824265303689096" lon="3.141851443682947"><ele>329.0</ele><time>2026-04-11T13:43:28Z</time></trkpt><trkpt lat="45.82420463015408" lon="3.1418790627122863"><ele>329.0</ele><time>2026-04-11T13:43:29Z</time></trkpt><trkpt lat="45.824142198604335" lon="3.141903681098182"><ele>329.0</ele><time>2026-04-11T13:43:30Z</time></trkpt><trkpt lat="45.82407666499706" lon="3.141919499476657"><ele>329.0</ele><time>2026-04-11T13:43:31Z</time></trkpt><trkpt lat="45.8240101335184" lon="3.1419421268005574"><ele>329.0</ele><time>2026-04-11T13:43:32Z</time></trkpt><trkpt lat="45.82394642509199" lon="3.1419649095221147"><ele>329.0</ele><time>2026-04-11T13:43:33Z</time></trkpt><trkpt lat="45.82388213109443" lon="3.1419915309504405"><ele>329.0</ele><time>2026-04-11T13:43:34Z</time></trkpt><trkpt lat="45.82381617880787" lon="3.1420159940995767"><ele>329.0</ele><time>2026-04-11T13:43:35Z</time></trkpt><trkpt lat="45.82374851352458" lon="3.14203731807855"><ele>329.0</ele><time>2026-04-11T13:43:36Z</time></trkpt><trkpt lat="45.823679770395344" lon="3.142065417658296"><ele>329.0</ele><time>2026-04-11T13:43:37Z</time></trkpt><trkpt lat="45.823613549021466" lon="3.142087813108313"><ele>329.0</ele><time>2026-04-11T13:43:38Z</time></trkpt><trkpt lat="45.82354427860293" lon="3.1421082406798297"><ele>329.0</ele><time>2026-04-11T13:43:39Z</time></trkpt><trkpt lat="45.823471953693264" lon="3.142130117231989"><ele>329.0</ele><time>2026-04-11T13:43:40Z</time></trkpt><trkpt lat="45.823402577048086" lon="3.1421416819115016"><ele>329.0</ele><time>2026-04-11T13:43:41Z</time></trkpt><trkpt lat="45.82332887771044" lon="3.142146793514325"><ele>329.0</ele><time>2026-04-11T13:43:42Z</time></trkpt><trkpt lat="45.823256607230654" lon="3.1421539391534594"><ele>329.0</ele><time>2026-04-11T13:43:43Z</time></trkpt><trkpt lat="45.823186283464416" lon="3.1421551527308558"><ele>329.0</ele><time>2026-04-11T13:43:44Z</time></trkpt><trkpt lat="45.82311347374244" lon="3.1421549624557694"><ele>329.0</ele><time>2026-04-11T13:43:45Z</time></trkpt><trkpt lat="45.82304223816779" lon="3.142150409016006"><ele>329.0</ele><time>2026-04-11T13:43:46Z</time></trkpt><trkpt lat="45.82297012346742" lon="3.1421469911337376"><ele>329.0</ele><time>2026-04-11T13:43:47Z</time></trkpt><trkpt lat="45.8228986055569" lon="3.142137407241767"><ele>329.0</ele><time>2026-04-11T13:43:48Z</time></trkpt><trkpt lat="45.82282831776014" lon="3.142126857872557"><ele>329.0</ele><time>2026-04-11T13:43:49Z</time></trkpt><trkpt lat="45.82276001218583" lon="3.142107280673243"><ele>329.0</ele><time>2026-04-11T13:43:50Z</time></trkpt><trkpt lat="45.82269082515591" lon="3.142085086767627"><ele>329.0</ele><time>2026-04-11T13:43:51Z</time></trkpt><trkpt lat="45.822627149333655" lon="3.142063486292979"><ele>329.0</ele><time>2026-04-11T13:43:52Z</time></trkpt><trkpt lat="45.8225626098694" lon="3.1420345546702215"><ele>329.0</ele><time>2026-04-11T13:43:52.999Z</time></trkpt><trkpt lat="45.82249849540895" lon="3.1420045267029453"><ele>329.0</ele><time>2026-04-11T13:43:53.999Z</time></trkpt><trkpt lat="45.822434407657695" lon="3.1419773682686962"><ele>329.0</ele><time>2026-04-11T13:43:54.999Z</time></trkpt><trkpt lat="45.82232132430586" lon="3.1418987655941084"><ele>329.0</ele><time>2026-04-11T13:43:56.999Z</time></trkpt><trkpt lat="45.82222126492541" lon="3.141808542726993"><ele>329.0</ele><time>2026-04-11T13:43:58.999Z</time></trkpt><trkpt lat="45.822117273812964" lon="3.14174136106315"><ele>329.0</ele><time>2026-04-11T13:44:00.999Z</time></trkpt><trkpt lat="45.82200641118899" lon="3.1416762605584583"><ele>329.0</ele><time>2026-04-11T13:44:02.999Z</time></trkpt><trkpt lat="45.821942342718835" lon="3.1416063394474687"><ele>329.0</ele><time>2026-04-11T13:44:04.999Z</time></trkpt><trkpt lat="45.821936981916075" lon="3.1414928454790694"><ele>329.0</ele><time>2026-04-11T13:44:05.999Z</time></trkpt><trkpt lat="45.821934096861476" lon="3.141376679029678"><ele>329.0</ele><time>2026-04-11T13:44:07.999Z</time></trkpt><trkpt lat="45.82196776910152" lon="3.141280456131283"><ele>329.0</ele><time>2026-04-11T13:44:10.999Z</time></trkpt><trkpt lat="45.8219480692119" lon="3.141161428828097"><ele>329.0</ele><time>2026-04-11T13:44:15.001Z</time></trkpt><trkpt lat="45.821830765930045" lon="3.1411649573225473"><ele>329.0</ele><time>2026-04-11T13:44:18.001Z</time></trkpt><trkpt lat="45.821762538127814" lon="3.141260015148826"><ele>329.0</ele><time>2026-04-11T13:44:20Z</time></trkpt><trkpt lat="45.82167737669106" lon="3.141351519728945"><ele>329.0</ele><time>2026-04-11T13:44:22Z</time></trkpt><trkpt lat="45.821596687034166" lon="3.141434648118192"><ele>329.0</ele><time>2026-04-11T13:44:24Z</time></trkpt><trkpt lat="45.82151843890606" lon="3.1414106630740184"><ele>329.0</ele><time>2026-04-11T13:44:26Z</time></trkpt><trkpt lat="45.82141302474021" lon="3.1413916516749127"><ele>329.0</ele><time>2026-04-11T13:44:28Z</time></trkpt><trkpt lat="45.82130974965645" lon="3.1413839077569854"><ele>329.0</ele><time>2026-04-11T13:44:30Z</time></trkpt><trkpt lat="45.821200934462325" lon="3.141404050332797"><ele>329.0</ele><time>2026-04-11T13:44:32Z</time></trkpt><trkpt lat="45.82109071684002" lon="3.141376556627873"><ele>329.0</ele><time>2026-04-11T13:44:34Z</time></trkpt><trkpt lat="45.82097518579458" lon="3.141365679921525"><ele>329.0</ele><time>2026-04-11T13:44:36Z</time></trkpt><trkpt lat="45.82085355258282" lon="3.1413578848927997"><ele>329.2</ele><time>2026-04-11T13:44:38Z</time></trkpt><trkpt lat="45.82073751264198" lon="3.141343820173362"><ele>329.4</ele><time>2026-04-11T13:44:40Z</time></trkpt><trkpt lat="45.82061512403878" lon="3.1413373688050212"><ele>329.6</ele><time>2026-04-11T13:44:42Z</time></trkpt><trkpt lat="45.82055272918873" lon="3.1413240854826805"><ele>329.8</ele><time>2026-04-11T13:44:43Z</time></trkpt><trkpt lat="45.82048836958556" lon="3.1413247686191603"><ele>330.0</ele><time>2026-04-11T13:44:44Z</time></trkpt><trkpt lat="45.82036368495946" lon="3.141307088362856"><ele>330.00000000000006</ele><time>2026-04-11T13:44:46Z</time></trkpt><trkpt lat="45.820300050218954" lon="3.1413017536835217"><ele>330.0</ele><time>2026-04-11T13:44:47Z</time></trkpt><trkpt lat="45.82023552852489" lon="3.1412985647412714"><ele>330.0</ele><time>2026-04-11T13:44:48Z</time></trkpt><trkpt lat="45.8201717448681" lon="3.141288858423525"><ele>330.0</ele><time>2026-04-11T13:44:49Z</time></trkpt><trkpt lat="45.820108799768796" lon="3.141282749854315"><ele>330.0</ele><time>2026-04-11T13:44:50Z</time></trkpt><trkpt lat="45.820045989641685" lon="3.1412740597011917"><ele>330.00000000000006</ele><time>2026-04-11T13:44:51Z</time></trkpt><trkpt lat="45.81998212713164" lon="3.1412685162431275"><ele>330.0</ele><time>2026-04-11T13:44:52Z</time></trkpt><trkpt lat="45.81985406807801" lon="3.1412415187795926"><ele>329.8333333333333</ele><time>2026-04-11T13:44:54Z</time></trkpt><trkpt lat="45.81978853030327" lon="3.1412352905162693"><ele>329.6666666666667</ele><time>2026-04-11T13:44:55Z</time></trkpt><trkpt lat="45.81972395113699" lon="3.141227740095196"><ele>329.5</ele><time>2026-04-11T13:44:56Z</time></trkpt><trkpt lat="45.81965871337632" lon="3.1412182398641737"><ele>329.33333333333337</ele><time>2026-04-11T13:44:57Z</time></trkpt><trkpt lat="45.81959404507257" lon="3.1412112849833234"><ele>329.1666666666667</ele><time>2026-04-11T13:44:58Z</time></trkpt><trkpt lat="45.81947138169842" lon="3.141199923365729"><ele>329.0</ele><time>2026-04-11T13:45:00Z</time></trkpt><trkpt lat="45.81934862837168" lon="3.1411964734193285"><ele>329.0</ele><time>2026-04-11T13:45:02Z</time></trkpt><trkpt lat="45.81925921658218" lon="3.141182899888829"><ele>329.0</ele><time>2026-04-11T13:45:04Z</time></trkpt><trkpt lat="45.81918604169729" lon="3.141169297231565"><ele>329.0</ele><time>2026-04-11T13:45:06Z</time></trkpt><trkpt lat="45.81909163138446" lon="3.141162108730318"><ele>329.0</ele><time>2026-04-11T13:45:08Z</time></trkpt><trkpt lat="45.81899116285457" lon="3.141156923361669"><ele>329.0</ele><time>2026-04-11T13:45:10Z</time></trkpt><trkpt lat="45.818883284459226" lon="3.1411435124114395"><ele>329.0</ele><time>2026-04-11T13:45:12Z</time></trkpt><trkpt lat="45.818777489837686" lon="3.141129980153616"><ele>329.0</ele><time>2026-04-11T13:45:14Z</time></trkpt><trkpt lat="45.81867850522518" lon="3.14111728987851"><ele>329.0</ele><time>2026-04-11T13:45:16Z</time></trkpt><trkpt lat="45.818601030338066" lon="3.141106317168534"><ele>329.0</ele><time>2026-04-11T13:45:18Z</time></trkpt><trkpt lat="45.81853623306543" lon="3.141098846284821"><ele>329.0</ele><time>2026-04-11T13:45:20Z</time></trkpt><trkpt lat="45.8184572936105" lon="3.1410738719889992"><ele>329.0</ele><time>2026-04-11T13:45:23Z</time></trkpt><trkpt lat="45.81836243973854" lon="3.141067441338771"><ele>329.2</ele><time>2026-04-11T13:45:25Z</time></trkpt><trkpt lat="45.81826876330209" lon="3.1410463893666742"><ele>329.4</ele><time>2026-04-11T13:45:27Z</time></trkpt><trkpt lat="45.81817306701649" lon="3.141026649011331"><ele>329.6</ele><time>2026-04-11T13:45:29Z</time></trkpt><trkpt lat="45.81806712873315" lon="3.140992115442662"><ele>329.8</ele><time>2026-04-11T13:45:31Z</time></trkpt><trkpt lat="45.81796498542376" lon="3.1409632495033915"><ele>330.0</ele><time>2026-04-11T13:45:33Z</time></trkpt><trkpt lat="45.81786028863458" lon="3.140941272898829"><ele>330.0</ele><time>2026-04-11T13:45:35Z</time></trkpt><trkpt lat="45.81775699604412" lon="3.1409000836791283"><ele>330.0</ele><time>2026-04-11T13:45:37Z</time></trkpt><trkpt lat="45.81765191075945" lon="3.1408657634646375"><ele>330.0</ele><time>2026-04-11T13:45:39Z</time></trkpt><trkpt lat="45.817547580405154" lon="3.1408346771678533"><ele>330.0</ele><time>2026-04-11T13:45:41Z</time></trkpt><trkpt lat="45.81744163821196" lon="3.1408019297281022"><ele>330.0</ele><time>2026-04-11T13:45:43Z</time></trkpt><trkpt lat="45.817336174326485" lon="3.1407698336533048"><ele>330.0</ele><time>2026-04-11T13:45:45Z</time></trkpt><trkpt lat="45.81722774367858" lon="3.140729993095096"><ele>330.0</ele><time>2026-04-11T13:45:47Z</time></trkpt><trkpt lat="45.81712114919578" lon="3.140701206711178"><ele>330.0</ele><time>2026-04-11T13:45:49Z</time></trkpt><trkpt lat="45.817013875585985" lon="3.140681683681276"><ele>330.0</ele><time>2026-04-11T13:45:50.999Z</time></trkpt><trkpt lat="45.8169152617197" lon="3.1406331966035728"><ele>330.0</ele><time>2026-04-11T13:45:52.999Z</time></trkpt><trkpt lat="45.81680925161109" lon="3.1406257079933892"><ele>330.25</ele><time>2026-04-11T13:45:54.999Z</time></trkpt><trkpt lat="45.8167029358781" lon="3.140586435092026"><ele>330.5</ele><time>2026-04-11T13:45:56.999Z</time></trkpt><trkpt lat="45.81659392300546" lon="3.1405600588019524"><ele>330.75</ele><time>2026-04-11T13:45:58.999Z</time></trkpt><trkpt lat="45.81648371044473" lon="3.1405336041914516"><ele>331.0</ele><time>2026-04-11T13:46:00.999Z</time></trkpt><trkpt lat="45.81636614899919" lon="3.1404998883980397"><ele>331.0</ele><time>2026-04-11T13:46:02.999Z</time></trkpt><trkpt lat="45.81625119095339" lon="3.140461142499342"><ele>331.0</ele><time>2026-04-11T13:46:04.999Z</time></trkpt><trkpt lat="45.816146754478666" lon="3.1403711632936973"><ele>331.0</ele><time>2026-04-11T13:46:06.999Z</time></trkpt><trkpt lat="45.81610926615203" lon="3.140297424759182"><ele>331.0</ele><time>2026-04-11T13:46:07.999Z</time></trkpt><trkpt lat="45.81607984718923" lon="3.1402162268055043"><ele>331.0</ele><time>2026-04-11T13:46:08.999Z</time></trkpt><trkpt lat="45.8160559863972" lon="3.1401289786903193"><ele>331.0</ele><time>2026-04-11T13:46:09.999Z</time></trkpt><trkpt lat="45.81603580889173" lon="3.1400422073145875"><ele>331.0</ele><time>2026-04-11T13:46:10.999Z</time></trkpt><trkpt lat="45.81601389068922" lon="3.1399531550351387"><ele>331.0</ele><time>2026-04-11T13:46:11.999Z</time></trkpt><trkpt lat="45.81599233161834" lon="3.1398654263678427"><ele>331.0</ele><time>2026-04-11T13:46:12.999Z</time></trkpt><trkpt lat="45.815971979451014" lon="3.1397742070579575"><ele>331.0</ele><time>2026-04-11T13:46:13.999Z</time></trkpt><trkpt lat="45.815948805611086" lon="3.1396854622797106"><ele>331.0</ele><time>2026-04-11T13:46:14.999Z</time></trkpt><trkpt lat="45.815923851823236" lon="3.139592077575692"><ele>331.0</ele><time>2026-04-11T13:46:15.999Z</time></trkpt><trkpt lat="45.8158993518213" lon="3.139505151930072"><ele>331.0</ele><time>2026-04-11T13:46:16.999Z</time></trkpt><trkpt lat="45.81587124627086" lon="3.139414977218493"><ele>330.8571428571429</ele><time>2026-04-11T13:46:17.999Z</time></trkpt><trkpt lat="45.815848298115384" lon="3.1393291264682053"><ele>330.7142857142857</ele><time>2026-04-11T13:46:18.999Z</time></trkpt><trkpt lat="45.81582559599559" lon="3.1392413282078224"><ele>330.57142857142856</ele><time>2026-04-11T13:46:19.999Z</time></trkpt><trkpt lat="45.81580121345474" lon="3.139155796437421"><ele>330.42857142857144</ele><time>2026-04-11T13:46:21Z</time></trkpt><trkpt lat="45.81577058919745" lon="3.1390679255912843"><ele>330.2857142857143</ele><time>2026-04-11T13:46:22Z</time></trkpt><trkpt lat="45.81574214771821" lon="3.1389815978723674"><ele>330.14285714285717</ele><time>2026-04-11T13:46:23Z</time></trkpt><trkpt lat="45.815713221008835" lon="3.138899176078694"><ele>330.0</ele><time>2026-04-11T13:46:24Z</time></trkpt><trkpt lat="45.8156801153051" lon="3.1388159176725954"><ele>330.00000000000006</ele><time>2026-04-11T13:46:25Z</time></trkpt><trkpt lat="45.81564656154824" lon="3.138731320810274"><ele>330.0</ele><time>2026-04-11T13:46:26Z</time></trkpt><trkpt lat="45.81560942987519" lon="3.138649429941253"><ele>330.0</ele><time>2026-04-11T13:46:27Z</time></trkpt><trkpt lat="45.81557051970348" lon="3.138568744470315"><ele>330.0</ele><time>2026-04-11T13:46:28Z</time></trkpt><trkpt lat="45.81553353949601" lon="3.1384875080491925"><ele>330.0</ele><time>2026-04-11T13:46:29Z</time></trkpt><trkpt lat="45.81549568387926" lon="3.1384058594308857"><ele>330.00000000000006</ele><time>2026-04-11T13:46:30Z</time></trkpt><trkpt lat="45.8154572176613" lon="3.138327903417528"><ele>330.0</ele><time>2026-04-11T13:46:31Z</time></trkpt><trkpt lat="45.81541817871806" lon="3.1382472694408188"><ele>330.0</ele><time>2026-04-11T13:46:32Z</time></trkpt><trkpt lat="45.81538464903203" lon="3.1381627100003504"><ele>330.0</ele><time>2026-04-11T13:46:33Z</time></trkpt><trkpt lat="45.81533712403041" lon="3.1380950163975116"><ele>330.0</ele><time>2026-04-11T13:46:34Z</time></trkpt><trkpt lat="45.81529247699129" lon="3.138025789635427"><ele>330.0</ele><time>2026-04-11T13:46:35Z</time></trkpt><trkpt lat="45.815252343210126" lon="3.137942305707682"><ele>330.0</ele><time>2026-04-11T13:46:36Z</time></trkpt><trkpt lat="45.815199524905786" lon="3.137890173057313"><ele>330.0</ele><time>2026-04-11T13:46:37Z</time></trkpt><trkpt lat="45.81508950287851" lon="3.137791321361038"><ele>330.00000000000006</ele><time>2026-04-11T13:46:39Z</time></trkpt><trkpt lat="45.81503867108133" lon="3.1377309854669253"><ele>330.0</ele><time>2026-04-11T13:46:40Z</time></trkpt><trkpt lat="45.814989442211434" lon="3.137671665313117"><ele>330.0</ele><time>2026-04-11T13:46:41Z</time></trkpt><trkpt lat="45.81493787123507" lon="3.137612189378735"><ele>330.0</ele><time>2026-04-11T13:46:42Z</time></trkpt><trkpt lat="45.8148885770355" lon="3.1375497102758914"><ele>330.0</ele><time>2026-04-11T13:46:43Z</time></trkpt><trkpt lat="45.81483571566425" lon="3.1374874819508993"><ele>330.00000000000006</ele><time>2026-04-11T13:46:44Z</time></trkpt><trkpt lat="45.81478349112548" lon="3.137425099196757"><ele>330.0</ele><time>2026-04-11T13:46:45Z</time></trkpt><trkpt lat="45.814732898595395" lon="3.1373581339297827"><ele>329.8571428571429</ele><time>2026-04-11T13:46:46Z</time></trkpt><trkpt lat="45.814677282711436" lon="3.137296245032914"><ele>329.7142857142857</ele><time>2026-04-11T13:46:47Z</time></trkpt><trkpt lat="45.814624856461144" lon="3.137235601364041"><ele>329.57142857142856</ele><time>2026-04-11T13:46:48Z</time></trkpt><trkpt lat="45.814571500664485" lon="3.1371764114494485"><ele>329.42857142857144</ele><time>2026-04-11T13:46:49Z</time></trkpt><trkpt lat="45.814518709853516" lon="3.1371171426649003"><ele>329.2857142857143</ele><time>2026-04-11T13:46:50Z</time></trkpt><trkpt lat="45.81446507892522" lon="3.137054606630037"><ele>329.14285714285717</ele><time>2026-04-11T13:46:51Z</time></trkpt><trkpt lat="45.814414053783274" lon="3.1369902546430963"><ele>329.0</ele><time>2026-04-11T13:46:52Z</time></trkpt><trkpt lat="45.814362318882296" lon="3.1369293455663083"><ele>328.83333333333337</ele><time>2026-04-11T13:46:53Z</time></trkpt><trkpt lat="45.814309062441986" lon="3.1368743929800966"><ele>328.6666666666667</ele><time>2026-04-11T13:46:54Z</time></trkpt><trkpt lat="45.8142576061418" lon="3.1368209669671336"><ele>328.5</ele><time>2026-04-11T13:46:55Z</time></trkpt><trkpt lat="45.81416114767494" lon="3.136704730609271"><ele>328.3333333333333</ele><time>2026-04-11T13:46:57Z</time></trkpt><trkpt lat="45.814111271965324" lon="3.1366428981664143"><ele>328.16666666666663</ele><time>2026-04-11T13:46:58Z</time></trkpt><trkpt lat="45.81405955522268" lon="3.1365852456211014"><ele>328.0</ele><time>2026-04-11T13:46:59Z</time></trkpt><trkpt lat="45.81396349764578" lon="3.1364578235659426"><ele>328.0</ele><time>2026-04-11T13:47:01Z</time></trkpt><trkpt lat="45.813913607116724" lon="3.13639986754363"><ele>328.0</ele><time>2026-04-11T13:47:02Z</time></trkpt><trkpt lat="45.81383649661574" lon="3.1363975524034284"><ele>328.0</ele><time>2026-04-11T13:47:03Z</time></trkpt><trkpt lat="45.81372953761901" lon="3.136312021763993"><ele>328.0</ele><time>2026-04-11T13:47:05Z</time></trkpt><trkpt lat="45.81363132608238" lon="3.1362746174567495"><ele>328.0</ele><time>2026-04-11T13:47:06Z</time></trkpt><trkpt lat="45.813548693479994" lon="3.1361687569878165"><ele>328.0</ele><time>2026-04-11T13:47:08Z</time></trkpt><trkpt lat="45.81356515253339" lon="3.1359892740406585"><ele>328.0</ele><time>2026-04-11T13:47:09Z</time></trkpt><trkpt lat="45.81347085368485" lon="3.135871913586102"><ele>328.0</ele><time>2026-04-11T13:47:11Z</time></trkpt><trkpt lat="45.813377833964175" lon="3.135761997136365"><ele>328.0</ele><time>2026-04-11T13:47:13Z</time></trkpt><trkpt lat="45.81328008706075" lon="3.1356874439331333"><ele>327.99999999999994</ele><time>2026-04-11T13:47:15Z</time></trkpt><trkpt lat="45.81317639563396" lon="3.1356131079794363"><ele>328.0</ele><time>2026-04-11T13:47:17Z</time></trkpt><trkpt lat="45.81313309922973" lon="3.1355438121909662"><ele>328.0</ele><time>2026-04-11T13:47:18Z</time></trkpt><trkpt lat="45.813085103210916" lon="3.135480430723656"><ele>328.0</ele><time>2026-04-11T13:47:19Z</time></trkpt><trkpt lat="45.81303632208052" lon="3.135420519605567"><ele>328.0</ele><time>2026-04-11T13:47:20Z</time></trkpt><trkpt lat="45.81298654723316" lon="3.1353624004171827"><ele>327.99999999999994</ele><time>2026-04-11T13:47:21Z</time></trkpt><trkpt lat="45.81293502033881" lon="3.1353007012899465"><ele>328.0</ele><time>2026-04-11T13:47:22Z</time></trkpt><trkpt lat="45.812888110431665" lon="3.135235394586574"><ele>328.0</ele><time>2026-04-11T13:47:23Z</time></trkpt><trkpt lat="45.81284442282615" lon="3.1351673458488634"><ele>328.0</ele><time>2026-04-11T13:47:24Z</time></trkpt><trkpt lat="45.81279851195556" lon="3.1351024894440185"><ele>328.0</ele><time>2026-04-11T13:47:25Z</time></trkpt><trkpt lat="45.8127535804615" lon="3.135037902649901"><ele>328.0</ele><time>2026-04-11T13:47:26Z</time></trkpt><trkpt lat="45.81270790754968" lon="3.1349683017352836"><ele>328.0</ele><time>2026-04-11T13:47:27Z</time></trkpt><trkpt lat="45.812625140394914" lon="3.1348299539210416"><ele>328.0</ele><time>2026-04-11T13:47:29Z</time></trkpt><trkpt lat="45.812582147018325" lon="3.134760268678156"><ele>328.5</ele><time>2026-04-11T13:47:30Z</time></trkpt><trkpt lat="45.81250419818445" lon="3.1346265918407243"><ele>329.0</ele><time>2026-04-11T13:47:32Z</time></trkpt><trkpt lat="45.81243053244608" lon="3.134494287402574"><ele>329.5</ele><time>2026-04-11T13:47:34Z</time></trkpt><trkpt lat="45.81236294918261" lon="3.1343658841795152"><ele>330.0</ele><time>2026-04-11T13:47:36Z</time></trkpt><trkpt lat="45.81229156225799" lon="3.134240381582782"><ele>330.0</ele><time>2026-04-11T13:47:38Z</time></trkpt><trkpt lat="45.81222088376804" lon="3.134116221424014"><ele>330.0</ele><time>2026-04-11T13:47:40Z</time></trkpt><trkpt lat="45.81215256235353" lon="3.1339953936404297"><ele>330.0</ele><time>2026-04-11T13:47:41.999Z</time></trkpt><trkpt lat="45.81208878690895" lon="3.1338743858530105"><ele>330.0</ele><time>2026-04-11T13:47:43.999Z</time></trkpt><trkpt lat="45.81201814725107" lon="3.133754876914613"><ele>330.0</ele><time>2026-04-11T13:47:45.999Z</time></trkpt><trkpt lat="45.81194859545188" lon="3.1336347990840427"><ele>330.0</ele><time>2026-04-11T13:47:47.999Z</time></trkpt><trkpt lat="45.811878403506505" lon="3.1335183742594674"><ele>330.0</ele><time>2026-04-11T13:47:49.999Z</time></trkpt><trkpt lat="45.811808840944096" lon="3.1334020689455486"><ele>330.0</ele><time>2026-04-11T13:47:51.999Z</time></trkpt><trkpt lat="45.81174348746509" lon="3.133277948846853"><ele>330.0</ele><time>2026-04-11T13:47:53.999Z</time></trkpt><trkpt lat="45.81167306035232" lon="3.133169265456705"><ele>330.0</ele><time>2026-04-11T13:47:55.999Z</time></trkpt><trkpt lat="45.81160725617299" lon="3.133045424121055"><ele>330.0</ele><time>2026-04-11T13:47:57.999Z</time></trkpt><trkpt lat="45.811549746026635" lon="3.1329203338850364"><ele>330.0</ele><time>2026-04-11T13:47:59.999Z</time></trkpt><trkpt lat="45.81151193975434" lon="3.1327831977145806"><ele>330.0</ele><time>2026-04-11T13:48:01.999Z</time></trkpt><trkpt lat="45.811508300706585" lon="3.1326432071020394"><ele>330.0</ele><time>2026-04-11T13:48:03.999Z</time></trkpt><trkpt lat="45.8115523491077" lon="3.1325233727727633"><ele>330.0</ele><time>2026-04-11T13:48:05.999Z</time></trkpt><trkpt lat="45.811569345119324" lon="3.1323933371935846"><ele>329.6</ele><time>2026-04-11T13:48:07.999Z</time></trkpt><trkpt lat="45.811603080258514" lon="3.132268443028262"><ele>329.2</ele><time>2026-04-11T13:48:09.999Z</time></trkpt><trkpt lat="45.81163744468293" lon="3.132132370684838"><ele>328.79999999999995</ele><time>2026-04-11T13:48:11.999Z</time></trkpt><trkpt lat="45.811665603618216" lon="3.1319781917134115"><ele>328.4</ele><time>2026-04-11T13:48:13.999Z</time></trkpt><trkpt lat="45.811642443341064" lon="3.131816675447343"><ele>328.0</ele><time>2026-04-11T13:48:15.999Z</time></trkpt><trkpt lat="45.81157359102117" lon="3.1316595283217525"><ele>327.99999999999994</ele><time>2026-04-11T13:48:17.999Z</time></trkpt><trkpt lat="45.81152434084199" lon="3.131595616367497"><ele>328.0</ele><time>2026-04-11T13:48:18.999Z</time></trkpt><trkpt lat="45.81146621943466" lon="3.131542134595342"><ele>328.0</ele><time>2026-04-11T13:48:19.999Z</time></trkpt><trkpt lat="45.81140096746509" lon="3.131491530167632"><ele>328.0</ele><time>2026-04-11T13:48:20.999Z</time></trkpt><trkpt lat="45.81133429616542" lon="3.131445111195534"><ele>328.0</ele><time>2026-04-11T13:48:21.999Z</time></trkpt><trkpt lat="45.81126412887597" lon="3.1313970327699043"><ele>327.99999999999994</ele><time>2026-04-11T13:48:22.999Z</time></trkpt><trkpt lat="45.81119403946562" lon="3.1313511619620797"><ele>328.0</ele><time>2026-04-11T13:48:23.999Z</time></trkpt><trkpt lat="45.81112163545768" lon="3.1312985686321313"><ele>327.8333333333333</ele><time>2026-04-11T13:48:24.999Z</time></trkpt><trkpt lat="45.81105002544522" lon="3.131246006752974"><ele>327.66666666666663</ele><time>2026-04-11T13:48:25.999Z</time></trkpt><trkpt lat="45.81097869330561" lon="3.131189261680889"><ele>327.5</ele><time>2026-04-11T13:48:27Z</time></trkpt><trkpt lat="45.81091000520251" lon="3.131125720525863"><ele>327.3333333333333</ele><time>2026-04-11T13:48:28Z</time></trkpt><trkpt lat="45.81084140047266" lon="3.131059006166752"><ele>327.1666666666667</ele><time>2026-04-11T13:48:29Z</time></trkpt><trkpt lat="45.81077066453074" lon="3.1309937956185236"><ele>327.0</ele><time>2026-04-11T13:48:30Z</time></trkpt><trkpt lat="45.81070214453526" lon="3.1309254917662868"><ele>327.3333333333333</ele><time>2026-04-11T13:48:31Z</time></trkpt><trkpt lat="45.810630423059855" lon="3.13086172501048"><ele>327.6666666666667</ele><time>2026-04-11T13:48:32Z</time></trkpt><trkpt lat="45.810558291594425" lon="3.13078803330956"><ele>328.0</ele><time>2026-04-11T13:48:33Z</time></trkpt><trkpt lat="45.81048488478085" lon="3.130717846258433"><ele>328.33333333333337</ele><time>2026-04-11T13:48:34Z</time></trkpt><trkpt lat="45.81041182489732" lon="3.1306468218794037"><ele>328.6666666666667</ele><time>2026-04-11T13:48:35Z</time></trkpt><trkpt lat="45.810338725513056" lon="3.1305765561387253"><ele>329.0</ele><time>2026-04-11T13:48:36Z</time></trkpt><trkpt lat="45.810265128650656" lon="3.1305049757490195"><ele>329.1666666666667</ele><time>2026-04-11T13:48:37Z</time></trkpt><trkpt lat="45.81019535856605" lon="3.1304319963062586"><ele>329.33333333333337</ele><time>2026-04-11T13:48:38Z</time></trkpt><trkpt lat="45.81012358943125" lon="3.130364002170453"><ele>329.5</ele><time>2026-04-11T13:48:39Z</time></trkpt><trkpt lat="45.81005192157249" lon="3.1302945043127597"><ele>329.6666666666667</ele><time>2026-04-11T13:48:40Z</time></trkpt><trkpt lat="45.8099809973533" lon="3.1302277411408967"><ele>329.8333333333333</ele><time>2026-04-11T13:48:41Z</time></trkpt><trkpt lat="45.80991124190593" lon="3.130158291860032"><ele>330.0</ele><time>2026-04-11T13:48:42Z</time></trkpt><trkpt lat="45.80984150419551" lon="3.1300932654598825"><ele>330.3333333333333</ele><time>2026-04-11T13:48:43Z</time></trkpt><trkpt lat="45.80977332714062" lon="3.1300294606962265"><ele>330.6666666666667</ele><time>2026-04-11T13:48:44Z</time></trkpt><trkpt lat="45.80970872575648" lon="3.1299634034205406"><ele>331.0</ele><time>2026-04-11T13:48:45Z</time></trkpt><trkpt lat="45.8096403462915" lon="3.1299065842780354"><ele>331.33333333333337</ele><time>2026-04-11T13:48:46Z</time></trkpt><trkpt lat="45.80957177938065" lon="3.1298541525779657"><ele>331.6666666666667</ele><time>2026-04-11T13:48:47Z</time></trkpt><trkpt lat="45.80950692860677" lon="3.1297952552484167"><ele>332.0</ele><time>2026-04-11T13:48:48Z</time></trkpt><trkpt lat="45.8094367883863" lon="3.1297482457822285"><ele>332.0</ele><time>2026-04-11T13:48:49Z</time></trkpt><trkpt lat="45.80936566788821" lon="3.129706949367882"><ele>332.0</ele><time>2026-04-11T13:48:50Z</time></trkpt><trkpt lat="45.809297636468486" lon="3.1296629352995606"><ele>332.0</ele><time>2026-04-11T13:48:51Z</time></trkpt><trkpt lat="45.80922783027037" lon="3.129622025806091"><ele>332.0</ele><time>2026-04-11T13:48:52Z</time></trkpt><trkpt lat="45.80915667609875" lon="3.1295848314605115"><ele>332.0</ele><time>2026-04-11T13:48:53Z</time></trkpt><trkpt lat="45.809086024258214" lon="3.1295480166610674"><ele>332.0</ele><time>2026-04-11T13:48:54Z</time></trkpt><trkpt lat="45.8090161468077" lon="3.1295077159012332"><ele>331.85714285714283</ele><time>2026-04-11T13:48:55Z</time></trkpt><trkpt lat="45.80894480429391" lon="3.1294699689854872"><ele>331.7142857142857</ele><time>2026-04-11T13:48:56Z</time></trkpt><trkpt lat="45.80887210229948" lon="3.1294366540356724"><ele>331.57142857142856</ele><time>2026-04-11T13:48:57Z</time></trkpt><trkpt lat="45.80880408709309" lon="3.1293951508323623"><ele>331.42857142857144</ele><time>2026-04-11T13:48:58Z</time></trkpt><trkpt lat="45.80873570050531" lon="3.129357509243979"><ele>331.2857142857143</ele><time>2026-04-11T13:48:59Z</time></trkpt><trkpt lat="45.808666309401055" lon="3.1293203144154247"><ele>331.14285714285717</ele><time>2026-04-11T13:49:00Z</time></trkpt><trkpt lat="45.80859489715494" lon="3.129283999608094"><ele>331.0</ele><time>2026-04-11T13:49:01Z</time></trkpt><trkpt lat="45.80852714973062" lon="3.1292460689173645"><ele>331.0</ele><time>2026-04-11T13:49:02Z</time></trkpt><trkpt lat="45.80846001112291" lon="3.1292093907568503"><ele>331.0</ele><time>2026-04-11T13:49:03Z</time></trkpt><trkpt lat="45.80839200110487" lon="3.129167640398538"><ele>331.0</ele><time>2026-04-11T13:49:04Z</time></trkpt><trkpt lat="45.808323479960265" lon="3.129134679523426"><ele>331.0</ele><time>2026-04-11T13:49:05Z</time></trkpt><trkpt lat="45.808257684360875" lon="3.1290939087401366"><ele>331.0</ele><time>2026-04-11T13:49:06Z</time></trkpt><trkpt lat="45.80819243175897" lon="3.1290572485877535"><ele>331.0</ele><time>2026-04-11T13:49:07Z</time></trkpt><trkpt lat="45.80812578013116" lon="3.1290253005478443"><ele>331.0</ele><time>2026-04-11T13:49:08Z</time></trkpt><trkpt lat="45.808060583831356" lon="3.1289964148545164"><ele>331.0</ele><time>2026-04-11T13:49:09Z</time></trkpt><trkpt lat="45.80799922821114" lon="3.1289644795526823"><ele>331.0</ele><time>2026-04-11T13:49:10Z</time></trkpt><trkpt lat="45.80793923671955" lon="3.1289328429046472"><ele>331.0</ele><time>2026-04-11T13:49:11Z</time></trkpt><trkpt lat="45.8078184042406" lon="3.1288719959612536"><ele>331.0</ele><time>2026-04-11T13:49:13Z</time></trkpt><trkpt lat="45.80775846890887" lon="3.128828277143789"><ele>331.0</ele><time>2026-04-11T13:49:14Z</time></trkpt><trkpt lat="45.807695820353025" lon="3.1287915104768644"><ele>331.0</ele><time>2026-04-11T13:49:15Z</time></trkpt><trkpt lat="45.80763379768215" lon="3.128754767314761"><ele>331.2857142857143</ele><time>2026-04-11T13:49:16Z</time></trkpt><trkpt lat="45.807572147556215" lon="3.128718018139338"><ele>331.57142857142856</ele><time>2026-04-11T13:49:17Z</time></trkpt><trkpt lat="45.80751324222396" lon="3.1286719834628"><ele>331.8571428571429</ele><time>2026-04-11T13:49:18Z</time></trkpt><trkpt lat="45.80745375655124" lon="3.1286262457659615"><ele>332.1428571428571</ele><time>2026-04-11T13:49:19Z</time></trkpt><trkpt lat="45.80739244997178" lon="3.1285842265412462"><ele>332.4285714285714</ele><time>2026-04-11T13:49:20Z</time></trkpt><trkpt lat="45.807330301146855" lon="3.128548484022698"><ele>332.7142857142857</ele><time>2026-04-11T13:49:21Z</time></trkpt><trkpt lat="45.80727066491693" lon="3.1285113730433243"><ele>333.0</ele><time>2026-04-11T13:49:22Z</time></trkpt><trkpt lat="45.807212719652156" lon="3.1284748415632326"><ele>333.0</ele><time>2026-04-11T13:49:23Z</time></trkpt><trkpt lat="45.80715632264324" lon="3.128433813213442"><ele>333.0</ele><time>2026-04-11T13:49:24Z</time></trkpt><trkpt lat="45.80709859938718" lon="3.128393387051259"><ele>333.0</ele><time>2026-04-11T13:49:25Z</time></trkpt><trkpt lat="45.80703826734857" lon="3.1283560082957456"><ele>333.0</ele><time>2026-04-11T13:49:26Z</time></trkpt><trkpt lat="45.806975692766876" lon="3.1283439649319105"><ele>333.0</ele><time>2026-04-11T13:49:27Z</time></trkpt><trkpt lat="45.80690691252494" lon="3.128322544603355"><ele>333.0</ele><time>2026-04-11T13:49:28Z</time></trkpt><trkpt lat="45.806856669703926" lon="3.128259028316728"><ele>333.0</ele><time>2026-04-11T13:49:29Z</time></trkpt><trkpt lat="45.80680922444143" lon="3.1281950962441876"><ele>333.2</ele><time>2026-04-11T13:49:30Z</time></trkpt><trkpt lat="45.80671578767346" lon="3.1282085869792393"><ele>333.4</ele><time>2026-04-11T13:49:31Z</time></trkpt><trkpt lat="45.806610544795305" lon="3.128099863112675"><ele>333.59999999999997</ele><time>2026-04-11T13:49:32.999Z</time></trkpt><trkpt lat="45.80655701182642" lon="3.1280457714720606"><ele>333.79999999999995</ele><time>2026-04-11T13:49:33.999Z</time></trkpt><trkpt lat="45.80644595259931" lon="3.1279510202613308"><ele>334.0</ele><time>2026-04-11T13:49:35.999Z</time></trkpt><trkpt lat="45.80632402143071" lon="3.127920507358638"><ele>334.0</ele><time>2026-04-11T13:49:37.999Z</time></trkpt><trkpt lat="45.80629790669799" lon="3.12775656854792"><ele>334.0</ele><time>2026-04-11T13:49:38.999Z</time></trkpt><trkpt lat="45.80622912124259" lon="3.1277612813928624"><ele>334.0</ele><time>2026-04-11T13:49:39.999Z</time></trkpt><trkpt lat="45.80616506007404" lon="3.127763023518528"><ele>334.0</ele><time>2026-04-11T13:49:40.999Z</time></trkpt><trkpt lat="45.806097867566294" lon="3.127756868626497"><ele>334.0</ele><time>2026-04-11T13:49:41.999Z</time></trkpt><trkpt lat="45.80602697528997" lon="3.1277505242903225"><ele>334.0</ele><time>2026-04-11T13:49:42.999Z</time></trkpt><trkpt lat="45.805954785482236" lon="3.1277528883305727"><ele>333.79999999999995</ele><time>2026-04-11T13:49:43.999Z</time></trkpt><trkpt lat="45.80584185303125" lon="3.1276806792773404"><ele>333.59999999999997</ele><time>2026-04-11T13:49:45.999Z</time></trkpt><trkpt lat="45.80572922481871" lon="3.127596388628594"><ele>333.4</ele><time>2026-04-11T13:49:47.999Z</time></trkpt><trkpt lat="45.8056799879548" lon="3.1275210600122287"><ele>333.2</ele><time>2026-04-11T13:49:48.999Z</time></trkpt><trkpt lat="45.80563760661631" lon="3.127425823554002"><ele>333.0</ele><time>2026-04-11T13:49:49.999Z</time></trkpt><trkpt lat="45.80561432538406" lon="3.1273215003124037"><ele>333.0</ele><time>2026-04-11T13:49:50.999Z</time></trkpt><trkpt lat="45.805596754210136" lon="3.127221675436693"><ele>333.0</ele><time>2026-04-11T13:49:51.999Z</time></trkpt><trkpt lat="45.80558256847506" lon="3.127121787085313"><ele>333.0</ele><time>2026-04-11T13:49:52.999Z</time></trkpt><trkpt lat="45.805579123895996" lon="3.1270207683071307"><ele>333.0</ele><time>2026-04-11T13:49:53.999Z</time></trkpt><trkpt lat="45.805581464829274" lon="3.1269175734953745"><ele>333.0</ele><time>2026-04-11T13:49:54.999Z</time></trkpt><trkpt lat="45.80558497151196" lon="3.1268128105291537"><ele>333.0</ele><time>2026-04-11T13:49:55.999Z</time></trkpt><trkpt lat="45.805589819492596" lon="3.1267142324746575"><ele>333.0</ele><time>2026-04-11T13:49:56.999Z</time></trkpt><trkpt lat="45.80560327798395" lon="3.126619054257037"><ele>333.1666666666667</ele><time>2026-04-11T13:49:57.999Z</time></trkpt><trkpt lat="45.80561875626084" lon="3.1265243392515556"><ele>333.3333333333333</ele><time>2026-04-11T13:49:58.999Z</time></trkpt><trkpt lat="45.805624268012664" lon="3.1264276790981174"><ele>333.5</ele><time>2026-04-11T13:49:59.999Z</time></trkpt><trkpt lat="45.805622596076" lon="3.1263367141560616"><ele>333.66666666666663</ele><time>2026-04-11T13:50:00.999Z</time></trkpt><trkpt lat="45.80561317178314" lon="3.1262449433976105"><ele>333.8333333333333</ele><time>2026-04-11T13:50:01.999Z</time></trkpt><trkpt lat="45.80558831987921" lon="3.126072820512688"><ele>334.0</ele><time>2026-04-11T13:50:03.999Z</time></trkpt><trkpt lat="45.80555023446277" lon="3.125902946442044"><ele>334.0</ele><time>2026-04-11T13:50:05.999Z</time></trkpt><trkpt lat="45.80553359113552" lon="3.1258121989819174"><ele>334.0</ele><time>2026-04-11T13:50:06.999Z</time></trkpt><trkpt lat="45.80549520587459" lon="3.1256484459918505"><ele>334.0</ele><time>2026-04-11T13:50:08.999Z</time></trkpt><trkpt lat="45.80547120177772" lon="3.1254756113294437"><ele>334.0</ele><time>2026-04-11T13:50:10.999Z</time></trkpt><trkpt lat="45.80544145742337" lon="3.1253019673654285"><ele>334.0</ele><time>2026-04-11T13:50:12.999Z</time></trkpt><trkpt lat="45.80541133538938" lon="3.12521904490113"><ele>334.0</ele><time>2026-04-11T13:50:13.999Z</time></trkpt><trkpt lat="45.80536678558371" lon="3.12504914044249"><ele>334.0</ele><time>2026-04-11T13:50:15.999Z</time></trkpt><trkpt lat="45.80534534963082" lon="3.1249580796618424"><ele>334.0</ele><time>2026-04-11T13:50:16.999Z</time></trkpt><trkpt lat="45.805325608821704" lon="3.124870666106347"><ele>334.0</ele><time>2026-04-11T13:50:17.999Z</time></trkpt><trkpt lat="45.80530286275334" lon="3.1247815679250874"><ele>334.0</ele><time>2026-04-11T13:50:18.999Z</time></trkpt><trkpt lat="45.8052466676989" lon="3.1246134704295043"><ele>334.0</ele><time>2026-04-11T13:50:20.999Z</time></trkpt><trkpt lat="45.80522771482063" lon="3.1245271880899272"><ele>334.0</ele><time>2026-04-11T13:50:21.999Z</time></trkpt><trkpt lat="45.80517930441972" lon="3.1243636686418834"><ele>334.0</ele><time>2026-04-11T13:50:23.999Z</time></trkpt><trkpt lat="45.805126766836224" lon="3.1242056179587956"><ele>334.0</ele><time>2026-04-11T13:50:25.999Z</time></trkpt><trkpt lat="45.80508088191299" lon="3.124044625303116"><ele>334.0</ele><time>2026-04-11T13:50:27.999Z</time></trkpt><trkpt lat="45.805053224420185" lon="3.123962688104777"><ele>334.0</ele><time>2026-04-11T13:50:28.999Z</time></trkpt><trkpt lat="45.80500942921175" lon="3.1237984548960083"><ele>334.0</ele><time>2026-04-11T13:50:30.999Z</time></trkpt><trkpt lat="45.80498098537254" lon="3.1237177269290948"><ele>334.0</ele><time>2026-04-11T13:50:31.999Z</time></trkpt><trkpt lat="45.80492532456053" lon="3.123558343759216"><ele>334.0</ele><time>2026-04-11T13:50:34Z</time></trkpt><trkpt lat="45.8048891090781" lon="3.1233925780571647"><ele>334.0</ele><time>2026-04-11T13:50:36Z</time></trkpt><trkpt lat="45.804839147941685" lon="3.1232289452373787"><ele>333.4</ele><time>2026-04-11T13:50:38Z</time></trkpt><trkpt lat="45.80479439489472" lon="3.1230698251923568"><ele>332.79999999999995</ele><time>2026-04-11T13:50:40Z</time></trkpt><trkpt lat="45.80474641505294" lon="3.122908814193384"><ele>332.20000000000005</ele><time>2026-04-11T13:50:42Z</time></trkpt><trkpt lat="45.80469623311659" lon="3.1227520748407738"><ele>331.6</ele><time>2026-04-11T13:50:44Z</time></trkpt><trkpt lat="45.8046734030226" lon="3.122664862665408"><ele>331.0</ele><time>2026-04-11T13:50:45Z</time></trkpt><trkpt lat="45.80465223853751" lon="3.1225764424076563"><ele>331.0</ele><time>2026-04-11T13:50:46Z</time></trkpt><trkpt lat="45.80463056233389" lon="3.122488491662918"><ele>331.0</ele><time>2026-04-11T13:50:47Z</time></trkpt><trkpt lat="45.80460144833859" lon="3.1224046855760275"><ele>331.0</ele><time>2026-04-11T13:50:48Z</time></trkpt><trkpt lat="45.804547060183125" lon="3.1222319048374825"><ele>331.0</ele><time>2026-04-11T13:50:50Z</time></trkpt><trkpt lat="45.80452592308277" lon="3.1221446202928402"><ele>331.0</ele><time>2026-04-11T13:50:51Z</time></trkpt><trkpt lat="45.804474208238844" lon="3.121977246538824"><ele>331.20000000000005</ele><time>2026-04-11T13:50:53Z</time></trkpt><trkpt lat="45.80444947392418" lon="3.12189275854519"><ele>331.40000000000003</ele><time>2026-04-11T13:50:54Z</time></trkpt><trkpt lat="45.80442504989829" lon="3.1218081722925737"><ele>331.6</ele><time>2026-04-11T13:50:55Z</time></trkpt><trkpt lat="45.804382091727554" lon="3.1216443544144603"><ele>331.8</ele><time>2026-04-11T13:50:57Z</time></trkpt><trkpt lat="45.80433814375554" lon="3.121485245597822"><ele>332.0</ele><time>2026-04-11T13:50:59Z</time></trkpt><trkpt lat="45.80429093412" lon="3.121324741061051"><ele>332.20000000000005</ele><time>2026-04-11T13:51:01Z</time></trkpt><trkpt lat="45.804250871350774" lon="3.1211717680706674"><ele>332.4</ele><time>2026-04-11T13:51:03Z</time></trkpt><trkpt lat="45.80420343025622" lon="3.121007852782657"><ele>332.6</ele><time>2026-04-11T13:51:05Z</time></trkpt><trkpt lat="45.804159702251795" lon="3.1208460966135934"><ele>332.79999999999995</ele><time>2026-04-11T13:51:07Z</time></trkpt><trkpt lat="45.80412817235202" lon="3.120755597847495"><ele>333.0</ele><time>2026-04-11T13:51:08Z</time></trkpt><trkpt lat="45.80408457880654" lon="3.120590550357486"><ele>333.0</ele><time>2026-04-11T13:51:10Z</time></trkpt><trkpt lat="45.804059555793074" lon="3.1205027005430335"><ele>333.0</ele><time>2026-04-11T13:51:11Z</time></trkpt><trkpt lat="45.80403486320654" lon="3.120417043959403"><ele>333.0</ele><time>2026-04-11T13:51:12Z</time></trkpt><trkpt lat="45.803980954512895" lon="3.1202518511737622"><ele>333.0</ele><time>2026-04-11T13:51:14Z</time></trkpt><trkpt lat="45.80395832511649" lon="3.1201669507936742"><ele>333.0</ele><time>2026-04-11T13:51:15Z</time></trkpt><trkpt lat="45.80391502071066" lon="3.1200061440592886"><ele>333.0</ele><time>2026-04-11T13:51:17Z</time></trkpt><trkpt lat="45.80387254740307" lon="3.1198505594858466"><ele>333.2</ele><time>2026-04-11T13:51:19Z</time></trkpt><trkpt lat="45.803829067498974" lon="3.119698088876541"><ele>333.4</ele><time>2026-04-11T13:51:21Z</time></trkpt><trkpt lat="45.80378909915103" lon="3.1195633526370625"><ele>333.59999999999997</ele><time>2026-04-11T13:51:23Z</time></trkpt><trkpt lat="45.8037296927976" lon="3.119472169311866"><ele>333.79999999999995</ele><time>2026-04-11T13:51:25Z</time></trkpt><trkpt lat="45.80362757026433" lon="3.1194256035902335"><ele>334.0</ele><time>2026-04-11T13:51:27Z</time></trkpt><trkpt lat="45.80353049669353" lon="3.119426286658176"><ele>334.75</ele><time>2026-04-11T13:51:29Z</time></trkpt><trkpt lat="45.803430837636256" lon="3.1195095298752555"><ele>335.5</ele><time>2026-04-11T13:51:31Z</time></trkpt><trkpt lat="45.80333160350263" lon="3.1195804828762386"><ele>336.25</ele><time>2026-04-11T13:51:33Z</time></trkpt><trkpt lat="45.803218973430305" lon="3.1196321369729274"><ele>337.0</ele><time>2026-04-11T13:51:35Z</time></trkpt><trkpt lat="45.803106388452804" lon="3.1196888909856586"><ele>337.0</ele><time>2026-04-11T13:51:36.999Z</time></trkpt><trkpt lat="45.802996725377795" lon="3.1197618028192187"><ele>337.0</ele><time>2026-04-11T13:51:38.999Z</time></trkpt><trkpt lat="45.80287899611331" lon="3.1198253408038656"><ele>337.0</ele><time>2026-04-11T13:51:40.999Z</time></trkpt><trkpt lat="45.80282095062423" lon="3.119861078898596"><ele>337.0</ele><time>2026-04-11T13:51:41.999Z</time></trkpt><trkpt lat="45.80270864903811" lon="3.119939021327952"><ele>337.0</ele><time>2026-04-11T13:51:43.999Z</time></trkpt><trkpt lat="45.80259213989001" lon="3.120009147360653"><ele>336.8</ele><time>2026-04-11T13:51:45.999Z</time></trkpt><trkpt lat="45.80246596948498" lon="3.120079604978412"><ele>336.6</ele><time>2026-04-11T13:51:47.999Z</time></trkpt><trkpt lat="45.802349490892155" lon="3.1201398426558753"><ele>336.40000000000003</ele><time>2026-04-11T13:51:49.999Z</time></trkpt><trkpt lat="45.80228514135002" lon="3.1201863148267814"><ele>336.20000000000005</ele><time>2026-04-11T13:51:50.999Z</time></trkpt><trkpt lat="45.80222388671163" lon="3.1202283538446207"><ele>336.0</ele><time>2026-04-11T13:51:51.999Z</time></trkpt><trkpt lat="45.802111633348154" lon="3.1202887575048064"><ele>336.0</ele><time>2026-04-11T13:51:53.999Z</time></trkpt><trkpt lat="45.80204886948722" lon="3.120325684290957"><ele>336.0</ele><time>2026-04-11T13:51:54.999Z</time></trkpt><trkpt lat="45.801985214335986" lon="3.120361779721323"><ele>336.0</ele><time>2026-04-11T13:51:55.999Z</time></trkpt><trkpt lat="45.801924286703496" lon="3.1203949216699725"><ele>336.0</ele><time>2026-04-11T13:51:56.999Z</time></trkpt><trkpt lat="45.8018589087178" lon="3.12043285344823"><ele>336.0</ele><time>2026-04-11T13:51:57.999Z</time></trkpt><trkpt lat="45.801798580730114" lon="3.1204657114091403"><ele>336.0</ele><time>2026-04-11T13:51:58.999Z</time></trkpt><trkpt lat="45.801734937254565" lon="3.120502218372552"><ele>336.0</ele><time>2026-04-11T13:51:59.999Z</time></trkpt><trkpt lat="45.80167488027329" lon="3.120538800866884"><ele>336.1666666666667</ele><time>2026-04-11T13:52:00.999Z</time></trkpt><trkpt lat="45.8016112482325" lon="3.1205742156970735"><ele>336.3333333333333</ele><time>2026-04-11T13:52:01.999Z</time></trkpt><trkpt lat="45.801493824293395" lon="3.120419652024625"><ele>336.5</ele><time>2026-04-11T13:52:02.999Z</time></trkpt><trkpt lat="45.80143093951083" lon="3.1204568746759658"><ele>336.66666666666663</ele><time>2026-04-11T13:52:03.999Z</time></trkpt><trkpt lat="45.80136635227229" lon="3.120495105036723"><ele>336.8333333333333</ele><time>2026-04-11T13:52:04.999Z</time></trkpt><trkpt lat="45.801298247246486" lon="3.1205354176288753"><ele>337.0</ele><time>2026-04-11T13:52:05.999Z</time></trkpt><trkpt lat="45.80123940370574" lon="3.120570248201322"><ele>337.00000000000006</ele><time>2026-04-11T13:52:06.999Z</time></trkpt><trkpt lat="45.80117661410971" lon="3.120607414539647"><ele>337.0</ele><time>2026-04-11T13:52:07.999Z</time></trkpt><trkpt lat="45.80111418208931" lon="3.1206443692012167"><ele>337.0</ele><time>2026-04-11T13:52:08.999Z</time></trkpt><trkpt lat="45.80104720099043" lon="3.120684016514807"><ele>337.0</ele><time>2026-04-11T13:52:09.999Z</time></trkpt><trkpt lat="45.8009842627874" lon="3.120721270823216"><ele>337.0</ele><time>2026-04-11T13:52:10.999Z</time></trkpt><trkpt lat="45.800919448218586" lon="3.120759635745777"><ele>337.00000000000006</ele><time>2026-04-11T13:52:11.999Z</time></trkpt><trkpt lat="45.80085312586468" lon="3.1207988931678066"><ele>337.0</ele><time>2026-04-11T13:52:12.999Z</time></trkpt><trkpt lat="45.80078342765395" lon="3.1208401488159994"><ele>336.42857142857144</ele><time>2026-04-11T13:52:13.999Z</time></trkpt><trkpt lat="45.80072277903457" lon="3.120876047891966"><ele>335.8571428571429</ele><time>2026-04-11T13:52:14.999Z</time></trkpt><trkpt lat="45.80065814410482" lon="3.12091430644819"><ele>335.28571428571433</ele><time>2026-04-11T13:52:15.999Z</time></trkpt><trkpt lat="45.80058929926683" lon="3.120955056946603"><ele>334.7142857142857</ele><time>2026-04-11T13:52:16.999Z</time></trkpt><trkpt lat="45.80052498420162" lon="3.120993126258861"><ele>334.1428571428571</ele><time>2026-04-11T13:52:17.999Z</time></trkpt><trkpt lat="45.800459162160536" lon="3.121032087035159"><ele>333.5714285714286</ele><time>2026-04-11T13:52:18.999Z</time></trkpt><trkpt lat="45.80039434796789" lon="3.1210710998839404"><ele>333.0</ele><time>2026-04-11T13:52:19.999Z</time></trkpt><trkpt lat="45.800335014331" lon="3.121106638934893"><ele>333.0</ele><time>2026-04-11T13:52:20.999Z</time></trkpt><trkpt lat="45.80026864928716" lon="3.121146389569935"><ele>333.0</ele><time>2026-04-11T13:52:21.999Z</time></trkpt><trkpt lat="45.800208150929215" lon="3.121182172158415"><ele>333.0</ele><time>2026-04-11T13:52:22.999Z</time></trkpt><trkpt lat="45.800146616114525" lon="3.12121591672323"><ele>333.0</ele><time>2026-04-11T13:52:23.999Z</time></trkpt><trkpt lat="45.80008535967696" lon="3.121249175066866"><ele>333.0</ele><time>2026-04-11T13:52:24.999Z</time></trkpt><trkpt lat="45.79996882786539" lon="3.1213130667500217"><ele>333.0</ele><time>2026-04-11T13:52:26.999Z</time></trkpt><trkpt lat="45.79985900335663" lon="3.121374022791822"><ele>333.1666666666667</ele><time>2026-04-11T13:52:28.999Z</time></trkpt><trkpt lat="45.79978691633899" lon="3.1214151165169346"><ele>333.3333333333333</ele><time>2026-04-11T13:52:30.999Z</time></trkpt><trkpt lat="45.79972325708889" lon="3.1214520659332834"><ele>333.5</ele><time>2026-04-11T13:52:33.999Z</time></trkpt><trkpt lat="45.799662245028074" lon="3.1214881987536773"><ele>333.66666666666663</ele><time>2026-04-11T13:52:36.999Z</time></trkpt><trkpt lat="45.79958804901017" lon="3.121532763001498"><ele>333.8333333333333</ele><time>2026-04-11T13:52:40Z</time></trkpt><trkpt lat="45.79952649868872" lon="3.1215697283634665"><ele>334.0</ele><time>2026-04-11T13:52:43Z</time></trkpt><trkpt lat="45.79944344555615" lon="3.1216200713922024"><ele>334.0</ele><time>2026-04-11T13:53:00Z</time></trkpt><trkpt lat="45.79936350560606" lon="3.1216434643238498"><ele>334.0</ele><time>2026-04-11T13:53:08Z</time></trkpt><trkpt lat="45.79928796338077" lon="3.1216886415216374"><ele>334.0</ele><time>2026-04-11T13:53:10Z</time></trkpt><trkpt lat="45.79920126939404" lon="3.121743021585755"><ele>334.0</ele><time>2026-04-11T13:53:12Z</time></trkpt><trkpt lat="45.79911140802946" lon="3.1217986303863032"><ele>334.0</ele><time>2026-04-11T13:53:14Z</time></trkpt><trkpt lat="45.79901662858558" lon="3.121860936688062"><ele>333.5</ele><time>2026-04-11T13:53:16Z</time></trkpt><trkpt lat="45.79891677934915" lon="3.1219262733738926"><ele>333.0</ele><time>2026-04-11T13:53:18Z</time></trkpt><trkpt lat="45.798814022717494" lon="3.1219924533673717"><ele>332.5</ele><time>2026-04-11T13:53:20Z</time></trkpt><trkpt lat="45.79870909105023" lon="3.122059111038979"><ele>332.0</ele><time>2026-04-11T13:53:22Z</time></trkpt><trkpt lat="45.79860555972975" lon="3.122124577246198"><ele>332.5</ele><time>2026-04-11T13:53:24Z</time></trkpt><trkpt lat="45.79849313582136" lon="3.122197072371567"><ele>333.0</ele><time>2026-04-11T13:53:26Z</time></trkpt><trkpt lat="45.79843466720617" lon="3.122234775071013"><ele>333.5</ele><time>2026-04-11T13:53:27Z</time></trkpt><trkpt lat="45.79837630925524" lon="3.1222724064325926"><ele>334.0</ele><time>2026-04-11T13:53:28Z</time></trkpt><trkpt lat="45.798271684475374" lon="3.122339872359625"><ele>334.5</ele><time>2026-04-11T13:53:30Z</time></trkpt><trkpt lat="45.79821269509851" lon="3.122377910839847"><ele>335.0</ele><time>2026-04-11T13:53:31Z</time></trkpt><trkpt lat="45.798154909916136" lon="3.12241530853968"><ele>335.0</ele><time>2026-04-11T13:53:32Z</time></trkpt><trkpt lat="45.798086151339916" lon="3.122460588523"><ele>335.0</ele><time>2026-04-11T13:53:33Z</time></trkpt><trkpt lat="45.797979728985226" lon="3.1225306716270698"><ele>335.0</ele><time>2026-04-11T13:53:35Z</time></trkpt><trkpt lat="45.7978640287142" lon="3.122606864525223"><ele>335.0</ele><time>2026-04-11T13:53:37Z</time></trkpt><trkpt lat="45.79775585257416" lon="3.122679152927905"><ele>335.0</ele><time>2026-04-11T13:53:39Z</time></trkpt><trkpt lat="45.797695677185054" lon="3.1227194803647347"><ele>335.0</ele><time>2026-04-11T13:53:39.999Z</time></trkpt><trkpt lat="45.79763534056399" lon="3.122759916387022"><ele>335.0</ele><time>2026-04-11T13:53:40.999Z</time></trkpt><trkpt lat="45.79752151012771" lon="3.122836339251266"><ele>335.0</ele><time>2026-04-11T13:53:42.999Z</time></trkpt><trkpt lat="45.797407194269205" lon="3.1229098684031746"><ele>335.0</ele><time>2026-04-11T13:53:44.999Z</time></trkpt><trkpt lat="45.79734955873768" lon="3.12294639242846"><ele>335.0</ele><time>2026-04-11T13:53:45.999Z</time></trkpt><trkpt lat="45.79728916443823" lon="3.1229833474658886"><ele>335.0</ele><time>2026-04-11T13:53:46.999Z</time></trkpt><trkpt lat="45.7972277445068" lon="3.1230165781117476"><ele>335.0</ele><time>2026-04-11T13:53:47.999Z</time></trkpt><trkpt lat="45.797110849999676" lon="3.1230683027262196"><ele>335.0</ele><time>2026-04-11T13:53:49.999Z</time></trkpt><trkpt lat="45.797047612177195" lon="3.123091986198053"><ele>335.0</ele><time>2026-04-11T13:53:50.999Z</time></trkpt><trkpt lat="45.79692723250131" lon="3.1231303968432846"><ele>335.0</ele><time>2026-04-11T13:53:52.999Z</time></trkpt><trkpt lat="45.796864825506674" lon="3.123144279474633"><ele>335.0</ele><time>2026-04-11T13:53:53.999Z</time></trkpt><trkpt lat="45.7967481259233" lon="3.123163436420201"><ele>334.75</ele><time>2026-04-11T13:53:55.999Z</time></trkpt><trkpt lat="45.79663564715934" lon="3.1231742120109836"><ele>334.5</ele><time>2026-04-11T13:53:57.999Z</time></trkpt><trkpt lat="45.796522359296176" lon="3.1231729615931125"><ele>334.25</ele><time>2026-04-11T13:53:59.999Z</time></trkpt><trkpt lat="45.79641045845026" lon="3.1231704076404228"><ele>334.0</ele><time>2026-04-11T13:54:01.999Z</time></trkpt><trkpt lat="45.79629873195173" lon="3.123167544826019"><ele>334.0</ele><time>2026-04-11T13:54:03.999Z</time></trkpt><trkpt lat="45.79620069003422" lon="3.1231615503248196"><ele>334.0</ele><time>2026-04-11T13:54:05.999Z</time></trkpt><trkpt lat="45.79612964020615" lon="3.1231553376396106"><ele>334.0</ele><time>2026-04-11T13:54:07.999Z</time></trkpt><trkpt lat="45.79604338610875" lon="3.1231477956335514"><ele>334.0</ele><time>2026-04-11T13:54:13.999Z</time></trkpt><trkpt lat="45.79594761665955" lon="3.123129669554721"><ele>334.0</ele><time>2026-04-11T13:54:16.999Z</time></trkpt><trkpt lat="45.79587965253165" lon="3.123117819039402"><ele>334.0</ele><time>2026-04-11T13:54:18.999Z</time></trkpt><trkpt lat="45.79581497321729" lon="3.1231065413669805"><ele>334.2</ele><time>2026-04-11T13:54:20.999Z</time></trkpt><trkpt lat="45.795739317643346" lon="3.1230944049301153"><ele>334.4</ele><time>2026-04-11T13:54:23.999Z</time></trkpt><trkpt lat="45.7956627995375" lon="3.123082327639969"><ele>334.6</ele><time>2026-04-11T13:54:26.999Z</time></trkpt><trkpt lat="45.79557252640415" lon="3.1230508879895327"><ele>334.8</ele><time>2026-04-11T13:54:28.999Z</time></trkpt><trkpt lat="45.79547754411766" lon="3.1230273877043606"><ele>335.0</ele><time>2026-04-11T13:54:30.999Z</time></trkpt><trkpt lat="45.795368633957175" lon="3.122997345159978"><ele>335.0</ele><time>2026-04-11T13:54:32.999Z</time></trkpt><trkpt lat="45.795262973262986" lon="3.1229680511314792"><ele>335.0</ele><time>2026-04-11T13:54:34.999Z</time></trkpt><trkpt lat="45.795158699228615" lon="3.122919217095889"><ele>335.0</ele><time>2026-04-11T13:54:36.999Z</time></trkpt><trkpt lat="45.79505402010972" lon="3.1228725840351195"><ele>335.0</ele><time>2026-04-11T13:54:38.999Z</time></trkpt><trkpt lat="45.79495016024098" lon="3.1228185584678383"><ele>335.0</ele><time>2026-04-11T13:54:40.999Z</time></trkpt><trkpt lat="45.79484687011801" lon="3.1227581647137614"><ele>335.25</ele><time>2026-04-11T13:54:42.999Z</time></trkpt><trkpt lat="45.794744406241605" lon="3.1226914387139075"><ele>335.5</ele><time>2026-04-11T13:54:45Z</time></trkpt><trkpt lat="45.794643986934275" lon="3.1226113817902106"><ele>335.75</ele><time>2026-04-11T13:54:47Z</time></trkpt><trkpt lat="45.794542047812094" lon="3.1225285583662115"><ele>336.0</ele><time>2026-04-11T13:54:49Z</time></trkpt><trkpt lat="45.794435339115445" lon="3.1224436215840248"><ele>336.4</ele><time>2026-04-11T13:54:51Z</time></trkpt><trkpt lat="45.79433322283846" lon="3.1223401944504254"><ele>336.8</ele><time>2026-04-11T13:54:53Z</time></trkpt><trkpt lat="45.7942333804151" lon="3.1222395502726505"><ele>337.2</ele><time>2026-04-11T13:54:55Z</time></trkpt><trkpt lat="45.79418318344239" lon="3.1221792431844424"><ele>337.59999999999997</ele><time>2026-04-11T13:54:56Z</time></trkpt><trkpt lat="45.794134832823815" lon="3.122120648794234"><ele>338.0</ele><time>2026-04-11T13:54:57Z</time></trkpt><trkpt lat="45.794042618585884" lon="3.1219997437659903"><ele>338.0</ele><time>2026-04-11T13:54:59Z</time></trkpt><trkpt lat="45.7939967597921" lon="3.121935304999054"><ele>338.0</ele><time>2026-04-11T13:55:00Z</time></trkpt><trkpt lat="45.7939517586618" lon="3.121868997406955"><ele>338.0</ele><time>2026-04-11T13:55:01Z</time></trkpt><trkpt lat="45.793909826059895" lon="3.1217970205457113"><ele>338.0</ele><time>2026-04-11T13:55:02Z</time></trkpt><trkpt lat="45.793861407347976" lon="3.1217301598595246"><ele>338.0</ele><time>2026-04-11T13:55:03Z</time></trkpt><trkpt lat="45.79378132437547" lon="3.1215889306985822"><ele>338.0</ele><time>2026-04-11T13:55:05Z</time></trkpt><trkpt lat="45.79374360555748" lon="3.1215149462133995"><ele>338.0</ele><time>2026-04-11T13:55:06Z</time></trkpt><trkpt lat="45.793700599605806" lon="3.1214430854244077"><ele>338.0</ele><time>2026-04-11T13:55:07Z</time></trkpt><trkpt lat="45.793629143265534" lon="3.121297660329579"><ele>338.0</ele><time>2026-04-11T13:55:09Z</time></trkpt><trkpt lat="45.79356059893066" lon="3.12114376605322"><ele>338.0</ele><time>2026-04-11T13:55:11Z</time></trkpt><trkpt lat="45.79350055621545" lon="3.1209892878055685"><ele>338.0</ele><time>2026-04-11T13:55:13Z</time></trkpt><trkpt lat="45.793466067799415" lon="3.120909942170669"><ele>338.0</ele><time>2026-04-11T13:55:14Z</time></trkpt><trkpt lat="45.79340373422162" lon="3.1207569050402304"><ele>338.0</ele><time>2026-04-11T13:55:16Z</time></trkpt><trkpt lat="45.793342802572944" lon="3.1205936280327116"><ele>338.0</ele><time>2026-04-11T13:55:18Z</time></trkpt><trkpt lat="45.79328408860627" lon="3.1204414121260315"><ele>338.0</ele><time>2026-04-11T13:55:20Z</time></trkpt><trkpt lat="45.79321679674088" lon="3.120290391721211"><ele>338.25</ele><time>2026-04-11T13:55:22Z</time></trkpt><trkpt lat="45.79315103162003" lon="3.1201417499324213"><ele>338.5</ele><time>2026-04-11T13:55:24Z</time></trkpt><trkpt lat="45.79309396322197" lon="3.119982660305059"><ele>338.75</ele><time>2026-04-11T13:55:26Z</time></trkpt><trkpt lat="45.7930301518064" lon="3.119839518117989"><ele>339.0</ele><time>2026-04-11T13:55:28Z</time></trkpt><trkpt lat="45.79297384699166" lon="3.1196887571461986"><ele>339.0</ele><time>2026-04-11T13:55:30Z</time></trkpt><trkpt lat="45.79294245852753" lon="3.1196094047215004"><ele>339.0</ele><time>2026-04-11T13:55:31Z</time></trkpt><trkpt lat="45.792882179287254" lon="3.1194580693627016"><ele>339.0</ele><time>2026-04-11T13:55:33Z</time></trkpt><trkpt lat="45.79281954272543" lon="3.1193105245703543"><ele>339.0</ele><time>2026-04-11T13:55:35Z</time></trkpt><trkpt lat="45.79276439139803" lon="3.1191563190260516"><ele>339.0</ele><time>2026-04-11T13:55:37Z</time></trkpt><trkpt lat="45.79270285751279" lon="3.119003229136319"><ele>339.0</ele><time>2026-04-11T13:55:39Z</time></trkpt><trkpt lat="45.792643598149695" lon="3.118853883142722"><ele>339.0</ele><time>2026-04-11T13:55:41Z</time></trkpt><trkpt lat="45.79257982495029" lon="3.1187105559008717"><ele>339.0</ele><time>2026-04-11T13:55:43Z</time></trkpt><trkpt lat="45.792539712724285" lon="3.118556777320328"><ele>339.0</ele><time>2026-04-11T13:55:45Z</time></trkpt><trkpt lat="45.79249460418081" lon="3.118392482252841"><ele>339.0</ele><time>2026-04-11T13:55:47Z</time></trkpt><trkpt lat="45.79245563259169" lon="3.1182313835562505"><ele>339.0</ele><time>2026-04-11T13:55:49Z</time></trkpt><trkpt lat="45.792424648696816" lon="3.118076091549919"><ele>339.0</ele><time>2026-04-11T13:55:50.999Z</time></trkpt><trkpt lat="45.79241230618427" lon="3.117925978963587"><ele>339.0</ele><time>2026-04-11T13:55:52.999Z</time></trkpt><trkpt lat="45.792410985543285" lon="3.117801847714793"><ele>339.0</ele><time>2026-04-11T13:55:54.999Z</time></trkpt><trkpt lat="45.79239120210171" lon="3.1176954789722386"><ele>339.0</ele><time>2026-04-11T13:55:56.999Z</time></trkpt><trkpt lat="45.792298998373106" lon="3.117632940734234"><ele>339.0</ele><time>2026-04-11T13:55:59.999Z</time></trkpt><trkpt lat="45.79222053572525" lon="3.117642540496002"><ele>339.0</ele><time>2026-04-11T13:56:01.999Z</time></trkpt><trkpt lat="45.7921385492956" lon="3.117641930135476"><ele>339.0</ele><time>2026-04-11T13:56:03.999Z</time></trkpt><trkpt lat="45.79205603134054" lon="3.117629403849726"><ele>339.0</ele><time>2026-04-11T13:56:05.999Z</time></trkpt><trkpt lat="45.791974847139564" lon="3.1176120536676613"><ele>339.0</ele><time>2026-04-11T13:56:12.999Z</time></trkpt><trkpt lat="45.79188845002383" lon="3.1176242576192403"><ele>339.6</ele><time>2026-04-11T13:56:14.999Z</time></trkpt><trkpt lat="45.79179972173226" lon="3.1176369569503155"><ele>340.2</ele><time>2026-04-11T13:56:16.999Z</time></trkpt><trkpt lat="45.79169734003892" lon="3.117646583672356"><ele>340.8</ele><time>2026-04-11T13:56:18.999Z</time></trkpt><trkpt lat="45.79158994483994" lon="3.117656944853421"><ele>341.40000000000003</ele><time>2026-04-11T13:56:20.999Z</time></trkpt><trkpt lat="45.79147992703017" lon="3.117662915191899"><ele>342.0</ele><time>2026-04-11T13:56:22.999Z</time></trkpt><trkpt lat="45.791362575128026" lon="3.1176705015083734"><ele>342.0</ele><time>2026-04-11T13:56:24.999Z</time></trkpt><trkpt lat="45.791237642681075" lon="3.1176988396375886"><ele>342.0</ele><time>2026-04-11T13:56:26.999Z</time></trkpt><trkpt lat="45.79117199992726" lon="3.11770740292287"><ele>342.0</ele><time>2026-04-11T13:56:27.999Z</time></trkpt><trkpt lat="45.791107710148026" lon="3.1177151084104944"><ele>342.0</ele><time>2026-04-11T13:56:28.999Z</time></trkpt><trkpt lat="45.79104345779086" lon="3.1177229775440893"><ele>342.0</ele><time>2026-04-11T13:56:29.999Z</time></trkpt><trkpt lat="45.79097889065643" lon="3.117729546086528"><ele>342.0</ele><time>2026-04-11T13:56:30.999Z</time></trkpt><trkpt lat="45.790912073964925" lon="3.117736792641881"><ele>341.71428571428567</ele><time>2026-04-11T13:56:31.999Z</time></trkpt><trkpt lat="45.79084725101114" lon="3.117744685280587"><ele>341.42857142857144</ele><time>2026-04-11T13:56:32.999Z</time></trkpt><trkpt lat="45.790779903522235" lon="3.117755926778877"><ele>341.1428571428571</ele><time>2026-04-11T13:56:33.999Z</time></trkpt><trkpt lat="45.79071241682905" lon="3.1177660981673667"><ele>340.85714285714283</ele><time>2026-04-11T13:56:34.999Z</time></trkpt><trkpt lat="45.79064450581652" lon="3.1177706949363295"><ele>340.57142857142856</ele><time>2026-04-11T13:56:35.999Z</time></trkpt><trkpt lat="45.79057700178685" lon="3.117776907206877"><ele>340.2857142857143</ele><time>2026-04-11T13:56:36.999Z</time></trkpt><trkpt lat="45.790506965958016" lon="3.117786571104366"><ele>340.0</ele><time>2026-04-11T13:56:37.999Z</time></trkpt><trkpt lat="45.79043947105682" lon="3.1177966468844804"><ele>340.0</ele><time>2026-04-11T13:56:38.999Z</time></trkpt><trkpt lat="45.79037018628821" lon="3.117801630672328"><ele>340.0</ele><time>2026-04-11T13:56:39.999Z</time></trkpt><trkpt lat="45.790303710291155" lon="3.117808154155208"><ele>340.0</ele><time>2026-04-11T13:56:40.999Z</time></trkpt><trkpt lat="45.79023880031109" lon="3.117818010036808"><ele>340.0</ele><time>2026-04-11T13:56:41.999Z</time></trkpt><trkpt lat="45.79017267255784" lon="3.1178259630581096"><ele>340.0</ele><time>2026-04-11T13:56:42.999Z</time></trkpt><trkpt lat="45.790105541836816" lon="3.1178339375823976"><ele>340.0</ele><time>2026-04-11T13:56:43.999Z</time></trkpt><trkpt lat="45.79003673910917" lon="3.117845556404849"><ele>340.0</ele><time>2026-04-11T13:56:44.999Z</time></trkpt><trkpt lat="45.78996913709759" lon="3.117850537268499"><ele>340.16666666666663</ele><time>2026-04-11T13:56:45.999Z</time></trkpt><trkpt lat="45.78990316725645" lon="3.1178511895703096"><ele>340.3333333333333</ele><time>2026-04-11T13:56:46.999Z</time></trkpt><trkpt lat="45.7898376178451" lon="3.117850323673351"><ele>340.5</ele><time>2026-04-11T13:56:47.999Z</time></trkpt><trkpt lat="45.78977143156465" lon="3.1178590071040775"><ele>340.6666666666667</ele><time>2026-04-11T13:56:48.999Z</time></trkpt><trkpt lat="45.78965006517091" lon="3.1178879555697714"><ele>340.83333333333337</ele><time>2026-04-11T13:56:51Z</time></trkpt><trkpt lat="45.78952696664836" lon="3.1179027489520856"><ele>341.0</ele><time>2026-04-11T13:56:53Z</time></trkpt><trkpt lat="45.78940886768944" lon="3.1179170990805902"><ele>340.8</ele><time>2026-04-11T13:56:55Z</time></trkpt><trkpt lat="45.78928641950452" lon="3.1179319776996794"><ele>340.6</ele><time>2026-04-11T13:56:57Z</time></trkpt><trkpt lat="45.78922209241581" lon="3.1179171439640774"><ele>340.4</ele><time>2026-04-11T13:56:58Z</time></trkpt><trkpt lat="45.78909878856042" lon="3.1179360814583523"><ele>340.2</ele><time>2026-04-11T13:57:00Z</time></trkpt><trkpt lat="45.78897950637832" lon="3.117946895146375"><ele>340.0</ele><time>2026-04-11T13:57:02Z</time></trkpt><trkpt lat="45.78886489087381" lon="3.117980423016083"><ele>340.0</ele><time>2026-04-11T13:57:04Z</time></trkpt><trkpt lat="45.78874204430087" lon="3.118016615339057"><ele>340.0</ele><time>2026-04-11T13:57:06Z</time></trkpt><trkpt lat="45.78862382784833" lon="3.118058944996913"><ele>340.0</ele><time>2026-04-11T13:57:08Z</time></trkpt><trkpt lat="45.78851224660671" lon="3.1181207438406644"><ele>340.0</ele><time>2026-04-11T13:57:10Z</time></trkpt><trkpt lat="45.78839194930437" lon="3.118181014272651"><ele>340.4</ele><time>2026-04-11T13:57:12Z</time></trkpt><trkpt lat="45.78829215663648" lon="3.118278372370989"><ele>340.8</ele><time>2026-04-11T13:57:14Z</time></trkpt><trkpt lat="45.788248897283346" lon="3.1183480648808137"><ele>341.20000000000005</ele><time>2026-04-11T13:57:15Z</time></trkpt><trkpt lat="45.78815314106147" lon="3.1184620216794965"><ele>341.6</ele><time>2026-04-11T13:57:17Z</time></trkpt><trkpt lat="45.78805659278311" lon="3.118576903777998"><ele>342.0</ele><time>2026-04-11T13:57:19Z</time></trkpt><trkpt lat="45.78800399332547" lon="3.1186323879931837"><ele>342.0</ele><time>2026-04-11T13:57:20Z</time></trkpt><trkpt lat="45.78794187342453" lon="3.1187782012029075"><ele>342.0</ele><time>2026-04-11T13:57:22Z</time></trkpt><trkpt lat="45.787857092868656" lon="3.118912588724662"><ele>342.0</ele><time>2026-04-11T13:57:24Z</time></trkpt><trkpt lat="45.7878153042038" lon="3.1189892288483154"><ele>342.0</ele><time>2026-04-11T13:57:25Z</time></trkpt><trkpt lat="45.78770388078881" lon="3.1191179706288104"><ele>342.3333333333333</ele><time>2026-04-11T13:57:28Z</time></trkpt><trkpt lat="45.787641512217846" lon="3.1192201743202475"><ele>342.6666666666667</ele><time>2026-04-11T13:57:29Z</time></trkpt><trkpt lat="45.78757124815821" lon="3.119279661578932"><ele>343.0</ele><time>2026-04-11T13:57:30Z</time></trkpt><trkpt lat="45.78750211706126" lon="3.119329911248435"><ele>343.33333333333337</ele><time>2026-04-11T13:57:32Z</time></trkpt><trkpt lat="45.787444501083776" lon="3.119373583611228"><ele>343.6666666666667</ele><time>2026-04-11T13:57:36Z</time></trkpt><trkpt lat="45.78736520706143" lon="3.1194492389700677"><ele>344.0</ele><time>2026-04-11T13:57:48.999Z</time></trkpt><trkpt lat="45.78729611394324" lon="3.119516237205925"><ele>344.0</ele><time>2026-04-11T13:57:50.999Z</time></trkpt><trkpt lat="45.787209949942124" lon="3.1195833259389505"><ele>344.0</ele><time>2026-04-11T13:57:52.999Z</time></trkpt><trkpt lat="45.787109788477395" lon="3.119649607517755"><ele>344.0</ele><time>2026-04-11T13:57:54.999Z</time></trkpt><trkpt lat="45.78699190562933" lon="3.1196746570846035"><ele>344.0</ele><time>2026-04-11T13:57:56.999Z</time></trkpt><trkpt lat="45.78686720770704" lon="3.119686859514995"><ele>343.7142857142857</ele><time>2026-04-11T13:57:58.999Z</time></trkpt><trkpt lat="45.78679858063537" lon="3.119687931678952"><ele>343.42857142857144</ele><time>2026-04-11T13:57:59.999Z</time></trkpt><trkpt lat="45.786730894556186" lon="3.1196833683321485"><ele>343.1428571428571</ele><time>2026-04-11T13:58:00.999Z</time></trkpt><trkpt lat="45.78666093577039" lon="3.1196681107597057"><ele>342.8571428571429</ele><time>2026-04-11T13:58:01.999Z</time></trkpt><trkpt lat="45.78658993691428" lon="3.11964547296295"><ele>342.57142857142856</ele><time>2026-04-11T13:58:02.999Z</time></trkpt><trkpt lat="45.7865185434912" lon="3.119621571743391"><ele>342.2857142857143</ele><time>2026-04-11T13:58:03.999Z</time></trkpt><trkpt lat="45.78644454420578" lon="3.119591144768969"><ele>342.0</ele><time>2026-04-11T13:58:04.999Z</time></trkpt><trkpt lat="45.78636862462986" lon="3.119562935122737"><ele>342.0</ele><time>2026-04-11T13:58:05.999Z</time></trkpt><trkpt lat="45.7862920332597" lon="3.1195352869135404"><ele>342.0</ele><time>2026-04-11T13:58:06.999Z</time></trkpt><trkpt lat="45.786215178242756" lon="3.119503901446703"><ele>342.0</ele><time>2026-04-11T13:58:07.999Z</time></trkpt><trkpt lat="45.786135463432316" lon="3.1194766952657713"><ele>342.0</ele><time>2026-04-11T13:58:08.999Z</time></trkpt><trkpt lat="45.78605580537566" lon="3.119449260231872"><ele>342.0</ele><time>2026-04-11T13:58:09.999Z</time></trkpt><trkpt lat="45.785976963047254" lon="3.1194185145660396"><ele>342.0</ele><time>2026-04-11T13:58:10.999Z</time></trkpt><trkpt lat="45.78589367834763" lon="3.119391229641335"><ele>341.6666666666667</ele><time>2026-04-11T13:58:11.999Z</time></trkpt><trkpt lat="45.78581344879147" lon="3.1193646036075813"><ele>341.3333333333333</ele><time>2026-04-11T13:58:12.999Z</time></trkpt><trkpt lat="45.78573272380976" lon="3.119332966750738"><ele>341.0</ele><time>2026-04-11T13:58:13.999Z</time></trkpt><trkpt lat="45.785652485994696" lon="3.1193004827037205"><ele>340.66666666666663</ele><time>2026-04-11T13:58:14.999Z</time></trkpt><trkpt lat="45.78557420951092" lon="3.1192550061941002"><ele>340.3333333333333</ele><time>2026-04-11T13:58:15.999Z</time></trkpt><trkpt lat="45.785498843909686" lon="3.1192155637733445"><ele>340.0</ele><time>2026-04-11T13:58:16.999Z</time></trkpt><trkpt lat="45.78542170041566" lon="3.1191844506258333"><ele>340.0</ele><time>2026-04-11T13:58:17.999Z</time></trkpt><trkpt lat="45.785343502200185" lon="3.1191454028555623"><ele>340.0</ele><time>2026-04-11T13:58:18.999Z</time></trkpt><trkpt lat="45.785272691231185" lon="3.119097849962489"><ele>340.0</ele><time>2026-04-11T13:58:19.999Z</time></trkpt><trkpt lat="45.78520033947357" lon="3.119053573337482"><ele>340.0</ele><time>2026-04-11T13:58:20.999Z</time></trkpt><trkpt lat="45.78512706156069" lon="3.119010741684601"><ele>340.0</ele><time>2026-04-11T13:58:21.999Z</time></trkpt><trkpt lat="45.78505623278825" lon="3.1189650694574746"><ele>340.0</ele><time>2026-04-11T13:58:22.999Z</time></trkpt><trkpt lat="45.78498714158444" lon="3.1189167896725305"><ele>339.8333333333333</ele><time>2026-04-11T13:58:23.999Z</time></trkpt><trkpt lat="45.78491125080765" lon="3.118883381366133"><ele>339.66666666666663</ele><time>2026-04-11T13:58:24.999Z</time></trkpt><trkpt lat="45.784832845657526" lon="3.1188607944622855"><ele>339.5</ele><time>2026-04-11T13:58:25.999Z</time></trkpt><trkpt lat="45.7847592483641" lon="3.118838239931045"><ele>339.3333333333333</ele><time>2026-04-11T13:58:26.999Z</time></trkpt><trkpt lat="45.784683198115815" lon="3.118810840350047"><ele>339.1666666666667</ele><time>2026-04-11T13:58:27.999Z</time></trkpt><trkpt lat="45.784606756945074" lon="3.1187827045843224"><ele>339.0</ele><time>2026-04-11T13:58:28.999Z</time></trkpt><trkpt lat="45.784531795461966" lon="3.1187564459769934"><ele>339.0</ele><time>2026-04-11T13:58:29.999Z</time></trkpt><trkpt lat="45.784456798931956" lon="3.1187281440328056"><ele>339.0</ele><time>2026-04-11T13:58:30.999Z</time></trkpt><trkpt lat="45.78438274273632" lon="3.118698357003777"><ele>339.0</ele><time>2026-04-11T13:58:31.999Z</time></trkpt><trkpt lat="45.78430628511031" lon="3.118671689931261"><ele>339.0</ele><time>2026-04-11T13:58:32.999Z</time></trkpt><trkpt lat="45.78423275771717" lon="3.1186440976680214"><ele>339.0</ele><time>2026-04-11T13:58:33.999Z</time></trkpt><trkpt lat="45.784156236801465" lon="3.118616498260225"><ele>339.0</ele><time>2026-04-11T13:58:34.999Z</time></trkpt><trkpt lat="45.784079853733914" lon="3.1185889450085313"><ele>338.8333333333333</ele><time>2026-04-11T13:58:35.999Z</time></trkpt><trkpt lat="45.78400460506703" lon="3.1185615183150057"><ele>338.6666666666667</ele><time>2026-04-11T13:58:36.999Z</time></trkpt><trkpt lat="45.783928473841804" lon="3.1185337927007346"><ele>338.5</ele><time>2026-04-11T13:58:37.999Z</time></trkpt><trkpt lat="45.78384854384093" lon="3.1185054338182017"><ele>338.33333333333337</ele><time>2026-04-11T13:58:38.999Z</time></trkpt><trkpt lat="45.78377326156992" lon="3.1184771412282983"><ele>338.1666666666667</ele><time>2026-04-11T13:58:39.999Z</time></trkpt><trkpt lat="45.78369439710428" lon="3.1184477527819703"><ele>338.0</ele><time>2026-04-11T13:58:40.999Z</time></trkpt><trkpt lat="45.78361856312197" lon="3.1184192917936038"><ele>338.0</ele><time>2026-04-11T13:58:41.999Z</time></trkpt><trkpt lat="45.78353888861593" lon="3.1183895778464747"><ele>338.0</ele><time>2026-04-11T13:58:42.999Z</time></trkpt><trkpt lat="45.78346100581752" lon="3.1183602496130365"><ele>338.0</ele><time>2026-04-11T13:58:43.999Z</time></trkpt><trkpt lat="45.783383785100625" lon="3.11833443304684"><ele>338.0</ele><time>2026-04-11T13:58:44.999Z</time></trkpt><trkpt lat="45.7832942821292" lon="3.1183782228920762"><ele>338.0</ele><time>2026-04-11T13:58:45.999Z</time></trkpt><trkpt lat="45.7832142603085" lon="3.1183494383631998"><ele>338.0</ele><time>2026-04-11T13:58:46.999Z</time></trkpt><trkpt lat="45.78313726513704" lon="3.118321742463561"><ele>338.0</ele><time>2026-04-11T13:58:47.999Z</time></trkpt><trkpt lat="45.78305831964479" lon="3.1182901106185614"><ele>338.0</ele><time>2026-04-11T13:58:48.999Z</time></trkpt><trkpt lat="45.78298330509287" lon="3.118253061953384"><ele>338.0</ele><time>2026-04-11T13:58:49.999Z</time></trkpt><trkpt lat="45.78290697294733" lon="3.1182224347925462"><ele>338.0</ele><time>2026-04-11T13:58:50.999Z</time></trkpt><trkpt lat="45.78282930165801" lon="3.1181943276353326"><ele>338.0</ele><time>2026-04-11T13:58:51.999Z</time></trkpt><trkpt lat="45.78275285605108" lon="3.118164744787033"><ele>338.0</ele><time>2026-04-11T13:58:52.999Z</time></trkpt><trkpt lat="45.782675775364375" lon="3.118138324806522"><ele>338.0</ele><time>2026-04-11T13:58:53.999Z</time></trkpt><trkpt lat="45.782599364180705" lon="3.118112134304284"><ele>338.0</ele><time>2026-04-11T13:58:54.999Z</time></trkpt><trkpt lat="45.78252447851994" lon="3.11808646667145"><ele>338.0</ele><time>2026-04-11T13:58:55.999Z</time></trkpt><trkpt lat="45.78244742232585" lon="3.118060921307138"><ele>338.0</ele><time>2026-04-11T13:58:57Z</time></trkpt><trkpt lat="45.782374533833774" lon="3.1180377647743724"><ele>338.0</ele><time>2026-04-11T13:58:58Z</time></trkpt><trkpt lat="45.7823006172499" lon="3.118014098107828"><ele>338.0</ele><time>2026-04-11T13:58:59Z</time></trkpt><trkpt lat="45.782226593381495" lon="3.117992937677218"><ele>338.0</ele><time>2026-04-11T13:59:00Z</time></trkpt><trkpt lat="45.78215481112557" lon="3.1179731195583025"><ele>338.0</ele><time>2026-04-11T13:59:01Z</time></trkpt><trkpt lat="45.782084054114236" lon="3.1179529331261167"><ele>338.0</ele><time>2026-04-11T13:59:02Z</time></trkpt><trkpt lat="45.78202115705042" lon="3.117934989064949"><ele>338.0</ele><time>2026-04-11T13:59:03Z</time></trkpt><trkpt lat="45.781954519528036" lon="3.117915978049126"><ele>338.0</ele><time>2026-04-11T13:59:04Z</time></trkpt><trkpt lat="45.781886047167355" lon="3.117896637350283"><ele>338.0</ele><time>2026-04-11T13:59:05Z</time></trkpt><trkpt lat="45.78181958178228" lon="3.1178784185818182"><ele>338.0</ele><time>2026-04-11T13:59:06Z</time></trkpt><trkpt lat="45.78175391167033" lon="3.1178470273536"><ele>338.0</ele><time>2026-04-11T13:59:07Z</time></trkpt><trkpt lat="45.78170744969856" lon="3.117756101609243"><ele>338.0</ele><time>2026-04-11T13:59:08Z</time></trkpt><trkpt lat="45.78161552435761" lon="3.117737173696388"><ele>338.0</ele><time>2026-04-11T13:59:10Z</time></trkpt><trkpt lat="45.78157471804012" lon="3.117819262401541"><ele>338.0</ele><time>2026-04-11T13:59:12Z</time></trkpt><trkpt lat="45.78144743935491" lon="3.1177688723884183"><ele>338.0</ele><time>2026-04-11T13:59:16Z</time></trkpt><trkpt lat="45.78134547223363" lon="3.1177414367150433"><ele>338.0</ele><time>2026-04-11T13:59:18Z</time></trkpt><trkpt lat="45.78123415149475" lon="3.1176955994900446"><ele>338.0</ele><time>2026-04-11T13:59:20Z</time></trkpt><trkpt lat="45.781114125595415" lon="3.1176509134747246"><ele>338.0</ele><time>2026-04-11T13:59:22Z</time></trkpt><trkpt lat="45.78105311752339" lon="3.1176276229355184"><ele>338.0</ele><time>2026-04-11T13:59:23Z</time></trkpt><trkpt lat="45.78099057480639" lon="3.1176083265579213"><ele>338.0</ele><time>2026-04-11T13:59:24Z</time></trkpt><trkpt lat="45.780926557694684" lon="3.1175840053546624"><ele>338.0</ele><time>2026-04-11T13:59:25Z</time></trkpt><trkpt lat="45.780861879996976" lon="3.1175578335897205"><ele>338.0</ele><time>2026-04-11T13:59:26Z</time></trkpt><trkpt lat="45.780797923588445" lon="3.1175382313222464"><ele>338.0</ele><time>2026-04-11T13:59:27Z</time></trkpt><trkpt lat="45.78073380188196" lon="3.1175157635576114"><ele>338.0</ele><time>2026-04-11T13:59:28Z</time></trkpt><trkpt lat="45.780668439286394" lon="3.117492680117764"><ele>338.0</ele><time>2026-04-11T13:59:29Z</time></trkpt><trkpt lat="45.780601255260635" lon="3.1174710035470863"><ele>338.0</ele><time>2026-04-11T13:59:30Z</time></trkpt><trkpt lat="45.780536126172095" lon="3.1174561009492496"><ele>338.0</ele><time>2026-04-11T13:59:31Z</time></trkpt><trkpt lat="45.78047139004761" lon="3.117438376655114"><ele>338.0</ele><time>2026-04-11T13:59:32Z</time></trkpt><trkpt lat="45.780407175989765" lon="3.117413334502962"><ele>338.2857142857143</ele><time>2026-04-11T13:59:33Z</time></trkpt><trkpt lat="45.78034288954045" lon="3.1173946203178886"><ele>338.57142857142856</ele><time>2026-04-11T13:59:34Z</time></trkpt><trkpt lat="45.780280224566894" lon="3.1173780654157643"><ele>338.8571428571429</ele><time>2026-04-11T13:59:35Z</time></trkpt><trkpt lat="45.7802142426451" lon="3.1173638542880093"><ele>339.1428571428571</ele><time>2026-04-11T13:59:36Z</time></trkpt><trkpt lat="45.78015179822914" lon="3.117350588916505"><ele>339.4285714285714</ele><time>2026-04-11T13:59:37Z</time></trkpt><trkpt lat="45.780089087320974" lon="3.1173349005386837"><ele>339.7142857142857</ele><time>2026-04-11T13:59:38Z</time></trkpt><trkpt lat="45.780023877116705" lon="3.117318992520816"><ele>340.0</ele><time>2026-04-11T13:59:39Z</time></trkpt><trkpt lat="45.77995966912294" lon="3.1173090200885154"><ele>340.0</ele><time>2026-04-11T13:59:40Z</time></trkpt><trkpt lat="45.77989696138186" lon="3.1172913287764956"><ele>340.0</ele><time>2026-04-11T13:59:41Z</time></trkpt><trkpt lat="45.77983350095635" lon="3.1172697930513342"><ele>340.0</ele><time>2026-04-11T13:59:42Z</time></trkpt><trkpt lat="45.779712116416725" lon="3.117238507138538"><ele>340.0</ele><time>2026-04-11T13:59:44Z</time></trkpt><trkpt lat="45.779645166329246" lon="3.1172289126749813"><ele>340.0</ele><time>2026-04-11T13:59:45Z</time></trkpt><trkpt lat="45.77958138104515" lon="3.1172141961842277"><ele>340.0</ele><time>2026-04-11T13:59:46Z</time></trkpt><trkpt lat="45.77951610556195" lon="3.117196114452449"><ele>340.0</ele><time>2026-04-11T13:59:47Z</time></trkpt><trkpt lat="45.779393283667886" lon="3.1171553555660703"><ele>340.0</ele><time>2026-04-11T13:59:49Z</time></trkpt><trkpt lat="45.77926935948375" lon="3.1171452413531586"><ele>340.0</ele><time>2026-04-11T13:59:51Z</time></trkpt><trkpt lat="45.77915709591276" lon="3.1171180193833905"><ele>340.0</ele><time>2026-04-11T13:59:52.999Z</time></trkpt><trkpt lat="45.77906912018749" lon="3.1170966869500454"><ele>339.8333333333333</ele><time>2026-04-11T13:59:54.999Z</time></trkpt><trkpt lat="45.779018194013716" lon="3.116993195784159"><ele>339.66666666666663</ele><time>2026-04-11T13:59:57.999Z</time></trkpt><trkpt lat="45.77893687240093" lon="3.116948571149075"><ele>339.5</ele><time>2026-04-11T14:00:09.999Z</time></trkpt><trkpt lat="45.77889056868165" lon="3.11685424942712"><ele>339.3333333333333</ele><time>2026-04-11T14:00:11.999Z</time></trkpt><trkpt lat="45.77882578014889" lon="3.116771940214242"><ele>339.1666666666667</ele><time>2026-04-11T14:00:13.999Z</time></trkpt><trkpt lat="45.77875009761986" lon="3.116794230410524"><ele>339.0</ele><time>2026-04-11T14:00:15.999Z</time></trkpt><trkpt lat="45.77868006701306" lon="3.116808405997172"><ele>339.0</ele><time>2026-04-11T14:00:17.999Z</time></trkpt><trkpt lat="45.77859447057017" lon="3.1164833572715307"><ele>339.0</ele><time>2026-04-11T14:00:19.999Z</time></trkpt><trkpt lat="45.778500904292926" lon="3.116362270035211"><ele>339.0</ele><time>2026-04-11T14:00:21.999Z</time></trkpt><trkpt lat="45.77845399676766" lon="3.1162998712841357"><ele>339.0</ele><time>2026-04-11T14:00:22.999Z</time></trkpt><trkpt lat="45.7784020337117" lon="3.116233751081849"><ele>339.0</ele><time>2026-04-11T14:00:23.999Z</time></trkpt><trkpt lat="45.77834905823814" lon="3.1161680623765946"><ele>339.0</ele><time>2026-04-11T14:00:24.999Z</time></trkpt><trkpt lat="45.778298768739184" lon="3.116102104343467"><ele>339.0</ele><time>2026-04-11T14:00:25.999Z</time></trkpt><trkpt lat="45.77824123303819" lon="3.1160425851861704"><ele>339.0</ele><time>2026-04-11T14:00:26.999Z</time></trkpt><trkpt lat="45.77818733270772" lon="3.115968986055357"><ele>339.0</ele><time>2026-04-11T14:00:27.999Z</time></trkpt><trkpt lat="45.77813597311302" lon="3.1159004448358356"><ele>339.0</ele><time>2026-04-11T14:00:28.999Z</time></trkpt><trkpt lat="45.77808687008806" lon="3.115829267701047"><ele>339.0</ele><time>2026-04-11T14:00:29.999Z</time></trkpt><trkpt lat="45.77803750821692" lon="3.1157578496129674"><ele>339.2857142857143</ele><time>2026-04-11T14:00:30.999Z</time></trkpt><trkpt lat="45.77799527976356" lon="3.1156757314978605"><ele>339.5714285714286</ele><time>2026-04-11T14:00:31.999Z</time></trkpt><trkpt lat="45.777958327920544" lon="3.115592320429675"><ele>339.8571428571429</ele><time>2026-04-11T14:00:32.999Z</time></trkpt><trkpt lat="45.777926628966505" lon="3.1155046293708777"><ele>340.1428571428571</ele><time>2026-04-11T14:00:33.999Z</time></trkpt><trkpt lat="45.777897977167555" lon="3.115410735819232"><ele>340.42857142857144</ele><time>2026-04-11T14:00:34.999Z</time></trkpt><trkpt lat="45.77786754726331" lon="3.1153222961166884"><ele>340.7142857142857</ele><time>2026-04-11T14:00:35.999Z</time></trkpt><trkpt lat="45.77784078210834" lon="3.115231858911329"><ele>341.0</ele><time>2026-04-11T14:00:36.999Z</time></trkpt><trkpt lat="45.77780784656551" lon="3.115144941547349"><ele>341.0</ele><time>2026-04-11T14:00:37.999Z</time></trkpt><trkpt lat="45.777779021348415" lon="3.1150471636827595"><ele>341.0</ele><time>2026-04-11T14:00:38.999Z</time></trkpt><trkpt lat="45.77775244075531" lon="3.114955657643428"><ele>341.0</ele><time>2026-04-11T14:00:39.999Z</time></trkpt><trkpt lat="45.777720253967345" lon="3.114866960302919"><ele>341.0</ele><time>2026-04-11T14:00:40.999Z</time></trkpt><trkpt lat="45.77769030493477" lon="3.114776428234173"><ele>341.0</ele><time>2026-04-11T14:00:41.999Z</time></trkpt><trkpt lat="45.77765507572062" lon="3.114687124367817"><ele>341.0</ele><time>2026-04-11T14:00:42.999Z</time></trkpt><trkpt lat="45.777625469518576" lon="3.1145966111902155"><ele>341.0</ele><time>2026-04-11T14:00:43.999Z</time></trkpt><trkpt lat="45.777600032554915" lon="3.1145081725643293"><ele>341.1428571428571</ele><time>2026-04-11T14:00:44.999Z</time></trkpt><trkpt lat="45.77757162902653" lon="3.114419756326223"><ele>341.2857142857143</ele><time>2026-04-11T14:00:45.999Z</time></trkpt><trkpt lat="45.777542593345785" lon="3.114332488730532"><ele>341.42857142857144</ele><time>2026-04-11T14:00:46.999Z</time></trkpt><trkpt lat="45.77750871979049" lon="3.114244026635308"><ele>341.57142857142856</ele><time>2026-04-11T14:00:47.999Z</time></trkpt><trkpt lat="45.77748089902932" lon="3.11415982059338"><ele>341.7142857142857</ele><time>2026-04-11T14:00:48.999Z</time></trkpt><trkpt lat="45.77745534100045" lon="3.114065270573551"><ele>341.85714285714283</ele><time>2026-04-11T14:00:49.999Z</time></trkpt><trkpt lat="45.777429921320376" lon="3.113979874514641"><ele>342.0</ele><time>2026-04-11T14:00:50.999Z</time></trkpt><trkpt lat="45.77739931141934" lon="3.113890602056163"><ele>341.99999999999994</ele><time>2026-04-11T14:00:51.999Z</time></trkpt><trkpt lat="45.77737114012437" lon="3.113807322284477"><ele>342.0</ele><time>2026-04-11T14:00:52.999Z</time></trkpt><trkpt lat="45.777330900490895" lon="3.1137235063252255"><ele>342.0</ele><time>2026-04-11T14:00:53.999Z</time></trkpt><trkpt lat="45.77729399795035" lon="3.1136446178584607"><ele>342.0</ele><time>2026-04-11T14:00:54.999Z</time></trkpt><trkpt lat="45.777262633589615" lon="3.1135542002044203"><ele>342.0</ele><time>2026-04-11T14:00:55.999Z</time></trkpt><trkpt lat="45.77723579561872" lon="3.1134667590422995"><ele>341.99999999999994</ele><time>2026-04-11T14:00:56.999Z</time></trkpt><trkpt lat="45.777204694609146" lon="3.1133810984704486"><ele>342.0</ele><time>2026-04-11T14:00:57.999Z</time></trkpt><trkpt lat="45.77717462239283" lon="3.1132898786457353"><ele>341.85714285714283</ele><time>2026-04-11T14:00:58.999Z</time></trkpt><trkpt lat="45.77716186063983" lon="3.1131970101523048"><ele>341.7142857142857</ele><time>2026-04-11T14:00:59.999Z</time></trkpt><trkpt lat="45.77713755441435" lon="3.113112171441534"><ele>341.57142857142856</ele><time>2026-04-11T14:01:00.999Z</time></trkpt><trkpt lat="45.77709331287929" lon="3.1130463489814684"><ele>341.42857142857144</ele><time>2026-04-11T14:01:01.999Z</time></trkpt><trkpt lat="45.77702735905876" lon="3.112915833259861"><ele>341.2857142857143</ele><time>2026-04-11T14:01:04Z</time></trkpt><trkpt lat="45.776964931332486" lon="3.1129023737805337"><ele>341.1428571428571</ele><time>2026-04-11T14:01:05Z</time></trkpt><trkpt lat="45.77689849449838" lon="3.112920004559205"><ele>341.0</ele><time>2026-04-11T14:01:06Z</time></trkpt><trkpt lat="45.77683334298953" lon="3.1129323807298936"><ele>340.83333333333337</ele><time>2026-04-11T14:01:07Z</time></trkpt><trkpt lat="45.77676935567231" lon="3.112905286137933"><ele>340.6666666666667</ele><time>2026-04-11T14:01:08Z</time></trkpt><trkpt lat="45.77665427575936" lon="3.1128152492731584"><ele>340.5</ele><time>2026-04-11T14:01:10Z</time></trkpt><trkpt lat="45.77659129034323" lon="3.1127798878860555"><ele>340.3333333333333</ele><time>2026-04-11T14:01:11Z</time></trkpt><trkpt lat="45.776534889241695" lon="3.1127295720663692"><ele>340.16666666666663</ele><time>2026-04-11T14:01:12Z</time></trkpt><trkpt lat="45.77648254470808" lon="3.1126720972260924"><ele>340.0</ele><time>2026-04-11T14:01:13Z</time></trkpt><trkpt lat="45.77643242778113" lon="3.1126069194021175"><ele>340.0</ele><time>2026-04-11T14:01:14Z</time></trkpt><trkpt lat="45.776386102327855" lon="3.1125344674364794"><ele>340.0</ele><time>2026-04-11T14:01:15Z</time></trkpt><trkpt lat="45.77634592812106" lon="3.1124614250784264"><ele>340.0</ele><time>2026-04-11T14:01:16Z</time></trkpt><trkpt lat="45.77629707675563" lon="3.112390617840663"><ele>340.0</ele><time>2026-04-11T14:01:17Z</time></trkpt><trkpt lat="45.776252603711384" lon="3.1123218490359656"><ele>340.0</ele><time>2026-04-11T14:01:18Z</time></trkpt><trkpt lat="45.776210170453915" lon="3.112248555562318"><ele>340.0</ele><time>2026-04-11T14:01:19Z</time></trkpt><trkpt lat="45.776163316360524" lon="3.112179334447805"><ele>340.0</ele><time>2026-04-11T14:01:20Z</time></trkpt><trkpt lat="45.77611821992539" lon="3.1121072799696905"><ele>339.8571428571429</ele><time>2026-04-11T14:01:21Z</time></trkpt><trkpt lat="45.776072206485544" lon="3.1120336634021513"><ele>339.71428571428567</ele><time>2026-04-11T14:01:22Z</time></trkpt><trkpt lat="45.77602623893165" lon="3.111962871099449"><ele>339.57142857142856</ele><time>2026-04-11T14:01:23Z</time></trkpt><trkpt lat="45.775981826790684" lon="3.1118916896372197"><ele>339.42857142857144</ele><time>2026-04-11T14:01:24Z</time></trkpt><trkpt lat="45.7759334985637" lon="3.1118248394475287"><ele>339.28571428571433</ele><time>2026-04-11T14:01:25Z</time></trkpt><trkpt lat="45.77588672948951" lon="3.1117578092011833"><ele>339.1428571428571</ele><time>2026-04-11T14:01:26Z</time></trkpt><trkpt lat="45.775842695698316" lon="3.1116880204088595"><ele>339.0</ele><time>2026-04-11T14:01:27Z</time></trkpt><trkpt lat="45.775793774371344" lon="3.1116188443483987"><ele>339.3333333333333</ele><time>2026-04-11T14:01:28Z</time></trkpt><trkpt lat="45.775747797724435" lon="3.1115489805084646"><ele>339.6666666666667</ele><time>2026-04-11T14:01:29Z</time></trkpt><trkpt lat="45.77570591416841" lon="3.1114773224132373"><ele>340.0</ele><time>2026-04-11T14:01:30Z</time></trkpt><trkpt lat="45.775659815700685" lon="3.1114084108611513"><ele>340.33333333333337</ele><time>2026-04-11T14:01:31Z</time></trkpt><trkpt lat="45.77561161781518" lon="3.111342012699657"><ele>340.6666666666667</ele><time>2026-04-11T14:01:32Z</time></trkpt><trkpt lat="45.775526382973496" lon="3.1112000195170237"><ele>341.0</ele><time>2026-04-11T14:01:34Z</time></trkpt><trkpt lat="45.77549473945803" lon="3.111120374998227"><ele>341.0</ele><time>2026-04-11T14:01:35Z</time></trkpt><trkpt lat="45.77545992270189" lon="3.111044323194501"><ele>341.0</ele><time>2026-04-11T14:01:36Z</time></trkpt><trkpt lat="45.77539786708698" lon="3.1108840437115433"><ele>341.0</ele><time>2026-04-11T14:01:38Z</time></trkpt><trkpt lat="45.77537060350658" lon="3.1108001237696956"><ele>341.0</ele><time>2026-04-11T14:01:39Z</time></trkpt><trkpt lat="45.775314978929465" lon="3.11063739613325"><ele>341.0</ele><time>2026-04-11T14:01:41Z</time></trkpt><trkpt lat="45.77529385504457" lon="3.110549697315034"><ele>341.0</ele><time>2026-04-11T14:01:42Z</time></trkpt><trkpt lat="45.77524967655013" lon="3.1103786598170866"><ele>341.0</ele><time>2026-04-11T14:01:44Z</time></trkpt><trkpt lat="45.77522486522577" lon="3.110291498830894"><ele>341.0</ele><time>2026-04-11T14:01:45Z</time></trkpt><trkpt lat="45.77519557462736" lon="3.1102108016322756"><ele>341.0</ele><time>2026-04-11T14:01:46Z</time></trkpt><trkpt lat="45.775174457079146" lon="3.1101234342392834"><ele>341.0</ele><time>2026-04-11T14:01:47Z</time></trkpt><trkpt lat="45.77515177711765" lon="3.110035703526659"><ele>341.0</ele><time>2026-04-11T14:01:48Z</time></trkpt><trkpt lat="45.77512494072133" lon="3.1099502945771147"><ele>341.0</ele><time>2026-04-11T14:01:49Z</time></trkpt><trkpt lat="45.77509881021705" lon="3.1098642675495616"><ele>341.0</ele><time>2026-04-11T14:01:50Z</time></trkpt><trkpt lat="45.775073003480166" lon="3.1097776523384324"><ele>340.6666666666667</ele><time>2026-04-11T14:01:51Z</time></trkpt><trkpt lat="45.77504979641314" lon="3.1096937476289823"><ele>340.33333333333337</ele><time>2026-04-11T14:01:52Z</time></trkpt><trkpt lat="45.77502527569794" lon="3.1096080206131016"><ele>340.0</ele><time>2026-04-11T14:01:53Z</time></trkpt><trkpt lat="45.77499869791347" lon="3.1095229672940805"><ele>339.6666666666667</ele><time>2026-04-11T14:01:54Z</time></trkpt><trkpt lat="45.774971976150916" lon="3.1094409314388254"><ele>339.3333333333333</ele><time>2026-04-11T14:01:55Z</time></trkpt><trkpt lat="45.774939865105004" lon="3.109272056409046"><ele>339.0</ele><time>2026-04-11T14:01:57Z</time></trkpt><trkpt lat="45.77492429984528" lon="3.109108258321673"><ele>339.5</ele><time>2026-04-11T14:01:59Z</time></trkpt><trkpt lat="45.77486064028863" lon="3.1089597733712133"><ele>340.0</ele><time>2026-04-11T14:02:01Z</time></trkpt><trkpt lat="45.77483958437366" lon="3.1088736565437927"><ele>340.5</ele><time>2026-04-11T14:02:02Z</time></trkpt><trkpt lat="45.774789589436566" lon="3.108705656213895"><ele>341.0</ele><time>2026-04-11T14:02:04Z</time></trkpt><trkpt lat="45.77476586737902" lon="3.108619894358374"><ele>341.5</ele><time>2026-04-11T14:02:04.999Z</time></trkpt><trkpt lat="45.774742976740825" lon="3.1085333074085884"><ele>342.0</ele><time>2026-04-11T14:02:05.999Z</time></trkpt><trkpt lat="45.774714578272565" lon="3.1084478362581076"><ele>342.0</ele><time>2026-04-11T14:02:06.999Z</time></trkpt><trkpt lat="45.774687482066255" lon="3.10835726985024"><ele>342.0</ele><time>2026-04-11T14:02:07.999Z</time></trkpt><trkpt lat="45.77464226544199" lon="3.108187886271862"><ele>342.0</ele><time>2026-04-11T14:02:09.999Z</time></trkpt><trkpt lat="45.77461658306804" lon="3.1081011981204645"><ele>342.0</ele><time>2026-04-11T14:02:10.999Z</time></trkpt><trkpt lat="45.77456210605051" lon="3.1079339091292497"><ele>342.0</ele><time>2026-04-11T14:02:12.999Z</time></trkpt><trkpt lat="45.77451480574419" lon="3.1077714857618575"><ele>342.0</ele><time>2026-04-11T14:02:14.999Z</time></trkpt><trkpt lat="45.774467407646796" lon="3.1076063360242157"><ele>342.0</ele><time>2026-04-11T14:02:16.999Z</time></trkpt><trkpt lat="45.774419223598514" lon="3.1074460147340446"><ele>342.0</ele><time>2026-04-11T14:02:18.999Z</time></trkpt><trkpt lat="45.77437319698363" lon="3.1072949155453915"><ele>342.0</ele><time>2026-04-11T14:02:20.999Z</time></trkpt><trkpt lat="45.774327667603444" lon="3.1071380264358766"><ele>341.8</ele><time>2026-04-11T14:02:22.999Z</time></trkpt><trkpt lat="45.774287047740785" lon="3.1069761128416493"><ele>341.6</ele><time>2026-04-11T14:02:24.999Z</time></trkpt><trkpt lat="45.77423685564713" lon="3.106817058119471"><ele>341.40000000000003</ele><time>2026-04-11T14:02:26.999Z</time></trkpt><trkpt lat="45.774190599737246" lon="3.1066540030941674"><ele>341.20000000000005</ele><time>2026-04-11T14:02:28.999Z</time></trkpt><trkpt lat="45.77416517172949" lon="3.1065611239096484"><ele>341.0</ele><time>2026-04-11T14:02:29.999Z</time></trkpt><trkpt lat="45.77411761925244" lon="3.1063958124566184"><ele>341.5</ele><time>2026-04-11T14:02:31.999Z</time></trkpt><trkpt lat="45.7740690289609" lon="3.1062287532885575"><ele>342.0</ele><time>2026-04-11T14:02:33.999Z</time></trkpt><trkpt lat="45.77404251455849" lon="3.106144569724537"><ele>342.5</ele><time>2026-04-11T14:02:34.999Z</time></trkpt><trkpt lat="45.774017007933885" lon="3.1060599904307478"><ele>343.0</ele><time>2026-04-11T14:02:35.999Z</time></trkpt><trkpt lat="45.773990588202" lon="3.1059759756634095"><ele>343.5</ele><time>2026-04-11T14:02:36.999Z</time></trkpt><trkpt lat="45.77393906045523" lon="3.1058088468623315"><ele>344.0</ele><time>2026-04-11T14:02:38.999Z</time></trkpt><trkpt lat="45.7739127307513" lon="3.1057264025567775"><ele>344.6</ele><time>2026-04-11T14:02:39.999Z</time></trkpt><trkpt lat="45.773895600196944" lon="3.1056350119422227"><ele>345.2</ele><time>2026-04-11T14:02:40.999Z</time></trkpt><trkpt lat="45.77387723122286" lon="3.1055470667055705"><ele>345.8</ele><time>2026-04-11T14:02:41.999Z</time></trkpt><trkpt lat="45.7738195281045" lon="3.105388676805955"><ele>346.40000000000003</ele><time>2026-04-11T14:02:43.999Z</time></trkpt><trkpt lat="45.77377682354542" lon="3.1052267078324443"><ele>347.0</ele><time>2026-04-11T14:02:45.999Z</time></trkpt><trkpt lat="45.773722984999786" lon="3.1050642275433114"><ele>347.0</ele><time>2026-04-11T14:02:47.999Z</time></trkpt><trkpt lat="45.77367936805524" lon="3.1049104371167946"><ele>347.0</ele><time>2026-04-11T14:02:49.999Z</time></trkpt><trkpt lat="45.77363655091453" lon="3.10476785455524"><ele>347.0</ele><time>2026-04-11T14:02:51.999Z</time></trkpt><trkpt lat="45.77360224156849" lon="3.1046921797310585"><ele>347.0</ele><time>2026-04-11T14:02:53.999Z</time></trkpt><trkpt lat="45.77357368265333" lon="3.1045737461791623"><ele>347.0</ele><time>2026-04-11T14:02:57.999Z</time></trkpt><trkpt lat="45.773555143035104" lon="3.104481109914479"><ele>347.0</ele><time>2026-04-11T14:02:59.999Z</time></trkpt><trkpt lat="45.77351320920813" lon="3.1043766819181924"><ele>347.0</ele><time>2026-04-11T14:03:01.999Z</time></trkpt><trkpt lat="45.77346211399423" lon="3.104261019285017"><ele>347.0</ele><time>2026-04-11T14:03:03.999Z</time></trkpt><trkpt lat="45.77339903421606" lon="3.1041665915850816"><ele>347.0</ele><time>2026-04-11T14:03:05.999Z</time></trkpt><trkpt lat="45.773314766374845" lon="3.104092684017818"><ele>347.0</ele><time>2026-04-11T14:03:07.999Z</time></trkpt><trkpt lat="45.773239408738114" lon="3.1040323806075096"><ele>347.0</ele><time>2026-04-11T14:03:10Z</time></trkpt><trkpt lat="45.773160813591105" lon="3.1039767706467063"><ele>347.40000000000003</ele><time>2026-04-11T14:03:12Z</time></trkpt><trkpt lat="45.773088810828455" lon="3.10393582528054"><ele>347.8</ele><time>2026-04-11T14:03:14Z</time></trkpt><trkpt lat="45.77303025380811" lon="3.103895189473543"><ele>348.2</ele><time>2026-04-11T14:03:16Z</time></trkpt><trkpt lat="45.77297243726699" lon="3.103840485992778"><ele>348.6</ele><time>2026-04-11T14:03:23Z</time></trkpt><trkpt lat="45.772904660155845" lon="3.103779186279655"><ele>349.0</ele><time>2026-04-11T14:03:30.022Z</time></trkpt><trkpt lat="45.77314219246357" lon="3.1032164253507393"><ele>349.0</ele><time>2026-04-11T14:03:40.42Z</time></trkpt><trkpt lat="45.77335073216672" lon="3.103307430850937"><ele>349.0</ele><time>2026-04-11T14:04:25.966Z</time></trkpt><trkpt lat="45.773114317806375" lon="3.1031224913821283"><ele>352.0</ele><time>2026-04-11T14:05:12.783Z</time></trkpt></trkseg></trk></gpx>